<?xml version="1.0"?>
<gpx
 version="1.1"
 creator="Satmap Active 20"
 xmlns:xsi="http://www.w3.org/2001/XMLSchema-instance"
 xmlns="http://www.topografix.com/GPX/1/1"
 xmlns:satmap="http://www.satmap.com/updates/xmlschemas/GpxExtensions/v2/GpxExtensions_v2.xsd"
 xsi:schemaLocation="http://www.topografix.com/GPX/1/1 http://www.topografix.com/GPX/1/1/gpx.xsd">
<metadata>
<time>2024-04-13T09:19:48Z</time>
<extensions>
<satmap:platform>43</satmap:platform>
<satmap:software version="3.12.831">SM15.exe</satmap:software>
<satmap:username>Jim Grant</satmap:username>
<satmap:network_ids>
<satmap:network_id type="wifi">00-23-A7-EC-D5-78</satmap:network_id>
<satmap:network_id type="bluetooth">80-BB-EB-D7-5B-7C</satmap:network_id>
</satmap:network_ids>
<satmap:snap_type>simple</satmap:snap_type>
</extensions>
</metadata>
<trk>
<name>2024-04-13_0919</name>
<desc>Track 1</desc>
<number>1</number>
<trkseg>
<trkpt lat="53.339572" lon="-1.696199"><ele>141</ele><time>2024-04-13T09:19:48Z</time><name>PT1</name></trkpt>
<trkpt lat="53.339575" lon="-1.696216"><ele>141</ele><time>2024-04-13T09:20:03Z</time><name>PT2</name></trkpt>
<trkpt lat="53.339583" lon="-1.696239"><ele>141</ele><time>2024-04-13T09:21:30Z</time><name>PT3</name></trkpt>
<trkpt lat="53.339594" lon="-1.696254"><ele>142</ele><time>2024-04-13T09:21:33Z</time><name>PT4</name></trkpt>
<trkpt lat="53.339596" lon="-1.696255"><ele>142</ele><time>2024-04-13T09:21:39Z</time><name>PT5</name></trkpt>
<trkpt lat="53.339614" lon="-1.696277"><ele>142</ele><time>2024-04-13T09:21:42Z</time><name>PT6</name></trkpt>
<trkpt lat="53.339619" lon="-1.696281"><ele>143</ele><time>2024-04-13T09:21:45Z</time><name>PT7</name></trkpt>
<trkpt lat="53.339618" lon="-1.696283"><ele>142</ele><time>2024-04-13T09:22:01Z</time><name>PT8</name></trkpt>
<trkpt lat="53.339621" lon="-1.696270"><ele>143</ele><time>2024-04-13T09:22:06Z</time><name>PT9</name></trkpt>
<trkpt lat="53.339614" lon="-1.696260"><ele>141</ele><time>2024-04-13T09:23:07Z</time><name>PT10</name></trkpt>
<trkpt lat="53.339625" lon="-1.696298"><ele>141</ele><time>2024-04-13T09:23:12Z</time><name>PT11</name></trkpt>
<trkpt lat="53.339603" lon="-1.696329"><ele>141</ele><time>2024-04-13T09:24:15Z</time><name>PT12</name></trkpt>
<trkpt lat="53.339603" lon="-1.696297"><ele>141</ele><time>2024-04-13T09:24:58Z</time><name>PT13</name></trkpt>
<trkpt lat="53.339611" lon="-1.696279"><ele>141</ele><time>2024-04-13T09:25:03Z</time><name>PT14</name></trkpt>
<trkpt lat="53.339609" lon="-1.696261"><ele>142</ele><time>2024-04-13T09:25:30Z</time><name>PT15</name></trkpt>
<trkpt lat="53.339611" lon="-1.696219"><ele>141</ele><time>2024-04-13T09:25:34Z</time><name>PT16</name></trkpt>
<trkpt lat="53.339607" lon="-1.696138"><ele>139</ele><time>2024-04-13T09:25:39Z</time><name>PT17</name></trkpt>
<trkpt lat="53.339582" lon="-1.696053"><ele>139</ele><time>2024-04-13T09:25:42Z</time><name>PT18</name></trkpt>
<trkpt lat="53.339560" lon="-1.696034"><ele>137</ele><time>2024-04-13T09:25:45Z</time><name>PT19</name></trkpt>
<trkpt lat="53.339537" lon="-1.695991"><ele>137</ele><time>2024-04-13T09:25:48Z</time><name>PT20</name></trkpt>
<trkpt lat="53.339495" lon="-1.695938"><ele>138</ele><time>2024-04-13T09:25:52Z</time><name>PT21</name></trkpt>
<trkpt lat="53.339459" lon="-1.695889"><ele>138</ele><time>2024-04-13T09:25:57Z</time><name>PT22</name></trkpt>
<trkpt lat="53.339427" lon="-1.695854"><ele>139</ele><time>2024-04-13T09:26:00Z</time><name>PT23</name></trkpt>
<trkpt lat="53.339415" lon="-1.695840"><ele>139</ele><time>2024-04-13T09:26:03Z</time><name>PT24</name></trkpt>
<trkpt lat="53.339394" lon="-1.695835"><ele>140</ele><time>2024-04-13T09:26:06Z</time><name>PT25</name></trkpt>
<trkpt lat="53.339371" lon="-1.695807"><ele>142</ele><time>2024-04-13T09:26:09Z</time><name>PT26</name></trkpt>
<trkpt lat="53.339337" lon="-1.695781"><ele>142</ele><time>2024-04-13T09:26:13Z</time><name>PT27</name></trkpt>
<trkpt lat="53.339322" lon="-1.695754"><ele>141</ele><time>2024-04-13T09:26:16Z</time><name>PT28</name></trkpt>
<trkpt lat="53.339309" lon="-1.695713"><ele>139</ele><time>2024-04-13T09:26:21Z</time><name>PT29</name></trkpt>
<trkpt lat="53.339299" lon="-1.695687"><ele>140</ele><time>2024-04-13T09:26:24Z</time><name>PT30</name></trkpt>
<trkpt lat="53.339272" lon="-1.695660"><ele>142</ele><time>2024-04-13T09:26:28Z</time><name>PT31</name></trkpt>
<trkpt lat="53.339238" lon="-1.695631"><ele>143</ele><time>2024-04-13T09:26:33Z</time><name>PT32</name></trkpt>
<trkpt lat="53.339215" lon="-1.695618"><ele>143</ele><time>2024-04-13T09:26:36Z</time><name>PT33</name></trkpt>
<trkpt lat="53.339189" lon="-1.695601"><ele>143</ele><time>2024-04-13T09:26:39Z</time><name>PT34</name></trkpt>
<trkpt lat="53.339162" lon="-1.695581"><ele>145</ele><time>2024-04-13T09:26:42Z</time><name>PT35</name></trkpt>
<trkpt lat="53.339139" lon="-1.695557"><ele>147</ele><time>2024-04-13T09:26:45Z</time><name>PT36</name></trkpt>
<trkpt lat="53.339115" lon="-1.695549"><ele>149</ele><time>2024-04-13T09:26:48Z</time><name>PT37</name></trkpt>
<trkpt lat="53.339095" lon="-1.695547"><ele>147</ele><time>2024-04-13T09:26:52Z</time><name>PT38</name></trkpt>
<trkpt lat="53.339063" lon="-1.695518"><ele>146</ele><time>2024-04-13T09:26:57Z</time><name>PT39</name></trkpt>
<trkpt lat="53.339034" lon="-1.695501"><ele>146</ele><time>2024-04-13T09:27:00Z</time><name>PT40</name></trkpt>
<trkpt lat="53.339005" lon="-1.695468"><ele>147</ele><time>2024-04-13T09:27:03Z</time><name>PT41</name></trkpt>
<trkpt lat="53.338982" lon="-1.695426"><ele>145</ele><time>2024-04-13T09:27:07Z</time><name>PT42</name></trkpt>
<trkpt lat="53.338958" lon="-1.695403"><ele>146</ele><time>2024-04-13T09:27:10Z</time><name>PT43</name></trkpt>
<trkpt lat="53.338932" lon="-1.695378"><ele>145</ele><time>2024-04-13T09:27:13Z</time><name>PT44</name></trkpt>
<trkpt lat="53.338902" lon="-1.695343"><ele>147</ele><time>2024-04-13T09:27:18Z</time><name>PT45</name></trkpt>
<trkpt lat="53.338868" lon="-1.695310"><ele>146</ele><time>2024-04-13T09:27:21Z</time><name>PT46</name></trkpt>
<trkpt lat="53.338809" lon="-1.695261"><ele>148</ele><time>2024-04-13T09:27:24Z</time><name>PT47</name></trkpt>
<trkpt lat="53.338770" lon="-1.695226"><ele>149</ele><time>2024-04-13T09:27:27Z</time><name>PT48</name></trkpt>
<trkpt lat="53.338736" lon="-1.695173"><ele>148</ele><time>2024-04-13T09:27:31Z</time><name>PT49</name></trkpt>
<trkpt lat="53.338693" lon="-1.695128"><ele>148</ele><time>2024-04-13T09:27:36Z</time><name>PT50</name></trkpt>
<trkpt lat="53.338661" lon="-1.695062"><ele>149</ele><time>2024-04-13T09:27:39Z</time><name>PT51</name></trkpt>
<trkpt lat="53.338637" lon="-1.695000"><ele>148</ele><time>2024-04-13T09:27:43Z</time><name>PT52</name></trkpt>
<trkpt lat="53.338616" lon="-1.694970"><ele>146</ele><time>2024-04-13T09:27:48Z</time><name>PT53</name></trkpt>
<trkpt lat="53.338590" lon="-1.694914"><ele>145</ele><time>2024-04-13T09:27:51Z</time><name>PT54</name></trkpt>
<trkpt lat="53.338569" lon="-1.694881"><ele>142</ele><time>2024-04-13T09:27:55Z</time><name>PT55</name></trkpt>
<trkpt lat="53.338526" lon="-1.694792"><ele>143</ele><time>2024-04-13T09:28:00Z</time><name>PT56</name></trkpt>
<trkpt lat="53.338479" lon="-1.694714"><ele>148</ele><time>2024-04-13T09:28:03Z</time><name>PT57</name></trkpt>
<trkpt lat="53.338434" lon="-1.694679"><ele>151</ele><time>2024-04-13T09:28:07Z</time><name>PT58</name></trkpt>
<trkpt lat="53.338411" lon="-1.694639"><ele>150</ele><time>2024-04-13T09:28:10Z</time><name>PT59</name></trkpt>
<trkpt lat="53.338375" lon="-1.694557"><ele>149</ele><time>2024-04-13T09:28:15Z</time><name>PT60</name></trkpt>
<trkpt lat="53.338358" lon="-1.694516"><ele>145</ele><time>2024-04-13T09:28:18Z</time><name>PT61</name></trkpt>
<trkpt lat="53.338344" lon="-1.694485"><ele>144</ele><time>2024-04-13T09:28:21Z</time><name>PT62</name></trkpt>
<trkpt lat="53.338312" lon="-1.694454"><ele>144</ele><time>2024-04-13T09:28:25Z</time><name>PT63</name></trkpt>
<trkpt lat="53.338291" lon="-1.694429"><ele>142</ele><time>2024-04-13T09:28:28Z</time><name>PT64</name></trkpt>
<trkpt lat="53.338263" lon="-1.694405"><ele>142</ele><time>2024-04-13T09:28:33Z</time><name>PT65</name></trkpt>
<trkpt lat="53.338232" lon="-1.694369"><ele>143</ele><time>2024-04-13T09:28:36Z</time><name>PT66</name></trkpt>
<trkpt lat="53.338212" lon="-1.694358"><ele>141</ele><time>2024-04-13T09:28:39Z</time><name>PT67</name></trkpt>
<trkpt lat="53.338197" lon="-1.694338"><ele>143</ele><time>2024-04-13T09:28:43Z</time><name>PT68</name></trkpt>
<trkpt lat="53.338177" lon="-1.694290"><ele>141</ele><time>2024-04-13T09:28:51Z</time><name>PT69</name></trkpt>
<trkpt lat="53.338151" lon="-1.694230"><ele>140</ele><time>2024-04-13T09:28:54Z</time><name>PT70</name></trkpt>
<trkpt lat="53.338126" lon="-1.694199"><ele>139</ele><time>2024-04-13T09:28:57Z</time><name>PT71</name></trkpt>
<trkpt lat="53.338093" lon="-1.694126"><ele>138</ele><time>2024-04-13T09:29:00Z</time><name>PT72</name></trkpt>
<trkpt lat="53.338069" lon="-1.694097"><ele>137</ele><time>2024-04-13T09:29:04Z</time><name>PT73</name></trkpt>
<trkpt lat="53.338063" lon="-1.694078"><ele>135</ele><time>2024-04-13T09:29:12Z</time><name>PT74</name></trkpt>
<trkpt lat="53.338033" lon="-1.694036"><ele>135</ele><time>2024-04-13T09:29:15Z</time><name>PT75</name></trkpt>
<trkpt lat="53.338005" lon="-1.693991"><ele>135</ele><time>2024-04-13T09:29:19Z</time><name>PT76</name></trkpt>
<trkpt lat="53.337981" lon="-1.693964"><ele>134</ele><time>2024-04-13T09:29:24Z</time><name>PT77</name></trkpt>
<trkpt lat="53.337961" lon="-1.693952"><ele>134</ele><time>2024-04-13T09:29:27Z</time><name>PT78</name></trkpt>
<trkpt lat="53.337938" lon="-1.693941"><ele>134</ele><time>2024-04-13T09:29:30Z</time><name>PT79</name></trkpt>
<trkpt lat="53.337907" lon="-1.693890"><ele>134</ele><time>2024-04-13T09:29:33Z</time><name>PT80</name></trkpt>
<trkpt lat="53.337878" lon="-1.693847"><ele>133</ele><time>2024-04-13T09:29:37Z</time><name>PT81</name></trkpt>
<trkpt lat="53.337850" lon="-1.693828"><ele>133</ele><time>2024-04-13T09:29:42Z</time><name>PT82</name></trkpt>
<trkpt lat="53.337811" lon="-1.693797"><ele>134</ele><time>2024-04-13T09:29:45Z</time><name>PT83</name></trkpt>
<trkpt lat="53.337785" lon="-1.693766"><ele>136</ele><time>2024-04-13T09:29:48Z</time><name>PT84</name></trkpt>
<trkpt lat="53.337762" lon="-1.693738"><ele>137</ele><time>2024-04-13T09:29:51Z</time><name>PT85</name></trkpt>
<trkpt lat="53.337728" lon="-1.693693"><ele>138</ele><time>2024-04-13T09:29:54Z</time><name>PT86</name></trkpt>
<trkpt lat="53.337698" lon="-1.693649"><ele>139</ele><time>2024-04-13T09:29:57Z</time><name>PT87</name></trkpt>
<trkpt lat="53.337672" lon="-1.693628"><ele>138</ele><time>2024-04-13T09:30:01Z</time><name>PT88</name></trkpt>
<trkpt lat="53.337638" lon="-1.693600"><ele>137</ele><time>2024-04-13T09:30:06Z</time><name>PT89</name></trkpt>
<trkpt lat="53.337630" lon="-1.693594"><ele>137</ele><time>2024-04-13T09:30:09Z</time><name>PT90</name></trkpt>
<trkpt lat="53.337615" lon="-1.693585"><ele>138</ele><time>2024-04-13T09:30:12Z</time><name>PT91</name></trkpt>
<trkpt lat="53.337590" lon="-1.693545"><ele>137</ele><time>2024-04-13T09:30:15Z</time><name>PT92</name></trkpt>
<trkpt lat="53.337562" lon="-1.693498"><ele>138</ele><time>2024-04-13T09:30:18Z</time><name>PT93</name></trkpt>
<trkpt lat="53.337540" lon="-1.693417"><ele>137</ele><time>2024-04-13T09:30:22Z</time><name>PT94</name></trkpt>
<trkpt lat="53.337519" lon="-1.693373"><ele>138</ele><time>2024-04-13T09:30:25Z</time><name>PT95</name></trkpt>
<trkpt lat="53.337513" lon="-1.693316"><ele>138</ele><time>2024-04-13T09:30:28Z</time><name>PT96</name></trkpt>
<trkpt lat="53.337509" lon="-1.693307"><ele>138</ele><time>2024-04-13T09:30:33Z</time><name>PT97</name></trkpt>
<trkpt lat="53.337495" lon="-1.693261"><ele>139</ele><time>2024-04-13T09:30:36Z</time><name>PT98</name></trkpt>
<trkpt lat="53.337461" lon="-1.693188"><ele>139</ele><time>2024-04-13T09:30:39Z</time><name>PT99</name></trkpt>
<trkpt lat="53.337429" lon="-1.693128"><ele>138</ele><time>2024-04-13T09:30:43Z</time><name>PT100</name></trkpt>
<trkpt lat="53.337403" lon="-1.693084"><ele>138</ele><time>2024-04-13T09:30:46Z</time><name>PT101</name></trkpt>
<trkpt lat="53.337384" lon="-1.693056"><ele>137</ele><time>2024-04-13T09:30:49Z</time><name>PT102</name></trkpt>
<trkpt lat="53.337371" lon="-1.693038"><ele>137</ele><time>2024-04-13T09:30:54Z</time><name>PT103</name></trkpt>
<trkpt lat="53.337345" lon="-1.693012"><ele>136</ele><time>2024-04-13T09:31:01Z</time><name>PT104</name></trkpt>
<trkpt lat="53.337314" lon="-1.692980"><ele>137</ele><time>2024-04-13T09:31:04Z</time><name>PT105</name></trkpt>
<trkpt lat="53.337310" lon="-1.692952"><ele>138</ele><time>2024-04-13T09:31:09Z</time><name>PT106</name></trkpt>
<trkpt lat="53.337301" lon="-1.692913"><ele>138</ele><time>2024-04-13T09:31:12Z</time><name>PT107</name></trkpt>
<trkpt lat="53.337278" lon="-1.692881"><ele>138</ele><time>2024-04-13T09:31:15Z</time><name>PT108</name></trkpt>
<trkpt lat="53.337264" lon="-1.692857"><ele>138</ele><time>2024-04-13T09:31:19Z</time><name>PT109</name></trkpt>
<trkpt lat="53.337239" lon="-1.692871"><ele>138</ele><time>2024-04-13T09:31:22Z</time><name>PT110</name></trkpt>
<trkpt lat="53.337221" lon="-1.692846"><ele>139</ele><time>2024-04-13T09:31:25Z</time><name>PT111</name></trkpt>
<trkpt lat="53.337206" lon="-1.692816"><ele>140</ele><time>2024-04-13T09:31:30Z</time><name>PT112</name></trkpt>
<trkpt lat="53.337185" lon="-1.692778"><ele>142</ele><time>2024-04-13T09:31:33Z</time><name>PT113</name></trkpt>
<trkpt lat="53.337171" lon="-1.692739"><ele>143</ele><time>2024-04-13T09:31:36Z</time><name>PT114</name></trkpt>
<trkpt lat="53.337155" lon="-1.692713"><ele>144</ele><time>2024-04-13T09:31:39Z</time><name>PT115</name></trkpt>
<trkpt lat="53.337144" lon="-1.692700"><ele>144</ele><time>2024-04-13T09:31:42Z</time><name>PT116</name></trkpt>
<trkpt lat="53.337125" lon="-1.692699"><ele>143</ele><time>2024-04-13T09:31:45Z</time><name>PT117</name></trkpt>
<trkpt lat="53.337106" lon="-1.692702"><ele>143</ele><time>2024-04-13T09:31:48Z</time><name>PT118</name></trkpt>
<trkpt lat="53.337072" lon="-1.692669"><ele>142</ele><time>2024-04-13T09:31:52Z</time><name>PT119</name></trkpt>
<trkpt lat="53.337052" lon="-1.692645"><ele>143</ele><time>2024-04-13T09:31:55Z</time><name>PT120</name></trkpt>
<trkpt lat="53.337027" lon="-1.692622"><ele>143</ele><time>2024-04-13T09:31:58Z</time><name>PT121</name></trkpt>
<trkpt lat="53.336997" lon="-1.692590"><ele>145</ele><time>2024-04-13T09:32:01Z</time><name>PT122</name></trkpt>
<trkpt lat="53.336975" lon="-1.692563"><ele>147</ele><time>2024-04-13T09:32:04Z</time><name>PT123</name></trkpt>
<trkpt lat="53.336956" lon="-1.692529"><ele>147</ele><time>2024-04-13T09:32:09Z</time><name>PT124</name></trkpt>
<trkpt lat="53.336930" lon="-1.692485"><ele>148</ele><time>2024-04-13T09:32:12Z</time><name>PT125</name></trkpt>
<trkpt lat="53.336916" lon="-1.692429"><ele>147</ele><time>2024-04-13T09:32:15Z</time><name>PT126</name></trkpt>
<trkpt lat="53.336893" lon="-1.692385"><ele>145</ele><time>2024-04-13T09:32:19Z</time><name>PT127</name></trkpt>
<trkpt lat="53.336864" lon="-1.692331"><ele>145</ele><time>2024-04-13T09:32:24Z</time><name>PT128</name></trkpt>
<trkpt lat="53.336843" lon="-1.692302"><ele>143</ele><time>2024-04-13T09:32:27Z</time><name>PT129</name></trkpt>
<trkpt lat="53.336817" lon="-1.692256"><ele>142</ele><time>2024-04-13T09:32:30Z</time><name>PT130</name></trkpt>
<trkpt lat="53.336797" lon="-1.692224"><ele>141</ele><time>2024-04-13T09:32:33Z</time><name>PT131</name></trkpt>
<trkpt lat="53.336789" lon="-1.692185"><ele>143</ele><time>2024-04-13T09:32:36Z</time><name>PT132</name></trkpt>
<trkpt lat="53.336764" lon="-1.692130"><ele>144</ele><time>2024-04-13T09:32:40Z</time><name>PT133</name></trkpt>
<trkpt lat="53.336751" lon="-1.692082"><ele>145</ele><time>2024-04-13T09:32:45Z</time><name>PT134</name></trkpt>
<trkpt lat="53.336742" lon="-1.692051"><ele>145</ele><time>2024-04-13T09:32:48Z</time><name>PT135</name></trkpt>
<trkpt lat="53.336731" lon="-1.692014"><ele>146</ele><time>2024-04-13T09:32:51Z</time><name>PT136</name></trkpt>
<trkpt lat="53.336721" lon="-1.691960"><ele>145</ele><time>2024-04-13T09:32:54Z</time><name>PT137</name></trkpt>
<trkpt lat="53.336699" lon="-1.691916"><ele>145</ele><time>2024-04-13T09:32:58Z</time><name>PT138</name></trkpt>
<trkpt lat="53.336678" lon="-1.691879"><ele>144</ele><time>2024-04-13T09:33:03Z</time><name>PT139</name></trkpt>
<trkpt lat="53.336654" lon="-1.691835"><ele>144</ele><time>2024-04-13T09:33:06Z</time><name>PT140</name></trkpt>
<trkpt lat="53.336640" lon="-1.691814"><ele>144</ele><time>2024-04-13T09:33:09Z</time><name>PT141</name></trkpt>
<trkpt lat="53.336621" lon="-1.691797"><ele>145</ele><time>2024-04-13T09:33:13Z</time><name>PT142</name></trkpt>
<trkpt lat="53.336591" lon="-1.691768"><ele>144</ele><time>2024-04-13T09:33:21Z</time><name>PT143</name></trkpt>
<trkpt lat="53.336570" lon="-1.691729"><ele>144</ele><time>2024-04-13T09:33:24Z</time><name>PT144</name></trkpt>
<trkpt lat="53.336553" lon="-1.691670"><ele>144</ele><time>2024-04-13T09:33:28Z</time><name>PT145</name></trkpt>
<trkpt lat="53.336547" lon="-1.691615"><ele>145</ele><time>2024-04-13T09:33:33Z</time><name>PT146</name></trkpt>
<trkpt lat="53.336553" lon="-1.691555"><ele>146</ele><time>2024-04-13T09:33:36Z</time><name>PT147</name></trkpt>
<trkpt lat="53.336543" lon="-1.691513"><ele>146</ele><time>2024-04-13T09:33:39Z</time><name>PT148</name></trkpt>
<trkpt lat="53.336535" lon="-1.691461"><ele>147</ele><time>2024-04-13T09:33:42Z</time><name>PT149</name></trkpt>
<trkpt lat="53.336520" lon="-1.691376"><ele>148</ele><time>2024-04-13T09:33:46Z</time><name>PT150</name></trkpt>
<trkpt lat="53.336517" lon="-1.691351"><ele>148</ele><time>2024-04-13T09:33:49Z</time><name>PT151</name></trkpt>
<trkpt lat="53.336498" lon="-1.691254"><ele>148</ele><time>2024-04-13T09:33:54Z</time><name>PT152</name></trkpt>
<trkpt lat="53.336486" lon="-1.691188"><ele>149</ele><time>2024-04-13T09:33:57Z</time><name>PT153</name></trkpt>
<trkpt lat="53.336469" lon="-1.691126"><ele>150</ele><time>2024-04-13T09:34:00Z</time><name>PT154</name></trkpt>
<trkpt lat="53.336456" lon="-1.691069"><ele>150</ele><time>2024-04-13T09:34:03Z</time><name>PT155</name></trkpt>
<trkpt lat="53.336441" lon="-1.690991"><ele>151</ele><time>2024-04-13T09:34:06Z</time><name>PT156</name></trkpt>
<trkpt lat="53.336427" lon="-1.690930"><ele>152</ele><time>2024-04-13T09:34:10Z</time><name>PT157</name></trkpt>
<trkpt lat="53.336408" lon="-1.690856"><ele>151</ele><time>2024-04-13T09:34:15Z</time><name>PT158</name></trkpt>
<trkpt lat="53.336399" lon="-1.690796"><ele>151</ele><time>2024-04-13T09:34:18Z</time><name>PT159</name></trkpt>
<trkpt lat="53.336392" lon="-1.690748"><ele>151</ele><time>2024-04-13T09:34:21Z</time><name>PT160</name></trkpt>
<trkpt lat="53.336389" lon="-1.690687"><ele>151</ele><time>2024-04-13T09:34:24Z</time><name>PT161</name></trkpt>
<trkpt lat="53.336388" lon="-1.690620"><ele>149</ele><time>2024-04-13T09:34:28Z</time><name>PT162</name></trkpt>
<trkpt lat="53.336378" lon="-1.690559"><ele>149</ele><time>2024-04-13T09:34:31Z</time><name>PT163</name></trkpt>
<trkpt lat="53.336372" lon="-1.690504"><ele>148</ele><time>2024-04-13T09:34:34Z</time><name>PT164</name></trkpt>
<trkpt lat="53.336358" lon="-1.690429"><ele>148</ele><time>2024-04-13T09:34:39Z</time><name>PT165</name></trkpt>
<trkpt lat="53.336351" lon="-1.690366"><ele>147</ele><time>2024-04-13T09:34:42Z</time><name>PT166</name></trkpt>
<trkpt lat="53.336350" lon="-1.690303"><ele>147</ele><time>2024-04-13T09:34:45Z</time><name>PT167</name></trkpt>
<trkpt lat="53.336346" lon="-1.690274"><ele>147</ele><time>2024-04-13T09:34:48Z</time><name>PT168</name></trkpt>
<trkpt lat="53.336344" lon="-1.690227"><ele>147</ele><time>2024-04-13T09:34:52Z</time><name>PT169</name></trkpt>
<trkpt lat="53.336327" lon="-1.690148"><ele>146</ele><time>2024-04-13T09:34:57Z</time><name>PT170</name></trkpt>
<trkpt lat="53.336309" lon="-1.690051"><ele>144</ele><time>2024-04-13T09:35:00Z</time><name>PT171</name></trkpt>
<trkpt lat="53.336303" lon="-1.689991"><ele>143</ele><time>2024-04-13T09:35:03Z</time><name>PT172</name></trkpt>
<trkpt lat="53.336300" lon="-1.689919"><ele>143</ele><time>2024-04-13T09:35:06Z</time><name>PT173</name></trkpt>
<trkpt lat="53.336286" lon="-1.689822"><ele>143</ele><time>2024-04-13T09:35:10Z</time><name>PT174</name></trkpt>
<trkpt lat="53.336274" lon="-1.689738"><ele>144</ele><time>2024-04-13T09:35:15Z</time><name>PT175</name></trkpt>
<trkpt lat="53.336263" lon="-1.689680"><ele>143</ele><time>2024-04-13T09:35:18Z</time><name>PT176</name></trkpt>
<trkpt lat="53.336240" lon="-1.689603"><ele>143</ele><time>2024-04-13T09:35:21Z</time><name>PT177</name></trkpt>
<trkpt lat="53.336228" lon="-1.689518"><ele>143</ele><time>2024-04-13T09:35:25Z</time><name>PT178</name></trkpt>
<trkpt lat="53.336216" lon="-1.689455"><ele>143</ele><time>2024-04-13T09:35:28Z</time><name>PT179</name></trkpt>
<trkpt lat="53.336204" lon="-1.689371"><ele>143</ele><time>2024-04-13T09:35:33Z</time><name>PT180</name></trkpt>
<trkpt lat="53.336193" lon="-1.689303"><ele>142</ele><time>2024-04-13T09:35:36Z</time><name>PT181</name></trkpt>
<trkpt lat="53.336177" lon="-1.689207"><ele>143</ele><time>2024-04-13T09:35:39Z</time><name>PT182</name></trkpt>
<trkpt lat="53.336157" lon="-1.689132"><ele>143</ele><time>2024-04-13T09:35:42Z</time><name>PT183</name></trkpt>
<trkpt lat="53.336140" lon="-1.689050"><ele>144</ele><time>2024-04-13T09:35:46Z</time><name>PT184</name></trkpt>
<trkpt lat="53.336126" lon="-1.688990"><ele>144</ele><time>2024-04-13T09:35:49Z</time><name>PT185</name></trkpt>
<trkpt lat="53.336113" lon="-1.688936"><ele>144</ele><time>2024-04-13T09:35:52Z</time><name>PT186</name></trkpt>
<trkpt lat="53.336103" lon="-1.688879"><ele>144</ele><time>2024-04-13T09:35:55Z</time><name>PT187</name></trkpt>
<trkpt lat="53.336084" lon="-1.688791"><ele>145</ele><time>2024-04-13T09:36:00Z</time><name>PT188</name></trkpt>
<trkpt lat="53.336069" lon="-1.688728"><ele>145</ele><time>2024-04-13T09:36:03Z</time><name>PT189</name></trkpt>
<trkpt lat="53.336057" lon="-1.688665"><ele>145</ele><time>2024-04-13T09:36:06Z</time><name>PT190</name></trkpt>
<trkpt lat="53.336043" lon="-1.688606"><ele>145</ele><time>2024-04-13T09:36:09Z</time><name>PT191</name></trkpt>
<trkpt lat="53.336025" lon="-1.688533"><ele>145</ele><time>2024-04-13T09:36:12Z</time><name>PT192</name></trkpt>
<trkpt lat="53.336007" lon="-1.688443"><ele>145</ele><time>2024-04-13T09:36:16Z</time><name>PT193</name></trkpt>
<trkpt lat="53.335991" lon="-1.688377"><ele>144</ele><time>2024-04-13T09:36:19Z</time><name>PT194</name></trkpt>
<trkpt lat="53.335976" lon="-1.688299"><ele>144</ele><time>2024-04-13T09:36:24Z</time><name>PT195</name></trkpt>
<trkpt lat="53.335961" lon="-1.688207"><ele>144</ele><time>2024-04-13T09:36:27Z</time><name>PT196</name></trkpt>
<trkpt lat="53.335951" lon="-1.688132"><ele>145</ele><time>2024-04-13T09:36:31Z</time><name>PT197</name></trkpt>
<trkpt lat="53.335938" lon="-1.688080"><ele>144</ele><time>2024-04-13T09:36:34Z</time><name>PT198</name></trkpt>
<trkpt lat="53.335925" lon="-1.688002"><ele>143</ele><time>2024-04-13T09:36:39Z</time><name>PT199</name></trkpt>
<trkpt lat="53.335913" lon="-1.687950"><ele>143</ele><time>2024-04-13T09:36:42Z</time><name>PT200</name></trkpt>
<trkpt lat="53.335893" lon="-1.687867"><ele>143</ele><time>2024-04-13T09:36:45Z</time><name>PT201</name></trkpt>
<trkpt lat="53.335880" lon="-1.687807"><ele>142</ele><time>2024-04-13T09:36:48Z</time><name>PT202</name></trkpt>
<trkpt lat="53.335857" lon="-1.687729"><ele>142</ele><time>2024-04-13T09:36:52Z</time><name>PT203</name></trkpt>
<trkpt lat="53.335840" lon="-1.687651"><ele>143</ele><time>2024-04-13T09:36:55Z</time><name>PT204</name></trkpt>
<trkpt lat="53.335829" lon="-1.687600"><ele>142</ele><time>2024-04-13T09:36:58Z</time><name>PT205</name></trkpt>
<trkpt lat="53.335812" lon="-1.687523"><ele>142</ele><time>2024-04-13T09:37:03Z</time><name>PT206</name></trkpt>
<trkpt lat="53.335813" lon="-1.687460"><ele>143</ele><time>2024-04-13T09:37:06Z</time><name>PT207</name></trkpt>
<trkpt lat="53.335803" lon="-1.687410"><ele>142</ele><time>2024-04-13T09:37:10Z</time><name>PT208</name></trkpt>
<trkpt lat="53.335786" lon="-1.687372"><ele>141</ele><time>2024-04-13T09:37:15Z</time><name>PT209</name></trkpt>
<trkpt lat="53.335784" lon="-1.687345"><ele>142</ele><time>2024-04-13T09:37:18Z</time><name>PT210</name></trkpt>
<trkpt lat="53.335753" lon="-1.687277"><ele>142</ele><time>2024-04-13T09:37:21Z</time><name>PT211</name></trkpt>
<trkpt lat="53.335724" lon="-1.687244"><ele>143</ele><time>2024-04-13T09:37:24Z</time><name>PT212</name></trkpt>
<trkpt lat="53.335681" lon="-1.687171"><ele>145</ele><time>2024-04-13T09:37:28Z</time><name>PT213</name></trkpt>
<trkpt lat="53.335672" lon="-1.687146"><ele>146</ele><time>2024-04-13T09:37:33Z</time><name>PT214</name></trkpt>
<trkpt lat="53.335636" lon="-1.687091"><ele>146</ele><time>2024-04-13T09:37:36Z</time><name>PT215</name></trkpt>
<trkpt lat="53.335612" lon="-1.687053"><ele>145</ele><time>2024-04-13T09:37:39Z</time><name>PT216</name></trkpt>
<trkpt lat="53.335583" lon="-1.686989"><ele>145</ele><time>2024-04-13T09:37:43Z</time><name>PT217</name></trkpt>
<trkpt lat="53.335566" lon="-1.686941"><ele>145</ele><time>2024-04-13T09:37:46Z</time><name>PT218</name></trkpt>
<trkpt lat="53.335557" lon="-1.686891"><ele>144</ele><time>2024-04-13T09:37:49Z</time><name>PT219</name></trkpt>
<trkpt lat="53.335543" lon="-1.686816"><ele>144</ele><time>2024-04-13T09:37:54Z</time><name>PT220</name></trkpt>
<trkpt lat="53.335532" lon="-1.686759"><ele>144</ele><time>2024-04-13T09:37:57Z</time><name>PT221</name></trkpt>
<trkpt lat="53.335523" lon="-1.686684"><ele>144</ele><time>2024-04-13T09:38:00Z</time><name>PT222</name></trkpt>
<trkpt lat="53.335514" lon="-1.686621"><ele>144</ele><time>2024-04-13T09:38:03Z</time><name>PT223</name></trkpt>
<trkpt lat="53.335504" lon="-1.686572"><ele>144</ele><time>2024-04-13T09:38:06Z</time><name>PT224</name></trkpt>
<trkpt lat="53.335500" lon="-1.686484"><ele>143</ele><time>2024-04-13T09:38:10Z</time><name>PT225</name></trkpt>
<trkpt lat="53.335488" lon="-1.686391"><ele>144</ele><time>2024-04-13T09:38:15Z</time><name>PT226</name></trkpt>
<trkpt lat="53.335476" lon="-1.686311"><ele>144</ele><time>2024-04-13T09:38:18Z</time><name>PT227</name></trkpt>
<trkpt lat="53.335467" lon="-1.686227"><ele>144</ele><time>2024-04-13T09:38:22Z</time><name>PT228</name></trkpt>
<trkpt lat="53.335463" lon="-1.686168"><ele>144</ele><time>2024-04-13T09:38:25Z</time><name>PT229</name></trkpt>
<trkpt lat="53.335457" lon="-1.686077"><ele>144</ele><time>2024-04-13T09:38:30Z</time><name>PT230</name></trkpt>
<trkpt lat="53.335450" lon="-1.686012"><ele>144</ele><time>2024-04-13T09:38:33Z</time><name>PT231</name></trkpt>
<trkpt lat="53.335441" lon="-1.685923"><ele>144</ele><time>2024-04-13T09:38:36Z</time><name>PT232</name></trkpt>
<trkpt lat="53.335436" lon="-1.685859"><ele>144</ele><time>2024-04-13T09:38:39Z</time><name>PT233</name></trkpt>
<trkpt lat="53.335429" lon="-1.685793"><ele>142</ele><time>2024-04-13T09:38:43Z</time><name>PT234</name></trkpt>
<trkpt lat="53.335425" lon="-1.685716"><ele>142</ele><time>2024-04-13T09:38:48Z</time><name>PT235</name></trkpt>
<trkpt lat="53.335419" lon="-1.685638"><ele>142</ele><time>2024-04-13T09:38:51Z</time><name>PT236</name></trkpt>
<trkpt lat="53.335408" lon="-1.685546"><ele>143</ele><time>2024-04-13T09:38:55Z</time><name>PT237</name></trkpt>
<trkpt lat="53.335383" lon="-1.685495"><ele>142</ele><time>2024-04-13T09:38:58Z</time><name>PT238</name></trkpt>
<trkpt lat="53.335378" lon="-1.685429"><ele>143</ele><time>2024-04-13T09:39:01Z</time><name>PT239</name></trkpt>
<trkpt lat="53.335373" lon="-1.685367"><ele>143</ele><time>2024-04-13T09:39:04Z</time><name>PT240</name></trkpt>
<trkpt lat="53.335369" lon="-1.685302"><ele>142</ele><time>2024-04-13T09:39:09Z</time><name>PT241</name></trkpt>
<trkpt lat="53.335360" lon="-1.685220"><ele>142</ele><time>2024-04-13T09:39:12Z</time><name>PT242</name></trkpt>
<trkpt lat="53.335345" lon="-1.685158"><ele>142</ele><time>2024-04-13T09:39:15Z</time><name>PT243</name></trkpt>
<trkpt lat="53.335343" lon="-1.685074"><ele>143</ele><time>2024-04-13T09:39:19Z</time><name>PT244</name></trkpt>
<trkpt lat="53.335336" lon="-1.685024"><ele>143</ele><time>2024-04-13T09:39:22Z</time><name>PT245</name></trkpt>
<trkpt lat="53.335329" lon="-1.684979"><ele>142</ele><time>2024-04-13T09:39:25Z</time><name>PT246</name></trkpt>
<trkpt lat="53.335323" lon="-1.684903"><ele>142</ele><time>2024-04-13T09:39:30Z</time><name>PT247</name></trkpt>
<trkpt lat="53.335323" lon="-1.684840"><ele>143</ele><time>2024-04-13T09:39:33Z</time><name>PT248</name></trkpt>
<trkpt lat="53.335322" lon="-1.684835"><ele>143</ele><time>2024-04-13T09:39:37Z</time><name>PT249</name></trkpt>
<trkpt lat="53.335320" lon="-1.684830"><ele>143</ele><time>2024-04-13T09:39:42Z</time><name>PT250</name></trkpt>
<trkpt lat="53.335321" lon="-1.684789"><ele>143</ele><time>2024-04-13T09:39:48Z</time><name>PT251</name></trkpt>
<trkpt lat="53.335312" lon="-1.684733"><ele>142</ele><time>2024-04-13T09:39:51Z</time><name>PT252</name></trkpt>
<trkpt lat="53.335301" lon="-1.684662"><ele>142</ele><time>2024-04-13T09:39:54Z</time><name>PT253</name></trkpt>
<trkpt lat="53.335290" lon="-1.684595"><ele>141</ele><time>2024-04-13T09:39:57Z</time><name>PT254</name></trkpt>
<trkpt lat="53.335278" lon="-1.684508"><ele>141</ele><time>2024-04-13T09:40:00Z</time><name>PT255</name></trkpt>
<trkpt lat="53.335279" lon="-1.684429"><ele>142</ele><time>2024-04-13T09:40:04Z</time><name>PT256</name></trkpt>
<trkpt lat="53.335280" lon="-1.684401"><ele>143</ele><time>2024-04-13T09:40:07Z</time><name>PT257</name></trkpt>
<trkpt lat="53.335280" lon="-1.684393"><ele>144</ele><time>2024-04-13T09:40:12Z</time><name>PT258</name></trkpt>
<trkpt lat="53.335282" lon="-1.684359"><ele>144</ele><time>2024-04-13T09:40:22Z</time><name>PT259</name></trkpt>
<trkpt lat="53.335279" lon="-1.684300"><ele>144</ele><time>2024-04-13T09:40:25Z</time><name>PT260</name></trkpt>
<trkpt lat="53.335274" lon="-1.684214"><ele>145</ele><time>2024-04-13T09:40:30Z</time><name>PT261</name></trkpt>
<trkpt lat="53.335268" lon="-1.684164"><ele>145</ele><time>2024-04-13T09:40:33Z</time><name>PT262</name></trkpt>
<trkpt lat="53.335268" lon="-1.684109"><ele>145</ele><time>2024-04-13T09:40:36Z</time><name>PT263</name></trkpt>
<trkpt lat="53.335256" lon="-1.684062"><ele>145</ele><time>2024-04-13T09:40:39Z</time><name>PT264</name></trkpt>
<trkpt lat="53.335241" lon="-1.684009"><ele>144</ele><time>2024-04-13T09:40:42Z</time><name>PT265</name></trkpt>
<trkpt lat="53.335221" lon="-1.683934"><ele>144</ele><time>2024-04-13T09:40:45Z</time><name>PT266</name></trkpt>
<trkpt lat="53.335202" lon="-1.683869"><ele>144</ele><time>2024-04-13T09:40:48Z</time><name>PT267</name></trkpt>
<trkpt lat="53.335184" lon="-1.683826"><ele>144</ele><time>2024-04-13T09:40:51Z</time><name>PT268</name></trkpt>
<trkpt lat="53.335174" lon="-1.683755"><ele>143</ele><time>2024-04-13T09:40:54Z</time><name>PT269</name></trkpt>
<trkpt lat="53.335160" lon="-1.683685"><ele>143</ele><time>2024-04-13T09:40:57Z</time><name>PT270</name></trkpt>
<trkpt lat="53.335141" lon="-1.683617"><ele>143</ele><time>2024-04-13T09:41:02Z</time><name>PT271</name></trkpt>
<trkpt lat="53.335127" lon="-1.683558"><ele>143</ele><time>2024-04-13T09:41:05Z</time><name>PT272</name></trkpt>
<trkpt lat="53.335095" lon="-1.683446"><ele>145</ele><time>2024-04-13T09:41:08Z</time><name>PT273</name></trkpt>
<trkpt lat="53.335081" lon="-1.683397"><ele>144</ele><time>2024-04-13T09:41:11Z</time><name>PT274</name></trkpt>
<trkpt lat="53.335058" lon="-1.683335"><ele>144</ele><time>2024-04-13T09:41:14Z</time><name>PT275</name></trkpt>
<trkpt lat="53.335020" lon="-1.683260"><ele>145</ele><time>2024-04-13T09:41:18Z</time><name>PT276</name></trkpt>
<trkpt lat="53.334992" lon="-1.683193"><ele>145</ele><time>2024-04-13T09:41:23Z</time><name>PT277</name></trkpt>
<trkpt lat="53.334970" lon="-1.683143"><ele>146</ele><time>2024-04-13T09:41:26Z</time><name>PT278</name></trkpt>
<trkpt lat="53.334941" lon="-1.683069"><ele>145</ele><time>2024-04-13T09:41:29Z</time><name>PT279</name></trkpt>
<trkpt lat="53.334921" lon="-1.683015"><ele>145</ele><time>2024-04-13T09:41:32Z</time><name>PT280</name></trkpt>
<trkpt lat="53.334889" lon="-1.682944"><ele>146</ele><time>2024-04-13T09:41:36Z</time><name>PT281</name></trkpt>
<trkpt lat="53.334870" lon="-1.682880"><ele>147</ele><time>2024-04-13T09:41:41Z</time><name>PT282</name></trkpt>
<trkpt lat="53.334850" lon="-1.682834"><ele>147</ele><time>2024-04-13T09:41:44Z</time><name>PT283</name></trkpt>
<trkpt lat="53.334818" lon="-1.682759"><ele>146</ele><time>2024-04-13T09:41:47Z</time><name>PT284</name></trkpt>
<trkpt lat="53.334796" lon="-1.682689"><ele>145</ele><time>2024-04-13T09:41:51Z</time><name>PT285</name></trkpt>
<trkpt lat="53.334773" lon="-1.682610"><ele>145</ele><time>2024-04-13T09:41:56Z</time><name>PT286</name></trkpt>
<trkpt lat="53.334746" lon="-1.682538"><ele>145</ele><time>2024-04-13T09:41:59Z</time><name>PT287</name></trkpt>
<trkpt lat="53.334730" lon="-1.682492"><ele>144</ele><time>2024-04-13T09:42:02Z</time><name>PT288</name></trkpt>
<trkpt lat="53.334704" lon="-1.682417"><ele>144</ele><time>2024-04-13T09:42:06Z</time><name>PT289</name></trkpt>
<trkpt lat="53.334676" lon="-1.682351"><ele>144</ele><time>2024-04-13T09:42:11Z</time><name>PT290</name></trkpt>
<trkpt lat="53.334661" lon="-1.682294"><ele>145</ele><time>2024-04-13T09:42:14Z</time><name>PT291</name></trkpt>
<trkpt lat="53.334636" lon="-1.682234"><ele>144</ele><time>2024-04-13T09:42:17Z</time><name>PT292</name></trkpt>
<trkpt lat="53.334612" lon="-1.682156"><ele>144</ele><time>2024-04-13T09:42:21Z</time><name>PT293</name></trkpt>
<trkpt lat="53.334597" lon="-1.682114"><ele>144</ele><time>2024-04-13T09:42:24Z</time><name>PT294</name></trkpt>
<trkpt lat="53.334574" lon="-1.682057"><ele>143</ele><time>2024-04-13T09:42:29Z</time><name>PT295</name></trkpt>
<trkpt lat="53.334549" lon="-1.681979"><ele>142</ele><time>2024-04-13T09:42:32Z</time><name>PT296</name></trkpt>
<trkpt lat="53.334526" lon="-1.681922"><ele>143</ele><time>2024-04-13T09:42:36Z</time><name>PT297</name></trkpt>
<trkpt lat="53.334521" lon="-1.681891"><ele>144</ele><time>2024-04-13T09:42:39Z</time><name>PT298</name></trkpt>
<trkpt lat="53.334495" lon="-1.681825"><ele>144</ele><time>2024-04-13T09:42:44Z</time><name>PT299</name></trkpt>
<trkpt lat="53.334471" lon="-1.681781"><ele>143</ele><time>2024-04-13T09:42:47Z</time><name>PT300</name></trkpt>
<trkpt lat="53.334447" lon="-1.681740"><ele>142</ele><time>2024-04-13T09:42:50Z</time><name>PT301</name></trkpt>
<trkpt lat="53.334409" lon="-1.681687"><ele>142</ele><time>2024-04-13T09:42:53Z</time><name>PT302</name></trkpt>
<trkpt lat="53.334368" lon="-1.681621"><ele>142</ele><time>2024-04-13T09:42:57Z</time><name>PT303</name></trkpt>
<trkpt lat="53.334346" lon="-1.681556"><ele>141</ele><time>2024-04-13T09:43:00Z</time><name>PT304</name></trkpt>
<trkpt lat="53.334305" lon="-1.681495"><ele>142</ele><time>2024-04-13T09:43:05Z</time><name>PT305</name></trkpt>
<trkpt lat="53.334256" lon="-1.681424"><ele>142</ele><time>2024-04-13T09:43:08Z</time><name>PT306</name></trkpt>
<trkpt lat="53.334211" lon="-1.681363"><ele>142</ele><time>2024-04-13T09:43:12Z</time><name>PT307</name></trkpt>
<trkpt lat="53.334166" lon="-1.681295"><ele>141</ele><time>2024-04-13T09:43:17Z</time><name>PT308</name></trkpt>
<trkpt lat="53.334132" lon="-1.681243"><ele>142</ele><time>2024-04-13T09:43:20Z</time><name>PT309</name></trkpt>
<trkpt lat="53.334097" lon="-1.681195"><ele>142</ele><time>2024-04-13T09:43:23Z</time><name>PT310</name></trkpt>
<trkpt lat="53.334070" lon="-1.681165"><ele>141</ele><time>2024-04-13T09:43:26Z</time><name>PT311</name></trkpt>
<trkpt lat="53.334030" lon="-1.681100"><ele>141</ele><time>2024-04-13T09:43:30Z</time><name>PT312</name></trkpt>
<trkpt lat="53.333995" lon="-1.681055"><ele>141</ele><time>2024-04-13T09:43:33Z</time><name>PT313</name></trkpt>
<trkpt lat="53.333966" lon="-1.681009"><ele>141</ele><time>2024-04-13T09:43:36Z</time><name>PT314</name></trkpt>
<trkpt lat="53.333932" lon="-1.680976"><ele>139</ele><time>2024-04-13T09:43:41Z</time><name>PT315</name></trkpt>
<trkpt lat="53.333896" lon="-1.680936"><ele>139</ele><time>2024-04-13T09:43:44Z</time><name>PT316</name></trkpt>
<trkpt lat="53.333865" lon="-1.680896"><ele>139</ele><time>2024-04-13T09:43:47Z</time><name>PT317</name></trkpt>
<trkpt lat="53.333824" lon="-1.680864"><ele>138</ele><time>2024-04-13T09:43:50Z</time><name>PT318</name></trkpt>
<trkpt lat="53.333776" lon="-1.680801"><ele>139</ele><time>2024-04-13T09:43:54Z</time><name>PT319</name></trkpt>
<trkpt lat="53.333733" lon="-1.680747"><ele>138</ele><time>2024-04-13T09:43:59Z</time><name>PT320</name></trkpt>
<trkpt lat="53.333701" lon="-1.680705"><ele>138</ele><time>2024-04-13T09:44:02Z</time><name>PT321</name></trkpt>
<trkpt lat="53.333663" lon="-1.680671"><ele>140</ele><time>2024-04-13T09:44:05Z</time><name>PT322</name></trkpt>
<trkpt lat="53.333632" lon="-1.680639"><ele>139</ele><time>2024-04-13T09:44:08Z</time><name>PT323</name></trkpt>
<trkpt lat="53.333584" lon="-1.680578"><ele>139</ele><time>2024-04-13T09:44:11Z</time><name>PT324</name></trkpt>
<trkpt lat="53.333532" lon="-1.680527"><ele>139</ele><time>2024-04-13T09:44:15Z</time><name>PT325</name></trkpt>
<trkpt lat="53.333497" lon="-1.680488"><ele>139</ele><time>2024-04-13T09:44:18Z</time><name>PT326</name></trkpt>
<trkpt lat="53.333463" lon="-1.680440"><ele>140</ele><time>2024-04-13T09:44:21Z</time><name>PT327</name></trkpt>
<trkpt lat="53.333416" lon="-1.680398"><ele>139</ele><time>2024-04-13T09:44:26Z</time><name>PT328</name></trkpt>
<trkpt lat="53.333381" lon="-1.680362"><ele>140</ele><time>2024-04-13T09:44:29Z</time><name>PT329</name></trkpt>
<trkpt lat="53.333348" lon="-1.680327"><ele>140</ele><time>2024-04-13T09:44:32Z</time><name>PT330</name></trkpt>
<trkpt lat="53.333300" lon="-1.680291"><ele>139</ele><time>2024-04-13T09:44:35Z</time><name>PT331</name></trkpt>
<trkpt lat="53.333247" lon="-1.680250"><ele>139</ele><time>2024-04-13T09:44:39Z</time><name>PT332</name></trkpt>
<trkpt lat="53.333200" lon="-1.680228"><ele>139</ele><time>2024-04-13T09:44:44Z</time><name>PT333</name></trkpt>
<trkpt lat="53.333163" lon="-1.680204"><ele>139</ele><time>2024-04-13T09:44:47Z</time><name>PT334</name></trkpt>
<trkpt lat="53.333119" lon="-1.680177"><ele>139</ele><time>2024-04-13T09:44:50Z</time><name>PT335</name></trkpt>
<trkpt lat="53.333066" lon="-1.680145"><ele>139</ele><time>2024-04-13T09:44:54Z</time><name>PT336</name></trkpt>
<trkpt lat="53.333023" lon="-1.680115"><ele>140</ele><time>2024-04-13T09:44:57Z</time><name>PT337</name></trkpt>
<trkpt lat="53.332971" lon="-1.680093"><ele>140</ele><time>2024-04-13T09:45:02Z</time><name>PT338</name></trkpt>
<trkpt lat="53.332910" lon="-1.680075"><ele>141</ele><time>2024-04-13T09:45:05Z</time><name>PT339</name></trkpt>
<trkpt lat="53.332867" lon="-1.680061"><ele>141</ele><time>2024-04-13T09:45:08Z</time><name>PT340</name></trkpt>
<trkpt lat="53.332810" lon="-1.680042"><ele>141</ele><time>2024-04-13T09:45:12Z</time><name>PT341</name></trkpt>
<trkpt lat="53.332752" lon="-1.680028"><ele>142</ele><time>2024-04-13T09:45:17Z</time><name>PT342</name></trkpt>
<trkpt lat="53.332706" lon="-1.680027"><ele>142</ele><time>2024-04-13T09:45:20Z</time><name>PT343</name></trkpt>
<trkpt lat="53.332664" lon="-1.680020"><ele>142</ele><time>2024-04-13T09:45:23Z</time><name>PT344</name></trkpt>
<trkpt lat="53.332609" lon="-1.680024"><ele>143</ele><time>2024-04-13T09:45:26Z</time><name>PT345</name></trkpt>
<trkpt lat="53.332563" lon="-1.680029"><ele>144</ele><time>2024-04-13T09:45:29Z</time><name>PT346</name></trkpt>
<trkpt lat="53.332522" lon="-1.680031"><ele>145</ele><time>2024-04-13T09:45:32Z</time><name>PT347</name></trkpt>
<trkpt lat="53.332467" lon="-1.680027"><ele>144</ele><time>2024-04-13T09:45:36Z</time><name>PT348</name></trkpt>
<trkpt lat="53.332430" lon="-1.680038"><ele>144</ele><time>2024-04-13T09:45:39Z</time><name>PT349</name></trkpt>
<trkpt lat="53.332376" lon="-1.680045"><ele>143</ele><time>2024-04-13T09:45:44Z</time><name>PT350</name></trkpt>
<trkpt lat="53.332339" lon="-1.680058"><ele>143</ele><time>2024-04-13T09:45:47Z</time><name>PT351</name></trkpt>
<trkpt lat="53.332307" lon="-1.680064"><ele>143</ele><time>2024-04-13T09:45:50Z</time><name>PT352</name></trkpt>
<trkpt lat="53.332274" lon="-1.680065"><ele>142</ele><time>2024-04-13T09:45:53Z</time><name>PT353</name></trkpt>
<trkpt lat="53.332256" lon="-1.680069"><ele>142</ele><time>2024-04-13T09:45:56Z</time><name>PT354</name></trkpt>
<trkpt lat="53.332250" lon="-1.680069"><ele>143</ele><time>2024-04-13T09:46:00Z</time><name>PT355</name></trkpt>
<trkpt lat="53.332237" lon="-1.680078"><ele>144</ele><time>2024-04-13T09:47:26Z</time><name>PT356</name></trkpt>
<trkpt lat="53.332200" lon="-1.680105"><ele>144</ele><time>2024-04-13T09:47:29Z</time><name>PT357</name></trkpt>
<trkpt lat="53.332155" lon="-1.680140"><ele>145</ele><time>2024-04-13T09:47:32Z</time><name>PT358</name></trkpt>
<trkpt lat="53.332124" lon="-1.680162"><ele>144</ele><time>2024-04-13T09:47:35Z</time><name>PT359</name></trkpt>
<trkpt lat="53.332078" lon="-1.680183"><ele>144</ele><time>2024-04-13T09:47:39Z</time><name>PT360</name></trkpt>
<trkpt lat="53.332031" lon="-1.680197"><ele>144</ele><time>2024-04-13T09:47:44Z</time><name>PT361</name></trkpt>
<trkpt lat="53.332000" lon="-1.680207"><ele>143</ele><time>2024-04-13T09:47:47Z</time><name>PT362</name></trkpt>
<trkpt lat="53.331966" lon="-1.680218"><ele>142</ele><time>2024-04-13T09:47:50Z</time><name>PT363</name></trkpt>
<trkpt lat="53.331926" lon="-1.680239"><ele>142</ele><time>2024-04-13T09:47:53Z</time><name>PT364</name></trkpt>
<trkpt lat="53.331892" lon="-1.680247"><ele>143</ele><time>2024-04-13T09:47:56Z</time><name>PT365</name></trkpt>
<trkpt lat="53.331863" lon="-1.680258"><ele>143</ele><time>2024-04-13T09:47:59Z</time><name>PT366</name></trkpt>
<trkpt lat="53.331831" lon="-1.680273"><ele>143</ele><time>2024-04-13T09:48:02Z</time><name>PT367</name></trkpt>
<trkpt lat="53.331804" lon="-1.680274"><ele>142</ele><time>2024-04-13T09:48:05Z</time><name>PT368</name></trkpt>
<trkpt lat="53.331753" lon="-1.680277"><ele>142</ele><time>2024-04-13T09:48:09Z</time><name>PT369</name></trkpt>
<trkpt lat="53.331704" lon="-1.680274"><ele>142</ele><time>2024-04-13T09:48:14Z</time><name>PT370</name></trkpt>
<trkpt lat="53.331665" lon="-1.680277"><ele>140</ele><time>2024-04-13T09:48:17Z</time><name>PT371</name></trkpt>
<trkpt lat="53.331624" lon="-1.680277"><ele>139</ele><time>2024-04-13T09:48:21Z</time><name>PT372</name></trkpt>
<trkpt lat="53.331572" lon="-1.680276"><ele>139</ele><time>2024-04-13T09:48:26Z</time><name>PT373</name></trkpt>
<trkpt lat="53.331536" lon="-1.680267"><ele>141</ele><time>2024-04-13T09:48:29Z</time><name>PT374</name></trkpt>
<trkpt lat="53.331496" lon="-1.680259"><ele>141</ele><time>2024-04-13T09:48:32Z</time><name>PT375</name></trkpt>
<trkpt lat="53.331458" lon="-1.680229"><ele>139</ele><time>2024-04-13T09:48:35Z</time><name>PT376</name></trkpt>
<trkpt lat="53.331411" lon="-1.680210"><ele>141</ele><time>2024-04-13T09:48:39Z</time><name>PT377</name></trkpt>
<trkpt lat="53.331382" lon="-1.680198"><ele>141</ele><time>2024-04-13T09:48:42Z</time><name>PT378</name></trkpt>
<trkpt lat="53.331351" lon="-1.680189"><ele>141</ele><time>2024-04-13T09:48:45Z</time><name>PT379</name></trkpt>
<trkpt lat="53.331313" lon="-1.680184"><ele>141</ele><time>2024-04-13T09:48:48Z</time><name>PT380</name></trkpt>
<trkpt lat="53.331263" lon="-1.680178"><ele>142</ele><time>2024-04-13T09:48:53Z</time><name>PT381</name></trkpt>
<trkpt lat="53.331233" lon="-1.680179"><ele>143</ele><time>2024-04-13T09:48:56Z</time><name>PT382</name></trkpt>
<trkpt lat="53.331215" lon="-1.680163"><ele>142</ele><time>2024-04-13T09:48:59Z</time><name>PT383</name></trkpt>
<trkpt lat="53.331175" lon="-1.680131"><ele>143</ele><time>2024-04-13T09:49:02Z</time><name>PT384</name></trkpt>
<trkpt lat="53.331152" lon="-1.680088"><ele>145</ele><time>2024-04-13T09:49:06Z</time><name>PT385</name></trkpt>
<trkpt lat="53.331128" lon="-1.680059"><ele>145</ele><time>2024-04-13T09:49:09Z</time><name>PT386</name></trkpt>
<trkpt lat="53.331098" lon="-1.680029"><ele>145</ele><time>2024-04-13T09:49:14Z</time><name>PT387</name></trkpt>
<trkpt lat="53.331084" lon="-1.680017"><ele>144</ele><time>2024-04-13T09:49:17Z</time><name>PT388</name></trkpt>
<trkpt lat="53.331078" lon="-1.679990"><ele>143</ele><time>2024-04-13T09:49:21Z</time><name>PT389</name></trkpt>
<trkpt lat="53.331065" lon="-1.679962"><ele>145</ele><time>2024-04-13T09:49:24Z</time><name>PT390</name></trkpt>
<trkpt lat="53.331029" lon="-1.679953"><ele>145</ele><time>2024-04-13T09:49:27Z</time><name>PT391</name></trkpt>
<trkpt lat="53.330988" lon="-1.679937"><ele>144</ele><time>2024-04-13T09:49:30Z</time><name>PT392</name></trkpt>
<trkpt lat="53.330960" lon="-1.679929"><ele>143</ele><time>2024-04-13T09:49:35Z</time><name>PT393</name></trkpt>
<trkpt lat="53.330926" lon="-1.679914"><ele>142</ele><time>2024-04-13T09:49:38Z</time><name>PT394</name></trkpt>
<trkpt lat="53.330904" lon="-1.679870"><ele>144</ele><time>2024-04-13T09:49:42Z</time><name>PT395</name></trkpt>
<trkpt lat="53.330905" lon="-1.679843"><ele>144</ele><time>2024-04-13T09:49:47Z</time><name>PT396</name></trkpt>
<trkpt lat="53.330915" lon="-1.679831"><ele>143</ele><time>2024-04-13T09:49:53Z</time><name>PT397</name></trkpt>
<trkpt lat="53.330937" lon="-1.679788"><ele>143</ele><time>2024-04-13T09:49:57Z</time><name>PT398</name></trkpt>
<trkpt lat="53.330948" lon="-1.679747"><ele>142</ele><time>2024-04-13T09:50:02Z</time><name>PT399</name></trkpt>
<trkpt lat="53.330945" lon="-1.679717"><ele>143</ele><time>2024-04-13T09:50:05Z</time><name>PT400</name></trkpt>
<trkpt lat="53.330919" lon="-1.679708"><ele>143</ele><time>2024-04-13T09:50:09Z</time><name>PT401</name></trkpt>
<trkpt lat="53.330902" lon="-1.679687"><ele>143</ele><time>2024-04-13T09:50:12Z</time><name>PT402</name></trkpt>
<trkpt lat="53.330883" lon="-1.679670"><ele>143</ele><time>2024-04-13T09:50:17Z</time><name>PT403</name></trkpt>
<trkpt lat="53.330876" lon="-1.679664"><ele>143</ele><time>2024-04-13T09:50:20Z</time><name>PT404</name></trkpt>
<trkpt lat="53.330843" lon="-1.679646"><ele>143</ele><time>2024-04-13T09:50:24Z</time><name>PT405</name></trkpt>
<trkpt lat="53.330816" lon="-1.679634"><ele>142</ele><time>2024-04-13T09:50:27Z</time><name>PT406</name></trkpt>
<trkpt lat="53.330776" lon="-1.679604"><ele>141</ele><time>2024-04-13T09:50:32Z</time><name>PT407</name></trkpt>
<trkpt lat="53.330747" lon="-1.679583"><ele>144</ele><time>2024-04-13T09:50:35Z</time><name>PT408</name></trkpt>
<trkpt lat="53.330738" lon="-1.679561"><ele>145</ele><time>2024-04-13T09:50:38Z</time><name>PT409</name></trkpt>
<trkpt lat="53.330739" lon="-1.679535"><ele>145</ele><time>2024-04-13T09:50:41Z</time><name>PT410</name></trkpt>
<trkpt lat="53.330737" lon="-1.679477"><ele>146</ele><time>2024-04-13T09:50:45Z</time><name>PT411</name></trkpt>
<trkpt lat="53.330731" lon="-1.679412"><ele>146</ele><time>2024-04-13T09:50:48Z</time><name>PT412</name></trkpt>
<trkpt lat="53.330722" lon="-1.679337"><ele>147</ele><time>2024-04-13T09:50:51Z</time><name>PT413</name></trkpt>
<trkpt lat="53.330711" lon="-1.679252"><ele>147</ele><time>2024-04-13T09:50:56Z</time><name>PT414</name></trkpt>
<trkpt lat="53.330701" lon="-1.679191"><ele>149</ele><time>2024-04-13T09:50:59Z</time><name>PT415</name></trkpt>
<trkpt lat="53.330690" lon="-1.679146"><ele>150</ele><time>2024-04-13T09:51:02Z</time><name>PT416</name></trkpt>
<trkpt lat="53.330686" lon="-1.679099"><ele>149</ele><time>2024-04-13T09:51:05Z</time><name>PT417</name></trkpt>
<trkpt lat="53.330665" lon="-1.679016"><ele>150</ele><time>2024-04-13T09:51:08Z</time><name>PT418</name></trkpt>
<trkpt lat="53.330640" lon="-1.678928"><ele>151</ele><time>2024-04-13T09:51:12Z</time><name>PT419</name></trkpt>
<trkpt lat="53.330624" lon="-1.678871"><ele>151</ele><time>2024-04-13T09:51:15Z</time><name>PT420</name></trkpt>
<trkpt lat="53.330592" lon="-1.678782"><ele>152</ele><time>2024-04-13T09:51:20Z</time><name>PT421</name></trkpt>
<trkpt lat="53.330575" lon="-1.678735"><ele>151</ele><time>2024-04-13T09:51:23Z</time><name>PT422</name></trkpt>
<trkpt lat="53.330561" lon="-1.678669"><ele>152</ele><time>2024-04-13T09:51:26Z</time><name>PT423</name></trkpt>
<trkpt lat="53.330548" lon="-1.678632"><ele>153</ele><time>2024-04-13T09:51:29Z</time><name>PT424</name></trkpt>
<trkpt lat="53.330541" lon="-1.678565"><ele>153</ele><time>2024-04-13T09:51:38Z</time><name>PT425</name></trkpt>
<trkpt lat="53.330533" lon="-1.678498"><ele>152</ele><time>2024-04-13T09:51:41Z</time><name>PT426</name></trkpt>
<trkpt lat="53.330527" lon="-1.678410"><ele>151</ele><time>2024-04-13T09:51:44Z</time><name>PT427</name></trkpt>
<trkpt lat="53.330532" lon="-1.678347"><ele>151</ele><time>2024-04-13T09:51:48Z</time><name>PT428</name></trkpt>
<trkpt lat="53.330536" lon="-1.678289"><ele>151</ele><time>2024-04-13T09:51:53Z</time><name>PT429</name></trkpt>
<trkpt lat="53.330541" lon="-1.678252"><ele>151</ele><time>2024-04-13T09:51:56Z</time><name>PT430</name></trkpt>
<trkpt lat="53.330546" lon="-1.678200"><ele>151</ele><time>2024-04-13T09:51:59Z</time><name>PT431</name></trkpt>
<trkpt lat="53.330549" lon="-1.678196"><ele>151</ele><time>2024-04-13T09:52:02Z</time><name>PT432</name></trkpt>
<trkpt lat="53.330559" lon="-1.678173"><ele>150</ele><time>2024-04-13T09:52:06Z</time><name>PT433</name></trkpt>
<trkpt lat="53.330564" lon="-1.678160"><ele>150</ele><time>2024-04-13T09:52:11Z</time><name>PT434</name></trkpt>
<trkpt lat="53.330573" lon="-1.678102"><ele>149</ele><time>2024-04-13T09:52:14Z</time><name>PT435</name></trkpt>
<trkpt lat="53.330569" lon="-1.678074"><ele>148</ele><time>2024-04-13T09:52:17Z</time><name>PT436</name></trkpt>
<trkpt lat="53.330569" lon="-1.678036"><ele>146</ele><time>2024-04-13T09:52:20Z</time><name>PT437</name></trkpt>
<trkpt lat="53.330574" lon="-1.677993"><ele>144</ele><time>2024-04-13T09:52:24Z</time><name>PT438</name></trkpt>
<trkpt lat="53.330583" lon="-1.677925"><ele>145</ele><time>2024-04-13T09:52:27Z</time><name>PT439</name></trkpt>
<trkpt lat="53.330602" lon="-1.677906"><ele>146</ele><time>2024-04-13T09:52:30Z</time><name>PT440</name></trkpt>
<trkpt lat="53.330604" lon="-1.677891"><ele>146</ele><time>2024-04-13T09:52:33Z</time><name>PT441</name></trkpt>
<trkpt lat="53.330625" lon="-1.677840"><ele>143</ele><time>2024-04-13T09:52:38Z</time><name>PT442</name></trkpt>
<trkpt lat="53.330637" lon="-1.677792"><ele>141</ele><time>2024-04-13T09:52:41Z</time><name>PT443</name></trkpt>
<trkpt lat="53.330649" lon="-1.677749"><ele>140</ele><time>2024-04-13T09:52:44Z</time><name>PT444</name></trkpt>
<trkpt lat="53.330670" lon="-1.677689"><ele>140</ele><time>2024-04-13T09:52:47Z</time><name>PT445</name></trkpt>
<trkpt lat="53.330685" lon="-1.677628"><ele>138</ele><time>2024-04-13T09:52:51Z</time><name>PT446</name></trkpt>
<trkpt lat="53.330687" lon="-1.677568"><ele>138</ele><time>2024-04-13T09:52:54Z</time><name>PT447</name></trkpt>
<trkpt lat="53.330698" lon="-1.677463"><ele>139</ele><time>2024-04-13T09:52:59Z</time><name>PT448</name></trkpt>
<trkpt lat="53.330704" lon="-1.677402"><ele>140</ele><time>2024-04-13T09:53:02Z</time><name>PT449</name></trkpt>
<trkpt lat="53.330700" lon="-1.677313"><ele>141</ele><time>2024-04-13T09:53:05Z</time><name>PT450</name></trkpt>
<trkpt lat="53.330698" lon="-1.677240"><ele>141</ele><time>2024-04-13T09:53:08Z</time><name>PT451</name></trkpt>
<trkpt lat="53.330702" lon="-1.677169"><ele>142</ele><time>2024-04-13T09:53:12Z</time><name>PT452</name></trkpt>
<trkpt lat="53.330698" lon="-1.677111"><ele>142</ele><time>2024-04-13T09:53:17Z</time><name>PT453</name></trkpt>
<trkpt lat="53.330692" lon="-1.677050"><ele>142</ele><time>2024-04-13T09:53:20Z</time><name>PT454</name></trkpt>
<trkpt lat="53.330687" lon="-1.677010"><ele>142</ele><time>2024-04-13T09:53:23Z</time><name>PT455</name></trkpt>
<trkpt lat="53.330680" lon="-1.676931"><ele>141</ele><time>2024-04-13T09:53:26Z</time><name>PT456</name></trkpt>
<trkpt lat="53.330674" lon="-1.676879"><ele>141</ele><time>2024-04-13T09:53:29Z</time><name>PT457</name></trkpt>
<trkpt lat="53.330663" lon="-1.676804"><ele>140</ele><time>2024-04-13T09:53:33Z</time><name>PT458</name></trkpt>
<trkpt lat="53.330658" lon="-1.676721"><ele>141</ele><time>2024-04-13T09:53:36Z</time><name>PT459</name></trkpt>
<trkpt lat="53.330646" lon="-1.676632"><ele>141</ele><time>2024-04-13T09:53:41Z</time><name>PT460</name></trkpt>
<trkpt lat="53.330640" lon="-1.676574"><ele>141</ele><time>2024-04-13T09:53:44Z</time><name>PT461</name></trkpt>
<trkpt lat="53.330626" lon="-1.676513"><ele>142</ele><time>2024-04-13T09:53:47Z</time><name>PT462</name></trkpt>
<trkpt lat="53.330615" lon="-1.676433"><ele>142</ele><time>2024-04-13T09:53:50Z</time><name>PT463</name></trkpt>
<trkpt lat="53.330606" lon="-1.676363"><ele>143</ele><time>2024-04-13T09:53:54Z</time><name>PT464</name></trkpt>
<trkpt lat="53.330596" lon="-1.676295"><ele>142</ele><time>2024-04-13T09:53:57Z</time><name>PT465</name></trkpt>
<trkpt lat="53.330587" lon="-1.676231"><ele>142</ele><time>2024-04-13T09:54:00Z</time><name>PT466</name></trkpt>
<trkpt lat="53.330568" lon="-1.676147"><ele>142</ele><time>2024-04-13T09:54:05Z</time><name>PT467</name></trkpt>
<trkpt lat="53.330551" lon="-1.676052"><ele>142</ele><time>2024-04-13T09:54:08Z</time><name>PT468</name></trkpt>
<trkpt lat="53.330540" lon="-1.675993"><ele>142</ele><time>2024-04-13T09:54:11Z</time><name>PT469</name></trkpt>
<trkpt lat="53.330526" lon="-1.675920"><ele>142</ele><time>2024-04-13T09:54:15Z</time><name>PT470</name></trkpt>
<trkpt lat="53.330518" lon="-1.675883"><ele>142</ele><time>2024-04-13T09:54:18Z</time><name>PT471</name></trkpt>
<trkpt lat="53.330496" lon="-1.675810"><ele>142</ele><time>2024-04-13T09:54:23Z</time><name>PT472</name></trkpt>
<trkpt lat="53.330478" lon="-1.675754"><ele>142</ele><time>2024-04-13T09:54:26Z</time><name>PT473</name></trkpt>
<trkpt lat="53.330460" lon="-1.675683"><ele>142</ele><time>2024-04-13T09:54:29Z</time><name>PT474</name></trkpt>
<trkpt lat="53.330433" lon="-1.675625"><ele>144</ele><time>2024-04-13T09:54:33Z</time><name>PT475</name></trkpt>
<trkpt lat="53.330416" lon="-1.675586"><ele>144</ele><time>2024-04-13T09:54:36Z</time><name>PT476</name></trkpt>
<trkpt lat="53.330399" lon="-1.675519"><ele>143</ele><time>2024-04-13T09:54:39Z</time><name>PT477</name></trkpt>
<trkpt lat="53.330372" lon="-1.675454"><ele>143</ele><time>2024-04-13T09:54:44Z</time><name>PT478</name></trkpt>
<trkpt lat="53.330357" lon="-1.675407"><ele>143</ele><time>2024-04-13T09:54:47Z</time><name>PT479</name></trkpt>
<trkpt lat="53.330352" lon="-1.675387"><ele>143</ele><time>2024-04-13T09:54:50Z</time><name>PT480</name></trkpt>
<trkpt lat="53.330355" lon="-1.675349"><ele>143</ele><time>2024-04-13T09:55:00Z</time><name>PT481</name></trkpt>
<trkpt lat="53.330346" lon="-1.675269"><ele>141</ele><time>2024-04-13T09:55:05Z</time><name>PT482</name></trkpt>
<trkpt lat="53.330337" lon="-1.675196"><ele>141</ele><time>2024-04-13T09:55:08Z</time><name>PT483</name></trkpt>
<trkpt lat="53.330328" lon="-1.675118"><ele>142</ele><time>2024-04-13T09:55:11Z</time><name>PT484</name></trkpt>
<trkpt lat="53.330319" lon="-1.675064"><ele>141</ele><time>2024-04-13T09:55:14Z</time><name>PT485</name></trkpt>
<trkpt lat="53.330295" lon="-1.674979"><ele>142</ele><time>2024-04-13T09:55:18Z</time><name>PT486</name></trkpt>
<trkpt lat="53.330278" lon="-1.674925"><ele>141</ele><time>2024-04-13T09:55:23Z</time><name>PT487</name></trkpt>
<trkpt lat="53.330267" lon="-1.674863"><ele>140</ele><time>2024-04-13T09:55:26Z</time><name>PT488</name></trkpt>
<trkpt lat="53.330254" lon="-1.674808"><ele>140</ele><time>2024-04-13T09:55:29Z</time><name>PT489</name></trkpt>
<trkpt lat="53.330240" lon="-1.674730"><ele>140</ele><time>2024-04-13T09:55:32Z</time><name>PT490</name></trkpt>
<trkpt lat="53.330219" lon="-1.674649"><ele>141</ele><time>2024-04-13T09:55:36Z</time><name>PT491</name></trkpt>
<trkpt lat="53.330211" lon="-1.674595"><ele>141</ele><time>2024-04-13T09:55:39Z</time><name>PT492</name></trkpt>
<trkpt lat="53.330195" lon="-1.674512"><ele>141</ele><time>2024-04-13T09:55:44Z</time><name>PT493</name></trkpt>
<trkpt lat="53.330177" lon="-1.674440"><ele>141</ele><time>2024-04-13T09:55:47Z</time><name>PT494</name></trkpt>
<trkpt lat="53.330162" lon="-1.674386"><ele>140</ele><time>2024-04-13T09:55:50Z</time><name>PT495</name></trkpt>
<trkpt lat="53.330151" lon="-1.674333"><ele>140</ele><time>2024-04-13T09:55:53Z</time><name>PT496</name></trkpt>
<trkpt lat="53.330130" lon="-1.674261"><ele>140</ele><time>2024-04-13T09:55:56Z</time><name>PT497</name></trkpt>
<trkpt lat="53.330117" lon="-1.674197"><ele>141</ele><time>2024-04-13T09:55:59Z</time><name>PT498</name></trkpt>
<trkpt lat="53.330102" lon="-1.674125"><ele>142</ele><time>2024-04-13T09:56:03Z</time><name>PT499</name></trkpt>
<trkpt lat="53.330092" lon="-1.674074"><ele>142</ele><time>2024-04-13T09:56:06Z</time><name>PT500</name></trkpt>
<trkpt lat="53.330075" lon="-1.674018"><ele>143</ele><time>2024-04-13T09:56:11Z</time><name>PT501</name></trkpt>
<trkpt lat="53.330053" lon="-1.673917"><ele>142</ele><time>2024-04-13T09:56:14Z</time><name>PT502</name></trkpt>
<trkpt lat="53.330040" lon="-1.673859"><ele>142</ele><time>2024-04-13T09:56:17Z</time><name>PT503</name></trkpt>
<trkpt lat="53.330022" lon="-1.673774"><ele>141</ele><time>2024-04-13T09:56:21Z</time><name>PT504</name></trkpt>
<trkpt lat="53.330020" lon="-1.673689"><ele>140</ele><time>2024-04-13T09:56:26Z</time><name>PT505</name></trkpt>
<trkpt lat="53.330002" lon="-1.673597"><ele>141</ele><time>2024-04-13T09:56:29Z</time><name>PT506</name></trkpt>
<trkpt lat="53.329993" lon="-1.673527"><ele>141</ele><time>2024-04-13T09:56:32Z</time><name>PT507</name></trkpt>
<trkpt lat="53.329989" lon="-1.673453"><ele>142</ele><time>2024-04-13T09:56:36Z</time><name>PT508</name></trkpt>
<trkpt lat="53.329979" lon="-1.673376"><ele>142</ele><time>2024-04-13T09:56:39Z</time><name>PT509</name></trkpt>
<trkpt lat="53.329969" lon="-1.673307"><ele>142</ele><time>2024-04-13T09:56:44Z</time><name>PT510</name></trkpt>
<trkpt lat="53.329958" lon="-1.673237"><ele>143</ele><time>2024-04-13T09:56:47Z</time><name>PT511</name></trkpt>
<trkpt lat="53.329952" lon="-1.673182"><ele>143</ele><time>2024-04-13T09:56:50Z</time><name>PT512</name></trkpt>
<trkpt lat="53.329948" lon="-1.673106"><ele>143</ele><time>2024-04-13T09:56:54Z</time><name>PT513</name></trkpt>
<trkpt lat="53.329944" lon="-1.673035"><ele>143</ele><time>2024-04-13T09:56:57Z</time><name>PT514</name></trkpt>
<trkpt lat="53.329939" lon="-1.672923"><ele>143</ele><time>2024-04-13T09:57:02Z</time><name>PT515</name></trkpt>
<trkpt lat="53.329937" lon="-1.672853"><ele>143</ele><time>2024-04-13T09:57:05Z</time><name>PT516</name></trkpt>
<trkpt lat="53.329934" lon="-1.672772"><ele>143</ele><time>2024-04-13T09:57:08Z</time><name>PT517</name></trkpt>
<trkpt lat="53.329935" lon="-1.672717"><ele>142</ele><time>2024-04-13T09:57:11Z</time><name>PT518</name></trkpt>
<trkpt lat="53.329937" lon="-1.672657"><ele>141</ele><time>2024-04-13T09:57:15Z</time><name>PT519</name></trkpt>
<trkpt lat="53.329932" lon="-1.672606"><ele>142</ele><time>2024-04-13T09:57:20Z</time><name>PT520</name></trkpt>
<trkpt lat="53.329924" lon="-1.672563"><ele>141</ele><time>2024-04-13T09:57:23Z</time><name>PT521</name></trkpt>
<trkpt lat="53.329908" lon="-1.672486"><ele>141</ele><time>2024-04-13T09:57:26Z</time><name>PT522</name></trkpt>
<trkpt lat="53.329906" lon="-1.672442"><ele>140</ele><time>2024-04-13T09:57:29Z</time><name>PT523</name></trkpt>
<trkpt lat="53.329909" lon="-1.672390"><ele>140</ele><time>2024-04-13T09:57:32Z</time><name>PT524</name></trkpt>
<trkpt lat="53.329918" lon="-1.672331"><ele>139</ele><time>2024-04-13T09:57:35Z</time><name>PT525</name></trkpt>
<trkpt lat="53.329922" lon="-1.672248"><ele>138</ele><time>2024-04-13T09:57:39Z</time><name>PT526</name></trkpt>
<trkpt lat="53.329930" lon="-1.672180"><ele>138</ele><time>2024-04-13T09:57:42Z</time><name>PT527</name></trkpt>
<trkpt lat="53.329928" lon="-1.672114"><ele>138</ele><time>2024-04-13T09:57:45Z</time><name>PT528</name></trkpt>
<trkpt lat="53.329933" lon="-1.672043"><ele>138</ele><time>2024-04-13T09:57:50Z</time><name>PT529</name></trkpt>
<trkpt lat="53.329939" lon="-1.671985"><ele>137</ele><time>2024-04-13T09:57:53Z</time><name>PT530</name></trkpt>
<trkpt lat="53.329952" lon="-1.671912"><ele>136</ele><time>2024-04-13T09:57:56Z</time><name>PT531</name></trkpt>
<trkpt lat="53.329965" lon="-1.671831"><ele>136</ele><time>2024-04-13T09:58:00Z</time><name>PT532</name></trkpt>
<trkpt lat="53.329970" lon="-1.671767"><ele>136</ele><time>2024-04-13T09:58:03Z</time><name>PT533</name></trkpt>
<trkpt lat="53.329966" lon="-1.671686"><ele>136</ele><time>2024-04-13T09:58:08Z</time><name>PT534</name></trkpt>
<trkpt lat="53.329971" lon="-1.671617"><ele>137</ele><time>2024-04-13T09:58:11Z</time><name>PT535</name></trkpt>
<trkpt lat="53.329978" lon="-1.671550"><ele>137</ele><time>2024-04-13T09:58:14Z</time><name>PT536</name></trkpt>
<trkpt lat="53.329987" lon="-1.671484"><ele>139</ele><time>2024-04-13T09:58:17Z</time><name>PT537</name></trkpt>
<trkpt lat="53.329996" lon="-1.671418"><ele>139</ele><time>2024-04-13T09:58:20Z</time><name>PT538</name></trkpt>
<trkpt lat="53.330008" lon="-1.671370"><ele>139</ele><time>2024-04-13T09:58:23Z</time><name>PT539</name></trkpt>
<trkpt lat="53.330026" lon="-1.671292"><ele>138</ele><time>2024-04-13T09:58:27Z</time><name>PT540</name></trkpt>
<trkpt lat="53.330028" lon="-1.671241"><ele>137</ele><time>2024-04-13T09:58:30Z</time><name>PT541</name></trkpt>
<trkpt lat="53.330034" lon="-1.671227"><ele>136</ele><time>2024-04-13T09:58:35Z</time><name>PT542</name></trkpt>
<trkpt lat="53.330052" lon="-1.671183"><ele>136</ele><time>2024-04-13T09:58:38Z</time><name>PT543</name></trkpt>
<trkpt lat="53.330070" lon="-1.671125"><ele>136</ele><time>2024-04-13T09:58:41Z</time><name>PT544</name></trkpt>
<trkpt lat="53.330084" lon="-1.671066"><ele>134</ele><time>2024-04-13T09:58:45Z</time><name>PT545</name></trkpt>
<trkpt lat="53.330096" lon="-1.670994"><ele>135</ele><time>2024-04-13T09:58:48Z</time><name>PT546</name></trkpt>
<trkpt lat="53.330109" lon="-1.670913"><ele>136</ele><time>2024-04-13T09:58:53Z</time><name>PT547</name></trkpt>
<trkpt lat="53.330128" lon="-1.670841"><ele>136</ele><time>2024-04-13T09:58:56Z</time><name>PT548</name></trkpt>
<trkpt lat="53.330151" lon="-1.670734"><ele>139</ele><time>2024-04-13T09:59:00Z</time><name>PT549</name></trkpt>
<trkpt lat="53.330161" lon="-1.670680"><ele>139</ele><time>2024-04-13T09:59:03Z</time><name>PT550</name></trkpt>
<trkpt lat="53.330178" lon="-1.670609"><ele>139</ele><time>2024-04-13T09:59:08Z</time><name>PT551</name></trkpt>
<trkpt lat="53.330183" lon="-1.670568"><ele>137</ele><time>2024-04-13T09:59:11Z</time><name>PT552</name></trkpt>
<trkpt lat="53.330197" lon="-1.670538"><ele>135</ele><time>2024-04-13T09:59:14Z</time><name>PT553</name></trkpt>
<trkpt lat="53.330205" lon="-1.670508"><ele>135</ele><time>2024-04-13T09:59:18Z</time><name>PT554</name></trkpt>
<trkpt lat="53.330208" lon="-1.670472"><ele>136</ele><time>2024-04-13T09:59:21Z</time><name>PT555</name></trkpt>
<trkpt lat="53.330222" lon="-1.670419"><ele>136</ele><time>2024-04-13T09:59:26Z</time><name>PT556</name></trkpt>
<trkpt lat="53.330236" lon="-1.670374"><ele>135</ele><time>2024-04-13T09:59:29Z</time><name>PT557</name></trkpt>
<trkpt lat="53.330261" lon="-1.670301"><ele>135</ele><time>2024-04-13T09:59:32Z</time><name>PT558</name></trkpt>
<trkpt lat="53.330277" lon="-1.670272"><ele>134</ele><time>2024-04-13T09:59:35Z</time><name>PT559</name></trkpt>
<trkpt lat="53.330295" lon="-1.670184"><ele>135</ele><time>2024-04-13T09:59:39Z</time><name>PT560</name></trkpt>
<trkpt lat="53.330311" lon="-1.670102"><ele>135</ele><time>2024-04-13T09:59:44Z</time><name>PT561</name></trkpt>
<trkpt lat="53.330328" lon="-1.670031"><ele>136</ele><time>2024-04-13T09:59:47Z</time><name>PT562</name></trkpt>
<trkpt lat="53.330340" lon="-1.669982"><ele>136</ele><time>2024-04-13T09:59:50Z</time><name>PT563</name></trkpt>
<trkpt lat="53.330355" lon="-1.669898"><ele>136</ele><time>2024-04-13T09:59:54Z</time><name>PT564</name></trkpt>
<trkpt lat="53.330361" lon="-1.669820"><ele>137</ele><time>2024-04-13T09:59:59Z</time><name>PT565</name></trkpt>
<trkpt lat="53.330372" lon="-1.669744"><ele>137</ele><time>2024-04-13T10:00:02Z</time><name>PT566</name></trkpt>
<trkpt lat="53.330383" lon="-1.669663"><ele>138</ele><time>2024-04-13T10:00:06Z</time><name>PT567</name></trkpt>
<trkpt lat="53.330398" lon="-1.669611"><ele>138</ele><time>2024-04-13T10:00:09Z</time><name>PT568</name></trkpt>
<trkpt lat="53.330406" lon="-1.669559"><ele>139</ele><time>2024-04-13T10:00:12Z</time><name>PT569</name></trkpt>
<trkpt lat="53.330413" lon="-1.669503"><ele>140</ele><time>2024-04-13T10:00:15Z</time><name>PT570</name></trkpt>
<trkpt lat="53.330418" lon="-1.669450"><ele>140</ele><time>2024-04-13T10:00:18Z</time><name>PT571</name></trkpt>
<trkpt lat="53.330424" lon="-1.669375"><ele>140</ele><time>2024-04-13T10:00:23Z</time><name>PT572</name></trkpt>
<trkpt lat="53.330424" lon="-1.669296"><ele>140</ele><time>2024-04-13T10:00:26Z</time><name>PT573</name></trkpt>
<trkpt lat="53.330406" lon="-1.669204"><ele>140</ele><time>2024-04-13T10:00:30Z</time><name>PT574</name></trkpt>
<trkpt lat="53.330393" lon="-1.669140"><ele>140</ele><time>2024-04-13T10:00:35Z</time><name>PT575</name></trkpt>
<trkpt lat="53.330383" lon="-1.669059"><ele>139</ele><time>2024-04-13T10:00:38Z</time><name>PT576</name></trkpt>
<trkpt lat="53.330369" lon="-1.669002"><ele>139</ele><time>2024-04-13T10:00:42Z</time><name>PT577</name></trkpt>
<trkpt lat="53.330350" lon="-1.668943"><ele>139</ele><time>2024-04-13T10:00:45Z</time><name>PT578</name></trkpt>
<trkpt lat="53.330324" lon="-1.668872"><ele>139</ele><time>2024-04-13T10:00:50Z</time><name>PT579</name></trkpt>
<trkpt lat="53.330311" lon="-1.668826"><ele>138</ele><time>2024-04-13T10:00:53Z</time><name>PT580</name></trkpt>
<trkpt lat="53.330293" lon="-1.668771"><ele>136</ele><time>2024-04-13T10:00:56Z</time><name>PT581</name></trkpt>
<trkpt lat="53.330274" lon="-1.668719"><ele>135</ele><time>2024-04-13T10:00:59Z</time><name>PT582</name></trkpt>
<trkpt lat="53.330245" lon="-1.668669"><ele>135</ele><time>2024-04-13T10:01:03Z</time><name>PT583</name></trkpt>
<trkpt lat="53.330221" lon="-1.668635"><ele>135</ele><time>2024-04-13T10:01:06Z</time><name>PT584</name></trkpt>
<trkpt lat="53.330187" lon="-1.668580"><ele>136</ele><time>2024-04-13T10:01:11Z</time><name>PT585</name></trkpt>
<trkpt lat="53.330165" lon="-1.668566"><ele>136</ele><time>2024-04-13T10:01:14Z</time><name>PT586</name></trkpt>
<trkpt lat="53.330126" lon="-1.668510"><ele>134</ele><time>2024-04-13T10:01:17Z</time><name>PT587</name></trkpt>
<trkpt lat="53.330100" lon="-1.668474"><ele>134</ele><time>2024-04-13T10:01:20Z</time><name>PT588</name></trkpt>
<trkpt lat="53.330063" lon="-1.668409"><ele>133</ele><time>2024-04-13T10:01:24Z</time><name>PT589</name></trkpt>
<trkpt lat="53.330038" lon="-1.668371"><ele>133</ele><time>2024-04-13T10:01:27Z</time><name>PT590</name></trkpt>
<trkpt lat="53.330007" lon="-1.668339"><ele>133</ele><time>2024-04-13T10:01:32Z</time><name>PT591</name></trkpt>
<trkpt lat="53.329989" lon="-1.668310"><ele>134</ele><time>2024-04-13T10:01:35Z</time><name>PT592</name></trkpt>
<trkpt lat="53.329959" lon="-1.668268"><ele>134</ele><time>2024-04-13T10:01:38Z</time><name>PT593</name></trkpt>
<trkpt lat="53.329928" lon="-1.668217"><ele>135</ele><time>2024-04-13T10:01:42Z</time><name>PT594</name></trkpt>
<trkpt lat="53.329907" lon="-1.668195"><ele>136</ele><time>2024-04-13T10:01:45Z</time><name>PT595</name></trkpt>
<trkpt lat="53.329875" lon="-1.668162"><ele>137</ele><time>2024-04-13T10:01:50Z</time><name>PT596</name></trkpt>
<trkpt lat="53.329849" lon="-1.668125"><ele>137</ele><time>2024-04-13T10:01:53Z</time><name>PT597</name></trkpt>
<trkpt lat="53.329811" lon="-1.668074"><ele>137</ele><time>2024-04-13T10:01:56Z</time><name>PT598</name></trkpt>
<trkpt lat="53.329787" lon="-1.668037"><ele>137</ele><time>2024-04-13T10:01:59Z</time><name>PT599</name></trkpt>
<trkpt lat="53.329765" lon="-1.667993"><ele>135</ele><time>2024-04-13T10:02:03Z</time><name>PT600</name></trkpt>
<trkpt lat="53.329738" lon="-1.667949"><ele>135</ele><time>2024-04-13T10:02:06Z</time><name>PT601</name></trkpt>
<trkpt lat="53.329696" lon="-1.667892"><ele>136</ele><time>2024-04-13T10:02:11Z</time><name>PT602</name></trkpt>
<trkpt lat="53.329656" lon="-1.667836"><ele>137</ele><time>2024-04-13T10:02:14Z</time><name>PT603</name></trkpt>
<trkpt lat="53.329621" lon="-1.667794"><ele>138</ele><time>2024-04-13T10:02:18Z</time><name>PT604</name></trkpt>
<trkpt lat="53.329584" lon="-1.667753"><ele>139</ele><time>2024-04-13T10:02:23Z</time><name>PT605</name></trkpt>
<trkpt lat="53.329556" lon="-1.667722"><ele>139</ele><time>2024-04-13T10:02:26Z</time><name>PT606</name></trkpt>
<trkpt lat="53.329527" lon="-1.667689"><ele>139</ele><time>2024-04-13T10:02:29Z</time><name>PT607</name></trkpt>
<trkpt lat="53.329501" lon="-1.667643"><ele>137</ele><time>2024-04-13T10:02:32Z</time><name>PT608</name></trkpt>
<trkpt lat="53.329472" lon="-1.667610"><ele>137</ele><time>2024-04-13T10:02:36Z</time><name>PT609</name></trkpt>
<trkpt lat="53.329437" lon="-1.667556"><ele>136</ele><time>2024-04-13T10:02:41Z</time><name>PT610</name></trkpt>
<trkpt lat="53.329418" lon="-1.667517"><ele>137</ele><time>2024-04-13T10:02:44Z</time><name>PT611</name></trkpt>
<trkpt lat="53.329396" lon="-1.667501"><ele>138</ele><time>2024-04-13T10:02:47Z</time><name>PT612</name></trkpt>
<trkpt lat="53.329372" lon="-1.667454"><ele>138</ele><time>2024-04-13T10:02:51Z</time><name>PT613</name></trkpt>
<trkpt lat="53.329352" lon="-1.667413"><ele>137</ele><time>2024-04-13T10:02:56Z</time><name>PT614</name></trkpt>
<trkpt lat="53.329331" lon="-1.667382"><ele>137</ele><time>2024-04-13T10:02:59Z</time><name>PT615</name></trkpt>
<trkpt lat="53.329307" lon="-1.667345"><ele>136</ele><time>2024-04-13T10:03:02Z</time><name>PT616</name></trkpt>
<trkpt lat="53.329277" lon="-1.667303"><ele>135</ele><time>2024-04-13T10:03:05Z</time><name>PT617</name></trkpt>
<trkpt lat="53.329242" lon="-1.667253"><ele>135</ele><time>2024-04-13T10:03:09Z</time><name>PT618</name></trkpt>
<trkpt lat="53.329216" lon="-1.667222"><ele>136</ele><time>2024-04-13T10:03:12Z</time><name>PT619</name></trkpt>
<trkpt lat="53.329179" lon="-1.667172"><ele>137</ele><time>2024-04-13T10:03:17Z</time><name>PT620</name></trkpt>
<trkpt lat="53.329155" lon="-1.667131"><ele>136</ele><time>2024-04-13T10:03:20Z</time><name>PT621</name></trkpt>
<trkpt lat="53.329131" lon="-1.667104"><ele>137</ele><time>2024-04-13T10:03:23Z</time><name>PT622</name></trkpt>
<trkpt lat="53.329089" lon="-1.667083"><ele>137</ele><time>2024-04-13T10:03:26Z</time><name>PT623</name></trkpt>
<trkpt lat="53.329052" lon="-1.667053"><ele>138</ele><time>2024-04-13T10:03:29Z</time><name>PT624</name></trkpt>
<trkpt lat="53.329015" lon="-1.667005"><ele>138</ele><time>2024-04-13T10:03:33Z</time><name>PT625</name></trkpt>
<trkpt lat="53.328987" lon="-1.666969"><ele>137</ele><time>2024-04-13T10:03:36Z</time><name>PT626</name></trkpt>
<trkpt lat="53.328957" lon="-1.666933"><ele>137</ele><time>2024-04-13T10:03:39Z</time><name>PT627</name></trkpt>
<trkpt lat="53.328924" lon="-1.666882"><ele>137</ele><time>2024-04-13T10:03:44Z</time><name>PT628</name></trkpt>
<trkpt lat="53.328895" lon="-1.666831"><ele>138</ele><time>2024-04-13T10:03:47Z</time><name>PT629</name></trkpt>
<trkpt lat="53.328859" lon="-1.666800"><ele>138</ele><time>2024-04-13T10:03:51Z</time><name>PT630</name></trkpt>
<trkpt lat="53.328829" lon="-1.666750"><ele>139</ele><time>2024-04-13T10:03:56Z</time><name>PT631</name></trkpt>
<trkpt lat="53.328790" lon="-1.666699"><ele>139</ele><time>2024-04-13T10:03:59Z</time><name>PT632</name></trkpt>
<trkpt lat="53.328756" lon="-1.666665"><ele>139</ele><time>2024-04-13T10:04:02Z</time><name>PT633</name></trkpt>
<trkpt lat="53.328717" lon="-1.666623"><ele>138</ele><time>2024-04-13T10:04:06Z</time><name>PT634</name></trkpt>
<trkpt lat="53.328689" lon="-1.666575"><ele>139</ele><time>2024-04-13T10:04:11Z</time><name>PT635</name></trkpt>
<trkpt lat="53.328667" lon="-1.666544"><ele>139</ele><time>2024-04-13T10:04:14Z</time><name>PT636</name></trkpt>
<trkpt lat="53.328636" lon="-1.666512"><ele>139</ele><time>2024-04-13T10:04:17Z</time><name>PT637</name></trkpt>
<trkpt lat="53.328602" lon="-1.666467"><ele>138</ele><time>2024-04-13T10:04:20Z</time><name>PT638</name></trkpt>
<trkpt lat="53.328577" lon="-1.666428"><ele>138</ele><time>2024-04-13T10:04:23Z</time><name>PT639</name></trkpt>
<trkpt lat="53.328548" lon="-1.666376"><ele>138</ele><time>2024-04-13T10:04:27Z</time><name>PT640</name></trkpt>
<trkpt lat="53.328516" lon="-1.666347"><ele>138</ele><time>2024-04-13T10:04:30Z</time><name>PT641</name></trkpt>
<trkpt lat="53.328477" lon="-1.666310"><ele>138</ele><time>2024-04-13T10:04:35Z</time><name>PT642</name></trkpt>
<trkpt lat="53.328452" lon="-1.666284"><ele>138</ele><time>2024-04-13T10:04:38Z</time><name>PT643</name></trkpt>
<trkpt lat="53.328428" lon="-1.666257"><ele>138</ele><time>2024-04-13T10:04:41Z</time><name>PT644</name></trkpt>
<trkpt lat="53.328406" lon="-1.666242"><ele>138</ele><time>2024-04-13T10:04:44Z</time><name>PT645</name></trkpt>
<trkpt lat="53.328374" lon="-1.666203"><ele>139</ele><time>2024-04-13T10:04:47Z</time><name>PT646</name></trkpt>
<trkpt lat="53.328340" lon="-1.666160"><ele>139</ele><time>2024-04-13T10:04:51Z</time><name>PT647</name></trkpt>
<trkpt lat="53.328309" lon="-1.666126"><ele>139</ele><time>2024-04-13T10:04:54Z</time><name>PT648</name></trkpt>
<trkpt lat="53.328272" lon="-1.666077"><ele>139</ele><time>2024-04-13T10:04:59Z</time><name>PT649</name></trkpt>
<trkpt lat="53.328247" lon="-1.666047"><ele>138</ele><time>2024-04-13T10:05:02Z</time><name>PT650</name></trkpt>
<trkpt lat="53.328217" lon="-1.666016"><ele>138</ele><time>2024-04-13T10:05:05Z</time><name>PT651</name></trkpt>
<trkpt lat="53.328192" lon="-1.665992"><ele>139</ele><time>2024-04-13T10:05:08Z</time><name>PT652</name></trkpt>
<trkpt lat="53.328160" lon="-1.665952"><ele>138</ele><time>2024-04-13T10:05:11Z</time><name>PT653</name></trkpt>
<trkpt lat="53.328140" lon="-1.665919"><ele>137</ele><time>2024-04-13T10:05:14Z</time><name>PT654</name></trkpt>
<trkpt lat="53.328115" lon="-1.665887"><ele>137</ele><time>2024-04-13T10:05:17Z</time><name>PT655</name></trkpt>
<trkpt lat="53.328078" lon="-1.665840"><ele>137</ele><time>2024-04-13T10:05:21Z</time><name>PT656</name></trkpt>
<trkpt lat="53.328053" lon="-1.665798"><ele>138</ele><time>2024-04-13T10:05:24Z</time><name>PT657</name></trkpt>
<trkpt lat="53.328022" lon="-1.665750"><ele>137</ele><time>2024-04-13T10:05:29Z</time><name>PT658</name></trkpt>
<trkpt lat="53.327990" lon="-1.665716"><ele>136</ele><time>2024-04-13T10:05:32Z</time><name>PT659</name></trkpt>
<trkpt lat="53.327955" lon="-1.665680"><ele>136</ele><time>2024-04-13T10:05:35Z</time><name>PT660</name></trkpt>
<trkpt lat="53.327915" lon="-1.665637"><ele>137</ele><time>2024-04-13T10:05:38Z</time><name>PT661</name></trkpt>
<trkpt lat="53.327905" lon="-1.665614"><ele>137</ele><time>2024-04-13T10:05:41Z</time><name>PT662</name></trkpt>
<trkpt lat="53.327886" lon="-1.665590"><ele>138</ele><time>2024-04-13T10:05:45Z</time><name>PT663</name></trkpt>
<trkpt lat="53.327864" lon="-1.665546"><ele>138</ele><time>2024-04-13T10:05:50Z</time><name>PT664</name></trkpt>
<trkpt lat="53.327823" lon="-1.665496"><ele>139</ele><time>2024-04-13T10:05:53Z</time><name>PT665</name></trkpt>
<trkpt lat="53.327793" lon="-1.665443"><ele>140</ele><time>2024-04-13T10:05:57Z</time><name>PT666</name></trkpt>
<trkpt lat="53.327756" lon="-1.665381"><ele>139</ele><time>2024-04-13T10:06:02Z</time><name>PT667</name></trkpt>
<trkpt lat="53.327735" lon="-1.665331"><ele>138</ele><time>2024-04-13T10:06:05Z</time><name>PT668</name></trkpt>
<trkpt lat="53.327701" lon="-1.665275"><ele>137</ele><time>2024-04-13T10:06:08Z</time><name>PT669</name></trkpt>
<trkpt lat="53.327677" lon="-1.665234"><ele>138</ele><time>2024-04-13T10:06:11Z</time><name>PT670</name></trkpt>
<trkpt lat="53.327652" lon="-1.665182"><ele>137</ele><time>2024-04-13T10:06:15Z</time><name>PT671</name></trkpt>
<trkpt lat="53.327627" lon="-1.665143"><ele>137</ele><time>2024-04-13T10:06:18Z</time><name>PT672</name></trkpt>
<trkpt lat="53.327596" lon="-1.665095"><ele>137</ele><time>2024-04-13T10:06:21Z</time><name>PT673</name></trkpt>
<trkpt lat="53.327561" lon="-1.665045"><ele>137</ele><time>2024-04-13T10:06:24Z</time><name>PT674</name></trkpt>
<trkpt lat="53.327524" lon="-1.664989"><ele>137</ele><time>2024-04-13T10:06:29Z</time><name>PT675</name></trkpt>
<trkpt lat="53.327496" lon="-1.664956"><ele>137</ele><time>2024-04-13T10:06:32Z</time><name>PT676</name></trkpt>
<trkpt lat="53.327471" lon="-1.664917"><ele>137</ele><time>2024-04-13T10:06:35Z</time><name>PT677</name></trkpt>
<trkpt lat="53.327443" lon="-1.664870"><ele>138</ele><time>2024-04-13T10:06:38Z</time><name>PT678</name></trkpt>
<trkpt lat="53.327425" lon="-1.664822"><ele>137</ele><time>2024-04-13T10:06:42Z</time><name>PT679</name></trkpt>
<trkpt lat="53.327403" lon="-1.664789"><ele>137</ele><time>2024-04-13T10:06:45Z</time><name>PT680</name></trkpt>
<trkpt lat="53.327381" lon="-1.664755"><ele>137</ele><time>2024-04-13T10:06:48Z</time><name>PT681</name></trkpt>
<trkpt lat="53.327348" lon="-1.664702"><ele>137</ele><time>2024-04-13T10:06:53Z</time><name>PT682</name></trkpt>
<trkpt lat="53.327323" lon="-1.664653"><ele>137</ele><time>2024-04-13T10:06:56Z</time><name>PT683</name></trkpt>
<trkpt lat="53.327292" lon="-1.664592"><ele>136</ele><time>2024-04-13T10:07:00Z</time><name>PT684</name></trkpt>
<trkpt lat="53.327262" lon="-1.664546"><ele>136</ele><time>2024-04-13T10:07:05Z</time><name>PT685</name></trkpt>
<trkpt lat="53.327240" lon="-1.664519"><ele>136</ele><time>2024-04-13T10:07:08Z</time><name>PT686</name></trkpt>
<trkpt lat="53.327208" lon="-1.664485"><ele>135</ele><time>2024-04-13T10:07:11Z</time><name>PT687</name></trkpt>
<trkpt lat="53.327191" lon="-1.664452"><ele>136</ele><time>2024-04-13T10:07:14Z</time><name>PT688</name></trkpt>
<trkpt lat="53.327172" lon="-1.664411"><ele>135</ele><time>2024-04-13T10:07:17Z</time><name>PT689</name></trkpt>
<trkpt lat="53.327151" lon="-1.664371"><ele>135</ele><time>2024-04-13T10:07:20Z</time><name>PT690</name></trkpt>
<trkpt lat="53.327127" lon="-1.664317"><ele>136</ele><time>2024-04-13T10:07:24Z</time><name>PT691</name></trkpt>
<trkpt lat="53.327101" lon="-1.664269"><ele>136</ele><time>2024-04-13T10:07:27Z</time><name>PT692</name></trkpt>
<trkpt lat="53.327080" lon="-1.664237"><ele>136</ele><time>2024-04-13T10:07:30Z</time><name>PT693</name></trkpt>
<trkpt lat="53.327062" lon="-1.664192"><ele>136</ele><time>2024-04-13T10:07:35Z</time><name>PT694</name></trkpt>
<trkpt lat="53.327039" lon="-1.664160"><ele>135</ele><time>2024-04-13T10:07:38Z</time><name>PT695</name></trkpt>
<trkpt lat="53.327022" lon="-1.664112"><ele>135</ele><time>2024-04-13T10:07:41Z</time><name>PT696</name></trkpt>
<trkpt lat="53.326993" lon="-1.664070"><ele>134</ele><time>2024-04-13T10:07:44Z</time><name>PT697</name></trkpt>
<trkpt lat="53.326968" lon="-1.664031"><ele>134</ele><time>2024-04-13T10:07:47Z</time><name>PT698</name></trkpt>
<trkpt lat="53.326938" lon="-1.663992"><ele>134</ele><time>2024-04-13T10:07:51Z</time><name>PT699</name></trkpt>
<trkpt lat="53.326908" lon="-1.663938"><ele>134</ele><time>2024-04-13T10:07:56Z</time><name>PT700</name></trkpt>
<trkpt lat="53.326884" lon="-1.663915"><ele>135</ele><time>2024-04-13T10:07:59Z</time><name>PT701</name></trkpt>
<trkpt lat="53.326859" lon="-1.663881"><ele>135</ele><time>2024-04-13T10:08:02Z</time><name>PT702</name></trkpt>
<trkpt lat="53.326837" lon="-1.663858"><ele>135</ele><time>2024-04-13T10:08:05Z</time><name>PT703</name></trkpt>
<trkpt lat="53.326809" lon="-1.663824"><ele>136</ele><time>2024-04-13T10:08:09Z</time><name>PT704</name></trkpt>
<trkpt lat="53.326773" lon="-1.663791"><ele>136</ele><time>2024-04-13T10:08:14Z</time><name>PT705</name></trkpt>
<trkpt lat="53.326756" lon="-1.663751"><ele>136</ele><time>2024-04-13T10:08:17Z</time><name>PT706</name></trkpt>
<trkpt lat="53.326741" lon="-1.663696"><ele>138</ele><time>2024-04-13T10:08:20Z</time><name>PT707</name></trkpt>
<trkpt lat="53.326710" lon="-1.663632"><ele>139</ele><time>2024-04-13T10:08:24Z</time><name>PT708</name></trkpt>
<trkpt lat="53.326689" lon="-1.663589"><ele>138</ele><time>2024-04-13T10:08:27Z</time><name>PT709</name></trkpt>
<trkpt lat="53.326668" lon="-1.663542"><ele>137</ele><time>2024-04-13T10:08:30Z</time><name>PT710</name></trkpt>
<trkpt lat="53.326648" lon="-1.663487"><ele>137</ele><time>2024-04-13T10:08:35Z</time><name>PT711</name></trkpt>
<trkpt lat="53.326614" lon="-1.663435"><ele>136</ele><time>2024-04-13T10:08:38Z</time><name>PT712</name></trkpt>
<trkpt lat="53.326594" lon="-1.663399"><ele>137</ele><time>2024-04-13T10:08:42Z</time><name>PT713</name></trkpt>
<trkpt lat="53.326573" lon="-1.663351"><ele>137</ele><time>2024-04-13T10:08:47Z</time><name>PT714</name></trkpt>
<trkpt lat="53.326547" lon="-1.663284"><ele>136</ele><time>2024-04-13T10:08:50Z</time><name>PT715</name></trkpt>
<trkpt lat="53.326531" lon="-1.663244"><ele>136</ele><time>2024-04-13T10:08:53Z</time><name>PT716</name></trkpt>
<trkpt lat="53.326519" lon="-1.663203"><ele>135</ele><time>2024-04-13T10:08:56Z</time><name>PT717</name></trkpt>
<trkpt lat="53.326502" lon="-1.663147"><ele>135</ele><time>2024-04-13T10:09:00Z</time><name>PT718</name></trkpt>
<trkpt lat="53.326495" lon="-1.663098"><ele>135</ele><time>2024-04-13T10:09:03Z</time><name>PT719</name></trkpt>
<trkpt lat="53.326482" lon="-1.663061"><ele>135</ele><time>2024-04-13T10:09:06Z</time><name>PT720</name></trkpt>
<trkpt lat="53.326448" lon="-1.662989"><ele>135</ele><time>2024-04-13T10:09:11Z</time><name>PT721</name></trkpt>
<trkpt lat="53.326431" lon="-1.662941"><ele>135</ele><time>2024-04-13T10:09:14Z</time><name>PT722</name></trkpt>
<trkpt lat="53.326415" lon="-1.662883"><ele>135</ele><time>2024-04-13T10:09:17Z</time><name>PT723</name></trkpt>
<trkpt lat="53.326398" lon="-1.662834"><ele>135</ele><time>2024-04-13T10:09:20Z</time><name>PT724</name></trkpt>
<trkpt lat="53.326379" lon="-1.662785"><ele>136</ele><time>2024-04-13T10:09:24Z</time><name>PT725</name></trkpt>
<trkpt lat="53.326359" lon="-1.662726"><ele>136</ele><time>2024-04-13T10:09:29Z</time><name>PT726</name></trkpt>
<trkpt lat="53.326346" lon="-1.662686"><ele>136</ele><time>2024-04-13T10:09:32Z</time><name>PT727</name></trkpt>
<trkpt lat="53.326332" lon="-1.662623"><ele>136</ele><time>2024-04-13T10:09:35Z</time><name>PT728</name></trkpt>
<trkpt lat="53.326318" lon="-1.662576"><ele>135</ele><time>2024-04-13T10:09:38Z</time><name>PT729</name></trkpt>
<trkpt lat="53.326304" lon="-1.662515"><ele>134</ele><time>2024-04-13T10:09:42Z</time><name>PT730</name></trkpt>
<trkpt lat="53.326296" lon="-1.662466"><ele>135</ele><time>2024-04-13T10:09:45Z</time><name>PT731</name></trkpt>
<trkpt lat="53.326285" lon="-1.662406"><ele>135</ele><time>2024-04-13T10:09:50Z</time><name>PT732</name></trkpt>
<trkpt lat="53.326271" lon="-1.662358"><ele>134</ele><time>2024-04-13T10:09:53Z</time><name>PT733</name></trkpt>
<trkpt lat="53.326251" lon="-1.662312"><ele>134</ele><time>2024-04-13T10:09:56Z</time><name>PT734</name></trkpt>
<trkpt lat="53.326226" lon="-1.662232"><ele>134</ele><time>2024-04-13T10:10:00Z</time><name>PT735</name></trkpt>
<trkpt lat="53.326208" lon="-1.662196"><ele>135</ele><time>2024-04-13T10:10:03Z</time><name>PT736</name></trkpt>
<trkpt lat="53.326185" lon="-1.662142"><ele>135</ele><time>2024-04-13T10:10:06Z</time><name>PT737</name></trkpt>
<trkpt lat="53.326171" lon="-1.662106"><ele>135</ele><time>2024-04-13T10:10:09Z</time><name>PT738</name></trkpt>
<trkpt lat="53.326152" lon="-1.662059"><ele>134</ele><time>2024-04-13T10:10:14Z</time><name>PT739</name></trkpt>
<trkpt lat="53.326128" lon="-1.662024"><ele>135</ele><time>2024-04-13T10:10:17Z</time><name>PT740</name></trkpt>
<trkpt lat="53.326082" lon="-1.661987"><ele>136</ele><time>2024-04-13T10:10:20Z</time><name>PT741</name></trkpt>
<trkpt lat="53.326046" lon="-1.661976"><ele>134</ele><time>2024-04-13T10:10:24Z</time><name>PT742</name></trkpt>
<trkpt lat="53.326010" lon="-1.661976"><ele>134</ele><time>2024-04-13T10:10:29Z</time><name>PT743</name></trkpt>
<trkpt lat="53.325960" lon="-1.661989"><ele>134</ele><time>2024-04-13T10:10:32Z</time><name>PT744</name></trkpt>
<trkpt lat="53.325912" lon="-1.662005"><ele>134</ele><time>2024-04-13T10:10:36Z</time><name>PT745</name></trkpt>
<trkpt lat="53.325875" lon="-1.662006"><ele>134</ele><time>2024-04-13T10:10:39Z</time><name>PT746</name></trkpt>
<trkpt lat="53.325841" lon="-1.662015"><ele>134</ele><time>2024-04-13T10:10:42Z</time><name>PT747</name></trkpt>
<trkpt lat="53.325793" lon="-1.662013"><ele>134</ele><time>2024-04-13T10:10:47Z</time><name>PT748</name></trkpt>
<trkpt lat="53.325784" lon="-1.662029"><ele>134</ele><time>2024-04-13T10:10:50Z</time><name>PT749</name></trkpt>
<trkpt lat="53.325748" lon="-1.662034"><ele>134</ele><time>2024-04-13T10:10:53Z</time><name>PT750</name></trkpt>
<trkpt lat="53.325703" lon="-1.662033"><ele>132</ele><time>2024-04-13T10:10:57Z</time><name>PT751</name></trkpt>
<trkpt lat="53.325665" lon="-1.662037"><ele>133</ele><time>2024-04-13T10:11:00Z</time><name>PT752</name></trkpt>
<trkpt lat="53.325618" lon="-1.662063"><ele>133</ele><time>2024-04-13T10:11:05Z</time><name>PT753</name></trkpt>
<trkpt lat="53.325576" lon="-1.662056"><ele>131</ele><time>2024-04-13T10:11:08Z</time><name>PT754</name></trkpt>
<trkpt lat="53.325536" lon="-1.662066"><ele>131</ele><time>2024-04-13T10:11:12Z</time><name>PT755</name></trkpt>
<trkpt lat="53.325485" lon="-1.662063"><ele>130</ele><time>2024-04-13T10:11:17Z</time><name>PT756</name></trkpt>
<trkpt lat="53.325438" lon="-1.662076"><ele>130</ele><time>2024-04-13T10:11:20Z</time><name>PT757</name></trkpt>
<trkpt lat="53.325390" lon="-1.662082"><ele>130</ele><time>2024-04-13T10:11:24Z</time><name>PT758</name></trkpt>
<trkpt lat="53.325362" lon="-1.662072"><ele>128</ele><time>2024-04-13T10:11:27Z</time><name>PT759</name></trkpt>
<trkpt lat="53.325322" lon="-1.662084"><ele>130</ele><time>2024-04-13T10:11:32Z</time><name>PT760</name></trkpt>
<trkpt lat="53.325297" lon="-1.662094"><ele>130</ele><time>2024-04-13T10:11:35Z</time><name>PT761</name></trkpt>
<trkpt lat="53.325260" lon="-1.662108"><ele>131</ele><time>2024-04-13T10:11:38Z</time><name>PT762</name></trkpt>
<trkpt lat="53.325212" lon="-1.662103"><ele>132</ele><time>2024-04-13T10:11:41Z</time><name>PT763</name></trkpt>
<trkpt lat="53.325174" lon="-1.662093"><ele>132</ele><time>2024-04-13T10:11:44Z</time><name>PT764</name></trkpt>
<trkpt lat="53.325129" lon="-1.662080"><ele>133</ele><time>2024-04-13T10:11:48Z</time><name>PT765</name></trkpt>
<trkpt lat="53.325104" lon="-1.662072"><ele>133</ele><time>2024-04-13T10:11:51Z</time><name>PT766</name></trkpt>
<trkpt lat="53.325081" lon="-1.662079"><ele>134</ele><time>2024-04-13T10:11:54Z</time><name>PT767</name></trkpt>
<trkpt lat="53.325046" lon="-1.662073"><ele>135</ele><time>2024-04-13T10:11:59Z</time><name>PT768</name></trkpt>
<trkpt lat="53.324991" lon="-1.662053"><ele>136</ele><time>2024-04-13T10:12:02Z</time><name>PT769</name></trkpt>
<trkpt lat="53.324963" lon="-1.662045"><ele>136</ele><time>2024-04-13T10:12:06Z</time><name>PT770</name></trkpt>
<trkpt lat="53.324935" lon="-1.662037"><ele>136</ele><time>2024-04-13T10:12:09Z</time><name>PT771</name></trkpt>
<trkpt lat="53.324910" lon="-1.662031"><ele>135</ele><time>2024-04-13T10:12:14Z</time><name>PT772</name></trkpt>
<trkpt lat="53.324883" lon="-1.662014"><ele>134</ele><time>2024-04-13T10:12:17Z</time><name>PT773</name></trkpt>
<trkpt lat="53.324839" lon="-1.661986"><ele>134</ele><time>2024-04-13T10:12:20Z</time><name>PT774</name></trkpt>
<trkpt lat="53.324811" lon="-1.661971"><ele>134</ele><time>2024-04-13T10:12:23Z</time><name>PT775</name></trkpt>
<trkpt lat="53.324756" lon="-1.661956"><ele>135</ele><time>2024-04-13T10:12:27Z</time><name>PT776</name></trkpt>
<trkpt lat="53.324719" lon="-1.661939"><ele>137</ele><time>2024-04-13T10:12:32Z</time><name>PT777</name></trkpt>
<trkpt lat="53.324694" lon="-1.661920"><ele>136</ele><time>2024-04-13T10:12:51Z</time><name>PT778</name></trkpt>
<trkpt lat="53.324669" lon="-1.661899"><ele>136</ele><time>2024-04-13T10:12:54Z</time><name>PT779</name></trkpt>
<trkpt lat="53.324634" lon="-1.661882"><ele>135</ele><time>2024-04-13T10:12:57Z</time><name>PT780</name></trkpt>
<trkpt lat="53.324591" lon="-1.661855"><ele>136</ele><time>2024-04-13T10:13:02Z</time><name>PT781</name></trkpt>
<trkpt lat="53.324558" lon="-1.661830"><ele>137</ele><time>2024-04-13T10:13:05Z</time><name>PT782</name></trkpt>
<trkpt lat="53.324542" lon="-1.661817"><ele>138</ele><time>2024-04-13T10:13:08Z</time><name>PT783</name></trkpt>
<trkpt lat="53.324504" lon="-1.661799"><ele>138</ele><time>2024-04-13T10:13:12Z</time><name>PT784</name></trkpt>
<trkpt lat="53.324486" lon="-1.661778"><ele>139</ele><time>2024-04-13T10:13:15Z</time><name>PT785</name></trkpt>
<trkpt lat="53.324464" lon="-1.661774"><ele>139</ele><time>2024-04-13T10:13:18Z</time><name>PT786</name></trkpt>
<trkpt lat="53.324424" lon="-1.661740"><ele>138</ele><time>2024-04-13T10:13:23Z</time><name>PT787</name></trkpt>
<trkpt lat="53.324406" lon="-1.661730"><ele>137</ele><time>2024-04-13T10:13:26Z</time><name>PT788</name></trkpt>
<trkpt lat="53.324362" lon="-1.661717"><ele>137</ele><time>2024-04-13T10:13:29Z</time><name>PT789</name></trkpt>
<trkpt lat="53.324301" lon="-1.661695"><ele>138</ele><time>2024-04-13T10:13:32Z</time><name>PT790</name></trkpt>
<trkpt lat="53.324257" lon="-1.661667"><ele>137</ele><time>2024-04-13T10:13:36Z</time><name>PT791</name></trkpt>
<trkpt lat="53.324211" lon="-1.661635"><ele>137</ele><time>2024-04-13T10:13:39Z</time><name>PT792</name></trkpt>
<trkpt lat="53.324170" lon="-1.661596"><ele>136</ele><time>2024-04-13T10:13:44Z</time><name>PT793</name></trkpt>
<trkpt lat="53.324117" lon="-1.661556"><ele>136</ele><time>2024-04-13T10:13:47Z</time><name>PT794</name></trkpt>
<trkpt lat="53.324078" lon="-1.661539"><ele>136</ele><time>2024-04-13T10:13:50Z</time><name>PT795</name></trkpt>
<trkpt lat="53.324042" lon="-1.661518"><ele>134</ele><time>2024-04-13T10:13:54Z</time><name>PT796</name></trkpt>
<trkpt lat="53.324013" lon="-1.661512"><ele>132</ele><time>2024-04-13T10:13:57Z</time><name>PT797</name></trkpt>
<trkpt lat="53.323980" lon="-1.661492"><ele>130</ele><time>2024-04-13T10:14:02Z</time><name>PT798</name></trkpt>
<trkpt lat="53.323945" lon="-1.661478"><ele>130</ele><time>2024-04-13T10:14:05Z</time><name>PT799</name></trkpt>
<trkpt lat="53.323920" lon="-1.661460"><ele>131</ele><time>2024-04-13T10:14:08Z</time><name>PT800</name></trkpt>
<trkpt lat="53.323903" lon="-1.661448"><ele>131</ele><time>2024-04-13T10:14:11Z</time><name>PT801</name></trkpt>
<trkpt lat="53.323883" lon="-1.661414"><ele>130</ele><time>2024-04-13T10:14:14Z</time><name>PT802</name></trkpt>
<trkpt lat="53.323856" lon="-1.661395"><ele>131</ele><time>2024-04-13T10:14:17Z</time><name>PT803</name></trkpt>
<trkpt lat="53.323829" lon="-1.661372"><ele>133</ele><time>2024-04-13T10:14:20Z</time><name>PT804</name></trkpt>
<trkpt lat="53.323791" lon="-1.661334"><ele>134</ele><time>2024-04-13T10:14:24Z</time><name>PT805</name></trkpt>
<trkpt lat="53.323755" lon="-1.661316"><ele>135</ele><time>2024-04-13T10:14:27Z</time><name>PT806</name></trkpt>
<trkpt lat="53.323727" lon="-1.661289"><ele>137</ele><time>2024-04-13T10:14:30Z</time><name>PT807</name></trkpt>
<trkpt lat="53.323700" lon="-1.661275"><ele>136</ele><time>2024-04-13T10:14:35Z</time><name>PT808</name></trkpt>
<trkpt lat="53.323672" lon="-1.661252"><ele>136</ele><time>2024-04-13T10:14:38Z</time><name>PT809</name></trkpt>
<trkpt lat="53.323647" lon="-1.661218"><ele>136</ele><time>2024-04-13T10:14:41Z</time><name>PT810</name></trkpt>
<trkpt lat="53.323614" lon="-1.661187"><ele>135</ele><time>2024-04-13T10:14:45Z</time><name>PT811</name></trkpt>
<trkpt lat="53.323585" lon="-1.661151"><ele>136</ele><time>2024-04-13T10:14:50Z</time><name>PT812</name></trkpt>
<trkpt lat="53.323578" lon="-1.661119"><ele>137</ele><time>2024-04-13T10:14:53Z</time><name>PT813</name></trkpt>
<trkpt lat="53.323570" lon="-1.661113"><ele>138</ele><time>2024-04-13T10:14:56Z</time><name>PT814</name></trkpt>
<trkpt lat="53.323566" lon="-1.661107"><ele>138</ele><time>2024-04-13T10:14:59Z</time><name>PT815</name></trkpt>
<trkpt lat="53.323544" lon="-1.661079"><ele>138</ele><time>2024-04-13T10:15:08Z</time><name>PT816</name></trkpt>
<trkpt lat="53.323531" lon="-1.661082"><ele>137</ele><time>2024-04-13T10:15:11Z</time><name>PT817</name></trkpt>
<trkpt lat="53.323525" lon="-1.661084"><ele>137</ele><time>2024-04-13T10:15:15Z</time><name>PT818</name></trkpt>
<trkpt lat="53.323523" lon="-1.661084"><ele>137</ele><time>2024-04-13T10:15:18Z</time><name>PT819</name></trkpt>
<trkpt lat="53.323514" lon="-1.661104"><ele>137</ele><time>2024-04-13T10:15:23Z</time><name>PT820</name></trkpt>
<trkpt lat="53.323513" lon="-1.661107"><ele>137</ele><time>2024-04-13T10:15:26Z</time><name>PT821</name></trkpt>
<trkpt lat="53.323501" lon="-1.661103"><ele>137</ele><time>2024-04-13T10:15:29Z</time><name>PT822</name></trkpt>
<trkpt lat="53.323500" lon="-1.661102"><ele>137</ele><time>2024-04-13T10:15:33Z</time><name>PT823</name></trkpt>
<trkpt lat="53.323499" lon="-1.661088"><ele>136</ele><time>2024-04-13T10:15:39Z</time><name>PT824</name></trkpt>
<trkpt lat="53.323510" lon="-1.661070"><ele>136</ele><time>2024-04-13T10:15:44Z</time><name>PT825</name></trkpt>
<trkpt lat="53.323519" lon="-1.661039"><ele>137</ele><time>2024-04-13T10:15:53Z</time><name>PT826</name></trkpt>
<trkpt lat="53.323525" lon="-1.661028"><ele>137</ele><time>2024-04-13T10:15:57Z</time><name>PT827</name></trkpt>
<trkpt lat="53.323534" lon="-1.661029"><ele>136</ele><time>2024-04-13T10:16:11Z</time><name>PT828</name></trkpt>
<trkpt lat="53.323538" lon="-1.661029"><ele>136</ele><time>2024-04-13T10:16:14Z</time><name>PT829</name></trkpt>
<trkpt lat="53.323535" lon="-1.661029"><ele>136</ele><time>2024-04-13T10:16:17Z</time><name>PT830</name></trkpt>
<trkpt lat="53.323534" lon="-1.661033"><ele>136</ele><time>2024-04-13T10:16:20Z</time><name>PT831</name></trkpt>
<trkpt lat="53.323530" lon="-1.661042"><ele>136</ele><time>2024-04-13T10:16:32Z</time><name>PT832</name></trkpt>
<trkpt lat="53.323517" lon="-1.661048"><ele>136</ele><time>2024-04-13T10:16:35Z</time><name>PT833</name></trkpt>
<trkpt lat="53.323518" lon="-1.661050"><ele>136</ele><time>2024-04-13T10:16:38Z</time><name>PT834</name></trkpt>
<trkpt lat="53.323519" lon="-1.661031"><ele>137</ele><time>2024-04-13T10:16:42Z</time><name>PT835</name></trkpt>
<trkpt lat="53.323518" lon="-1.661030"><ele>136</ele><time>2024-04-13T10:16:47Z</time><name>PT836</name></trkpt>
<trkpt lat="53.323515" lon="-1.661041"><ele>137</ele><time>2024-04-13T10:16:56Z</time><name>PT837</name></trkpt>
<trkpt lat="53.323514" lon="-1.661070"><ele>137</ele><time>2024-04-13T10:17:00Z</time><name>PT838</name></trkpt>
<trkpt lat="53.323515" lon="-1.661068"><ele>138</ele><time>2024-04-13T10:17:03Z</time><name>PT839</name></trkpt>
<trkpt lat="53.323515" lon="-1.661082"><ele>137</ele><time>2024-04-13T10:17:08Z</time><name>PT840</name></trkpt>
<trkpt lat="53.323517" lon="-1.661083"><ele>137</ele><time>2024-04-13T10:17:11Z</time><name>PT841</name></trkpt>
<trkpt lat="53.323517" lon="-1.661094"><ele>136</ele><time>2024-04-13T10:17:24Z</time><name>PT842</name></trkpt>
<trkpt lat="53.323519" lon="-1.661101"><ele>136</ele><time>2024-04-13T10:17:29Z</time><name>PT843</name></trkpt>
<trkpt lat="53.323498" lon="-1.661090"><ele>135</ele><time>2024-04-13T10:18:06Z</time><name>PT844</name></trkpt>
<trkpt lat="53.323470" lon="-1.661075"><ele>135</ele><time>2024-04-13T10:18:09Z</time><name>PT845</name></trkpt>
<trkpt lat="53.323438" lon="-1.661044"><ele>133</ele><time>2024-04-13T10:18:14Z</time><name>PT846</name></trkpt>
<trkpt lat="53.323404" lon="-1.661024"><ele>131</ele><time>2024-04-13T10:18:17Z</time><name>PT847</name></trkpt>
<trkpt lat="53.323389" lon="-1.660983"><ele>131</ele><time>2024-04-13T10:18:20Z</time><name>PT848</name></trkpt>
<trkpt lat="53.323374" lon="-1.660948"><ele>131</ele><time>2024-04-13T10:18:24Z</time><name>PT849</name></trkpt>
<trkpt lat="53.323361" lon="-1.660930"><ele>130</ele><time>2024-04-13T10:18:27Z</time><name>PT850</name></trkpt>
<trkpt lat="53.323353" lon="-1.660888"><ele>132</ele><time>2024-04-13T10:18:30Z</time><name>PT851</name></trkpt>
<trkpt lat="53.323337" lon="-1.660875"><ele>131</ele><time>2024-04-13T10:18:33Z</time><name>PT852</name></trkpt>
<trkpt lat="53.323310" lon="-1.660863"><ele>132</ele><time>2024-04-13T10:18:38Z</time><name>PT853</name></trkpt>
<trkpt lat="53.323269" lon="-1.660874"><ele>132</ele><time>2024-04-13T10:18:41Z</time><name>PT854</name></trkpt>
<trkpt lat="53.323251" lon="-1.660873"><ele>131</ele><time>2024-04-13T10:18:44Z</time><name>PT855</name></trkpt>
<trkpt lat="53.323226" lon="-1.660846"><ele>131</ele><time>2024-04-13T10:18:48Z</time><name>PT856</name></trkpt>
<trkpt lat="53.323215" lon="-1.660819"><ele>130</ele><time>2024-04-13T10:18:53Z</time><name>PT857</name></trkpt>
<trkpt lat="53.323188" lon="-1.660787"><ele>130</ele><time>2024-04-13T10:18:56Z</time><name>PT858</name></trkpt>
<trkpt lat="53.323180" lon="-1.660773"><ele>131</ele><time>2024-04-13T10:18:59Z</time><name>PT859</name></trkpt>
<trkpt lat="53.323160" lon="-1.660749"><ele>131</ele><time>2024-04-13T10:19:02Z</time><name>PT860</name></trkpt>
<trkpt lat="53.323131" lon="-1.660696"><ele>132</ele><time>2024-04-13T10:19:06Z</time><name>PT861</name></trkpt>
<trkpt lat="53.323106" lon="-1.660686"><ele>132</ele><time>2024-04-13T10:19:09Z</time><name>PT862</name></trkpt>
<trkpt lat="53.323086" lon="-1.660655"><ele>129</ele><time>2024-04-13T10:19:14Z</time><name>PT863</name></trkpt>
<trkpt lat="53.323069" lon="-1.660613"><ele>130</ele><time>2024-04-13T10:19:17Z</time><name>PT864</name></trkpt>
<trkpt lat="53.323052" lon="-1.660565"><ele>131</ele><time>2024-04-13T10:19:21Z</time><name>PT865</name></trkpt>
<trkpt lat="53.323029" lon="-1.660544"><ele>130</ele><time>2024-04-13T10:19:24Z</time><name>PT866</name></trkpt>
<trkpt lat="53.323012" lon="-1.660497"><ele>130</ele><time>2024-04-13T10:19:29Z</time><name>PT867</name></trkpt>
<trkpt lat="53.322997" lon="-1.660485"><ele>132</ele><time>2024-04-13T10:19:32Z</time><name>PT868</name></trkpt>
<trkpt lat="53.322986" lon="-1.660431"><ele>135</ele><time>2024-04-13T10:19:35Z</time><name>PT869</name></trkpt>
<trkpt lat="53.322965" lon="-1.660408"><ele>136</ele><time>2024-04-13T10:19:38Z</time><name>PT870</name></trkpt>
<trkpt lat="53.322947" lon="-1.660376"><ele>137</ele><time>2024-04-13T10:19:42Z</time><name>PT871</name></trkpt>
<trkpt lat="53.322943" lon="-1.660355"><ele>138</ele><time>2024-04-13T10:19:45Z</time><name>PT872</name></trkpt>
<trkpt lat="53.322897" lon="-1.660310"><ele>136</ele><time>2024-04-13T10:19:53Z</time><name>PT873</name></trkpt>
<trkpt lat="53.322868" lon="-1.660266"><ele>135</ele><time>2024-04-13T10:19:56Z</time><name>PT874</name></trkpt>
<trkpt lat="53.322850" lon="-1.660223"><ele>135</ele><time>2024-04-13T10:20:00Z</time><name>PT875</name></trkpt>
<trkpt lat="53.322813" lon="-1.660182"><ele>135</ele><time>2024-04-13T10:20:05Z</time><name>PT876</name></trkpt>
<trkpt lat="53.322803" lon="-1.660154"><ele>135</ele><time>2024-04-13T10:20:08Z</time><name>PT877</name></trkpt>
<trkpt lat="53.322788" lon="-1.660117"><ele>136</ele><time>2024-04-13T10:20:11Z</time><name>PT878</name></trkpt>
<trkpt lat="53.322773" lon="-1.660081"><ele>135</ele><time>2024-04-13T10:20:14Z</time><name>PT879</name></trkpt>
<trkpt lat="53.322753" lon="-1.660057"><ele>135</ele><time>2024-04-13T10:20:18Z</time><name>PT880</name></trkpt>
<trkpt lat="53.322742" lon="-1.660016"><ele>136</ele><time>2024-04-13T10:20:21Z</time><name>PT881</name></trkpt>
<trkpt lat="53.322716" lon="-1.659956"><ele>137</ele><time>2024-04-13T10:20:26Z</time><name>PT882</name></trkpt>
<trkpt lat="53.322711" lon="-1.659904"><ele>137</ele><time>2024-04-13T10:20:29Z</time><name>PT883</name></trkpt>
<trkpt lat="53.322685" lon="-1.659870"><ele>134</ele><time>2024-04-13T10:20:32Z</time><name>PT884</name></trkpt>
<trkpt lat="53.322681" lon="-1.659809"><ele>135</ele><time>2024-04-13T10:20:36Z</time><name>PT885</name></trkpt>
<trkpt lat="53.322675" lon="-1.659787"><ele>136</ele><time>2024-04-13T10:20:41Z</time><name>PT886</name></trkpt>
<trkpt lat="53.322668" lon="-1.659759"><ele>136</ele><time>2024-04-13T10:20:44Z</time><name>PT887</name></trkpt>
<trkpt lat="53.322654" lon="-1.659732"><ele>135</ele><time>2024-04-13T10:20:47Z</time><name>PT888</name></trkpt>
<trkpt lat="53.322634" lon="-1.659663"><ele>135</ele><time>2024-04-13T10:20:50Z</time><name>PT889</name></trkpt>
<trkpt lat="53.322616" lon="-1.659601"><ele>132</ele><time>2024-04-13T10:20:54Z</time><name>PT890</name></trkpt>
<trkpt lat="53.322596" lon="-1.659560"><ele>130</ele><time>2024-04-13T10:20:57Z</time><name>PT891</name></trkpt>
<trkpt lat="53.322577" lon="-1.659542"><ele>128</ele><time>2024-04-13T10:21:00Z</time><name>PT892</name></trkpt>
<trkpt lat="53.322554" lon="-1.659495"><ele>128</ele><time>2024-04-13T10:21:05Z</time><name>PT893</name></trkpt>
<trkpt lat="53.322534" lon="-1.659433"><ele>129</ele><time>2024-04-13T10:21:08Z</time><name>PT894</name></trkpt>
<trkpt lat="53.322511" lon="-1.659378"><ele>129</ele><time>2024-04-13T10:21:12Z</time><name>PT895</name></trkpt>
<trkpt lat="53.322506" lon="-1.659335"><ele>132</ele><time>2024-04-13T10:21:15Z</time><name>PT896</name></trkpt>
<trkpt lat="53.322487" lon="-1.659287"><ele>132</ele><time>2024-04-13T10:21:20Z</time><name>PT897</name></trkpt>
<trkpt lat="53.322469" lon="-1.659251"><ele>131</ele><time>2024-04-13T10:21:23Z</time><name>PT898</name></trkpt>
<trkpt lat="53.322451" lon="-1.659215"><ele>131</ele><time>2024-04-13T10:21:26Z</time><name>PT899</name></trkpt>
<trkpt lat="53.322441" lon="-1.659188"><ele>132</ele><time>2024-04-13T10:21:29Z</time><name>PT900</name></trkpt>
<trkpt lat="53.322425" lon="-1.659170"><ele>133</ele><time>2024-04-13T10:21:32Z</time><name>PT901</name></trkpt>
<trkpt lat="53.322405" lon="-1.659127"><ele>134</ele><time>2024-04-13T10:21:35Z</time><name>PT902</name></trkpt>
<trkpt lat="53.322390" lon="-1.659112"><ele>135</ele><time>2024-04-13T10:21:39Z</time><name>PT903</name></trkpt>
<trkpt lat="53.322369" lon="-1.659095"><ele>136</ele><time>2024-04-13T10:21:42Z</time><name>PT904</name></trkpt>
<trkpt lat="53.322349" lon="-1.659059"><ele>137</ele><time>2024-04-13T10:21:47Z</time><name>PT905</name></trkpt>
<trkpt lat="53.322326" lon="-1.659042"><ele>138</ele><time>2024-04-13T10:21:50Z</time><name>PT906</name></trkpt>
<trkpt lat="53.322322" lon="-1.659028"><ele>138</ele><time>2024-04-13T10:21:53Z</time><name>PT907</name></trkpt>
<trkpt lat="53.322319" lon="-1.659018"><ele>138</ele><time>2024-04-13T10:21:57Z</time><name>PT908</name></trkpt>
<trkpt lat="53.322328" lon="-1.658959"><ele>136</ele><time>2024-04-13T10:22:02Z</time><name>PT909</name></trkpt>
<trkpt lat="53.322331" lon="-1.658917"><ele>137</ele><time>2024-04-13T10:22:05Z</time><name>PT910</name></trkpt>
<trkpt lat="53.322337" lon="-1.658869"><ele>136</ele><time>2024-04-13T10:22:08Z</time><name>PT911</name></trkpt>
<trkpt lat="53.322333" lon="-1.658835"><ele>138</ele><time>2024-04-13T10:22:11Z</time><name>PT912</name></trkpt>
<trkpt lat="53.322333" lon="-1.658788"><ele>139</ele><time>2024-04-13T10:22:14Z</time><name>PT913</name></trkpt>
<trkpt lat="53.322337" lon="-1.658725"><ele>140</ele><time>2024-04-13T10:22:18Z</time><name>PT914</name></trkpt>
<trkpt lat="53.322328" lon="-1.658685"><ele>141</ele><time>2024-04-13T10:22:21Z</time><name>PT915</name></trkpt>
<trkpt lat="53.322322" lon="-1.658645"><ele>142</ele><time>2024-04-13T10:22:24Z</time><name>PT916</name></trkpt>
<trkpt lat="53.322322" lon="-1.658587"><ele>143</ele><time>2024-04-13T10:22:27Z</time><name>PT917</name></trkpt>
<trkpt lat="53.322323" lon="-1.658547"><ele>145</ele><time>2024-04-13T10:22:32Z</time><name>PT918</name></trkpt>
<trkpt lat="53.322322" lon="-1.658524"><ele>146</ele><time>2024-04-13T10:22:35Z</time><name>PT919</name></trkpt>
<trkpt lat="53.322324" lon="-1.658468"><ele>146</ele><time>2024-04-13T10:22:38Z</time><name>PT920</name></trkpt>
<trkpt lat="53.322320" lon="-1.658429"><ele>145</ele><time>2024-04-13T10:22:41Z</time><name>PT921</name></trkpt>
<trkpt lat="53.322305" lon="-1.658378"><ele>144</ele><time>2024-04-13T10:22:45Z</time><name>PT922</name></trkpt>
<trkpt lat="53.322292" lon="-1.658341"><ele>144</ele><time>2024-04-13T10:22:50Z</time><name>PT923</name></trkpt>
<trkpt lat="53.322292" lon="-1.658310"><ele>145</ele><time>2024-04-13T10:22:53Z</time><name>PT924</name></trkpt>
<trkpt lat="53.322291" lon="-1.658287"><ele>144</ele><time>2024-04-13T10:22:56Z</time><name>PT925</name></trkpt>
<trkpt lat="53.322294" lon="-1.658258"><ele>145</ele><time>2024-04-13T10:22:59Z</time><name>PT926</name></trkpt>
<trkpt lat="53.322280" lon="-1.658225"><ele>147</ele><time>2024-04-13T10:23:02Z</time><name>PT927</name></trkpt>
<trkpt lat="53.322275" lon="-1.658184"><ele>147</ele><time>2024-04-13T10:23:05Z</time><name>PT928</name></trkpt>
<trkpt lat="53.322272" lon="-1.658156"><ele>149</ele><time>2024-04-13T10:23:08Z</time><name>PT929</name></trkpt>
<trkpt lat="53.322255" lon="-1.658113"><ele>148</ele><time>2024-04-13T10:23:12Z</time><name>PT930</name></trkpt>
<trkpt lat="53.322250" lon="-1.658074"><ele>149</ele><time>2024-04-13T10:23:17Z</time><name>PT931</name></trkpt>
<trkpt lat="53.322251" lon="-1.658032"><ele>150</ele><time>2024-04-13T10:23:20Z</time><name>PT932</name></trkpt>
<trkpt lat="53.322251" lon="-1.658016"><ele>149</ele><time>2024-04-13T10:23:23Z</time><name>PT933</name></trkpt>
<trkpt lat="53.322227" lon="-1.657951"><ele>146</ele><time>2024-04-13T10:23:27Z</time><name>PT934</name></trkpt>
<trkpt lat="53.322207" lon="-1.657879"><ele>145</ele><time>2024-04-13T10:23:32Z</time><name>PT935</name></trkpt>
<trkpt lat="53.322199" lon="-1.657838"><ele>143</ele><time>2024-04-13T10:23:35Z</time><name>PT936</name></trkpt>
<trkpt lat="53.322191" lon="-1.657786"><ele>142</ele><time>2024-04-13T10:23:38Z</time><name>PT937</name></trkpt>
<trkpt lat="53.322176" lon="-1.657733"><ele>142</ele><time>2024-04-13T10:23:41Z</time><name>PT938</name></trkpt>
<trkpt lat="53.322173" lon="-1.657666"><ele>144</ele><time>2024-04-13T10:23:45Z</time><name>PT939</name></trkpt>
<trkpt lat="53.322171" lon="-1.657619"><ele>143</ele><time>2024-04-13T10:23:48Z</time><name>PT940</name></trkpt>
<trkpt lat="53.322169" lon="-1.657544"><ele>142</ele><time>2024-04-13T10:23:53Z</time><name>PT941</name></trkpt>
<trkpt lat="53.322165" lon="-1.657483"><ele>143</ele><time>2024-04-13T10:23:56Z</time><name>PT942</name></trkpt>
<trkpt lat="53.322163" lon="-1.657382"><ele>146</ele><time>2024-04-13T10:23:59Z</time><name>PT943</name></trkpt>
<trkpt lat="53.322155" lon="-1.657336"><ele>145</ele><time>2024-04-13T10:24:03Z</time><name>PT944</name></trkpt>
<trkpt lat="53.322171" lon="-1.657305"><ele>143</ele><time>2024-04-13T10:24:06Z</time><name>PT945</name></trkpt>
<trkpt lat="53.322162" lon="-1.657199"><ele>141</ele><time>2024-04-13T10:24:11Z</time><name>PT946</name></trkpt>
<trkpt lat="53.322164" lon="-1.657151"><ele>140</ele><time>2024-04-13T10:24:14Z</time><name>PT947</name></trkpt>
<trkpt lat="53.322146" lon="-1.657088"><ele>139</ele><time>2024-04-13T10:24:17Z</time><name>PT948</name></trkpt>
<trkpt lat="53.322126" lon="-1.657042"><ele>137</ele><time>2024-04-13T10:24:21Z</time><name>PT949</name></trkpt>
<trkpt lat="53.322124" lon="-1.656988"><ele>138</ele><time>2024-04-13T10:24:26Z</time><name>PT950</name></trkpt>
<trkpt lat="53.322127" lon="-1.656958"><ele>139</ele><time>2024-04-13T10:24:29Z</time><name>PT951</name></trkpt>
<trkpt lat="53.322141" lon="-1.656920"><ele>139</ele><time>2024-04-13T10:24:32Z</time><name>PT952</name></trkpt>
<trkpt lat="53.322143" lon="-1.656885"><ele>138</ele><time>2024-04-13T10:24:36Z</time><name>PT953</name></trkpt>
<trkpt lat="53.322147" lon="-1.656876"><ele>137</ele><time>2024-04-13T10:24:39Z</time><name>PT954</name></trkpt>
<trkpt lat="53.322158" lon="-1.656827"><ele>137</ele><time>2024-04-13T10:24:44Z</time><name>PT955</name></trkpt>
<trkpt lat="53.322176" lon="-1.656804"><ele>137</ele><time>2024-04-13T10:24:47Z</time><name>PT956</name></trkpt>
<trkpt lat="53.322184" lon="-1.656783"><ele>138</ele><time>2024-04-13T10:24:50Z</time><name>PT957</name></trkpt>
<trkpt lat="53.322169" lon="-1.656714"><ele>135</ele><time>2024-04-13T10:24:54Z</time><name>PT958</name></trkpt>
<trkpt lat="53.322156" lon="-1.656677"><ele>135</ele><time>2024-04-13T10:24:57Z</time><name>PT959</name></trkpt>
<trkpt lat="53.322167" lon="-1.656654"><ele>136</ele><time>2024-04-13T10:25:11Z</time><name>PT960</name></trkpt>
<trkpt lat="53.322184" lon="-1.656631"><ele>133</ele><time>2024-04-13T10:25:15Z</time><name>PT961</name></trkpt>
<trkpt lat="53.322204" lon="-1.656628"><ele>132</ele><time>2024-04-13T10:25:20Z</time><name>PT962</name></trkpt>
<trkpt lat="53.322210" lon="-1.656625"><ele>131</ele><time>2024-04-13T10:25:23Z</time><name>PT963</name></trkpt>
<trkpt lat="53.322223" lon="-1.656624"><ele>130</ele><time>2024-04-13T10:25:26Z</time><name>PT964</name></trkpt>
<trkpt lat="53.322243" lon="-1.656592"><ele>131</ele><time>2024-04-13T10:25:29Z</time><name>PT965</name></trkpt>
<trkpt lat="53.322235" lon="-1.656566"><ele>128</ele><time>2024-04-13T10:25:32Z</time><name>PT966</name></trkpt>
<trkpt lat="53.322237" lon="-1.656540"><ele>129</ele><time>2024-04-13T10:25:35Z</time><name>PT967</name></trkpt>
<trkpt lat="53.322241" lon="-1.656498"><ele>130</ele><time>2024-04-13T10:25:39Z</time><name>PT968</name></trkpt>
<trkpt lat="53.322235" lon="-1.656467"><ele>130</ele><time>2024-04-13T10:25:42Z</time><name>PT969</name></trkpt>
<trkpt lat="53.322235" lon="-1.656423"><ele>128</ele><time>2024-04-13T10:25:47Z</time><name>PT970</name></trkpt>
<trkpt lat="53.322234" lon="-1.656370"><ele>130</ele><time>2024-04-13T10:25:50Z</time><name>PT971</name></trkpt>
<trkpt lat="53.322235" lon="-1.656354"><ele>132</ele><time>2024-04-13T10:25:53Z</time><name>PT972</name></trkpt>
<trkpt lat="53.322231" lon="-1.656330"><ele>132</ele><time>2024-04-13T10:26:20Z</time><name>PT973</name></trkpt>
<trkpt lat="53.322225" lon="-1.656230"><ele>134</ele><time>2024-04-13T10:26:23Z</time><name>PT974</name></trkpt>
<trkpt lat="53.322228" lon="-1.656180"><ele>133</ele><time>2024-04-13T10:26:26Z</time><name>PT975</name></trkpt>
<trkpt lat="53.322214" lon="-1.656121"><ele>133</ele><time>2024-04-13T10:26:30Z</time><name>PT976</name></trkpt>
<trkpt lat="53.322212" lon="-1.656074"><ele>133</ele><time>2024-04-13T10:26:35Z</time><name>PT977</name></trkpt>
<trkpt lat="53.322207" lon="-1.656006"><ele>130</ele><time>2024-04-13T10:26:38Z</time><name>PT978</name></trkpt>
<trkpt lat="53.322207" lon="-1.655968"><ele>129</ele><time>2024-04-13T10:26:41Z</time><name>PT979</name></trkpt>
<trkpt lat="53.322193" lon="-1.655900"><ele>130</ele><time>2024-04-13T10:26:44Z</time><name>PT980</name></trkpt>
<trkpt lat="53.322189" lon="-1.655860"><ele>130</ele><time>2024-04-13T10:26:47Z</time><name>PT981</name></trkpt>
<trkpt lat="53.322192" lon="-1.655801"><ele>130</ele><time>2024-04-13T10:26:50Z</time><name>PT982</name></trkpt>
<trkpt lat="53.322188" lon="-1.655736"><ele>129</ele><time>2024-04-13T10:26:54Z</time><name>PT983</name></trkpt>
<trkpt lat="53.322188" lon="-1.655683"><ele>129</ele><time>2024-04-13T10:26:57Z</time><name>PT984</name></trkpt>
<trkpt lat="53.322170" lon="-1.655618"><ele>129</ele><time>2024-04-13T10:27:02Z</time><name>PT985</name></trkpt>
<trkpt lat="53.322168" lon="-1.655559"><ele>129</ele><time>2024-04-13T10:27:05Z</time><name>PT986</name></trkpt>
<trkpt lat="53.322176" lon="-1.655488"><ele>130</ele><time>2024-04-13T10:27:08Z</time><name>PT987</name></trkpt>
<trkpt lat="53.322169" lon="-1.655428"><ele>132</ele><time>2024-04-13T10:27:11Z</time><name>PT988</name></trkpt>
<trkpt lat="53.322165" lon="-1.655340"><ele>134</ele><time>2024-04-13T10:27:14Z</time><name>PT989</name></trkpt>
<trkpt lat="53.322162" lon="-1.655278"><ele>134</ele><time>2024-04-13T10:27:17Z</time><name>PT990</name></trkpt>
<trkpt lat="53.322161" lon="-1.655189"><ele>135</ele><time>2024-04-13T10:27:22Z</time><name>PT991</name></trkpt>
<trkpt lat="53.322160" lon="-1.655113"><ele>134</ele><time>2024-04-13T10:27:26Z</time><name>PT992</name></trkpt>
<trkpt lat="53.322147" lon="-1.655033"><ele>133</ele><time>2024-04-13T10:27:29Z</time><name>PT993</name></trkpt>
<trkpt lat="53.322145" lon="-1.654953"><ele>134</ele><time>2024-04-13T10:27:33Z</time><name>PT994</name></trkpt>
<trkpt lat="53.322144" lon="-1.654899"><ele>134</ele><time>2024-04-13T10:27:36Z</time><name>PT995</name></trkpt>
<trkpt lat="53.322140" lon="-1.654846"><ele>135</ele><time>2024-04-13T10:27:39Z</time><name>PT996</name></trkpt>
<trkpt lat="53.322129" lon="-1.654748"><ele>136</ele><time>2024-04-13T10:27:44Z</time><name>PT997</name></trkpt>
<trkpt lat="53.322128" lon="-1.654657"><ele>135</ele><time>2024-04-13T10:27:47Z</time><name>PT998</name></trkpt>
<trkpt lat="53.322119" lon="-1.654590"><ele>135</ele><time>2024-04-13T10:27:50Z</time><name>PT999</name></trkpt>
<trkpt lat="53.322113" lon="-1.654503"><ele>136</ele><time>2024-04-13T10:27:54Z</time><name>PT1000</name></trkpt>
<trkpt lat="53.322118" lon="-1.654419"><ele>137</ele><time>2024-04-13T10:27:59Z</time><name>PT1001</name></trkpt>
<trkpt lat="53.322122" lon="-1.654354"><ele>137</ele><time>2024-04-13T10:28:02Z</time><name>PT1002</name></trkpt>
<trkpt lat="53.322124" lon="-1.654270"><ele>137</ele><time>2024-04-13T10:28:05Z</time><name>PT1003</name></trkpt>
<trkpt lat="53.322124" lon="-1.654214"><ele>137</ele><time>2024-04-13T10:28:08Z</time><name>PT1004</name></trkpt>
<trkpt lat="53.322117" lon="-1.654147"><ele>136</ele><time>2024-04-13T10:28:12Z</time><name>PT1005</name></trkpt>
<trkpt lat="53.322116" lon="-1.654095"><ele>135</ele><time>2024-04-13T10:28:15Z</time><name>PT1006</name></trkpt>
<trkpt lat="53.322120" lon="-1.654022"><ele>135</ele><time>2024-04-13T10:28:20Z</time><name>PT1007</name></trkpt>
<trkpt lat="53.322121" lon="-1.653966"><ele>135</ele><time>2024-04-13T10:28:23Z</time><name>PT1008</name></trkpt>
<trkpt lat="53.322110" lon="-1.653909"><ele>135</ele><time>2024-04-13T10:28:26Z</time><name>PT1009</name></trkpt>
<trkpt lat="53.322104" lon="-1.653825"><ele>135</ele><time>2024-04-13T10:28:29Z</time><name>PT1010</name></trkpt>
<trkpt lat="53.322104" lon="-1.653759"><ele>135</ele><time>2024-04-13T10:28:32Z</time><name>PT1011</name></trkpt>
<trkpt lat="53.322103" lon="-1.653676"><ele>135</ele><time>2024-04-13T10:28:36Z</time><name>PT1012</name></trkpt>
<trkpt lat="53.322089" lon="-1.653596"><ele>136</ele><time>2024-04-13T10:28:41Z</time><name>PT1013</name></trkpt>
<trkpt lat="53.322084" lon="-1.653536"><ele>136</ele><time>2024-04-13T10:28:44Z</time><name>PT1014</name></trkpt>
<trkpt lat="53.322069" lon="-1.653485"><ele>134</ele><time>2024-04-13T10:28:47Z</time><name>PT1015</name></trkpt>
<trkpt lat="53.322055" lon="-1.653434"><ele>134</ele><time>2024-04-13T10:28:50Z</time><name>PT1016</name></trkpt>
<trkpt lat="53.322049" lon="-1.653382"><ele>134</ele><time>2024-04-13T10:28:53Z</time><name>PT1017</name></trkpt>
<trkpt lat="53.322036" lon="-1.653333"><ele>134</ele><time>2024-04-13T10:28:56Z</time><name>PT1018</name></trkpt>
<trkpt lat="53.322039" lon="-1.653301"><ele>133</ele><time>2024-04-13T10:28:59Z</time><name>PT1019</name></trkpt>
<trkpt lat="53.322034" lon="-1.653283"><ele>134</ele><time>2024-04-13T10:29:03Z</time><name>PT1020</name></trkpt>
<trkpt lat="53.322037" lon="-1.653278"><ele>134</ele><time>2024-04-13T10:29:08Z</time><name>PT1021</name></trkpt>
<trkpt lat="53.322039" lon="-1.653261"><ele>134</ele><time>2024-04-13T10:29:11Z</time><name>PT1022</name></trkpt>
<trkpt lat="53.322041" lon="-1.653238"><ele>133</ele><time>2024-04-13T10:29:14Z</time><name>PT1023</name></trkpt>
<trkpt lat="53.322046" lon="-1.653212"><ele>133</ele><time>2024-04-13T10:29:17Z</time><name>PT1024</name></trkpt>
<trkpt lat="53.322047" lon="-1.653205"><ele>134</ele><time>2024-04-13T10:29:20Z</time><name>PT1025</name></trkpt>
<trkpt lat="53.322048" lon="-1.653200"><ele>134</ele><time>2024-04-13T10:29:33Z</time><name>PT1026</name></trkpt>
<trkpt lat="53.322048" lon="-1.653193"><ele>135</ele><time>2024-04-13T10:29:38Z</time><name>PT1027</name></trkpt>
<trkpt lat="53.322040" lon="-1.653188"><ele>135</ele><time>2024-04-13T10:29:48Z</time><name>PT1028</name></trkpt>
<trkpt lat="53.322029" lon="-1.653175"><ele>135</ele><time>2024-04-13T10:29:51Z</time><name>PT1029</name></trkpt>
<trkpt lat="53.322029" lon="-1.653160"><ele>135</ele><time>2024-04-13T10:29:54Z</time><name>PT1030</name></trkpt>
<trkpt lat="53.322037" lon="-1.653136"><ele>134</ele><time>2024-04-13T10:29:59Z</time><name>PT1031</name></trkpt>
<trkpt lat="53.322029" lon="-1.653135"><ele>133</ele><time>2024-04-13T10:30:02Z</time><name>PT1032</name></trkpt>
<trkpt lat="53.322028" lon="-1.653129"><ele>134</ele><time>2024-04-13T10:30:05Z</time><name>PT1033</name></trkpt>
<trkpt lat="53.322027" lon="-1.653133"><ele>134</ele><time>2024-04-13T10:30:09Z</time><name>PT1034</name></trkpt>
<trkpt lat="53.322030" lon="-1.653145"><ele>134</ele><time>2024-04-13T10:30:12Z</time><name>PT1035</name></trkpt>
<trkpt lat="53.322029" lon="-1.653154"><ele>134</ele><time>2024-04-13T10:30:17Z</time><name>PT1036</name></trkpt>
<trkpt lat="53.322025" lon="-1.653156"><ele>134</ele><time>2024-04-13T10:30:20Z</time><name>PT1037</name></trkpt>
<trkpt lat="53.322023" lon="-1.653159"><ele>133</ele><time>2024-04-13T10:30:23Z</time><name>PT1038</name></trkpt>
<trkpt lat="53.322017" lon="-1.653159"><ele>134</ele><time>2024-04-13T10:30:27Z</time><name>PT1039</name></trkpt>
<trkpt lat="53.322011" lon="-1.653158"><ele>134</ele><time>2024-04-13T10:31:23Z</time><name>PT1040</name></trkpt>
<trkpt lat="53.322014" lon="-1.653172"><ele>133</ele><time>2024-04-13T10:31:27Z</time><name>PT1041</name></trkpt>
<trkpt lat="53.322015" lon="-1.653169"><ele>133</ele><time>2024-04-13T10:31:44Z</time><name>PT1042</name></trkpt>
<trkpt lat="53.322017" lon="-1.653165"><ele>133</ele><time>2024-04-13T10:31:47Z</time><name>PT1043</name></trkpt>
<trkpt lat="53.322016" lon="-1.653164"><ele>133</ele><time>2024-04-13T10:31:59Z</time><name>PT1044</name></trkpt>
<trkpt lat="53.322016" lon="-1.653165"><ele>134</ele><time>2024-04-13T10:32:03Z</time><name>PT1045</name></trkpt>
<trkpt lat="53.322012" lon="-1.653162"><ele>133</ele><time>2024-04-13T10:32:12Z</time><name>PT1046</name></trkpt>
<trkpt lat="53.322008" lon="-1.653161"><ele>133</ele><time>2024-04-13T10:32:17Z</time><name>PT1047</name></trkpt>
<trkpt lat="53.322004" lon="-1.653151"><ele>133</ele><time>2024-04-13T10:32:20Z</time><name>PT1048</name></trkpt>
<trkpt lat="53.322000" lon="-1.653131"><ele>133</ele><time>2024-04-13T10:32:24Z</time><name>PT1049</name></trkpt>
<trkpt lat="53.321998" lon="-1.653123"><ele>134</ele><time>2024-04-13T10:32:29Z</time><name>PT1050</name></trkpt>
<trkpt lat="53.322000" lon="-1.653128"><ele>133</ele><time>2024-04-13T10:32:32Z</time><name>PT1051</name></trkpt>
<trkpt lat="53.322002" lon="-1.653118"><ele>133</ele><time>2024-04-13T10:32:36Z</time><name>PT1052</name></trkpt>
<trkpt lat="53.322001" lon="-1.653120"><ele>133</ele><time>2024-04-13T10:32:39Z</time><name>PT1053</name></trkpt>
<trkpt lat="53.322001" lon="-1.653120"><ele>133</ele><time>2024-04-13T10:32:44Z</time><name>PT1054</name></trkpt>
<trkpt lat="53.322000" lon="-1.653119"><ele>133</ele><time>2024-04-13T10:32:53Z</time><name>PT1055</name></trkpt>
<trkpt lat="53.321998" lon="-1.653121"><ele>133</ele><time>2024-04-13T10:32:57Z</time><name>PT1056</name></trkpt>
<trkpt lat="53.321994" lon="-1.653107"><ele>134</ele><time>2024-04-13T10:33:05Z</time><name>PT1057</name></trkpt>
<trkpt lat="53.321988" lon="-1.653088"><ele>134</ele><time>2024-04-13T10:33:08Z</time><name>PT1058</name></trkpt>
<trkpt lat="53.321984" lon="-1.653088"><ele>134</ele><time>2024-04-13T10:33:12Z</time><name>PT1059</name></trkpt>
<trkpt lat="53.321981" lon="-1.653085"><ele>134</ele><time>2024-04-13T10:33:15Z</time><name>PT1060</name></trkpt>
<trkpt lat="53.321984" lon="-1.653094"><ele>135</ele><time>2024-04-13T10:33:20Z</time><name>PT1061</name></trkpt>
<trkpt lat="53.321988" lon="-1.653088"><ele>136</ele><time>2024-04-13T10:33:23Z</time><name>PT1062</name></trkpt>
<trkpt lat="53.321992" lon="-1.653088"><ele>136</ele><time>2024-04-13T10:33:26Z</time><name>PT1063</name></trkpt>
<trkpt lat="53.321993" lon="-1.653087"><ele>137</ele><time>2024-04-13T10:33:38Z</time><name>PT1064</name></trkpt>
<trkpt lat="53.321990" lon="-1.653085"><ele>136</ele><time>2024-04-13T10:33:41Z</time><name>PT1065</name></trkpt>
<trkpt lat="53.321986" lon="-1.653098"><ele>137</ele><time>2024-04-13T10:33:44Z</time><name>PT1066</name></trkpt>
<trkpt lat="53.321983" lon="-1.653105"><ele>137</ele><time>2024-04-13T10:33:47Z</time><name>PT1067</name></trkpt>
<trkpt lat="53.321985" lon="-1.653111"><ele>137</ele><time>2024-04-13T10:33:51Z</time><name>PT1068</name></trkpt>
<trkpt lat="53.321984" lon="-1.653108"><ele>137</ele><time>2024-04-13T10:33:54Z</time><name>PT1069</name></trkpt>
<trkpt lat="53.321983" lon="-1.653107"><ele>137</ele><time>2024-04-13T10:33:59Z</time><name>PT1070</name></trkpt>
<trkpt lat="53.321984" lon="-1.653111"><ele>137</ele><time>2024-04-13T10:34:02Z</time><name>PT1071</name></trkpt>
<trkpt lat="53.321987" lon="-1.653112"><ele>137</ele><time>2024-04-13T10:34:32Z</time><name>PT1072</name></trkpt>
<trkpt lat="53.321997" lon="-1.653116"><ele>137</ele><time>2024-04-13T10:34:35Z</time><name>PT1073</name></trkpt>
<trkpt lat="53.321997" lon="-1.653119"><ele>137</ele><time>2024-04-13T10:34:48Z</time><name>PT1074</name></trkpt>
<trkpt lat="53.322002" lon="-1.653118"><ele>137</ele><time>2024-04-13T10:34:51Z</time><name>PT1075</name></trkpt>
<trkpt lat="53.322004" lon="-1.653121"><ele>137</ele><time>2024-04-13T10:34:54Z</time><name>PT1076</name></trkpt>
<trkpt lat="53.322013" lon="-1.653124"><ele>136</ele><time>2024-04-13T10:34:57Z</time><name>PT1077</name></trkpt>
<trkpt lat="53.322020" lon="-1.653147"><ele>135</ele><time>2024-04-13T10:35:02Z</time><name>PT1078</name></trkpt>
<trkpt lat="53.322018" lon="-1.653145"><ele>134</ele><time>2024-04-13T10:35:05Z</time><name>PT1079</name></trkpt>
<trkpt lat="53.322005" lon="-1.653140"><ele>133</ele><time>2024-04-13T10:35:09Z</time><name>PT1080</name></trkpt>
<trkpt lat="53.322004" lon="-1.653141"><ele>133</ele><time>2024-04-13T10:35:14Z</time><name>PT1081</name></trkpt>
<trkpt lat="53.322006" lon="-1.653144"><ele>133</ele><time>2024-04-13T10:35:38Z</time><name>PT1082</name></trkpt>
<trkpt lat="53.322005" lon="-1.653133"><ele>133</ele><time>2024-04-13T10:35:42Z</time><name>PT1083</name></trkpt>
<trkpt lat="53.322019" lon="-1.653133"><ele>134</ele><time>2024-04-13T10:35:45Z</time><name>PT1084</name></trkpt>
<trkpt lat="53.322024" lon="-1.653133"><ele>133</ele><time>2024-04-13T10:35:50Z</time><name>PT1085</name></trkpt>
<trkpt lat="53.322025" lon="-1.653140"><ele>134</ele><time>2024-04-13T10:35:59Z</time><name>PT1086</name></trkpt>
<trkpt lat="53.322018" lon="-1.653136"><ele>135</ele><time>2024-04-13T10:36:03Z</time><name>PT1087</name></trkpt>
<trkpt lat="53.322016" lon="-1.653119"><ele>137</ele><time>2024-04-13T10:36:08Z</time><name>PT1088</name></trkpt>
<trkpt lat="53.322014" lon="-1.653113"><ele>137</ele><time>2024-04-13T10:36:11Z</time><name>PT1089</name></trkpt>
<trkpt lat="53.322016" lon="-1.653110"><ele>138</ele><time>2024-04-13T10:36:14Z</time><name>PT1090</name></trkpt>
<trkpt lat="53.322024" lon="-1.653103"><ele>139</ele><time>2024-04-13T10:36:29Z</time><name>PT1091</name></trkpt>
<trkpt lat="53.322019" lon="-1.653115"><ele>138</ele><time>2024-04-13T10:36:32Z</time><name>PT1092</name></trkpt>
<trkpt lat="53.322021" lon="-1.653111"><ele>137</ele><time>2024-04-13T10:37:02Z</time><name>PT1093</name></trkpt>
<trkpt lat="53.322024" lon="-1.653108"><ele>138</ele><time>2024-04-13T10:37:06Z</time><name>PT1094</name></trkpt>
<trkpt lat="53.322019" lon="-1.653120"><ele>137</ele><time>2024-04-13T10:37:14Z</time><name>PT1095</name></trkpt>
<trkpt lat="53.322006" lon="-1.653130"><ele>136</ele><time>2024-04-13T10:37:17Z</time><name>PT1096</name></trkpt>
<trkpt lat="53.322010" lon="-1.653140"><ele>134</ele><time>2024-04-13T10:37:20Z</time><name>PT1097</name></trkpt>
<trkpt lat="53.322024" lon="-1.653155"><ele>132</ele><time>2024-04-13T10:37:24Z</time><name>PT1098</name></trkpt>
<trkpt lat="53.322024" lon="-1.653171"><ele>132</ele><time>2024-04-13T10:37:27Z</time><name>PT1099</name></trkpt>
<trkpt lat="53.322017" lon="-1.653190"><ele>133</ele><time>2024-04-13T10:37:32Z</time><name>PT1100</name></trkpt>
<trkpt lat="53.322009" lon="-1.653192"><ele>133</ele><time>2024-04-13T10:37:35Z</time><name>PT1101</name></trkpt>
<trkpt lat="53.322009" lon="-1.653191"><ele>132</ele><time>2024-04-13T10:37:38Z</time><name>PT1102</name></trkpt>
<trkpt lat="53.322005" lon="-1.653184"><ele>130</ele><time>2024-04-13T10:37:41Z</time><name>PT1103</name></trkpt>
<trkpt lat="53.322004" lon="-1.653208"><ele>129</ele><time>2024-04-13T10:37:44Z</time><name>PT1104</name></trkpt>
<trkpt lat="53.322006" lon="-1.653216"><ele>129</ele><time>2024-04-13T10:37:48Z</time><name>PT1105</name></trkpt>
<trkpt lat="53.322004" lon="-1.653228"><ele>128</ele><time>2024-04-13T10:37:51Z</time><name>PT1106</name></trkpt>
<trkpt lat="53.322000" lon="-1.653220"><ele>127</ele><time>2024-04-13T10:37:54Z</time><name>PT1107</name></trkpt>
<trkpt lat="53.321997" lon="-1.653209"><ele>131</ele><time>2024-04-13T10:37:58Z</time><name>PT1108</name></trkpt>
<trkpt lat="53.321992" lon="-1.653197"><ele>134</ele><time>2024-04-13T10:38:02Z</time><name>PT1109</name></trkpt>
<trkpt lat="53.321990" lon="-1.653204"><ele>133</ele><time>2024-04-13T10:38:05Z</time><name>PT1110</name></trkpt>
<trkpt lat="53.321987" lon="-1.653204"><ele>133</ele><time>2024-04-13T10:38:08Z</time><name>PT1111</name></trkpt>
<trkpt lat="53.321983" lon="-1.653212"><ele>133</ele><time>2024-04-13T10:38:11Z</time><name>PT1112</name></trkpt>
<trkpt lat="53.321979" lon="-1.653216"><ele>133</ele><time>2024-04-13T10:38:15Z</time><name>PT1113</name></trkpt>
<trkpt lat="53.321973" lon="-1.653222"><ele>132</ele><time>2024-04-13T10:38:23Z</time><name>PT1114</name></trkpt>
<trkpt lat="53.321967" lon="-1.653223"><ele>132</ele><time>2024-04-13T10:38:26Z</time><name>PT1115</name></trkpt>
<trkpt lat="53.321962" lon="-1.653218"><ele>132</ele><time>2024-04-13T10:38:35Z</time><name>PT1116</name></trkpt>
<trkpt lat="53.321923" lon="-1.653171"><ele>133</ele><time>2024-04-13T10:38:39Z</time><name>PT1117</name></trkpt>
<trkpt lat="53.321888" lon="-1.653139"><ele>133</ele><time>2024-04-13T10:38:44Z</time><name>PT1118</name></trkpt>
<trkpt lat="53.321868" lon="-1.653072"><ele>133</ele><time>2024-04-13T10:38:47Z</time><name>PT1119</name></trkpt>
<trkpt lat="53.321854" lon="-1.653021"><ele>133</ele><time>2024-04-13T10:38:50Z</time><name>PT1120</name></trkpt>
<trkpt lat="53.321842" lon="-1.652962"><ele>133</ele><time>2024-04-13T10:38:53Z</time><name>PT1121</name></trkpt>
<trkpt lat="53.321829" lon="-1.652874"><ele>132</ele><time>2024-04-13T10:38:57Z</time><name>PT1122</name></trkpt>
<trkpt lat="53.321815" lon="-1.652795"><ele>132</ele><time>2024-04-13T10:39:02Z</time><name>PT1123</name></trkpt>
<trkpt lat="53.321810" lon="-1.652737"><ele>132</ele><time>2024-04-13T10:39:05Z</time><name>PT1124</name></trkpt>
<trkpt lat="53.321795" lon="-1.652662"><ele>132</ele><time>2024-04-13T10:39:08Z</time><name>PT1125</name></trkpt>
<trkpt lat="53.321787" lon="-1.652603"><ele>132</ele><time>2024-04-13T10:39:11Z</time><name>PT1126</name></trkpt>
<trkpt lat="53.321760" lon="-1.652533"><ele>132</ele><time>2024-04-13T10:39:15Z</time><name>PT1127</name></trkpt>
<trkpt lat="53.321751" lon="-1.652469"><ele>132</ele><time>2024-04-13T10:39:18Z</time><name>PT1128</name></trkpt>
<trkpt lat="53.321742" lon="-1.652404"><ele>133</ele><time>2024-04-13T10:39:21Z</time><name>PT1129</name></trkpt>
<trkpt lat="53.321729" lon="-1.652319"><ele>133</ele><time>2024-04-13T10:39:26Z</time><name>PT1130</name></trkpt>
<trkpt lat="53.321724" lon="-1.652255"><ele>133</ele><time>2024-04-13T10:39:29Z</time><name>PT1131</name></trkpt>
<trkpt lat="53.321723" lon="-1.652184"><ele>133</ele><time>2024-04-13T10:39:32Z</time><name>PT1132</name></trkpt>
<trkpt lat="53.321718" lon="-1.652121"><ele>134</ele><time>2024-04-13T10:39:35Z</time><name>PT1133</name></trkpt>
<trkpt lat="53.321739" lon="-1.652049"><ele>135</ele><time>2024-04-13T10:39:38Z</time><name>PT1134</name></trkpt>
<trkpt lat="53.321753" lon="-1.651999"><ele>135</ele><time>2024-04-13T10:39:42Z</time><name>PT1135</name></trkpt>
<trkpt lat="53.321760" lon="-1.651939"><ele>134</ele><time>2024-04-13T10:39:47Z</time><name>PT1136</name></trkpt>
<trkpt lat="53.321763" lon="-1.651870"><ele>134</ele><time>2024-04-13T10:39:50Z</time><name>PT1137</name></trkpt>
<trkpt lat="53.321752" lon="-1.651823"><ele>134</ele><time>2024-04-13T10:39:53Z</time><name>PT1138</name></trkpt>
<trkpt lat="53.321746" lon="-1.651779"><ele>134</ele><time>2024-04-13T10:39:56Z</time><name>PT1139</name></trkpt>
<trkpt lat="53.321737" lon="-1.651723"><ele>135</ele><time>2024-04-13T10:39:59Z</time><name>PT1140</name></trkpt>
<trkpt lat="53.321730" lon="-1.651647"><ele>135</ele><time>2024-04-13T10:40:03Z</time><name>PT1141</name></trkpt>
<trkpt lat="53.321717" lon="-1.651583"><ele>134</ele><time>2024-04-13T10:40:08Z</time><name>PT1142</name></trkpt>
<trkpt lat="53.321700" lon="-1.651502"><ele>134</ele><time>2024-04-13T10:40:11Z</time><name>PT1143</name></trkpt>
<trkpt lat="53.321689" lon="-1.651450"><ele>132</ele><time>2024-04-13T10:40:14Z</time><name>PT1144</name></trkpt>
<trkpt lat="53.321673" lon="-1.651366"><ele>132</ele><time>2024-04-13T10:40:18Z</time><name>PT1145</name></trkpt>
<trkpt lat="53.321662" lon="-1.651308"><ele>133</ele><time>2024-04-13T10:40:21Z</time><name>PT1146</name></trkpt>
<trkpt lat="53.321665" lon="-1.651271"><ele>133</ele><time>2024-04-13T10:40:24Z</time><name>PT1147</name></trkpt>
<trkpt lat="53.321667" lon="-1.651260"><ele>133</ele><time>2024-04-13T10:40:29Z</time><name>PT1148</name></trkpt>
<trkpt lat="53.321669" lon="-1.651246"><ele>133</ele><time>2024-04-13T10:40:32Z</time><name>PT1149</name></trkpt>
<trkpt lat="53.321665" lon="-1.651233"><ele>133</ele><time>2024-04-13T10:40:35Z</time><name>PT1150</name></trkpt>
<trkpt lat="53.321662" lon="-1.651198"><ele>133</ele><time>2024-04-13T10:40:39Z</time><name>PT1151</name></trkpt>
<trkpt lat="53.321668" lon="-1.651179"><ele>133</ele><time>2024-04-13T10:40:44Z</time><name>PT1152</name></trkpt>
<trkpt lat="53.321697" lon="-1.651161"><ele>133</ele><time>2024-04-13T10:40:47Z</time><name>PT1153</name></trkpt>
<trkpt lat="53.321725" lon="-1.651133"><ele>133</ele><time>2024-04-13T10:40:50Z</time><name>PT1154</name></trkpt>
<trkpt lat="53.321773" lon="-1.651097"><ele>134</ele><time>2024-04-13T10:40:53Z</time><name>PT1155</name></trkpt>
<trkpt lat="53.321831" lon="-1.651078"><ele>136</ele><time>2024-04-13T10:40:57Z</time><name>PT1156</name></trkpt>
<trkpt lat="53.321879" lon="-1.651067"><ele>137</ele><time>2024-04-13T10:41:02Z</time><name>PT1157</name></trkpt>
<trkpt lat="53.321939" lon="-1.651051"><ele>138</ele><time>2024-04-13T10:41:05Z</time><name>PT1158</name></trkpt>
<trkpt lat="53.321989" lon="-1.651030"><ele>138</ele><time>2024-04-13T10:41:09Z</time><name>PT1159</name></trkpt>
<trkpt lat="53.322040" lon="-1.651013"><ele>140</ele><time>2024-04-13T10:41:14Z</time><name>PT1160</name></trkpt>
<trkpt lat="53.322072" lon="-1.650989"><ele>139</ele><time>2024-04-13T10:41:17Z</time><name>PT1161</name></trkpt>
<trkpt lat="53.322109" lon="-1.650967"><ele>135</ele><time>2024-04-13T10:41:20Z</time><name>PT1162</name></trkpt>
<trkpt lat="53.322152" lon="-1.650959"><ele>137</ele><time>2024-04-13T10:41:23Z</time><name>PT1163</name></trkpt>
<trkpt lat="53.322186" lon="-1.650946"><ele>136</ele><time>2024-04-13T10:41:26Z</time><name>PT1164</name></trkpt>
<trkpt lat="53.322225" lon="-1.650929"><ele>135</ele><time>2024-04-13T10:41:29Z</time><name>PT1165</name></trkpt>
<trkpt lat="53.322256" lon="-1.650920"><ele>133</ele><time>2024-04-13T10:41:32Z</time><name>PT1166</name></trkpt>
<trkpt lat="53.322306" lon="-1.650935"><ele>133</ele><time>2024-04-13T10:41:36Z</time><name>PT1167</name></trkpt>
<trkpt lat="53.322344" lon="-1.650931"><ele>132</ele><time>2024-04-13T10:41:39Z</time><name>PT1168</name></trkpt>
<trkpt lat="53.322387" lon="-1.650933"><ele>131</ele><time>2024-04-13T10:41:44Z</time><name>PT1169</name></trkpt>
<trkpt lat="53.322401" lon="-1.650925"><ele>132</ele><time>2024-04-13T10:41:47Z</time><name>PT1170</name></trkpt>
<trkpt lat="53.322406" lon="-1.650922"><ele>132</ele><time>2024-04-13T10:41:50Z</time><name>PT1171</name></trkpt>
<trkpt lat="53.322412" lon="-1.650922"><ele>131</ele><time>2024-04-13T10:41:56Z</time><name>PT1172</name></trkpt>
<trkpt lat="53.322420" lon="-1.650936"><ele>132</ele><time>2024-04-13T10:41:59Z</time><name>PT1173</name></trkpt>
<trkpt lat="53.322443" lon="-1.650960"><ele>131</ele><time>2024-04-13T10:42:02Z</time><name>PT1174</name></trkpt>
<trkpt lat="53.322458" lon="-1.650991"><ele>132</ele><time>2024-04-13T10:42:06Z</time><name>PT1175</name></trkpt>
<trkpt lat="53.322481" lon="-1.651041"><ele>133</ele><time>2024-04-13T10:42:09Z</time><name>PT1176</name></trkpt>
<trkpt lat="53.322519" lon="-1.651113"><ele>133</ele><time>2024-04-13T10:42:14Z</time><name>PT1177</name></trkpt>
<trkpt lat="53.322562" lon="-1.651181"><ele>134</ele><time>2024-04-13T10:42:17Z</time><name>PT1178</name></trkpt>
<trkpt lat="53.322606" lon="-1.651248"><ele>135</ele><time>2024-04-13T10:42:21Z</time><name>PT1179</name></trkpt>
<trkpt lat="53.322634" lon="-1.651291"><ele>136</ele><time>2024-04-13T10:42:24Z</time><name>PT1180</name></trkpt>
<trkpt lat="53.322665" lon="-1.651338"><ele>137</ele><time>2024-04-13T10:42:27Z</time><name>PT1181</name></trkpt>
<trkpt lat="53.322698" lon="-1.651381"><ele>137</ele><time>2024-04-13T10:42:30Z</time><name>PT1182</name></trkpt>
<trkpt lat="53.322731" lon="-1.651445"><ele>137</ele><time>2024-04-13T10:42:35Z</time><name>PT1183</name></trkpt>
<trkpt lat="53.322759" lon="-1.651491"><ele>136</ele><time>2024-04-13T10:42:38Z</time><name>PT1184</name></trkpt>
<trkpt lat="53.322792" lon="-1.651549"><ele>136</ele><time>2024-04-13T10:42:41Z</time><name>PT1185</name></trkpt>
<trkpt lat="53.322830" lon="-1.651613"><ele>136</ele><time>2024-04-13T10:42:45Z</time><name>PT1186</name></trkpt>
<trkpt lat="53.322873" lon="-1.651676"><ele>137</ele><time>2024-04-13T10:42:50Z</time><name>PT1187</name></trkpt>
<trkpt lat="53.322899" lon="-1.651729"><ele>136</ele><time>2024-04-13T10:42:53Z</time><name>PT1188</name></trkpt>
<trkpt lat="53.322941" lon="-1.651772"><ele>139</ele><time>2024-04-13T10:42:56Z</time><name>PT1189</name></trkpt>
<trkpt lat="53.322977" lon="-1.651842"><ele>139</ele><time>2024-04-13T10:42:59Z</time><name>PT1190</name></trkpt>
<trkpt lat="53.323011" lon="-1.651888"><ele>140</ele><time>2024-04-13T10:43:02Z</time><name>PT1191</name></trkpt>
<trkpt lat="53.323037" lon="-1.651955"><ele>138</ele><time>2024-04-13T10:43:06Z</time><name>PT1192</name></trkpt>
<trkpt lat="53.323071" lon="-1.652016"><ele>138</ele><time>2024-04-13T10:43:11Z</time><name>PT1193</name></trkpt>
<trkpt lat="53.323098" lon="-1.652066"><ele>138</ele><time>2024-04-13T10:43:14Z</time><name>PT1194</name></trkpt>
<trkpt lat="53.323127" lon="-1.652120"><ele>138</ele><time>2024-04-13T10:43:17Z</time><name>PT1195</name></trkpt>
<trkpt lat="53.323158" lon="-1.652168"><ele>139</ele><time>2024-04-13T10:43:20Z</time><name>PT1196</name></trkpt>
<trkpt lat="53.323190" lon="-1.652226"><ele>139</ele><time>2024-04-13T10:43:23Z</time><name>PT1197</name></trkpt>
<trkpt lat="53.323227" lon="-1.652284"><ele>138</ele><time>2024-04-13T10:43:27Z</time><name>PT1198</name></trkpt>
<trkpt lat="53.323262" lon="-1.652341"><ele>138</ele><time>2024-04-13T10:43:32Z</time><name>PT1199</name></trkpt>
<trkpt lat="53.323296" lon="-1.652389"><ele>138</ele><time>2024-04-13T10:43:35Z</time><name>PT1200</name></trkpt>
<trkpt lat="53.323320" lon="-1.652437"><ele>138</ele><time>2024-04-13T10:43:38Z</time><name>PT1201</name></trkpt>
<trkpt lat="53.323363" lon="-1.652494"><ele>138</ele><time>2024-04-13T10:43:41Z</time><name>PT1202</name></trkpt>
<trkpt lat="53.323389" lon="-1.652542"><ele>138</ele><time>2024-04-13T10:43:44Z</time><name>PT1203</name></trkpt>
<trkpt lat="53.323426" lon="-1.652594"><ele>137</ele><time>2024-04-13T10:43:48Z</time><name>PT1204</name></trkpt>
<trkpt lat="53.323449" lon="-1.652633"><ele>137</ele><time>2024-04-13T10:43:51Z</time><name>PT1205</name></trkpt>
<trkpt lat="53.323472" lon="-1.652670"><ele>137</ele><time>2024-04-13T10:43:54Z</time><name>PT1206</name></trkpt>
<trkpt lat="53.323500" lon="-1.652728"><ele>138</ele><time>2024-04-13T10:43:59Z</time><name>PT1207</name></trkpt>
<trkpt lat="53.323523" lon="-1.652756"><ele>138</ele><time>2024-04-13T10:44:02Z</time><name>PT1208</name></trkpt>
<trkpt lat="53.323536" lon="-1.652772"><ele>138</ele><time>2024-04-13T10:44:06Z</time><name>PT1209</name></trkpt>
<trkpt lat="53.323574" lon="-1.652851"><ele>137</ele><time>2024-04-13T10:44:14Z</time><name>PT1210</name></trkpt>
<trkpt lat="53.323600" lon="-1.652909"><ele>136</ele><time>2024-04-13T10:44:17Z</time><name>PT1211</name></trkpt>
<trkpt lat="53.323627" lon="-1.652970"><ele>135</ele><time>2024-04-13T10:44:20Z</time><name>PT1212</name></trkpt>
<trkpt lat="53.323645" lon="-1.653015"><ele>135</ele><time>2024-04-13T10:44:23Z</time><name>PT1213</name></trkpt>
<trkpt lat="53.323670" lon="-1.653091"><ele>135</ele><time>2024-04-13T10:44:27Z</time><name>PT1214</name></trkpt>
<trkpt lat="53.323685" lon="-1.653152"><ele>134</ele><time>2024-04-13T10:44:30Z</time><name>PT1215</name></trkpt>
<trkpt lat="53.323703" lon="-1.653235"><ele>134</ele><time>2024-04-13T10:44:35Z</time><name>PT1216</name></trkpt>
<trkpt lat="53.323716" lon="-1.653304"><ele>134</ele><time>2024-04-13T10:44:38Z</time><name>PT1217</name></trkpt>
<trkpt lat="53.323739" lon="-1.653375"><ele>134</ele><time>2024-04-13T10:44:41Z</time><name>PT1218</name></trkpt>
<trkpt lat="53.323754" lon="-1.653444"><ele>134</ele><time>2024-04-13T10:44:45Z</time><name>PT1219</name></trkpt>
<trkpt lat="53.323771" lon="-1.653490"><ele>134</ele><time>2024-04-13T10:44:48Z</time><name>PT1220</name></trkpt>
<trkpt lat="53.323789" lon="-1.653566"><ele>134</ele><time>2024-04-13T10:44:53Z</time><name>PT1221</name></trkpt>
<trkpt lat="53.323810" lon="-1.653623"><ele>135</ele><time>2024-04-13T10:44:56Z</time><name>PT1222</name></trkpt>
<trkpt lat="53.323840" lon="-1.653698"><ele>135</ele><time>2024-04-13T10:44:59Z</time><name>PT1223</name></trkpt>
<trkpt lat="53.323865" lon="-1.653758"><ele>135</ele><time>2024-04-13T10:45:02Z</time><name>PT1224</name></trkpt>
<trkpt lat="53.323891" lon="-1.653827"><ele>136</ele><time>2024-04-13T10:45:06Z</time><name>PT1225</name></trkpt>
<trkpt lat="53.323919" lon="-1.653896"><ele>137</ele><time>2024-04-13T10:45:11Z</time><name>PT1226</name></trkpt>
<trkpt lat="53.323941" lon="-1.653947"><ele>137</ele><time>2024-04-13T10:45:14Z</time><name>PT1227</name></trkpt>
<trkpt lat="53.323963" lon="-1.654020"><ele>136</ele><time>2024-04-13T10:45:17Z</time><name>PT1228</name></trkpt>
<trkpt lat="53.323987" lon="-1.654072"><ele>137</ele><time>2024-04-13T10:45:20Z</time><name>PT1229</name></trkpt>
<trkpt lat="53.324010" lon="-1.654147"><ele>136</ele><time>2024-04-13T10:45:24Z</time><name>PT1230</name></trkpt>
<trkpt lat="53.324036" lon="-1.654206"><ele>136</ele><time>2024-04-13T10:45:27Z</time><name>PT1231</name></trkpt>
<trkpt lat="53.324058" lon="-1.654271"><ele>137</ele><time>2024-04-13T10:45:32Z</time><name>PT1232</name></trkpt>
<trkpt lat="53.324084" lon="-1.654341"><ele>137</ele><time>2024-04-13T10:45:35Z</time><name>PT1233</name></trkpt>
<trkpt lat="53.324097" lon="-1.654402"><ele>136</ele><time>2024-04-13T10:45:38Z</time><name>PT1234</name></trkpt>
<trkpt lat="53.324118" lon="-1.654464"><ele>134</ele><time>2024-04-13T10:45:42Z</time><name>PT1235</name></trkpt>
<trkpt lat="53.324131" lon="-1.654531"><ele>134</ele><time>2024-04-13T10:45:47Z</time><name>PT1236</name></trkpt>
<trkpt lat="53.324172" lon="-1.654588"><ele>136</ele><time>2024-04-13T10:45:50Z</time><name>PT1237</name></trkpt>
<trkpt lat="53.324200" lon="-1.654634"><ele>136</ele><time>2024-04-13T10:45:53Z</time><name>PT1238</name></trkpt>
<trkpt lat="53.324241" lon="-1.654690"><ele>136</ele><time>2024-04-13T10:45:57Z</time><name>PT1239</name></trkpt>
<trkpt lat="53.324269" lon="-1.654736"><ele>137</ele><time>2024-04-13T10:46:00Z</time><name>PT1240</name></trkpt>
<trkpt lat="53.324294" lon="-1.654796"><ele>137</ele><time>2024-04-13T10:46:05Z</time><name>PT1241</name></trkpt>
<trkpt lat="53.324328" lon="-1.654854"><ele>136</ele><time>2024-04-13T10:46:08Z</time><name>PT1242</name></trkpt>
<trkpt lat="53.324351" lon="-1.654903"><ele>137</ele><time>2024-04-13T10:46:11Z</time><name>PT1243</name></trkpt>
<trkpt lat="53.324379" lon="-1.654966"><ele>135</ele><time>2024-04-13T10:46:15Z</time><name>PT1244</name></trkpt>
<trkpt lat="53.324397" lon="-1.655018"><ele>136</ele><time>2024-04-13T10:46:18Z</time><name>PT1245</name></trkpt>
<trkpt lat="53.324420" lon="-1.655069"><ele>134</ele><time>2024-04-13T10:46:21Z</time><name>PT1246</name></trkpt>
<trkpt lat="53.324457" lon="-1.655120"><ele>137</ele><time>2024-04-13T10:46:24Z</time><name>PT1247</name></trkpt>
<trkpt lat="53.324500" lon="-1.655191"><ele>138</ele><time>2024-04-13T10:46:29Z</time><name>PT1248</name></trkpt>
<trkpt lat="53.324534" lon="-1.655268"><ele>139</ele><time>2024-04-13T10:46:32Z</time><name>PT1249</name></trkpt>
<trkpt lat="53.324561" lon="-1.655325"><ele>138</ele><time>2024-04-13T10:46:35Z</time><name>PT1250</name></trkpt>
<trkpt lat="53.324598" lon="-1.655392"><ele>138</ele><time>2024-04-13T10:46:39Z</time><name>PT1251</name></trkpt>
<trkpt lat="53.324625" lon="-1.655454"><ele>138</ele><time>2024-04-13T10:46:42Z</time><name>PT1252</name></trkpt>
<trkpt lat="53.324666" lon="-1.655525"><ele>138</ele><time>2024-04-13T10:46:47Z</time><name>PT1253</name></trkpt>
<trkpt lat="53.324692" lon="-1.655580"><ele>139</ele><time>2024-04-13T10:46:50Z</time><name>PT1254</name></trkpt>
<trkpt lat="53.324728" lon="-1.655655"><ele>141</ele><time>2024-04-13T10:46:53Z</time><name>PT1255</name></trkpt>
<trkpt lat="53.324741" lon="-1.655704"><ele>140</ele><time>2024-04-13T10:46:56Z</time><name>PT1256</name></trkpt>
<trkpt lat="53.324767" lon="-1.655757"><ele>141</ele><time>2024-04-13T10:46:59Z</time><name>PT1257</name></trkpt>
<trkpt lat="53.324793" lon="-1.655834"><ele>141</ele><time>2024-04-13T10:47:03Z</time><name>PT1258</name></trkpt>
<trkpt lat="53.324815" lon="-1.655883"><ele>141</ele><time>2024-04-13T10:47:06Z</time><name>PT1259</name></trkpt>
<trkpt lat="53.324841" lon="-1.655950"><ele>140</ele><time>2024-04-13T10:47:11Z</time><name>PT1260</name></trkpt>
<trkpt lat="53.324857" lon="-1.655973"><ele>139</ele><time>2024-04-13T10:47:14Z</time><name>PT1261</name></trkpt>
<trkpt lat="53.324893" lon="-1.656041"><ele>138</ele><time>2024-04-13T10:47:17Z</time><name>PT1262</name></trkpt>
<trkpt lat="53.324921" lon="-1.656089"><ele>138</ele><time>2024-04-13T10:47:20Z</time><name>PT1263</name></trkpt>
<trkpt lat="53.324960" lon="-1.656150"><ele>138</ele><time>2024-04-13T10:47:24Z</time><name>PT1264</name></trkpt>
<trkpt lat="53.324985" lon="-1.656189"><ele>137</ele><time>2024-04-13T10:47:27Z</time><name>PT1265</name></trkpt>
<trkpt lat="53.325015" lon="-1.656220"><ele>136</ele><time>2024-04-13T10:47:30Z</time><name>PT1266</name></trkpt>
<trkpt lat="53.325049" lon="-1.656267"><ele>133</ele><time>2024-04-13T10:47:35Z</time><name>PT1267</name></trkpt>
<trkpt lat="53.325073" lon="-1.656288"><ele>134</ele><time>2024-04-13T10:47:38Z</time><name>PT1268</name></trkpt>
<trkpt lat="53.325085" lon="-1.656302"><ele>135</ele><time>2024-04-13T10:47:41Z</time><name>PT1269</name></trkpt>
<trkpt lat="53.325099" lon="-1.656318"><ele>135</ele><time>2024-04-13T10:47:44Z</time><name>PT1270</name></trkpt>
<trkpt lat="53.325123" lon="-1.656358"><ele>134</ele><time>2024-04-13T10:47:47Z</time><name>PT1271</name></trkpt>
<trkpt lat="53.325151" lon="-1.656400"><ele>134</ele><time>2024-04-13T10:47:50Z</time><name>PT1272</name></trkpt>
<trkpt lat="53.325179" lon="-1.656438"><ele>133</ele><time>2024-04-13T10:47:54Z</time><name>PT1273</name></trkpt>
<trkpt lat="53.325207" lon="-1.656481"><ele>131</ele><time>2024-04-13T10:47:57Z</time><name>PT1274</name></trkpt>
<trkpt lat="53.325242" lon="-1.656515"><ele>133</ele><time>2024-04-13T10:48:02Z</time><name>PT1275</name></trkpt>
<trkpt lat="53.325291" lon="-1.656560"><ele>133</ele><time>2024-04-13T10:48:05Z</time><name>PT1276</name></trkpt>
<trkpt lat="53.325318" lon="-1.656579"><ele>135</ele><time>2024-04-13T10:48:08Z</time><name>PT1277</name></trkpt>
<trkpt lat="53.325371" lon="-1.656606"><ele>135</ele><time>2024-04-13T10:48:12Z</time><name>PT1278</name></trkpt>
<trkpt lat="53.325410" lon="-1.656617"><ele>135</ele><time>2024-04-13T10:48:15Z</time><name>PT1279</name></trkpt>
<trkpt lat="53.325446" lon="-1.656635"><ele>135</ele><time>2024-04-13T10:48:18Z</time><name>PT1280</name></trkpt>
<trkpt lat="53.325487" lon="-1.656669"><ele>135</ele><time>2024-04-13T10:48:21Z</time><name>PT1281</name></trkpt>
<trkpt lat="53.325537" lon="-1.656700"><ele>135</ele><time>2024-04-13T10:48:26Z</time><name>PT1282</name></trkpt>
<trkpt lat="53.325590" lon="-1.656733"><ele>135</ele><time>2024-04-13T10:48:29Z</time><name>PT1283</name></trkpt>
<trkpt lat="53.325630" lon="-1.656745"><ele>136</ele><time>2024-04-13T10:48:32Z</time><name>PT1284</name></trkpt>
<trkpt lat="53.325674" lon="-1.656767"><ele>138</ele><time>2024-04-13T10:48:35Z</time><name>PT1285</name></trkpt>
<trkpt lat="53.325710" lon="-1.656797"><ele>139</ele><time>2024-04-13T10:48:38Z</time><name>PT1286</name></trkpt>
<trkpt lat="53.325747" lon="-1.656813"><ele>139</ele><time>2024-04-13T10:48:41Z</time><name>PT1287</name></trkpt>
<trkpt lat="53.325811" lon="-1.656840"><ele>141</ele><time>2024-04-13T10:48:45Z</time><name>PT1288</name></trkpt>
<trkpt lat="53.325852" lon="-1.656859"><ele>141</ele><time>2024-04-13T10:48:48Z</time><name>PT1289</name></trkpt>
<trkpt lat="53.325906" lon="-1.656890"><ele>143</ele><time>2024-04-13T10:48:53Z</time><name>PT1290</name></trkpt>
<trkpt lat="53.325944" lon="-1.656903"><ele>144</ele><time>2024-04-13T10:48:56Z</time><name>PT1291</name></trkpt>
<trkpt lat="53.325978" lon="-1.656921"><ele>143</ele><time>2024-04-13T10:48:59Z</time><name>PT1292</name></trkpt>
<trkpt lat="53.326025" lon="-1.656947"><ele>145</ele><time>2024-04-13T10:49:02Z</time><name>PT1293</name></trkpt>
<trkpt lat="53.326075" lon="-1.656965"><ele>145</ele><time>2024-04-13T10:49:05Z</time><name>PT1294</name></trkpt>
<trkpt lat="53.326115" lon="-1.656984"><ele>145</ele><time>2024-04-13T10:49:08Z</time><name>PT1295</name></trkpt>
<trkpt lat="53.326145" lon="-1.656988"><ele>144</ele><time>2024-04-13T10:49:11Z</time><name>PT1296</name></trkpt>
<trkpt lat="53.326184" lon="-1.657008"><ele>144</ele><time>2024-04-13T10:49:15Z</time><name>PT1297</name></trkpt>
<trkpt lat="53.326229" lon="-1.657021"><ele>144</ele><time>2024-04-13T10:49:18Z</time><name>PT1298</name></trkpt>
<trkpt lat="53.326286" lon="-1.657031"><ele>143</ele><time>2024-04-13T10:49:23Z</time><name>PT1299</name></trkpt>
<trkpt lat="53.326336" lon="-1.657044"><ele>143</ele><time>2024-04-13T10:49:26Z</time><name>PT1300</name></trkpt>
<trkpt lat="53.326394" lon="-1.657061"><ele>142</ele><time>2024-04-13T10:49:29Z</time><name>PT1301</name></trkpt>
<trkpt lat="53.326452" lon="-1.657079"><ele>143</ele><time>2024-04-13T10:49:33Z</time><name>PT1302</name></trkpt>
<trkpt lat="53.326493" lon="-1.657085"><ele>143</ele><time>2024-04-13T10:49:38Z</time><name>PT1303</name></trkpt>
<trkpt lat="53.326542" lon="-1.657093"><ele>144</ele><time>2024-04-13T10:49:41Z</time><name>PT1304</name></trkpt>
<trkpt lat="53.326606" lon="-1.657102"><ele>143</ele><time>2024-04-13T10:49:44Z</time><name>PT1305</name></trkpt>
<trkpt lat="53.326664" lon="-1.657093"><ele>143</ele><time>2024-04-13T10:49:48Z</time><name>PT1306</name></trkpt>
<trkpt lat="53.326710" lon="-1.657099"><ele>143</ele><time>2024-04-13T10:49:51Z</time><name>PT1307</name></trkpt>
<trkpt lat="53.326770" lon="-1.657116"><ele>144</ele><time>2024-04-13T10:49:56Z</time><name>PT1308</name></trkpt>
<trkpt lat="53.326817" lon="-1.657155"><ele>143</ele><time>2024-04-13T10:49:59Z</time><name>PT1309</name></trkpt>
<trkpt lat="53.326853" lon="-1.657195"><ele>143</ele><time>2024-04-13T10:50:02Z</time><name>PT1310</name></trkpt>
<trkpt lat="53.326896" lon="-1.657235"><ele>144</ele><time>2024-04-13T10:50:06Z</time><name>PT1311</name></trkpt>
<trkpt lat="53.326930" lon="-1.657274"><ele>143</ele><time>2024-04-13T10:50:11Z</time><name>PT1312</name></trkpt>
<trkpt lat="53.326959" lon="-1.657304"><ele>144</ele><time>2024-04-13T10:50:14Z</time><name>PT1313</name></trkpt>
<trkpt lat="53.326989" lon="-1.657339"><ele>144</ele><time>2024-04-13T10:50:17Z</time><name>PT1314</name></trkpt>
<trkpt lat="53.327035" lon="-1.657386"><ele>145</ele><time>2024-04-13T10:50:20Z</time><name>PT1315</name></trkpt>
<trkpt lat="53.327070" lon="-1.657429"><ele>146</ele><time>2024-04-13T10:50:23Z</time><name>PT1316</name></trkpt>
<trkpt lat="53.327115" lon="-1.657502"><ele>148</ele><time>2024-04-13T10:50:27Z</time><name>PT1317</name></trkpt>
<trkpt lat="53.327147" lon="-1.657565"><ele>149</ele><time>2024-04-13T10:50:32Z</time><name>PT1318</name></trkpt>
<trkpt lat="53.327168" lon="-1.657612"><ele>149</ele><time>2024-04-13T10:50:35Z</time><name>PT1319</name></trkpt>
<trkpt lat="53.327200" lon="-1.657673"><ele>146</ele><time>2024-04-13T10:50:38Z</time><name>PT1320</name></trkpt>
<trkpt lat="53.327218" lon="-1.657717"><ele>144</ele><time>2024-04-13T10:50:41Z</time><name>PT1321</name></trkpt>
<trkpt lat="53.327256" lon="-1.657773"><ele>144</ele><time>2024-04-13T10:50:45Z</time><name>PT1322</name></trkpt>
<trkpt lat="53.327313" lon="-1.657803"><ele>144</ele><time>2024-04-13T10:50:50Z</time><name>PT1323</name></trkpt>
<trkpt lat="53.327356" lon="-1.657811"><ele>145</ele><time>2024-04-13T10:50:53Z</time><name>PT1324</name></trkpt>
<trkpt lat="53.327388" lon="-1.657794"><ele>146</ele><time>2024-04-13T10:50:56Z</time><name>PT1325</name></trkpt>
<trkpt lat="53.327439" lon="-1.657769"><ele>146</ele><time>2024-04-13T10:50:59Z</time><name>PT1326</name></trkpt>
<trkpt lat="53.327480" lon="-1.657731"><ele>149</ele><time>2024-04-13T10:51:03Z</time><name>PT1327</name></trkpt>
<trkpt lat="53.327505" lon="-1.657693"><ele>147</ele><time>2024-04-13T10:51:06Z</time><name>PT1328</name></trkpt>
<trkpt lat="53.327543" lon="-1.657655"><ele>145</ele><time>2024-04-13T10:51:11Z</time><name>PT1329</name></trkpt>
<trkpt lat="53.327571" lon="-1.657628"><ele>145</ele><time>2024-04-13T10:51:14Z</time><name>PT1330</name></trkpt>
<trkpt lat="53.327615" lon="-1.657582"><ele>146</ele><time>2024-04-13T10:51:17Z</time><name>PT1331</name></trkpt>
<trkpt lat="53.327649" lon="-1.657529"><ele>143</ele><time>2024-04-13T10:51:20Z</time><name>PT1332</name></trkpt>
<trkpt lat="53.327679" lon="-1.657526"><ele>142</ele><time>2024-04-13T10:51:23Z</time><name>PT1333</name></trkpt>
<trkpt lat="53.327718" lon="-1.657510"><ele>140</ele><time>2024-04-13T10:51:27Z</time><name>PT1334</name></trkpt>
<trkpt lat="53.327746" lon="-1.657489"><ele>138</ele><time>2024-04-13T10:51:30Z</time><name>PT1335</name></trkpt>
<trkpt lat="53.327768" lon="-1.657466"><ele>138</ele><time>2024-04-13T10:51:33Z</time><name>PT1336</name></trkpt>
<trkpt lat="53.327789" lon="-1.657438"><ele>136</ele><time>2024-04-13T10:51:38Z</time><name>PT1337</name></trkpt>
<trkpt lat="53.327830" lon="-1.657423"><ele>136</ele><time>2024-04-13T10:51:41Z</time><name>PT1338</name></trkpt>
<trkpt lat="53.327856" lon="-1.657402"><ele>138</ele><time>2024-04-13T10:51:44Z</time><name>PT1339</name></trkpt>
<trkpt lat="53.327893" lon="-1.657413"><ele>140</ele><time>2024-04-13T10:51:47Z</time><name>PT1340</name></trkpt>
<trkpt lat="53.327927" lon="-1.657417"><ele>140</ele><time>2024-04-13T10:51:50Z</time><name>PT1341</name></trkpt>
<trkpt lat="53.327966" lon="-1.657413"><ele>139</ele><time>2024-04-13T10:51:53Z</time><name>PT1342</name></trkpt>
<trkpt lat="53.328021" lon="-1.657389"><ele>138</ele><time>2024-04-13T10:51:56Z</time><name>PT1343</name></trkpt>
<trkpt lat="53.328079" lon="-1.657366"><ele>136</ele><time>2024-04-13T10:52:00Z</time><name>PT1344</name></trkpt>
<trkpt lat="53.328115" lon="-1.657358"><ele>135</ele><time>2024-04-13T10:52:03Z</time><name>PT1345</name></trkpt>
<trkpt lat="53.328157" lon="-1.657329"><ele>134</ele><time>2024-04-13T10:52:08Z</time><name>PT1346</name></trkpt>
<trkpt lat="53.328211" lon="-1.657305"><ele>135</ele><time>2024-04-13T10:52:11Z</time><name>PT1347</name></trkpt>
<trkpt lat="53.328285" lon="-1.657286"><ele>137</ele><time>2024-04-13T10:52:14Z</time><name>PT1348</name></trkpt>
<trkpt lat="53.328359" lon="-1.657255"><ele>141</ele><time>2024-04-13T10:52:18Z</time><name>PT1349</name></trkpt>
<trkpt lat="53.328409" lon="-1.657238"><ele>141</ele><time>2024-04-13T10:52:23Z</time><name>PT1350</name></trkpt>
<trkpt lat="53.328448" lon="-1.657211"><ele>140</ele><time>2024-04-13T10:52:26Z</time><name>PT1351</name></trkpt>
<trkpt lat="53.328503" lon="-1.657197"><ele>141</ele><time>2024-04-13T10:52:29Z</time><name>PT1352</name></trkpt>
<trkpt lat="53.328560" lon="-1.657165"><ele>143</ele><time>2024-04-13T10:52:33Z</time><name>PT1353</name></trkpt>
<trkpt lat="53.328607" lon="-1.657145"><ele>144</ele><time>2024-04-13T10:52:36Z</time><name>PT1354</name></trkpt>
<trkpt lat="53.328648" lon="-1.657118"><ele>144</ele><time>2024-04-13T10:52:39Z</time><name>PT1355</name></trkpt>
<trkpt lat="53.328684" lon="-1.657088"><ele>145</ele><time>2024-04-13T10:52:42Z</time><name>PT1356</name></trkpt>
<trkpt lat="53.328744" lon="-1.657047"><ele>148</ele><time>2024-04-13T10:52:47Z</time><name>PT1357</name></trkpt>
<trkpt lat="53.328791" lon="-1.656990"><ele>149</ele><time>2024-04-13T10:52:50Z</time><name>PT1358</name></trkpt>
<trkpt lat="53.328823" lon="-1.656955"><ele>150</ele><time>2024-04-13T10:52:53Z</time><name>PT1359</name></trkpt>
<trkpt lat="53.328856" lon="-1.656899"><ele>151</ele><time>2024-04-13T10:52:57Z</time><name>PT1360</name></trkpt>
<trkpt lat="53.328882" lon="-1.656847"><ele>151</ele><time>2024-04-13T10:53:00Z</time><name>PT1361</name></trkpt>
<trkpt lat="53.328917" lon="-1.656786"><ele>149</ele><time>2024-04-13T10:53:05Z</time><name>PT1362</name></trkpt>
<trkpt lat="53.328938" lon="-1.656748"><ele>149</ele><time>2024-04-13T10:53:08Z</time><name>PT1363</name></trkpt>
<trkpt lat="53.328964" lon="-1.656692"><ele>148</ele><time>2024-04-13T10:53:11Z</time><name>PT1364</name></trkpt>
<trkpt lat="53.328995" lon="-1.656634"><ele>148</ele><time>2024-04-13T10:53:14Z</time><name>PT1365</name></trkpt>
<trkpt lat="53.329037" lon="-1.656569"><ele>148</ele><time>2024-04-13T10:53:17Z</time><name>PT1366</name></trkpt>
<trkpt lat="53.329072" lon="-1.656529"><ele>149</ele><time>2024-04-13T10:53:20Z</time><name>PT1367</name></trkpt>
<trkpt lat="53.329115" lon="-1.656477"><ele>149</ele><time>2024-04-13T10:53:24Z</time><name>PT1368</name></trkpt>
<trkpt lat="53.329152" lon="-1.656445"><ele>150</ele><time>2024-04-13T10:53:27Z</time><name>PT1369</name></trkpt>
<trkpt lat="53.329189" lon="-1.656416"><ele>150</ele><time>2024-04-13T10:53:30Z</time><name>PT1370</name></trkpt>
<trkpt lat="53.329238" lon="-1.656385"><ele>149</ele><time>2024-04-13T10:53:35Z</time><name>PT1371</name></trkpt>
<trkpt lat="53.329264" lon="-1.656382"><ele>147</ele><time>2024-04-13T10:53:38Z</time><name>PT1372</name></trkpt>
<trkpt lat="53.329295" lon="-1.656375"><ele>144</ele><time>2024-04-13T10:53:41Z</time><name>PT1373</name></trkpt>
<trkpt lat="53.329334" lon="-1.656356"><ele>144</ele><time>2024-04-13T10:53:45Z</time><name>PT1374</name></trkpt>
<trkpt lat="53.329365" lon="-1.656362"><ele>145</ele><time>2024-04-13T10:53:48Z</time><name>PT1375</name></trkpt>
<trkpt lat="53.329392" lon="-1.656358"><ele>143</ele><time>2024-04-13T10:53:51Z</time><name>PT1376</name></trkpt>
<trkpt lat="53.329432" lon="-1.656345"><ele>141</ele><time>2024-04-13T10:53:56Z</time><name>PT1377</name></trkpt>
<trkpt lat="53.329459" lon="-1.656331"><ele>140</ele><time>2024-04-13T10:53:59Z</time><name>PT1378</name></trkpt>
<trkpt lat="53.329501" lon="-1.656306"><ele>138</ele><time>2024-04-13T10:54:02Z</time><name>PT1379</name></trkpt>
<trkpt lat="53.329534" lon="-1.656290"><ele>137</ele><time>2024-04-13T10:54:05Z</time><name>PT1380</name></trkpt>
<trkpt lat="53.329589" lon="-1.656274"><ele>139</ele><time>2024-04-13T10:54:08Z</time><name>PT1381</name></trkpt>
<trkpt lat="53.329656" lon="-1.656259"><ele>141</ele><time>2024-04-13T10:54:12Z</time><name>PT1382</name></trkpt>
<trkpt lat="53.329695" lon="-1.656229"><ele>141</ele><time>2024-04-13T10:54:15Z</time><name>PT1383</name></trkpt>
<trkpt lat="53.329756" lon="-1.656209"><ele>142</ele><time>2024-04-13T10:54:20Z</time><name>PT1384</name></trkpt>
<trkpt lat="53.329812" lon="-1.656229"><ele>145</ele><time>2024-04-13T10:54:23Z</time><name>PT1385</name></trkpt>
<trkpt lat="53.329874" lon="-1.656218"><ele>147</ele><time>2024-04-13T10:54:26Z</time><name>PT1386</name></trkpt>
<trkpt lat="53.329940" lon="-1.656205"><ele>148</ele><time>2024-04-13T10:54:30Z</time><name>PT1387</name></trkpt>
<trkpt lat="53.329993" lon="-1.656160"><ele>148</ele><time>2024-04-13T10:54:35Z</time><name>PT1388</name></trkpt>
<trkpt lat="53.330033" lon="-1.656096"><ele>152</ele><time>2024-04-13T10:54:38Z</time><name>PT1389</name></trkpt>
<trkpt lat="53.330059" lon="-1.656041"><ele>152</ele><time>2024-04-13T10:54:42Z</time><name>PT1390</name></trkpt>
<trkpt lat="53.330060" lon="-1.656007"><ele>152</ele><time>2024-04-13T10:54:45Z</time><name>PT1391</name></trkpt>
<trkpt lat="53.330065" lon="-1.655956"><ele>152</ele><time>2024-04-13T10:54:48Z</time><name>PT1392</name></trkpt>
<trkpt lat="53.330073" lon="-1.655886"><ele>151</ele><time>2024-04-13T10:54:53Z</time><name>PT1393</name></trkpt>
<trkpt lat="53.330091" lon="-1.655811"><ele>152</ele><time>2024-04-13T10:54:56Z</time><name>PT1394</name></trkpt>
<trkpt lat="53.330102" lon="-1.655757"><ele>151</ele><time>2024-04-13T10:54:59Z</time><name>PT1395</name></trkpt>
<trkpt lat="53.330120" lon="-1.655693"><ele>152</ele><time>2024-04-13T10:55:02Z</time><name>PT1396</name></trkpt>
<trkpt lat="53.330140" lon="-1.655620"><ele>152</ele><time>2024-04-13T10:55:06Z</time><name>PT1397</name></trkpt>
<trkpt lat="53.330151" lon="-1.655539"><ele>151</ele><time>2024-04-13T10:55:11Z</time><name>PT1398</name></trkpt>
<trkpt lat="53.330167" lon="-1.655456"><ele>151</ele><time>2024-04-13T10:55:14Z</time><name>PT1399</name></trkpt>
<trkpt lat="53.330179" lon="-1.655393"><ele>152</ele><time>2024-04-13T10:55:17Z</time><name>PT1400</name></trkpt>
<trkpt lat="53.330193" lon="-1.655292"><ele>153</ele><time>2024-04-13T10:55:21Z</time><name>PT1401</name></trkpt>
<trkpt lat="53.330206" lon="-1.655228"><ele>153</ele><time>2024-04-13T10:55:24Z</time><name>PT1402</name></trkpt>
<trkpt lat="53.330208" lon="-1.655181"><ele>153</ele><time>2024-04-13T10:55:27Z</time><name>PT1403</name></trkpt>
<trkpt lat="53.330217" lon="-1.655091"><ele>152</ele><time>2024-04-13T10:55:32Z</time><name>PT1404</name></trkpt>
<trkpt lat="53.330229" lon="-1.655002"><ele>151</ele><time>2024-04-13T10:55:35Z</time><name>PT1405</name></trkpt>
<trkpt lat="53.330242" lon="-1.654932"><ele>152</ele><time>2024-04-13T10:55:39Z</time><name>PT1406</name></trkpt>
<trkpt lat="53.330259" lon="-1.654838"><ele>152</ele><time>2024-04-13T10:55:44Z</time><name>PT1407</name></trkpt>
<trkpt lat="53.330263" lon="-1.654765"><ele>152</ele><time>2024-04-13T10:55:47Z</time><name>PT1408</name></trkpt>
<trkpt lat="53.330260" lon="-1.654704"><ele>151</ele><time>2024-04-13T10:55:51Z</time><name>PT1409</name></trkpt>
<trkpt lat="53.330282" lon="-1.654662"><ele>153</ele><time>2024-04-13T10:55:56Z</time><name>PT1410</name></trkpt>
<trkpt lat="53.330317" lon="-1.654644"><ele>154</ele><time>2024-04-13T10:55:59Z</time><name>PT1411</name></trkpt>
<trkpt lat="53.330346" lon="-1.654633"><ele>155</ele><time>2024-04-13T10:56:02Z</time><name>PT1412</name></trkpt>
<trkpt lat="53.330354" lon="-1.654627"><ele>155</ele><time>2024-04-13T10:56:05Z</time><name>PT1413</name></trkpt>
<trkpt lat="53.330355" lon="-1.654625"><ele>155</ele><time>2024-04-13T10:56:09Z</time><name>PT1414</name></trkpt>
<trkpt lat="53.330360" lon="-1.654606"><ele>156</ele><time>2024-04-13T10:58:20Z</time><name>PT1415</name></trkpt>
<trkpt lat="53.330359" lon="-1.654586"><ele>156</ele><time>2024-04-13T10:58:38Z</time><name>PT1416</name></trkpt>
<trkpt lat="53.330369" lon="-1.654517"><ele>157</ele><time>2024-04-13T10:58:42Z</time><name>PT1417</name></trkpt>
<trkpt lat="53.330376" lon="-1.654473"><ele>156</ele><time>2024-04-13T10:58:45Z</time><name>PT1418</name></trkpt>
<trkpt lat="53.330390" lon="-1.654421"><ele>156</ele><time>2024-04-13T10:58:48Z</time><name>PT1419</name></trkpt>
<trkpt lat="53.330412" lon="-1.654376"><ele>156</ele><time>2024-04-13T10:58:53Z</time><name>PT1420</name></trkpt>
<trkpt lat="53.330436" lon="-1.654346"><ele>155</ele><time>2024-04-13T10:58:56Z</time><name>PT1421</name></trkpt>
<trkpt lat="53.330454" lon="-1.654327"><ele>153</ele><time>2024-04-13T10:58:59Z</time><name>PT1422</name></trkpt>
<trkpt lat="53.330480" lon="-1.654293"><ele>151</ele><time>2024-04-13T10:59:03Z</time><name>PT1423</name></trkpt>
<trkpt lat="53.330511" lon="-1.654268"><ele>149</ele><time>2024-04-13T10:59:08Z</time><name>PT1424</name></trkpt>
<trkpt lat="53.330539" lon="-1.654247"><ele>148</ele><time>2024-04-13T10:59:11Z</time><name>PT1425</name></trkpt>
<trkpt lat="53.330559" lon="-1.654198"><ele>151</ele><time>2024-04-13T10:59:14Z</time><name>PT1426</name></trkpt>
<trkpt lat="53.330579" lon="-1.654134"><ele>151</ele><time>2024-04-13T10:59:17Z</time><name>PT1427</name></trkpt>
<trkpt lat="53.330595" lon="-1.654078"><ele>151</ele><time>2024-04-13T10:59:20Z</time><name>PT1428</name></trkpt>
<trkpt lat="53.330614" lon="-1.654029"><ele>151</ele><time>2024-04-13T10:59:23Z</time><name>PT1429</name></trkpt>
<trkpt lat="53.330632" lon="-1.653951"><ele>153</ele><time>2024-04-13T10:59:27Z</time><name>PT1430</name></trkpt>
<trkpt lat="53.330650" lon="-1.653899"><ele>154</ele><time>2024-04-13T10:59:30Z</time><name>PT1431</name></trkpt>
<trkpt lat="53.330683" lon="-1.653831"><ele>154</ele><time>2024-04-13T10:59:35Z</time><name>PT1432</name></trkpt>
<trkpt lat="53.330704" lon="-1.653780"><ele>154</ele><time>2024-04-13T10:59:38Z</time><name>PT1433</name></trkpt>
<trkpt lat="53.330728" lon="-1.653714"><ele>153</ele><time>2024-04-13T10:59:41Z</time><name>PT1434</name></trkpt>
<trkpt lat="53.330750" lon="-1.653660"><ele>151</ele><time>2024-04-13T10:59:45Z</time><name>PT1435</name></trkpt>
<trkpt lat="53.330783" lon="-1.653616"><ele>152</ele><time>2024-04-13T10:59:48Z</time><name>PT1436</name></trkpt>
<trkpt lat="53.330813" lon="-1.653576"><ele>153</ele><time>2024-04-13T10:59:51Z</time><name>PT1437</name></trkpt>
<trkpt lat="53.330845" lon="-1.653532"><ele>150</ele><time>2024-04-13T10:59:56Z</time><name>PT1438</name></trkpt>
<trkpt lat="53.330862" lon="-1.653491"><ele>150</ele><time>2024-04-13T10:59:59Z</time><name>PT1439</name></trkpt>
<trkpt lat="53.330907" lon="-1.653450"><ele>153</ele><time>2024-04-13T11:00:02Z</time><name>PT1440</name></trkpt>
<trkpt lat="53.330959" lon="-1.653451"><ele>155</ele><time>2024-04-13T11:00:06Z</time><name>PT1441</name></trkpt>
<trkpt lat="53.331002" lon="-1.653471"><ele>156</ele><time>2024-04-13T11:00:09Z</time><name>PT1442</name></trkpt>
<trkpt lat="53.331046" lon="-1.653491"><ele>157</ele><time>2024-04-13T11:00:14Z</time><name>PT1443</name></trkpt>
<trkpt lat="53.331074" lon="-1.653502"><ele>157</ele><time>2024-04-13T11:00:17Z</time><name>PT1444</name></trkpt>
<trkpt lat="53.331114" lon="-1.653528"><ele>157</ele><time>2024-04-13T11:00:20Z</time><name>PT1445</name></trkpt>
<trkpt lat="53.331164" lon="-1.653551"><ele>158</ele><time>2024-04-13T11:00:24Z</time><name>PT1446</name></trkpt>
<trkpt lat="53.331198" lon="-1.653571"><ele>158</ele><time>2024-04-13T11:00:27Z</time><name>PT1447</name></trkpt>
<trkpt lat="53.331240" lon="-1.653596"><ele>160</ele><time>2024-04-13T11:00:32Z</time><name>PT1448</name></trkpt>
<trkpt lat="53.331267" lon="-1.653619"><ele>159</ele><time>2024-04-13T11:00:35Z</time><name>PT1449</name></trkpt>
<trkpt lat="53.331295" lon="-1.653635"><ele>158</ele><time>2024-04-13T11:00:38Z</time><name>PT1450</name></trkpt>
<trkpt lat="53.331326" lon="-1.653649"><ele>158</ele><time>2024-04-13T11:00:41Z</time><name>PT1451</name></trkpt>
<trkpt lat="53.331367" lon="-1.653667"><ele>158</ele><time>2024-04-13T11:00:45Z</time><name>PT1452</name></trkpt>
<trkpt lat="53.331403" lon="-1.653691"><ele>156</ele><time>2024-04-13T11:00:48Z</time><name>PT1453</name></trkpt>
<trkpt lat="53.331448" lon="-1.653715"><ele>155</ele><time>2024-04-13T11:00:53Z</time><name>PT1454</name></trkpt>
<trkpt lat="53.331476" lon="-1.653732"><ele>157</ele><time>2024-04-13T11:00:56Z</time><name>PT1455</name></trkpt>
<trkpt lat="53.331503" lon="-1.653746"><ele>156</ele><time>2024-04-13T11:00:59Z</time><name>PT1456</name></trkpt>
<trkpt lat="53.331543" lon="-1.653780"><ele>155</ele><time>2024-04-13T11:01:02Z</time><name>PT1457</name></trkpt>
<trkpt lat="53.331602" lon="-1.653805"><ele>156</ele><time>2024-04-13T11:01:06Z</time><name>PT1458</name></trkpt>
<trkpt lat="53.331656" lon="-1.653818"><ele>157</ele><time>2024-04-13T11:01:11Z</time><name>PT1459</name></trkpt>
<trkpt lat="53.331693" lon="-1.653798"><ele>157</ele><time>2024-04-13T11:01:14Z</time><name>PT1460</name></trkpt>
<trkpt lat="53.331711" lon="-1.653777"><ele>157</ele><time>2024-04-13T11:01:17Z</time><name>PT1461</name></trkpt>
<trkpt lat="53.331748" lon="-1.653732"><ele>158</ele><time>2024-04-13T11:01:21Z</time><name>PT1462</name></trkpt>
<trkpt lat="53.331774" lon="-1.653694"><ele>158</ele><time>2024-04-13T11:01:24Z</time><name>PT1463</name></trkpt>
<trkpt lat="53.331799" lon="-1.653634"><ele>160</ele><time>2024-04-13T11:01:29Z</time><name>PT1464</name></trkpt>
<trkpt lat="53.331821" lon="-1.653572"><ele>161</ele><time>2024-04-13T11:01:32Z</time><name>PT1465</name></trkpt>
<trkpt lat="53.331836" lon="-1.653510"><ele>162</ele><time>2024-04-13T11:01:36Z</time><name>PT1466</name></trkpt>
<trkpt lat="53.331852" lon="-1.653451"><ele>163</ele><time>2024-04-13T11:01:41Z</time><name>PT1467</name></trkpt>
<trkpt lat="53.331874" lon="-1.653395"><ele>164</ele><time>2024-04-13T11:01:44Z</time><name>PT1468</name></trkpt>
<trkpt lat="53.331886" lon="-1.653339"><ele>166</ele><time>2024-04-13T11:01:47Z</time><name>PT1469</name></trkpt>
<trkpt lat="53.331903" lon="-1.653272"><ele>166</ele><time>2024-04-13T11:01:51Z</time><name>PT1470</name></trkpt>
<trkpt lat="53.331920" lon="-1.653226"><ele>168</ele><time>2024-04-13T11:01:54Z</time><name>PT1471</name></trkpt>
<trkpt lat="53.331935" lon="-1.653188"><ele>168</ele><time>2024-04-13T11:01:57Z</time><name>PT1472</name></trkpt>
<trkpt lat="53.331956" lon="-1.653156"><ele>170</ele><time>2024-04-13T11:02:02Z</time><name>PT1473</name></trkpt>
<trkpt lat="53.331958" lon="-1.653150"><ele>169</ele><time>2024-04-13T11:02:05Z</time><name>PT1474</name></trkpt>
<trkpt lat="53.331972" lon="-1.653107"><ele>170</ele><time>2024-04-13T11:02:08Z</time><name>PT1475</name></trkpt>
<trkpt lat="53.331975" lon="-1.653105"><ele>171</ele><time>2024-04-13T11:02:11Z</time><name>PT1476</name></trkpt>
<trkpt lat="53.331990" lon="-1.653053"><ele>170</ele><time>2024-04-13T11:02:15Z</time><name>PT1477</name></trkpt>
<trkpt lat="53.332001" lon="-1.652995"><ele>171</ele><time>2024-04-13T11:02:18Z</time><name>PT1478</name></trkpt>
<trkpt lat="53.332019" lon="-1.652921"><ele>171</ele><time>2024-04-13T11:02:23Z</time><name>PT1479</name></trkpt>
<trkpt lat="53.332031" lon="-1.652859"><ele>171</ele><time>2024-04-13T11:02:26Z</time><name>PT1480</name></trkpt>
<trkpt lat="53.332042" lon="-1.652798"><ele>171</ele><time>2024-04-13T11:02:29Z</time><name>PT1481</name></trkpt>
<trkpt lat="53.332055" lon="-1.652736"><ele>171</ele><time>2024-04-13T11:02:32Z</time><name>PT1482</name></trkpt>
<trkpt lat="53.332065" lon="-1.652678"><ele>172</ele><time>2024-04-13T11:02:36Z</time><name>PT1483</name></trkpt>
<trkpt lat="53.332074" lon="-1.652623"><ele>171</ele><time>2024-04-13T11:02:39Z</time><name>PT1484</name></trkpt>
<trkpt lat="53.332089" lon="-1.652549"><ele>172</ele><time>2024-04-13T11:02:44Z</time><name>PT1485</name></trkpt>
<trkpt lat="53.332098" lon="-1.652494"><ele>172</ele><time>2024-04-13T11:02:47Z</time><name>PT1486</name></trkpt>
<trkpt lat="53.332110" lon="-1.652439"><ele>172</ele><time>2024-04-13T11:02:50Z</time><name>PT1487</name></trkpt>
<trkpt lat="53.332116" lon="-1.652392"><ele>172</ele><time>2024-04-13T11:02:53Z</time><name>PT1488</name></trkpt>
<trkpt lat="53.332128" lon="-1.652321"><ele>173</ele><time>2024-04-13T11:02:56Z</time><name>PT1489</name></trkpt>
<trkpt lat="53.332146" lon="-1.652265"><ele>174</ele><time>2024-04-13T11:02:59Z</time><name>PT1490</name></trkpt>
<trkpt lat="53.332170" lon="-1.652221"><ele>176</ele><time>2024-04-13T11:03:03Z</time><name>PT1491</name></trkpt>
<trkpt lat="53.332181" lon="-1.652150"><ele>177</ele><time>2024-04-13T11:03:08Z</time><name>PT1492</name></trkpt>
<trkpt lat="53.332192" lon="-1.652083"><ele>177</ele><time>2024-04-13T11:03:11Z</time><name>PT1493</name></trkpt>
<trkpt lat="53.332199" lon="-1.652039"><ele>176</ele><time>2024-04-13T11:03:14Z</time><name>PT1494</name></trkpt>
<trkpt lat="53.332218" lon="-1.651988"><ele>178</ele><time>2024-04-13T11:03:17Z</time><name>PT1495</name></trkpt>
<trkpt lat="53.332236" lon="-1.651920"><ele>179</ele><time>2024-04-13T11:03:21Z</time><name>PT1496</name></trkpt>
<trkpt lat="53.332255" lon="-1.651873"><ele>180</ele><time>2024-04-13T11:03:24Z</time><name>PT1497</name></trkpt>
<trkpt lat="53.332262" lon="-1.651808"><ele>180</ele><time>2024-04-13T11:03:29Z</time><name>PT1498</name></trkpt>
<trkpt lat="53.332280" lon="-1.651769"><ele>182</ele><time>2024-04-13T11:03:32Z</time><name>PT1499</name></trkpt>
<trkpt lat="53.332291" lon="-1.651711"><ele>183</ele><time>2024-04-13T11:03:35Z</time><name>PT1500</name></trkpt>
<trkpt lat="53.332307" lon="-1.651642"><ele>185</ele><time>2024-04-13T11:03:39Z</time><name>PT1501</name></trkpt>
<trkpt lat="53.332323" lon="-1.651603"><ele>186</ele><time>2024-04-13T11:03:42Z</time><name>PT1502</name></trkpt>
<trkpt lat="53.332343" lon="-1.651554"><ele>186</ele><time>2024-04-13T11:03:47Z</time><name>PT1503</name></trkpt>
<trkpt lat="53.332359" lon="-1.651535"><ele>186</ele><time>2024-04-13T11:03:50Z</time><name>PT1504</name></trkpt>
<trkpt lat="53.332369" lon="-1.651514"><ele>186</ele><time>2024-04-13T11:03:53Z</time><name>PT1505</name></trkpt>
<trkpt lat="53.332393" lon="-1.651521"><ele>186</ele><time>2024-04-13T11:03:57Z</time><name>PT1506</name></trkpt>
<trkpt lat="53.332395" lon="-1.651525"><ele>186</ele><time>2024-04-13T11:04:00Z</time><name>PT1507</name></trkpt>
<trkpt lat="53.332407" lon="-1.651511"><ele>187</ele><time>2024-04-13T11:04:08Z</time><name>PT1508</name></trkpt>
<trkpt lat="53.332428" lon="-1.651501"><ele>186</ele><time>2024-04-13T11:04:11Z</time><name>PT1509</name></trkpt>
<trkpt lat="53.332438" lon="-1.651458"><ele>185</ele><time>2024-04-13T11:04:14Z</time><name>PT1510</name></trkpt>
<trkpt lat="53.332471" lon="-1.651405"><ele>185</ele><time>2024-04-13T11:04:17Z</time><name>PT1511</name></trkpt>
<trkpt lat="53.332503" lon="-1.651358"><ele>185</ele><time>2024-04-13T11:04:20Z</time><name>PT1512</name></trkpt>
<trkpt lat="53.332531" lon="-1.651289"><ele>186</ele><time>2024-04-13T11:04:24Z</time><name>PT1513</name></trkpt>
<trkpt lat="53.332554" lon="-1.651217"><ele>186</ele><time>2024-04-13T11:04:29Z</time><name>PT1514</name></trkpt>
<trkpt lat="53.332571" lon="-1.651164"><ele>186</ele><time>2024-04-13T11:04:32Z</time><name>PT1515</name></trkpt>
<trkpt lat="53.332594" lon="-1.651111"><ele>185</ele><time>2024-04-13T11:04:35Z</time><name>PT1516</name></trkpt>
<trkpt lat="53.332621" lon="-1.651051"><ele>186</ele><time>2024-04-13T11:04:38Z</time><name>PT1517</name></trkpt>
<trkpt lat="53.332649" lon="-1.650987"><ele>188</ele><time>2024-04-13T11:04:42Z</time><name>PT1518</name></trkpt>
<trkpt lat="53.332668" lon="-1.650948"><ele>188</ele><time>2024-04-13T11:04:45Z</time><name>PT1519</name></trkpt>
<trkpt lat="53.332706" lon="-1.650896"><ele>190</ele><time>2024-04-13T11:04:50Z</time><name>PT1520</name></trkpt>
<trkpt lat="53.332726" lon="-1.650853"><ele>191</ele><time>2024-04-13T11:04:53Z</time><name>PT1521</name></trkpt>
<trkpt lat="53.332752" lon="-1.650809"><ele>192</ele><time>2024-04-13T11:04:56Z</time><name>PT1522</name></trkpt>
<trkpt lat="53.332776" lon="-1.650772"><ele>194</ele><time>2024-04-13T11:04:59Z</time><name>PT1523</name></trkpt>
<trkpt lat="53.332806" lon="-1.650700"><ele>192</ele><time>2024-04-13T11:05:02Z</time><name>PT1524</name></trkpt>
<trkpt lat="53.332829" lon="-1.650637"><ele>192</ele><time>2024-04-13T11:05:06Z</time><name>PT1525</name></trkpt>
<trkpt lat="53.332849" lon="-1.650584"><ele>193</ele><time>2024-04-13T11:05:09Z</time><name>PT1526</name></trkpt>
<trkpt lat="53.332876" lon="-1.650510"><ele>192</ele><time>2024-04-13T11:05:14Z</time><name>PT1527</name></trkpt>
<trkpt lat="53.332894" lon="-1.650468"><ele>194</ele><time>2024-04-13T11:05:17Z</time><name>PT1528</name></trkpt>
<trkpt lat="53.332911" lon="-1.650402"><ele>191</ele><time>2024-04-13T11:05:20Z</time><name>PT1529</name></trkpt>
<trkpt lat="53.332922" lon="-1.650345"><ele>193</ele><time>2024-04-13T11:05:23Z</time><name>PT1530</name></trkpt>
<trkpt lat="53.332940" lon="-1.650275"><ele>194</ele><time>2024-04-13T11:05:26Z</time><name>PT1531</name></trkpt>
<trkpt lat="53.332953" lon="-1.650200"><ele>194</ele><time>2024-04-13T11:05:30Z</time><name>PT1532</name></trkpt>
<trkpt lat="53.332954" lon="-1.650166"><ele>193</ele><time>2024-04-13T11:05:33Z</time><name>PT1533</name></trkpt>
<trkpt lat="53.332960" lon="-1.650137"><ele>193</ele><time>2024-04-13T11:05:36Z</time><name>PT1534</name></trkpt>
<trkpt lat="53.332959" lon="-1.650113"><ele>194</ele><time>2024-04-13T11:05:41Z</time><name>PT1535</name></trkpt>
<trkpt lat="53.332959" lon="-1.650106"><ele>195</ele><time>2024-04-13T11:05:44Z</time><name>PT1536</name></trkpt>
<trkpt lat="53.332960" lon="-1.650067"><ele>195</ele><time>2024-04-13T11:05:51Z</time><name>PT1537</name></trkpt>
<trkpt lat="53.332967" lon="-1.650028"><ele>195</ele><time>2024-04-13T11:05:54Z</time><name>PT1538</name></trkpt>
<trkpt lat="53.332990" lon="-1.649958"><ele>194</ele><time>2024-04-13T11:05:59Z</time><name>PT1539</name></trkpt>
<trkpt lat="53.333003" lon="-1.649908"><ele>193</ele><time>2024-04-13T11:06:02Z</time><name>PT1540</name></trkpt>
<trkpt lat="53.332988" lon="-1.649854"><ele>192</ele><time>2024-04-13T11:06:05Z</time><name>PT1541</name></trkpt>
<trkpt lat="53.332959" lon="-1.649836"><ele>192</ele><time>2024-04-13T11:06:08Z</time><name>PT1542</name></trkpt>
<trkpt lat="53.332942" lon="-1.649824"><ele>191</ele><time>2024-04-13T11:06:12Z</time><name>PT1543</name></trkpt>
<trkpt lat="53.332927" lon="-1.649808"><ele>190</ele><time>2024-04-13T11:06:17Z</time><name>PT1544</name></trkpt>
<trkpt lat="53.332913" lon="-1.649799"><ele>188</ele><time>2024-04-13T11:06:20Z</time><name>PT1545</name></trkpt>
<trkpt lat="53.332890" lon="-1.649768"><ele>186</ele><time>2024-04-13T11:06:23Z</time><name>PT1546</name></trkpt>
<trkpt lat="53.332871" lon="-1.649708"><ele>183</ele><time>2024-04-13T11:06:26Z</time><name>PT1547</name></trkpt>
<trkpt lat="53.332856" lon="-1.649661"><ele>181</ele><time>2024-04-13T11:06:29Z</time><name>PT1548</name></trkpt>
<trkpt lat="53.332824" lon="-1.649598"><ele>179</ele><time>2024-04-13T11:06:33Z</time><name>PT1549</name></trkpt>
<trkpt lat="53.332806" lon="-1.649561"><ele>178</ele><time>2024-04-13T11:06:36Z</time><name>PT1550</name></trkpt>
<trkpt lat="53.332794" lon="-1.649528"><ele>178</ele><time>2024-04-13T11:06:39Z</time><name>PT1551</name></trkpt>
<trkpt lat="53.332761" lon="-1.649467"><ele>178</ele><time>2024-04-13T11:06:44Z</time><name>PT1552</name></trkpt>
<trkpt lat="53.332742" lon="-1.649417"><ele>178</ele><time>2024-04-13T11:06:47Z</time><name>PT1553</name></trkpt>
<trkpt lat="53.332717" lon="-1.649339"><ele>177</ele><time>2024-04-13T11:06:50Z</time><name>PT1554</name></trkpt>
<trkpt lat="53.332714" lon="-1.649269"><ele>177</ele><time>2024-04-13T11:06:54Z</time><name>PT1555</name></trkpt>
<trkpt lat="53.332732" lon="-1.649239"><ele>177</ele><time>2024-04-13T11:06:57Z</time><name>PT1556</name></trkpt>
<trkpt lat="53.332763" lon="-1.649177"><ele>177</ele><time>2024-04-13T11:07:02Z</time><name>PT1557</name></trkpt>
<trkpt lat="53.332773" lon="-1.649123"><ele>177</ele><time>2024-04-13T11:07:05Z</time><name>PT1558</name></trkpt>
<trkpt lat="53.332809" lon="-1.649080"><ele>178</ele><time>2024-04-13T11:07:08Z</time><name>PT1559</name></trkpt>
<trkpt lat="53.332842" lon="-1.649036"><ele>178</ele><time>2024-04-13T11:07:12Z</time><name>PT1560</name></trkpt>
<trkpt lat="53.332869" lon="-1.648998"><ele>180</ele><time>2024-04-13T11:07:15Z</time><name>PT1561</name></trkpt>
<trkpt lat="53.332905" lon="-1.648951"><ele>180</ele><time>2024-04-13T11:07:20Z</time><name>PT1562</name></trkpt>
<trkpt lat="53.332939" lon="-1.648915"><ele>181</ele><time>2024-04-13T11:07:23Z</time><name>PT1563</name></trkpt>
<trkpt lat="53.332968" lon="-1.648870"><ele>181</ele><time>2024-04-13T11:07:27Z</time><name>PT1564</name></trkpt>
<trkpt lat="53.332996" lon="-1.648844"><ele>181</ele><time>2024-04-13T11:07:30Z</time><name>PT1565</name></trkpt>
<trkpt lat="53.333029" lon="-1.648798"><ele>181</ele><time>2024-04-13T11:07:35Z</time><name>PT1566</name></trkpt>
<trkpt lat="53.333063" lon="-1.648762"><ele>182</ele><time>2024-04-13T11:07:38Z</time><name>PT1567</name></trkpt>
<trkpt lat="53.333091" lon="-1.648706"><ele>182</ele><time>2024-04-13T11:07:41Z</time><name>PT1568</name></trkpt>
<trkpt lat="53.333114" lon="-1.648673"><ele>182</ele><time>2024-04-13T11:07:44Z</time><name>PT1569</name></trkpt>
<trkpt lat="53.333148" lon="-1.648609"><ele>184</ele><time>2024-04-13T11:07:48Z</time><name>PT1570</name></trkpt>
<trkpt lat="53.333182" lon="-1.648557"><ele>186</ele><time>2024-04-13T11:07:51Z</time><name>PT1571</name></trkpt>
<trkpt lat="53.333217" lon="-1.648534"><ele>190</ele><time>2024-04-13T11:07:54Z</time><name>PT1572</name></trkpt>
<trkpt lat="53.333258" lon="-1.648554"><ele>191</ele><time>2024-04-13T11:07:59Z</time><name>PT1573</name></trkpt>
<trkpt lat="53.333278" lon="-1.648594"><ele>192</ele><time>2024-04-13T11:08:02Z</time><name>PT1574</name></trkpt>
<trkpt lat="53.333300" lon="-1.648635"><ele>193</ele><time>2024-04-13T11:08:06Z</time><name>PT1575</name></trkpt>
<trkpt lat="53.333322" lon="-1.648678"><ele>195</ele><time>2024-04-13T11:08:11Z</time><name>PT1576</name></trkpt>
<trkpt lat="53.333341" lon="-1.648717"><ele>195</ele><time>2024-04-13T11:08:14Z</time><name>PT1577</name></trkpt>
<trkpt lat="53.333368" lon="-1.648751"><ele>194</ele><time>2024-04-13T11:08:17Z</time><name>PT1578</name></trkpt>
<trkpt lat="53.333393" lon="-1.648771"><ele>193</ele><time>2024-04-13T11:08:20Z</time><name>PT1579</name></trkpt>
<trkpt lat="53.333423" lon="-1.648791"><ele>192</ele><time>2024-04-13T11:08:24Z</time><name>PT1580</name></trkpt>
<trkpt lat="53.333457" lon="-1.648805"><ele>191</ele><time>2024-04-13T11:08:27Z</time><name>PT1581</name></trkpt>
<trkpt lat="53.333486" lon="-1.648813"><ele>191</ele><time>2024-04-13T11:08:30Z</time><name>PT1582</name></trkpt>
<trkpt lat="53.333531" lon="-1.648813"><ele>190</ele><time>2024-04-13T11:08:35Z</time><name>PT1583</name></trkpt>
<trkpt lat="53.333576" lon="-1.648799"><ele>192</ele><time>2024-04-13T11:08:38Z</time><name>PT1584</name></trkpt>
<trkpt lat="53.333616" lon="-1.648779"><ele>191</ele><time>2024-04-13T11:08:41Z</time><name>PT1585</name></trkpt>
<trkpt lat="53.333649" lon="-1.648760"><ele>193</ele><time>2024-04-13T11:08:45Z</time><name>PT1586</name></trkpt>
<trkpt lat="53.333689" lon="-1.648728"><ele>194</ele><time>2024-04-13T11:08:50Z</time><name>PT1587</name></trkpt>
<trkpt lat="53.333724" lon="-1.648698"><ele>194</ele><time>2024-04-13T11:08:53Z</time><name>PT1588</name></trkpt>
<trkpt lat="53.333767" lon="-1.648635"><ele>194</ele><time>2024-04-13T11:08:56Z</time><name>PT1589</name></trkpt>
<trkpt lat="53.333789" lon="-1.648591"><ele>195</ele><time>2024-04-13T11:08:59Z</time><name>PT1590</name></trkpt>
<trkpt lat="53.333803" lon="-1.648544"><ele>196</ele><time>2024-04-13T11:09:02Z</time><name>PT1591</name></trkpt>
<trkpt lat="53.333825" lon="-1.648483"><ele>197</ele><time>2024-04-13T11:09:06Z</time><name>PT1592</name></trkpt>
<trkpt lat="53.333841" lon="-1.648422"><ele>197</ele><time>2024-04-13T11:09:09Z</time><name>PT1593</name></trkpt>
<trkpt lat="53.333859" lon="-1.648379"><ele>197</ele><time>2024-04-13T11:09:12Z</time><name>PT1594</name></trkpt>
<trkpt lat="53.333876" lon="-1.648337"><ele>197</ele><time>2024-04-13T11:09:17Z</time><name>PT1595</name></trkpt>
<trkpt lat="53.333895" lon="-1.648290"><ele>199</ele><time>2024-04-13T11:09:20Z</time><name>PT1596</name></trkpt>
<trkpt lat="53.333914" lon="-1.648244"><ele>200</ele><time>2024-04-13T11:09:23Z</time><name>PT1597</name></trkpt>
<trkpt lat="53.333942" lon="-1.648196"><ele>201</ele><time>2024-04-13T11:09:27Z</time><name>PT1598</name></trkpt>
<trkpt lat="53.333963" lon="-1.648146"><ele>206</ele><time>2024-04-13T11:09:30Z</time><name>PT1599</name></trkpt>
<trkpt lat="53.333989" lon="-1.648083"><ele>207</ele><time>2024-04-13T11:09:35Z</time><name>PT1600</name></trkpt>
<trkpt lat="53.334012" lon="-1.648020"><ele>208</ele><time>2024-04-13T11:09:38Z</time><name>PT1601</name></trkpt>
<trkpt lat="53.334032" lon="-1.647959"><ele>208</ele><time>2024-04-13T11:09:41Z</time><name>PT1602</name></trkpt>
<trkpt lat="53.334054" lon="-1.647877"><ele>208</ele><time>2024-04-13T11:09:45Z</time><name>PT1603</name></trkpt>
<trkpt lat="53.334083" lon="-1.647829"><ele>207</ele><time>2024-04-13T11:09:48Z</time><name>PT1604</name></trkpt>
<trkpt lat="53.334116" lon="-1.647759"><ele>206</ele><time>2024-04-13T11:09:53Z</time><name>PT1605</name></trkpt>
<trkpt lat="53.334141" lon="-1.647681"><ele>207</ele><time>2024-04-13T11:09:56Z</time><name>PT1606</name></trkpt>
<trkpt lat="53.334159" lon="-1.647600"><ele>208</ele><time>2024-04-13T11:09:59Z</time><name>PT1607</name></trkpt>
<trkpt lat="53.334171" lon="-1.647534"><ele>209</ele><time>2024-04-13T11:10:03Z</time><name>PT1608</name></trkpt>
<trkpt lat="53.334189" lon="-1.647470"><ele>208</ele><time>2024-04-13T11:10:06Z</time><name>PT1609</name></trkpt>
<trkpt lat="53.334197" lon="-1.647411"><ele>206</ele><time>2024-04-13T11:10:11Z</time><name>PT1610</name></trkpt>
<trkpt lat="53.334210" lon="-1.647346"><ele>205</ele><time>2024-04-13T11:10:14Z</time><name>PT1611</name></trkpt>
<trkpt lat="53.334227" lon="-1.647280"><ele>203</ele><time>2024-04-13T11:10:17Z</time><name>PT1612</name></trkpt>
<trkpt lat="53.334233" lon="-1.647235"><ele>201</ele><time>2024-04-13T11:10:20Z</time><name>PT1613</name></trkpt>
<trkpt lat="53.334248" lon="-1.647160"><ele>202</ele><time>2024-04-13T11:10:24Z</time><name>PT1614</name></trkpt>
<trkpt lat="53.334266" lon="-1.647083"><ele>203</ele><time>2024-04-13T11:10:29Z</time><name>PT1615</name></trkpt>
<trkpt lat="53.334285" lon="-1.647003"><ele>205</ele><time>2024-04-13T11:10:32Z</time><name>PT1616</name></trkpt>
<trkpt lat="53.334300" lon="-1.646930"><ele>205</ele><time>2024-04-13T11:10:36Z</time><name>PT1617</name></trkpt>
<trkpt lat="53.334313" lon="-1.646850"><ele>204</ele><time>2024-04-13T11:10:41Z</time><name>PT1618</name></trkpt>
<trkpt lat="53.334328" lon="-1.646771"><ele>205</ele><time>2024-04-13T11:10:44Z</time><name>PT1619</name></trkpt>
<trkpt lat="53.334340" lon="-1.646706"><ele>206</ele><time>2024-04-13T11:10:48Z</time><name>PT1620</name></trkpt>
<trkpt lat="53.334351" lon="-1.646649"><ele>207</ele><time>2024-04-13T11:10:51Z</time><name>PT1621</name></trkpt>
<trkpt lat="53.334365" lon="-1.646573"><ele>208</ele><time>2024-04-13T11:10:56Z</time><name>PT1622</name></trkpt>
<trkpt lat="53.334371" lon="-1.646480"><ele>211</ele><time>2024-04-13T11:10:59Z</time><name>PT1623</name></trkpt>
<trkpt lat="53.334382" lon="-1.646410"><ele>213</ele><time>2024-04-13T11:11:02Z</time><name>PT1624</name></trkpt>
<trkpt lat="53.334381" lon="-1.646356"><ele>214</ele><time>2024-04-13T11:11:05Z</time><name>PT1625</name></trkpt>
<trkpt lat="53.334386" lon="-1.646305"><ele>213</ele><time>2024-04-13T11:11:08Z</time><name>PT1626</name></trkpt>
<trkpt lat="53.334395" lon="-1.646258"><ele>213</ele><time>2024-04-13T11:11:11Z</time><name>PT1627</name></trkpt>
<trkpt lat="53.334408" lon="-1.646205"><ele>214</ele><time>2024-04-13T11:11:14Z</time><name>PT1628</name></trkpt>
<trkpt lat="53.334408" lon="-1.646144"><ele>216</ele><time>2024-04-13T11:11:18Z</time><name>PT1629</name></trkpt>
<trkpt lat="53.334414" lon="-1.646091"><ele>217</ele><time>2024-04-13T11:11:21Z</time><name>PT1630</name></trkpt>
<trkpt lat="53.334421" lon="-1.646037"><ele>217</ele><time>2024-04-13T11:11:24Z</time><name>PT1631</name></trkpt>
<trkpt lat="53.334430" lon="-1.645981"><ele>216</ele><time>2024-04-13T11:11:29Z</time><name>PT1632</name></trkpt>
<trkpt lat="53.334438" lon="-1.645916"><ele>213</ele><time>2024-04-13T11:11:32Z</time><name>PT1633</name></trkpt>
<trkpt lat="53.334451" lon="-1.645826"><ele>213</ele><time>2024-04-13T11:11:36Z</time><name>PT1634</name></trkpt>
<trkpt lat="53.334461" lon="-1.645773"><ele>214</ele><time>2024-04-13T11:11:39Z</time><name>PT1635</name></trkpt>
<trkpt lat="53.334465" lon="-1.645725"><ele>214</ele><time>2024-04-13T11:11:42Z</time><name>PT1636</name></trkpt>
<trkpt lat="53.334466" lon="-1.645660"><ele>213</ele><time>2024-04-13T11:11:45Z</time><name>PT1637</name></trkpt>
<trkpt lat="53.334480" lon="-1.645601"><ele>213</ele><time>2024-04-13T11:11:50Z</time><name>PT1638</name></trkpt>
<trkpt lat="53.334477" lon="-1.645522"><ele>215</ele><time>2024-04-13T11:11:53Z</time><name>PT1639</name></trkpt>
<trkpt lat="53.334478" lon="-1.645456"><ele>215</ele><time>2024-04-13T11:11:57Z</time><name>PT1640</name></trkpt>
<trkpt lat="53.334479" lon="-1.645417"><ele>215</ele><time>2024-04-13T11:12:00Z</time><name>PT1641</name></trkpt>
<trkpt lat="53.334481" lon="-1.645360"><ele>216</ele><time>2024-04-13T11:12:03Z</time><name>PT1642</name></trkpt>
<trkpt lat="53.334475" lon="-1.645309"><ele>216</ele><time>2024-04-13T11:12:06Z</time><name>PT1643</name></trkpt>
<trkpt lat="53.334473" lon="-1.645243"><ele>219</ele><time>2024-04-13T11:12:11Z</time><name>PT1644</name></trkpt>
<trkpt lat="53.334472" lon="-1.645178"><ele>221</ele><time>2024-04-13T11:12:14Z</time><name>PT1645</name></trkpt>
<trkpt lat="53.334462" lon="-1.645079"><ele>222</ele><time>2024-04-13T11:12:17Z</time><name>PT1646</name></trkpt>
<trkpt lat="53.334454" lon="-1.644995"><ele>223</ele><time>2024-04-13T11:12:21Z</time><name>PT1647</name></trkpt>
<trkpt lat="53.334448" lon="-1.644903"><ele>224</ele><time>2024-04-13T11:12:26Z</time><name>PT1648</name></trkpt>
<trkpt lat="53.334442" lon="-1.644843"><ele>224</ele><time>2024-04-13T11:12:29Z</time><name>PT1649</name></trkpt>
<trkpt lat="53.334443" lon="-1.644776"><ele>225</ele><time>2024-04-13T11:12:32Z</time><name>PT1650</name></trkpt>
<trkpt lat="53.334437" lon="-1.644698"><ele>224</ele><time>2024-04-13T11:12:35Z</time><name>PT1651</name></trkpt>
<trkpt lat="53.334439" lon="-1.644640"><ele>223</ele><time>2024-04-13T11:12:39Z</time><name>PT1652</name></trkpt>
<trkpt lat="53.334444" lon="-1.644606"><ele>222</ele><time>2024-04-13T11:12:42Z</time><name>PT1653</name></trkpt>
<trkpt lat="53.334450" lon="-1.644532"><ele>224</ele><time>2024-04-13T11:12:47Z</time><name>PT1654</name></trkpt>
<trkpt lat="53.334459" lon="-1.644490"><ele>224</ele><time>2024-04-13T11:12:50Z</time><name>PT1655</name></trkpt>
<trkpt lat="53.334467" lon="-1.644427"><ele>223</ele><time>2024-04-13T11:12:53Z</time><name>PT1656</name></trkpt>
<trkpt lat="53.334473" lon="-1.644371"><ele>222</ele><time>2024-04-13T11:12:56Z</time><name>PT1657</name></trkpt>
<trkpt lat="53.334481" lon="-1.644317"><ele>223</ele><time>2024-04-13T11:13:00Z</time><name>PT1658</name></trkpt>
<trkpt lat="53.334485" lon="-1.644252"><ele>224</ele><time>2024-04-13T11:13:03Z</time><name>PT1659</name></trkpt>
<trkpt lat="53.334492" lon="-1.644178"><ele>226</ele><time>2024-04-13T11:13:06Z</time><name>PT1660</name></trkpt>
<trkpt lat="53.334496" lon="-1.644122"><ele>228</ele><time>2024-04-13T11:13:09Z</time><name>PT1661</name></trkpt>
<trkpt lat="53.334492" lon="-1.644069"><ele>229</ele><time>2024-04-13T11:13:14Z</time><name>PT1662</name></trkpt>
<trkpt lat="53.334490" lon="-1.644032"><ele>229</ele><time>2024-04-13T11:13:17Z</time><name>PT1663</name></trkpt>
<trkpt lat="53.334487" lon="-1.643987"><ele>231</ele><time>2024-04-13T11:13:20Z</time><name>PT1664</name></trkpt>
<trkpt lat="53.334493" lon="-1.643948"><ele>230</ele><time>2024-04-13T11:13:23Z</time><name>PT1665</name></trkpt>
<trkpt lat="53.334502" lon="-1.643890"><ele>229</ele><time>2024-04-13T11:13:26Z</time><name>PT1666</name></trkpt>
<trkpt lat="53.334509" lon="-1.643855"><ele>226</ele><time>2024-04-13T11:13:29Z</time><name>PT1667</name></trkpt>
<trkpt lat="53.334511" lon="-1.643816"><ele>225</ele><time>2024-04-13T11:13:33Z</time><name>PT1668</name></trkpt>
<trkpt lat="53.334511" lon="-1.643771"><ele>225</ele><time>2024-04-13T11:13:36Z</time><name>PT1669</name></trkpt>
<trkpt lat="53.334511" lon="-1.643717"><ele>225</ele><time>2024-04-13T11:13:39Z</time><name>PT1670</name></trkpt>
<trkpt lat="53.334516" lon="-1.643656"><ele>226</ele><time>2024-04-13T11:13:42Z</time><name>PT1671</name></trkpt>
<trkpt lat="53.334516" lon="-1.643614"><ele>227</ele><time>2024-04-13T11:13:45Z</time><name>PT1672</name></trkpt>
<trkpt lat="53.334509" lon="-1.643584"><ele>228</ele><time>2024-04-13T11:13:56Z</time><name>PT1673</name></trkpt>
<trkpt lat="53.334509" lon="-1.643536"><ele>230</ele><time>2024-04-13T11:14:00Z</time><name>PT1674</name></trkpt>
<trkpt lat="53.334507" lon="-1.643529"><ele>230</ele><time>2024-04-13T11:14:05Z</time><name>PT1675</name></trkpt>
<trkpt lat="53.334506" lon="-1.643522"><ele>231</ele><time>2024-04-13T11:14:08Z</time><name>PT1676</name></trkpt>
<trkpt lat="53.334506" lon="-1.643501"><ele>231</ele><time>2024-04-13T11:14:11Z</time><name>PT1677</name></trkpt>
<trkpt lat="53.334509" lon="-1.643469"><ele>231</ele><time>2024-04-13T11:14:17Z</time><name>PT1678</name></trkpt>
<trkpt lat="53.334501" lon="-1.643403"><ele>232</ele><time>2024-04-13T11:14:21Z</time><name>PT1679</name></trkpt>
<trkpt lat="53.334492" lon="-1.643342"><ele>231</ele><time>2024-04-13T11:14:26Z</time><name>PT1680</name></trkpt>
<trkpt lat="53.334487" lon="-1.643273"><ele>232</ele><time>2024-04-13T11:14:29Z</time><name>PT1681</name></trkpt>
<trkpt lat="53.334484" lon="-1.643199"><ele>233</ele><time>2024-04-13T11:14:33Z</time><name>PT1682</name></trkpt>
<trkpt lat="53.334486" lon="-1.643155"><ele>234</ele><time>2024-04-13T11:14:36Z</time><name>PT1683</name></trkpt>
<trkpt lat="53.334485" lon="-1.643102"><ele>234</ele><time>2024-04-13T11:14:39Z</time><name>PT1684</name></trkpt>
<trkpt lat="53.334494" lon="-1.643033"><ele>236</ele><time>2024-04-13T11:14:44Z</time><name>PT1685</name></trkpt>
<trkpt lat="53.334496" lon="-1.642986"><ele>236</ele><time>2024-04-13T11:14:47Z</time><name>PT1686</name></trkpt>
<trkpt lat="53.334500" lon="-1.642943"><ele>237</ele><time>2024-04-13T11:14:50Z</time><name>PT1687</name></trkpt>
<trkpt lat="53.334501" lon="-1.642880"><ele>237</ele><time>2024-04-13T11:14:53Z</time><name>PT1688</name></trkpt>
<trkpt lat="53.334505" lon="-1.642824"><ele>240</ele><time>2024-04-13T11:14:56Z</time><name>PT1689</name></trkpt>
<trkpt lat="53.334504" lon="-1.642780"><ele>240</ele><time>2024-04-13T11:14:59Z</time><name>PT1690</name></trkpt>
<trkpt lat="53.334504" lon="-1.642717"><ele>242</ele><time>2024-04-13T11:15:03Z</time><name>PT1691</name></trkpt>
<trkpt lat="53.334502" lon="-1.642667"><ele>243</ele><time>2024-04-13T11:15:08Z</time><name>PT1692</name></trkpt>
<trkpt lat="53.334501" lon="-1.642645"><ele>243</ele><time>2024-04-13T11:15:11Z</time><name>PT1693</name></trkpt>
<trkpt lat="53.334479" lon="-1.642601"><ele>242</ele><time>2024-04-13T11:15:14Z</time><name>PT1694</name></trkpt>
<trkpt lat="53.334459" lon="-1.642559"><ele>243</ele><time>2024-04-13T11:15:17Z</time><name>PT1695</name></trkpt>
<trkpt lat="53.334446" lon="-1.642493"><ele>244</ele><time>2024-04-13T11:15:21Z</time><name>PT1696</name></trkpt>
<trkpt lat="53.334441" lon="-1.642433"><ele>244</ele><time>2024-04-13T11:15:26Z</time><name>PT1697</name></trkpt>
<trkpt lat="53.334435" lon="-1.642386"><ele>245</ele><time>2024-04-13T11:15:29Z</time><name>PT1698</name></trkpt>
<trkpt lat="53.334433" lon="-1.642332"><ele>245</ele><time>2024-04-13T11:15:32Z</time><name>PT1699</name></trkpt>
<trkpt lat="53.334435" lon="-1.642299"><ele>245</ele><time>2024-04-13T11:15:35Z</time><name>PT1700</name></trkpt>
<trkpt lat="53.334430" lon="-1.642257"><ele>247</ele><time>2024-04-13T11:15:45Z</time><name>PT1701</name></trkpt>
<trkpt lat="53.334432" lon="-1.642190"><ele>247</ele><time>2024-04-13T11:15:50Z</time><name>PT1702</name></trkpt>
<trkpt lat="53.334434" lon="-1.642148"><ele>245</ele><time>2024-04-13T11:15:53Z</time><name>PT1703</name></trkpt>
<trkpt lat="53.334434" lon="-1.642090"><ele>246</ele><time>2024-04-13T11:15:56Z</time><name>PT1704</name></trkpt>
<trkpt lat="53.334436" lon="-1.642038"><ele>246</ele><time>2024-04-13T11:15:59Z</time><name>PT1705</name></trkpt>
<trkpt lat="53.334438" lon="-1.641974"><ele>247</ele><time>2024-04-13T11:16:03Z</time><name>PT1706</name></trkpt>
<trkpt lat="53.334441" lon="-1.641925"><ele>248</ele><time>2024-04-13T11:16:06Z</time><name>PT1707</name></trkpt>
<trkpt lat="53.334449" lon="-1.641852"><ele>249</ele><time>2024-04-13T11:16:11Z</time><name>PT1708</name></trkpt>
<trkpt lat="53.334453" lon="-1.641802"><ele>251</ele><time>2024-04-13T11:16:14Z</time><name>PT1709</name></trkpt>
<trkpt lat="53.334456" lon="-1.641741"><ele>253</ele><time>2024-04-13T11:16:17Z</time><name>PT1710</name></trkpt>
<trkpt lat="53.334465" lon="-1.641696"><ele>255</ele><time>2024-04-13T11:16:20Z</time><name>PT1711</name></trkpt>
<trkpt lat="53.334471" lon="-1.641637"><ele>257</ele><time>2024-04-13T11:16:23Z</time><name>PT1712</name></trkpt>
<trkpt lat="53.334485" lon="-1.641575"><ele>259</ele><time>2024-04-13T11:16:27Z</time><name>PT1713</name></trkpt>
<trkpt lat="53.334501" lon="-1.641511"><ele>261</ele><time>2024-04-13T11:16:32Z</time><name>PT1714</name></trkpt>
<trkpt lat="53.334513" lon="-1.641447"><ele>262</ele><time>2024-04-13T11:16:35Z</time><name>PT1715</name></trkpt>
<trkpt lat="53.334522" lon="-1.641398"><ele>262</ele><time>2024-04-13T11:16:38Z</time><name>PT1716</name></trkpt>
<trkpt lat="53.334528" lon="-1.641350"><ele>263</ele><time>2024-04-13T11:16:41Z</time><name>PT1717</name></trkpt>
<trkpt lat="53.334542" lon="-1.641302"><ele>265</ele><time>2024-04-13T11:16:44Z</time><name>PT1718</name></trkpt>
<trkpt lat="53.334556" lon="-1.641256"><ele>264</ele><time>2024-04-13T11:16:48Z</time><name>PT1719</name></trkpt>
<trkpt lat="53.334567" lon="-1.641215"><ele>265</ele><time>2024-04-13T11:16:51Z</time><name>PT1720</name></trkpt>
<trkpt lat="53.334582" lon="-1.641173"><ele>265</ele><time>2024-04-13T11:16:54Z</time><name>PT1721</name></trkpt>
<trkpt lat="53.334600" lon="-1.641114"><ele>266</ele><time>2024-04-13T11:16:59Z</time><name>PT1722</name></trkpt>
<trkpt lat="53.334612" lon="-1.641063"><ele>267</ele><time>2024-04-13T11:17:02Z</time><name>PT1723</name></trkpt>
<trkpt lat="53.334624" lon="-1.641018"><ele>268</ele><time>2024-04-13T11:17:05Z</time><name>PT1724</name></trkpt>
<trkpt lat="53.334642" lon="-1.640965"><ele>269</ele><time>2024-04-13T11:17:08Z</time><name>PT1725</name></trkpt>
<trkpt lat="53.334650" lon="-1.640917"><ele>269</ele><time>2024-04-13T11:17:11Z</time><name>PT1726</name></trkpt>
<trkpt lat="53.334650" lon="-1.640876"><ele>269</ele><time>2024-04-13T11:17:14Z</time><name>PT1727</name></trkpt>
<trkpt lat="53.334637" lon="-1.640808"><ele>269</ele><time>2024-04-13T11:17:18Z</time><name>PT1728</name></trkpt>
<trkpt lat="53.334615" lon="-1.640768"><ele>269</ele><time>2024-04-13T11:17:21Z</time><name>PT1729</name></trkpt>
<trkpt lat="53.334586" lon="-1.640715"><ele>270</ele><time>2024-04-13T11:17:26Z</time><name>PT1730</name></trkpt>
<trkpt lat="53.334559" lon="-1.640662"><ele>270</ele><time>2024-04-13T11:17:29Z</time><name>PT1731</name></trkpt>
<trkpt lat="53.334524" lon="-1.640613"><ele>269</ele><time>2024-04-13T11:17:33Z</time><name>PT1732</name></trkpt>
<trkpt lat="53.334491" lon="-1.640560"><ele>269</ele><time>2024-04-13T11:17:38Z</time><name>PT1733</name></trkpt>
<trkpt lat="53.334473" lon="-1.640527"><ele>269</ele><time>2024-04-13T11:17:41Z</time><name>PT1734</name></trkpt>
<trkpt lat="53.334452" lon="-1.640475"><ele>269</ele><time>2024-04-13T11:17:44Z</time><name>PT1735</name></trkpt>
<trkpt lat="53.334421" lon="-1.640418"><ele>270</ele><time>2024-04-13T11:17:47Z</time><name>PT1736</name></trkpt>
<trkpt lat="53.334401" lon="-1.640378"><ele>270</ele><time>2024-04-13T11:17:50Z</time><name>PT1737</name></trkpt>
<trkpt lat="53.334366" lon="-1.640343"><ele>272</ele><time>2024-04-13T11:17:54Z</time><name>PT1738</name></trkpt>
<trkpt lat="53.334340" lon="-1.640318"><ele>272</ele><time>2024-04-13T11:17:59Z</time><name>PT1739</name></trkpt>
<trkpt lat="53.334309" lon="-1.640290"><ele>271</ele><time>2024-04-13T11:18:02Z</time><name>PT1740</name></trkpt>
<trkpt lat="53.334288" lon="-1.640263"><ele>270</ele><time>2024-04-13T11:18:05Z</time><name>PT1741</name></trkpt>
<trkpt lat="53.334274" lon="-1.640219"><ele>270</ele><time>2024-04-13T11:18:08Z</time><name>PT1742</name></trkpt>
<trkpt lat="53.334254" lon="-1.640175"><ele>269</ele><time>2024-04-13T11:18:11Z</time><name>PT1743</name></trkpt>
<trkpt lat="53.334222" lon="-1.640126"><ele>269</ele><time>2024-04-13T11:18:15Z</time><name>PT1744</name></trkpt>
<trkpt lat="53.334204" lon="-1.640087"><ele>269</ele><time>2024-04-13T11:18:18Z</time><name>PT1745</name></trkpt>
<trkpt lat="53.334170" lon="-1.640016"><ele>271</ele><time>2024-04-13T11:18:23Z</time><name>PT1746</name></trkpt>
<trkpt lat="53.334149" lon="-1.639957"><ele>272</ele><time>2024-04-13T11:18:26Z</time><name>PT1747</name></trkpt>
<trkpt lat="53.334124" lon="-1.639901"><ele>272</ele><time>2024-04-13T11:18:29Z</time><name>PT1748</name></trkpt>
<trkpt lat="53.334112" lon="-1.639847"><ele>273</ele><time>2024-04-13T11:18:32Z</time><name>PT1749</name></trkpt>
<trkpt lat="53.334094" lon="-1.639777"><ele>274</ele><time>2024-04-13T11:18:36Z</time><name>PT1750</name></trkpt>
<trkpt lat="53.334085" lon="-1.639732"><ele>274</ele><time>2024-04-13T11:18:39Z</time><name>PT1751</name></trkpt>
<trkpt lat="53.334074" lon="-1.639688"><ele>274</ele><time>2024-04-13T11:18:42Z</time><name>PT1752</name></trkpt>
<trkpt lat="53.334056" lon="-1.639629"><ele>275</ele><time>2024-04-13T11:18:47Z</time><name>PT1753</name></trkpt>
<trkpt lat="53.334045" lon="-1.639587"><ele>276</ele><time>2024-04-13T11:18:50Z</time><name>PT1754</name></trkpt>
<trkpt lat="53.334029" lon="-1.639529"><ele>276</ele><time>2024-04-13T11:18:53Z</time><name>PT1755</name></trkpt>
<trkpt lat="53.334013" lon="-1.639466"><ele>276</ele><time>2024-04-13T11:18:57Z</time><name>PT1756</name></trkpt>
<trkpt lat="53.334006" lon="-1.639409"><ele>276</ele><time>2024-04-13T11:19:02Z</time><name>PT1757</name></trkpt>
<trkpt lat="53.333998" lon="-1.639362"><ele>278</ele><time>2024-04-13T11:19:05Z</time><name>PT1758</name></trkpt>
<trkpt lat="53.333983" lon="-1.639319"><ele>276</ele><time>2024-04-13T11:19:08Z</time><name>PT1759</name></trkpt>
<trkpt lat="53.333960" lon="-1.639273"><ele>275</ele><time>2024-04-13T11:19:11Z</time><name>PT1760</name></trkpt>
<trkpt lat="53.333925" lon="-1.639225"><ele>275</ele><time>2024-04-13T11:19:14Z</time><name>PT1761</name></trkpt>
<trkpt lat="53.333900" lon="-1.639191"><ele>275</ele><time>2024-04-13T11:19:18Z</time><name>PT1762</name></trkpt>
<trkpt lat="53.333889" lon="-1.639162"><ele>277</ele><time>2024-04-13T11:19:23Z</time><name>PT1763</name></trkpt>
<trkpt lat="53.333884" lon="-1.639154"><ele>277</ele><time>2024-04-13T11:19:35Z</time><name>PT1764</name></trkpt>
<trkpt lat="53.333842" lon="-1.639118"><ele>278</ele><time>2024-04-13T11:19:38Z</time><name>PT1765</name></trkpt>
<trkpt lat="53.333808" lon="-1.639069"><ele>278</ele><time>2024-04-13T11:19:42Z</time><name>PT1766</name></trkpt>
<trkpt lat="53.333789" lon="-1.639030"><ele>278</ele><time>2024-04-13T11:19:45Z</time><name>PT1767</name></trkpt>
<trkpt lat="53.333757" lon="-1.638991"><ele>277</ele><time>2024-04-13T11:19:50Z</time><name>PT1768</name></trkpt>
<trkpt lat="53.333732" lon="-1.638968"><ele>278</ele><time>2024-04-13T11:19:53Z</time><name>PT1769</name></trkpt>
<trkpt lat="53.333706" lon="-1.638927"><ele>277</ele><time>2024-04-13T11:19:56Z</time><name>PT1770</name></trkpt>
<trkpt lat="53.333679" lon="-1.638873"><ele>277</ele><time>2024-04-13T11:20:00Z</time><name>PT1771</name></trkpt>
<trkpt lat="53.333657" lon="-1.638818"><ele>277</ele><time>2024-04-13T11:20:05Z</time><name>PT1772</name></trkpt>
<trkpt lat="53.333641" lon="-1.638774"><ele>277</ele><time>2024-04-13T11:20:08Z</time><name>PT1773</name></trkpt>
<trkpt lat="53.333630" lon="-1.638720"><ele>278</ele><time>2024-04-13T11:20:11Z</time><name>PT1774</name></trkpt>
<trkpt lat="53.333619" lon="-1.638645"><ele>277</ele><time>2024-04-13T11:20:14Z</time><name>PT1775</name></trkpt>
<trkpt lat="53.333615" lon="-1.638568"><ele>277</ele><time>2024-04-13T11:20:18Z</time><name>PT1776</name></trkpt>
<trkpt lat="53.333604" lon="-1.638491"><ele>277</ele><time>2024-04-13T11:20:23Z</time><name>PT1777</name></trkpt>
<trkpt lat="53.333602" lon="-1.638429"><ele>276</ele><time>2024-04-13T11:20:26Z</time><name>PT1778</name></trkpt>
<trkpt lat="53.333597" lon="-1.638357"><ele>275</ele><time>2024-04-13T11:20:29Z</time><name>PT1779</name></trkpt>
<trkpt lat="53.333588" lon="-1.638278"><ele>274</ele><time>2024-04-13T11:20:33Z</time><name>PT1780</name></trkpt>
<trkpt lat="53.333580" lon="-1.638216"><ele>275</ele><time>2024-04-13T11:20:36Z</time><name>PT1781</name></trkpt>
<trkpt lat="53.333577" lon="-1.638166"><ele>274</ele><time>2024-04-13T11:20:39Z</time><name>PT1782</name></trkpt>
<trkpt lat="53.333574" lon="-1.638112"><ele>272</ele><time>2024-04-13T11:20:44Z</time><name>PT1783</name></trkpt>
<trkpt lat="53.333574" lon="-1.638042"><ele>271</ele><time>2024-04-13T11:20:47Z</time><name>PT1784</name></trkpt>
<trkpt lat="53.333562" lon="-1.637963"><ele>270</ele><time>2024-04-13T11:20:51Z</time><name>PT1785</name></trkpt>
<trkpt lat="53.333559" lon="-1.637893"><ele>270</ele><time>2024-04-13T11:20:56Z</time><name>PT1786</name></trkpt>
<trkpt lat="53.333551" lon="-1.637817"><ele>270</ele><time>2024-04-13T11:20:59Z</time><name>PT1787</name></trkpt>
<trkpt lat="53.333539" lon="-1.637747"><ele>270</ele><time>2024-04-13T11:21:03Z</time><name>PT1788</name></trkpt>
<trkpt lat="53.333531" lon="-1.637672"><ele>270</ele><time>2024-04-13T11:21:08Z</time><name>PT1789</name></trkpt>
<trkpt lat="53.333526" lon="-1.637581"><ele>271</ele><time>2024-04-13T11:21:11Z</time><name>PT1790</name></trkpt>
<trkpt lat="53.333523" lon="-1.637509"><ele>271</ele><time>2024-04-13T11:21:14Z</time><name>PT1791</name></trkpt>
<trkpt lat="53.333513" lon="-1.637417"><ele>271</ele><time>2024-04-13T11:21:18Z</time><name>PT1792</name></trkpt>
<trkpt lat="53.333505" lon="-1.637355"><ele>271</ele><time>2024-04-13T11:21:21Z</time><name>PT1793</name></trkpt>
<trkpt lat="53.333497" lon="-1.637272"><ele>270</ele><time>2024-04-13T11:21:26Z</time><name>PT1794</name></trkpt>
<trkpt lat="53.333490" lon="-1.637206"><ele>269</ele><time>2024-04-13T11:21:29Z</time><name>PT1795</name></trkpt>
<trkpt lat="53.333482" lon="-1.637135"><ele>270</ele><time>2024-04-13T11:21:32Z</time><name>PT1796</name></trkpt>
<trkpt lat="53.333478" lon="-1.637060"><ele>270</ele><time>2024-04-13T11:21:36Z</time><name>PT1797</name></trkpt>
<trkpt lat="53.333473" lon="-1.637002"><ele>267</ele><time>2024-04-13T11:21:41Z</time><name>PT1798</name></trkpt>
<trkpt lat="53.333469" lon="-1.636958"><ele>267</ele><time>2024-04-13T11:21:44Z</time><name>PT1799</name></trkpt>
<trkpt lat="53.333477" lon="-1.636908"><ele>266</ele><time>2024-04-13T11:21:47Z</time><name>PT1800</name></trkpt>
<trkpt lat="53.333466" lon="-1.636842"><ele>264</ele><time>2024-04-13T11:21:50Z</time><name>PT1801</name></trkpt>
<trkpt lat="53.333456" lon="-1.636793"><ele>260</ele><time>2024-04-13T11:21:54Z</time><name>PT1802</name></trkpt>
<trkpt lat="53.333438" lon="-1.636745"><ele>259</ele><time>2024-04-13T11:21:57Z</time><name>PT1803</name></trkpt>
<trkpt lat="53.333423" lon="-1.636658"><ele>257</ele><time>2024-04-13T11:22:02Z</time><name>PT1804</name></trkpt>
<trkpt lat="53.333409" lon="-1.636581"><ele>255</ele><time>2024-04-13T11:22:05Z</time><name>PT1805</name></trkpt>
<trkpt lat="53.333393" lon="-1.636511"><ele>256</ele><time>2024-04-13T11:22:08Z</time><name>PT1806</name></trkpt>
<trkpt lat="53.333378" lon="-1.636421"><ele>256</ele><time>2024-04-13T11:22:12Z</time><name>PT1807</name></trkpt>
<trkpt lat="53.333375" lon="-1.636364"><ele>254</ele><time>2024-04-13T11:22:15Z</time><name>PT1808</name></trkpt>
<trkpt lat="53.333359" lon="-1.636296"><ele>255</ele><time>2024-04-13T11:22:18Z</time><name>PT1809</name></trkpt>
<trkpt lat="53.333333" lon="-1.636208"><ele>255</ele><time>2024-04-13T11:22:23Z</time><name>PT1810</name></trkpt>
<trkpt lat="53.333312" lon="-1.636146"><ele>255</ele><time>2024-04-13T11:22:26Z</time><name>PT1811</name></trkpt>
<trkpt lat="53.333281" lon="-1.636057"><ele>256</ele><time>2024-04-13T11:22:29Z</time><name>PT1812</name></trkpt>
<trkpt lat="53.333252" lon="-1.635957"><ele>257</ele><time>2024-04-13T11:22:33Z</time><name>PT1813</name></trkpt>
<trkpt lat="53.333229" lon="-1.635901"><ele>258</ele><time>2024-04-13T11:22:36Z</time><name>PT1814</name></trkpt>
<trkpt lat="53.333199" lon="-1.635802"><ele>260</ele><time>2024-04-13T11:22:41Z</time><name>PT1815</name></trkpt>
<trkpt lat="53.333181" lon="-1.635733"><ele>260</ele><time>2024-04-13T11:22:44Z</time><name>PT1816</name></trkpt>
<trkpt lat="53.333154" lon="-1.635673"><ele>260</ele><time>2024-04-13T11:22:47Z</time><name>PT1817</name></trkpt>
<trkpt lat="53.333131" lon="-1.635612"><ele>260</ele><time>2024-04-13T11:22:50Z</time><name>PT1818</name></trkpt>
<trkpt lat="53.333102" lon="-1.635542"><ele>259</ele><time>2024-04-13T11:22:53Z</time><name>PT1819</name></trkpt>
<trkpt lat="53.333076" lon="-1.635468"><ele>258</ele><time>2024-04-13T11:22:57Z</time><name>PT1820</name></trkpt>
<trkpt lat="53.333058" lon="-1.635386"><ele>258</ele><time>2024-04-13T11:23:02Z</time><name>PT1821</name></trkpt>
<trkpt lat="53.333033" lon="-1.635317"><ele>257</ele><time>2024-04-13T11:23:05Z</time><name>PT1822</name></trkpt>
<trkpt lat="53.333013" lon="-1.635254"><ele>257</ele><time>2024-04-13T11:23:08Z</time><name>PT1823</name></trkpt>
<trkpt lat="53.332998" lon="-1.635197"><ele>257</ele><time>2024-04-13T11:23:12Z</time><name>PT1824</name></trkpt>
<trkpt lat="53.332981" lon="-1.635141"><ele>257</ele><time>2024-04-13T11:23:15Z</time><name>PT1825</name></trkpt>
<trkpt lat="53.332957" lon="-1.635072"><ele>256</ele><time>2024-04-13T11:23:20Z</time><name>PT1826</name></trkpt>
<trkpt lat="53.332940" lon="-1.635015"><ele>256</ele><time>2024-04-13T11:23:23Z</time><name>PT1827</name></trkpt>
<trkpt lat="53.332917" lon="-1.634938"><ele>255</ele><time>2024-04-13T11:23:26Z</time><name>PT1828</name></trkpt>
<trkpt lat="53.332887" lon="-1.634859"><ele>255</ele><time>2024-04-13T11:23:30Z</time><name>PT1829</name></trkpt>
<trkpt lat="53.332867" lon="-1.634793"><ele>255</ele><time>2024-04-13T11:23:33Z</time><name>PT1830</name></trkpt>
<trkpt lat="53.332844" lon="-1.634755"><ele>254</ele><time>2024-04-13T11:23:38Z</time><name>PT1831</name></trkpt>
<trkpt lat="53.332836" lon="-1.634737"><ele>254</ele><time>2024-04-13T11:23:41Z</time><name>PT1832</name></trkpt>
<trkpt lat="53.332829" lon="-1.634684"><ele>255</ele><time>2024-04-13T11:23:44Z</time><name>PT1833</name></trkpt>
<trkpt lat="53.332815" lon="-1.634632"><ele>254</ele><time>2024-04-13T11:23:48Z</time><name>PT1834</name></trkpt>
<trkpt lat="53.332816" lon="-1.634562"><ele>255</ele><time>2024-04-13T11:23:53Z</time><name>PT1835</name></trkpt>
<trkpt lat="53.332827" lon="-1.634501"><ele>255</ele><time>2024-04-13T11:23:56Z</time><name>PT1836</name></trkpt>
<trkpt lat="53.332839" lon="-1.634458"><ele>255</ele><time>2024-04-13T11:24:00Z</time><name>PT1837</name></trkpt>
<trkpt lat="53.332849" lon="-1.634419"><ele>255</ele><time>2024-04-13T11:24:03Z</time><name>PT1838</name></trkpt>
<trkpt lat="53.332862" lon="-1.634362"><ele>254</ele><time>2024-04-13T11:24:08Z</time><name>PT1839</name></trkpt>
<trkpt lat="53.332876" lon="-1.634301"><ele>255</ele><time>2024-04-13T11:24:11Z</time><name>PT1840</name></trkpt>
<trkpt lat="53.332882" lon="-1.634244"><ele>255</ele><time>2024-04-13T11:24:14Z</time><name>PT1841</name></trkpt>
<trkpt lat="53.332890" lon="-1.634196"><ele>255</ele><time>2024-04-13T11:24:17Z</time><name>PT1842</name></trkpt>
<trkpt lat="53.332898" lon="-1.634130"><ele>256</ele><time>2024-04-13T11:24:21Z</time><name>PT1843</name></trkpt>
<trkpt lat="53.332908" lon="-1.634082"><ele>256</ele><time>2024-04-13T11:24:24Z</time><name>PT1844</name></trkpt>
<trkpt lat="53.332909" lon="-1.634037"><ele>258</ele><time>2024-04-13T11:24:29Z</time><name>PT1845</name></trkpt>
<trkpt lat="53.332901" lon="-1.633988"><ele>258</ele><time>2024-04-13T11:24:32Z</time><name>PT1846</name></trkpt>
<trkpt lat="53.332896" lon="-1.633915"><ele>259</ele><time>2024-04-13T11:24:35Z</time><name>PT1847</name></trkpt>
<trkpt lat="53.332898" lon="-1.633869"><ele>259</ele><time>2024-04-13T11:24:38Z</time><name>PT1848</name></trkpt>
<trkpt lat="53.332903" lon="-1.633809"><ele>259</ele><time>2024-04-13T11:24:42Z</time><name>PT1849</name></trkpt>
<trkpt lat="53.332911" lon="-1.633751"><ele>259</ele><time>2024-04-13T11:24:47Z</time><name>PT1850</name></trkpt>
<trkpt lat="53.332922" lon="-1.633673"><ele>260</ele><time>2024-04-13T11:24:50Z</time><name>PT1851</name></trkpt>
<trkpt lat="53.332929" lon="-1.633610"><ele>261</ele><time>2024-04-13T11:24:53Z</time><name>PT1852</name></trkpt>
<trkpt lat="53.332935" lon="-1.633570"><ele>261</ele><time>2024-04-13T11:24:56Z</time><name>PT1853</name></trkpt>
<trkpt lat="53.332939" lon="-1.633521"><ele>261</ele><time>2024-04-13T11:24:59Z</time><name>PT1854</name></trkpt>
<trkpt lat="53.332942" lon="-1.633462"><ele>262</ele><time>2024-04-13T11:25:03Z</time><name>PT1855</name></trkpt>
<trkpt lat="53.332950" lon="-1.633396"><ele>262</ele><time>2024-04-13T11:25:08Z</time><name>PT1856</name></trkpt>
<trkpt lat="53.332942" lon="-1.633330"><ele>266</ele><time>2024-04-13T11:25:11Z</time><name>PT1857</name></trkpt>
<trkpt lat="53.332947" lon="-1.633265"><ele>266</ele><time>2024-04-13T11:25:15Z</time><name>PT1858</name></trkpt>
<trkpt lat="53.332951" lon="-1.633223"><ele>266</ele><time>2024-04-13T11:25:18Z</time><name>PT1859</name></trkpt>
<trkpt lat="53.332951" lon="-1.633176"><ele>266</ele><time>2024-04-13T11:25:21Z</time><name>PT1860</name></trkpt>
<trkpt lat="53.332953" lon="-1.633128"><ele>266</ele><time>2024-04-13T11:25:24Z</time><name>PT1861</name></trkpt>
<trkpt lat="53.332954" lon="-1.633048"><ele>267</ele><time>2024-04-13T11:25:29Z</time><name>PT1862</name></trkpt>
<trkpt lat="53.332950" lon="-1.632975"><ele>267</ele><time>2024-04-13T11:25:32Z</time><name>PT1863</name></trkpt>
<trkpt lat="53.332947" lon="-1.632916"><ele>268</ele><time>2024-04-13T11:25:35Z</time><name>PT1864</name></trkpt>
<trkpt lat="53.332944" lon="-1.632850"><ele>267</ele><time>2024-04-13T11:25:39Z</time><name>PT1865</name></trkpt>
<trkpt lat="53.332934" lon="-1.632773"><ele>268</ele><time>2024-04-13T11:25:44Z</time><name>PT1866</name></trkpt>
<trkpt lat="53.332934" lon="-1.632721"><ele>268</ele><time>2024-04-13T11:25:47Z</time><name>PT1867</name></trkpt>
<trkpt lat="53.332924" lon="-1.632641"><ele>269</ele><time>2024-04-13T11:25:50Z</time><name>PT1868</name></trkpt>
<trkpt lat="53.332932" lon="-1.632569"><ele>270</ele><time>2024-04-13T11:25:54Z</time><name>PT1869</name></trkpt>
<trkpt lat="53.332930" lon="-1.632514"><ele>270</ele><time>2024-04-13T11:25:57Z</time><name>PT1870</name></trkpt>
<trkpt lat="53.332933" lon="-1.632453"><ele>271</ele><time>2024-04-13T11:26:00Z</time><name>PT1871</name></trkpt>
<trkpt lat="53.332931" lon="-1.632397"><ele>272</ele><time>2024-04-13T11:26:03Z</time><name>PT1872</name></trkpt>
<trkpt lat="53.332932" lon="-1.632334"><ele>272</ele><time>2024-04-13T11:26:08Z</time><name>PT1873</name></trkpt>
<trkpt lat="53.332925" lon="-1.632297"><ele>272</ele><time>2024-04-13T11:26:11Z</time><name>PT1874</name></trkpt>
<trkpt lat="53.332925" lon="-1.632214"><ele>273</ele><time>2024-04-13T11:26:14Z</time><name>PT1875</name></trkpt>
<trkpt lat="53.332924" lon="-1.632164"><ele>272</ele><time>2024-04-13T11:26:17Z</time><name>PT1876</name></trkpt>
<trkpt lat="53.332919" lon="-1.632088"><ele>272</ele><time>2024-04-13T11:26:21Z</time><name>PT1877</name></trkpt>
<trkpt lat="53.332915" lon="-1.632027"><ele>273</ele><time>2024-04-13T11:26:24Z</time><name>PT1878</name></trkpt>
<trkpt lat="53.332907" lon="-1.631949"><ele>274</ele><time>2024-04-13T11:26:29Z</time><name>PT1879</name></trkpt>
<trkpt lat="53.332896" lon="-1.631859"><ele>275</ele><time>2024-04-13T11:26:32Z</time><name>PT1880</name></trkpt>
<trkpt lat="53.332885" lon="-1.631797"><ele>276</ele><time>2024-04-13T11:26:35Z</time><name>PT1881</name></trkpt>
<trkpt lat="53.332874" lon="-1.631716"><ele>276</ele><time>2024-04-13T11:26:39Z</time><name>PT1882</name></trkpt>
<trkpt lat="53.332869" lon="-1.631663"><ele>277</ele><time>2024-04-13T11:26:42Z</time><name>PT1883</name></trkpt>
<trkpt lat="53.332854" lon="-1.631588"><ele>278</ele><time>2024-04-13T11:26:47Z</time><name>PT1884</name></trkpt>
<trkpt lat="53.332845" lon="-1.631526"><ele>279</ele><time>2024-04-13T11:26:50Z</time><name>PT1885</name></trkpt>
<trkpt lat="53.332833" lon="-1.631453"><ele>280</ele><time>2024-04-13T11:26:53Z</time><name>PT1886</name></trkpt>
<trkpt lat="53.332821" lon="-1.631375"><ele>280</ele><time>2024-04-13T11:26:57Z</time><name>PT1887</name></trkpt>
<trkpt lat="53.332809" lon="-1.631304"><ele>281</ele><time>2024-04-13T11:27:02Z</time><name>PT1888</name></trkpt>
<trkpt lat="53.332800" lon="-1.631246"><ele>281</ele><time>2024-04-13T11:27:05Z</time><name>PT1889</name></trkpt>
<trkpt lat="53.332788" lon="-1.631171"><ele>282</ele><time>2024-04-13T11:27:09Z</time><name>PT1890</name></trkpt>
<trkpt lat="53.332782" lon="-1.631103"><ele>282</ele><time>2024-04-13T11:27:14Z</time><name>PT1891</name></trkpt>
<trkpt lat="53.332775" lon="-1.631029"><ele>283</ele><time>2024-04-13T11:27:17Z</time><name>PT1892</name></trkpt>
<trkpt lat="53.332771" lon="-1.630972"><ele>284</ele><time>2024-04-13T11:27:20Z</time><name>PT1893</name></trkpt>
<trkpt lat="53.332772" lon="-1.630894"><ele>285</ele><time>2024-04-13T11:27:24Z</time><name>PT1894</name></trkpt>
<trkpt lat="53.332772" lon="-1.630841"><ele>285</ele><time>2024-04-13T11:27:27Z</time><name>PT1895</name></trkpt>
<trkpt lat="53.332774" lon="-1.630788"><ele>286</ele><time>2024-04-13T11:27:30Z</time><name>PT1896</name></trkpt>
<trkpt lat="53.332778" lon="-1.630707"><ele>288</ele><time>2024-04-13T11:27:35Z</time><name>PT1897</name></trkpt>
<trkpt lat="53.332775" lon="-1.630659"><ele>289</ele><time>2024-04-13T11:27:38Z</time><name>PT1898</name></trkpt>
<trkpt lat="53.332762" lon="-1.630625"><ele>289</ele><time>2024-04-13T11:27:41Z</time><name>PT1899</name></trkpt>
<trkpt lat="53.332740" lon="-1.630568"><ele>288</ele><time>2024-04-13T11:27:44Z</time><name>PT1900</name></trkpt>
<trkpt lat="53.332726" lon="-1.630491"><ele>288</ele><time>2024-04-13T11:27:48Z</time><name>PT1901</name></trkpt>
<trkpt lat="53.332712" lon="-1.630451"><ele>287</ele><time>2024-04-13T11:27:51Z</time><name>PT1902</name></trkpt>
<trkpt lat="53.332698" lon="-1.630366"><ele>287</ele><time>2024-04-13T11:27:56Z</time><name>PT1903</name></trkpt>
<trkpt lat="53.332702" lon="-1.630284"><ele>285</ele><time>2024-04-13T11:27:59Z</time><name>PT1904</name></trkpt>
<trkpt lat="53.332707" lon="-1.630218"><ele>286</ele><time>2024-04-13T11:28:02Z</time><name>PT1905</name></trkpt>
<trkpt lat="53.332717" lon="-1.630129"><ele>286</ele><time>2024-04-13T11:28:06Z</time><name>PT1906</name></trkpt>
<trkpt lat="53.332732" lon="-1.630076"><ele>287</ele><time>2024-04-13T11:28:09Z</time><name>PT1907</name></trkpt>
<trkpt lat="53.332752" lon="-1.630010"><ele>287</ele><time>2024-04-13T11:28:14Z</time><name>PT1908</name></trkpt>
<trkpt lat="53.332763" lon="-1.629974"><ele>286</ele><time>2024-04-13T11:28:17Z</time><name>PT1909</name></trkpt>
<trkpt lat="53.332758" lon="-1.629920"><ele>286</ele><time>2024-04-13T11:28:20Z</time><name>PT1910</name></trkpt>
<trkpt lat="53.332739" lon="-1.629911"><ele>286</ele><time>2024-04-13T11:28:23Z</time><name>PT1911</name></trkpt>
<trkpt lat="53.332716" lon="-1.629904"><ele>285</ele><time>2024-04-13T11:28:27Z</time><name>PT1912</name></trkpt>
<trkpt lat="53.332701" lon="-1.629878"><ele>284</ele><time>2024-04-13T11:28:32Z</time><name>PT1913</name></trkpt>
<trkpt lat="53.332691" lon="-1.629841"><ele>283</ele><time>2024-04-13T11:28:35Z</time><name>PT1914</name></trkpt>
<trkpt lat="53.332682" lon="-1.629795"><ele>282</ele><time>2024-04-13T11:28:38Z</time><name>PT1915</name></trkpt>
<trkpt lat="53.332684" lon="-1.629760"><ele>281</ele><time>2024-04-13T11:28:41Z</time><name>PT1916</name></trkpt>
<trkpt lat="53.332694" lon="-1.629718"><ele>280</ele><time>2024-04-13T11:28:44Z</time><name>PT1917</name></trkpt>
<trkpt lat="53.332706" lon="-1.629660"><ele>279</ele><time>2024-04-13T11:28:47Z</time><name>PT1918</name></trkpt>
<trkpt lat="53.332712" lon="-1.629618"><ele>278</ele><time>2024-04-13T11:28:50Z</time><name>PT1919</name></trkpt>
<trkpt lat="53.332698" lon="-1.629537"><ele>278</ele><time>2024-04-13T11:28:54Z</time><name>PT1920</name></trkpt>
<trkpt lat="53.332669" lon="-1.629508"><ele>278</ele><time>2024-04-13T11:28:59Z</time><name>PT1921</name></trkpt>
<trkpt lat="53.332642" lon="-1.629507"><ele>277</ele><time>2024-04-13T11:29:02Z</time><name>PT1922</name></trkpt>
<trkpt lat="53.332617" lon="-1.629500"><ele>275</ele><time>2024-04-13T11:29:06Z</time><name>PT1923</name></trkpt>
<trkpt lat="53.332601" lon="-1.629494"><ele>274</ele><time>2024-04-13T11:29:09Z</time><name>PT1924</name></trkpt>
<trkpt lat="53.332599" lon="-1.629463"><ele>273</ele><time>2024-04-13T11:29:14Z</time><name>PT1925</name></trkpt>
<trkpt lat="53.332609" lon="-1.629444"><ele>271</ele><time>2024-04-13T11:29:17Z</time><name>PT1926</name></trkpt>
<trkpt lat="53.332621" lon="-1.629422"><ele>270</ele><time>2024-04-13T11:29:20Z</time><name>PT1927</name></trkpt>
<trkpt lat="53.332631" lon="-1.629397"><ele>271</ele><time>2024-04-13T11:29:23Z</time><name>PT1928</name></trkpt>
<trkpt lat="53.332644" lon="-1.629377"><ele>271</ele><time>2024-04-13T11:29:26Z</time><name>PT1929</name></trkpt>
<trkpt lat="53.332664" lon="-1.629342"><ele>270</ele><time>2024-04-13T11:29:30Z</time><name>PT1930</name></trkpt>
<trkpt lat="53.332666" lon="-1.629316"><ele>270</ele><time>2024-04-13T11:29:33Z</time><name>PT1931</name></trkpt>
<trkpt lat="53.332674" lon="-1.629282"><ele>271</ele><time>2024-04-13T11:29:36Z</time><name>PT1932</name></trkpt>
<trkpt lat="53.332670" lon="-1.629245"><ele>273</ele><time>2024-04-13T11:29:41Z</time><name>PT1933</name></trkpt>
<trkpt lat="53.332668" lon="-1.629224"><ele>274</ele><time>2024-04-13T11:29:44Z</time><name>PT1934</name></trkpt>
<trkpt lat="53.332659" lon="-1.629198"><ele>275</ele><time>2024-04-13T11:29:47Z</time><name>PT1935</name></trkpt>
<trkpt lat="53.332639" lon="-1.629168"><ele>277</ele><time>2024-04-13T11:29:50Z</time><name>PT1936</name></trkpt>
<trkpt lat="53.332611" lon="-1.629143"><ele>277</ele><time>2024-04-13T11:29:54Z</time><name>PT1937</name></trkpt>
<trkpt lat="53.332611" lon="-1.629118"><ele>277</ele><time>2024-04-13T11:29:57Z</time><name>PT1938</name></trkpt>
<trkpt lat="53.332608" lon="-1.629069"><ele>279</ele><time>2024-04-13T11:30:02Z</time><name>PT1939</name></trkpt>
<trkpt lat="53.332605" lon="-1.629041"><ele>278</ele><time>2024-04-13T11:30:05Z</time><name>PT1940</name></trkpt>
<trkpt lat="53.332596" lon="-1.629006"><ele>279</ele><time>2024-04-13T11:30:08Z</time><name>PT1941</name></trkpt>
<trkpt lat="53.332574" lon="-1.628981"><ele>280</ele><time>2024-04-13T11:30:12Z</time><name>PT1942</name></trkpt>
<trkpt lat="53.332564" lon="-1.628961"><ele>281</ele><time>2024-04-13T11:30:23Z</time><name>PT1943</name></trkpt>
<trkpt lat="53.332560" lon="-1.628894"><ele>281</ele><time>2024-04-13T11:30:26Z</time><name>PT1944</name></trkpt>
<trkpt lat="53.332571" lon="-1.628859"><ele>281</ele><time>2024-04-13T11:30:29Z</time><name>PT1945</name></trkpt>
<trkpt lat="53.332594" lon="-1.628839"><ele>281</ele><time>2024-04-13T11:30:32Z</time><name>PT1946</name></trkpt>
<trkpt lat="53.332633" lon="-1.628818"><ele>280</ele><time>2024-04-13T11:30:36Z</time><name>PT1947</name></trkpt>
<trkpt lat="53.332667" lon="-1.628804"><ele>280</ele><time>2024-04-13T11:30:39Z</time><name>PT1948</name></trkpt>
<trkpt lat="53.332698" lon="-1.628789"><ele>279</ele><time>2024-04-13T11:30:42Z</time><name>PT1949</name></trkpt>
<trkpt lat="53.332750" lon="-1.628759"><ele>280</ele><time>2024-04-13T11:30:47Z</time><name>PT1950</name></trkpt>
<trkpt lat="53.332776" lon="-1.628725"><ele>279</ele><time>2024-04-13T11:30:50Z</time><name>PT1951</name></trkpt>
<trkpt lat="53.332818" lon="-1.628680"><ele>279</ele><time>2024-04-13T11:30:53Z</time><name>PT1952</name></trkpt>
<trkpt lat="53.332858" lon="-1.628619"><ele>279</ele><time>2024-04-13T11:30:57Z</time><name>PT1953</name></trkpt>
<trkpt lat="53.332884" lon="-1.628571"><ele>279</ele><time>2024-04-13T11:31:00Z</time><name>PT1954</name></trkpt>
<trkpt lat="53.332915" lon="-1.628506"><ele>278</ele><time>2024-04-13T11:31:05Z</time><name>PT1955</name></trkpt>
<trkpt lat="53.332930" lon="-1.628458"><ele>278</ele><time>2024-04-13T11:31:08Z</time><name>PT1956</name></trkpt>
<trkpt lat="53.332950" lon="-1.628401"><ele>277</ele><time>2024-04-13T11:31:11Z</time><name>PT1957</name></trkpt>
<trkpt lat="53.332969" lon="-1.628348"><ele>278</ele><time>2024-04-13T11:31:14Z</time><name>PT1958</name></trkpt>
<trkpt lat="53.333000" lon="-1.628272"><ele>278</ele><time>2024-04-13T11:31:17Z</time><name>PT1959</name></trkpt>
<trkpt lat="53.333026" lon="-1.628224"><ele>278</ele><time>2024-04-13T11:31:20Z</time><name>PT1960</name></trkpt>
<trkpt lat="53.333062" lon="-1.628166"><ele>279</ele><time>2024-04-13T11:31:24Z</time><name>PT1961</name></trkpt>
<trkpt lat="53.333104" lon="-1.628117"><ele>280</ele><time>2024-04-13T11:31:29Z</time><name>PT1962</name></trkpt>
<trkpt lat="53.333134" lon="-1.628095"><ele>280</ele><time>2024-04-13T11:31:32Z</time><name>PT1963</name></trkpt>
<trkpt lat="53.333186" lon="-1.628073"><ele>282</ele><time>2024-04-13T11:31:35Z</time><name>PT1964</name></trkpt>
<trkpt lat="53.333229" lon="-1.628061"><ele>282</ele><time>2024-04-13T11:31:39Z</time><name>PT1965</name></trkpt>
<trkpt lat="53.333265" lon="-1.628067"><ele>283</ele><time>2024-04-13T11:31:42Z</time><name>PT1966</name></trkpt>
<trkpt lat="53.333303" lon="-1.628065"><ele>284</ele><time>2024-04-13T11:31:47Z</time><name>PT1967</name></trkpt>
<trkpt lat="53.333323" lon="-1.628038"><ele>284</ele><time>2024-04-13T11:31:50Z</time><name>PT1968</name></trkpt>
<trkpt lat="53.333351" lon="-1.628021"><ele>285</ele><time>2024-04-13T11:31:53Z</time><name>PT1969</name></trkpt>
<trkpt lat="53.333403" lon="-1.627995"><ele>286</ele><time>2024-04-13T11:31:56Z</time><name>PT1970</name></trkpt>
<trkpt lat="53.333440" lon="-1.627961"><ele>287</ele><time>2024-04-13T11:31:59Z</time><name>PT1971</name></trkpt>
<trkpt lat="53.333488" lon="-1.627924"><ele>287</ele><time>2024-04-13T11:32:03Z</time><name>PT1972</name></trkpt>
<trkpt lat="53.333535" lon="-1.627883"><ele>286</ele><time>2024-04-13T11:32:08Z</time><name>PT1973</name></trkpt>
<trkpt lat="53.333570" lon="-1.627853"><ele>286</ele><time>2024-04-13T11:32:11Z</time><name>PT1974</name></trkpt>
<trkpt lat="53.333609" lon="-1.627815"><ele>286</ele><time>2024-04-13T11:32:14Z</time><name>PT1975</name></trkpt>
<trkpt lat="53.333640" lon="-1.627780"><ele>286</ele><time>2024-04-13T11:32:17Z</time><name>PT1976</name></trkpt>
<trkpt lat="53.333683" lon="-1.627740"><ele>286</ele><time>2024-04-13T11:32:21Z</time><name>PT1977</name></trkpt>
<trkpt lat="53.333726" lon="-1.627706"><ele>286</ele><time>2024-04-13T11:32:26Z</time><name>PT1978</name></trkpt>
<trkpt lat="53.333756" lon="-1.627687"><ele>286</ele><time>2024-04-13T11:32:29Z</time><name>PT1979</name></trkpt>
<trkpt lat="53.333786" lon="-1.627635"><ele>287</ele><time>2024-04-13T11:32:32Z</time><name>PT1980</name></trkpt>
<trkpt lat="53.333795" lon="-1.627594"><ele>287</ele><time>2024-04-13T11:32:36Z</time><name>PT1981</name></trkpt>
<trkpt lat="53.333799" lon="-1.627592"><ele>287</ele><time>2024-04-13T11:32:41Z</time><name>PT1982</name></trkpt>
<trkpt lat="53.333802" lon="-1.627560"><ele>287</ele><time>2024-04-13T11:33:00Z</time><name>PT1983</name></trkpt>
<trkpt lat="53.333804" lon="-1.627505"><ele>287</ele><time>2024-04-13T11:33:05Z</time><name>PT1984</name></trkpt>
<trkpt lat="53.333802" lon="-1.627484"><ele>286</ele><time>2024-04-13T11:33:08Z</time><name>PT1985</name></trkpt>
<trkpt lat="53.333808" lon="-1.627439"><ele>285</ele><time>2024-04-13T11:33:11Z</time><name>PT1986</name></trkpt>
<trkpt lat="53.333799" lon="-1.627406"><ele>286</ele><time>2024-04-13T11:33:14Z</time><name>PT1987</name></trkpt>
<trkpt lat="53.333790" lon="-1.627330"><ele>286</ele><time>2024-04-13T11:33:18Z</time><name>PT1988</name></trkpt>
<trkpt lat="53.333787" lon="-1.627279"><ele>287</ele><time>2024-04-13T11:33:21Z</time><name>PT1989</name></trkpt>
<trkpt lat="53.333782" lon="-1.627227"><ele>287</ele><time>2024-04-13T11:33:24Z</time><name>PT1990</name></trkpt>
<trkpt lat="53.333775" lon="-1.627158"><ele>288</ele><time>2024-04-13T11:33:29Z</time><name>PT1991</name></trkpt>
<trkpt lat="53.333775" lon="-1.627107"><ele>289</ele><time>2024-04-13T11:33:32Z</time><name>PT1992</name></trkpt>
<trkpt lat="53.333776" lon="-1.627037"><ele>290</ele><time>2024-04-13T11:33:35Z</time><name>PT1993</name></trkpt>
<trkpt lat="53.333785" lon="-1.626966"><ele>290</ele><time>2024-04-13T11:33:39Z</time><name>PT1994</name></trkpt>
<trkpt lat="53.333795" lon="-1.626897"><ele>290</ele><time>2024-04-13T11:33:44Z</time><name>PT1995</name></trkpt>
<trkpt lat="53.333804" lon="-1.626847"><ele>292</ele><time>2024-04-13T11:33:47Z</time><name>PT1996</name></trkpt>
<trkpt lat="53.333816" lon="-1.626796"><ele>292</ele><time>2024-04-13T11:33:50Z</time><name>PT1997</name></trkpt>
<trkpt lat="53.333824" lon="-1.626745"><ele>293</ele><time>2024-04-13T11:33:53Z</time><name>PT1998</name></trkpt>
<trkpt lat="53.333842" lon="-1.626676"><ele>293</ele><time>2024-04-13T11:33:56Z</time><name>PT1999</name></trkpt>
<trkpt lat="53.333855" lon="-1.626624"><ele>294</ele><time>2024-04-13T11:33:59Z</time><name>PT2000</name></trkpt>
<trkpt lat="53.333877" lon="-1.626565"><ele>294</ele><time>2024-04-13T11:34:03Z</time><name>PT2001</name></trkpt>
<trkpt lat="53.333895" lon="-1.626504"><ele>294</ele><time>2024-04-13T11:34:08Z</time><name>PT2002</name></trkpt>
<trkpt lat="53.333905" lon="-1.626462"><ele>294</ele><time>2024-04-13T11:34:11Z</time><name>PT2003</name></trkpt>
<trkpt lat="53.333921" lon="-1.626411"><ele>294</ele><time>2024-04-13T11:34:14Z</time><name>PT2004</name></trkpt>
<trkpt lat="53.333933" lon="-1.626369"><ele>295</ele><time>2024-04-13T11:34:17Z</time><name>PT2005</name></trkpt>
<trkpt lat="53.333956" lon="-1.626301"><ele>295</ele><time>2024-04-13T11:34:21Z</time><name>PT2006</name></trkpt>
<trkpt lat="53.333973" lon="-1.626251"><ele>296</ele><time>2024-04-13T11:34:24Z</time><name>PT2007</name></trkpt>
<trkpt lat="53.333985" lon="-1.626213"><ele>296</ele><time>2024-04-13T11:34:27Z</time><name>PT2008</name></trkpt>
<trkpt lat="53.333998" lon="-1.626175"><ele>297</ele><time>2024-04-13T11:34:30Z</time><name>PT2009</name></trkpt>
<trkpt lat="53.334016" lon="-1.626118"><ele>297</ele><time>2024-04-13T11:34:35Z</time><name>PT2010</name></trkpt>
<trkpt lat="53.334036" lon="-1.626064"><ele>299</ele><time>2024-04-13T11:34:38Z</time><name>PT2011</name></trkpt>
<trkpt lat="53.334054" lon="-1.626026"><ele>299</ele><time>2024-04-13T11:34:41Z</time><name>PT2012</name></trkpt>
<trkpt lat="53.334076" lon="-1.625987"><ele>299</ele><time>2024-04-13T11:34:45Z</time><name>PT2013</name></trkpt>
<trkpt lat="53.334099" lon="-1.625934"><ele>301</ele><time>2024-04-13T11:34:48Z</time><name>PT2014</name></trkpt>
<trkpt lat="53.334123" lon="-1.625865"><ele>302</ele><time>2024-04-13T11:34:53Z</time><name>PT2015</name></trkpt>
<trkpt lat="53.334133" lon="-1.625800"><ele>302</ele><time>2024-04-13T11:34:56Z</time><name>PT2016</name></trkpt>
<trkpt lat="53.334157" lon="-1.625740"><ele>304</ele><time>2024-04-13T11:35:00Z</time><name>PT2017</name></trkpt>
<trkpt lat="53.334183" lon="-1.625688"><ele>304</ele><time>2024-04-13T11:35:05Z</time><name>PT2018</name></trkpt>
<trkpt lat="53.334195" lon="-1.625656"><ele>304</ele><time>2024-04-13T11:35:08Z</time><name>PT2019</name></trkpt>
<trkpt lat="53.334210" lon="-1.625612"><ele>304</ele><time>2024-04-13T11:35:11Z</time><name>PT2020</name></trkpt>
<trkpt lat="53.334231" lon="-1.625587"><ele>305</ele><time>2024-04-13T11:35:14Z</time><name>PT2021</name></trkpt>
<trkpt lat="53.334253" lon="-1.625541"><ele>304</ele><time>2024-04-13T11:35:18Z</time><name>PT2022</name></trkpt>
<trkpt lat="53.334272" lon="-1.625509"><ele>305</ele><time>2024-04-13T11:35:21Z</time><name>PT2023</name></trkpt>
<trkpt lat="53.334297" lon="-1.625447"><ele>305</ele><time>2024-04-13T11:35:26Z</time><name>PT2024</name></trkpt>
<trkpt lat="53.334318" lon="-1.625395"><ele>305</ele><time>2024-04-13T11:35:29Z</time><name>PT2025</name></trkpt>
<trkpt lat="53.334337" lon="-1.625348"><ele>305</ele><time>2024-04-13T11:35:33Z</time><name>PT2026</name></trkpt>
<trkpt lat="53.334356" lon="-1.625300"><ele>305</ele><time>2024-04-13T11:35:36Z</time><name>PT2027</name></trkpt>
<trkpt lat="53.334383" lon="-1.625248"><ele>306</ele><time>2024-04-13T11:35:41Z</time><name>PT2028</name></trkpt>
<trkpt lat="53.334399" lon="-1.625189"><ele>307</ele><time>2024-04-13T11:35:44Z</time><name>PT2029</name></trkpt>
<trkpt lat="53.334423" lon="-1.625142"><ele>307</ele><time>2024-04-13T11:35:48Z</time><name>PT2030</name></trkpt>
<trkpt lat="53.334442" lon="-1.625081"><ele>308</ele><time>2024-04-13T11:35:53Z</time><name>PT2031</name></trkpt>
<trkpt lat="53.334456" lon="-1.625041"><ele>308</ele><time>2024-04-13T11:35:56Z</time><name>PT2032</name></trkpt>
<trkpt lat="53.334478" lon="-1.624988"><ele>309</ele><time>2024-04-13T11:35:59Z</time><name>PT2033</name></trkpt>
<trkpt lat="53.334499" lon="-1.624953"><ele>309</ele><time>2024-04-13T11:36:02Z</time><name>PT2034</name></trkpt>
<trkpt lat="53.334509" lon="-1.624908"><ele>310</ele><time>2024-04-13T11:36:05Z</time><name>PT2035</name></trkpt>
<trkpt lat="53.334529" lon="-1.624846"><ele>310</ele><time>2024-04-13T11:36:09Z</time><name>PT2036</name></trkpt>
<trkpt lat="53.334546" lon="-1.624789"><ele>312</ele><time>2024-04-13T11:36:12Z</time><name>PT2037</name></trkpt>
<trkpt lat="53.334567" lon="-1.624741"><ele>313</ele><time>2024-04-13T11:36:15Z</time><name>PT2038</name></trkpt>
<trkpt lat="53.334587" lon="-1.624683"><ele>314</ele><time>2024-04-13T11:36:20Z</time><name>PT2039</name></trkpt>
<trkpt lat="53.334604" lon="-1.624630"><ele>315</ele><time>2024-04-13T11:36:23Z</time><name>PT2040</name></trkpt>
<trkpt lat="53.334632" lon="-1.624581"><ele>316</ele><time>2024-04-13T11:36:26Z</time><name>PT2041</name></trkpt>
<trkpt lat="53.334660" lon="-1.624524"><ele>317</ele><time>2024-04-13T11:36:30Z</time><name>PT2042</name></trkpt>
<trkpt lat="53.334677" lon="-1.624476"><ele>317</ele><time>2024-04-13T11:36:33Z</time><name>PT2043</name></trkpt>
<trkpt lat="53.334696" lon="-1.624435"><ele>317</ele><time>2024-04-13T11:36:36Z</time><name>PT2044</name></trkpt>
<trkpt lat="53.334709" lon="-1.624405"><ele>317</ele><time>2024-04-13T11:36:39Z</time><name>PT2045</name></trkpt>
<trkpt lat="53.334716" lon="-1.624350"><ele>317</ele><time>2024-04-13T11:36:42Z</time><name>PT2046</name></trkpt>
<trkpt lat="53.334737" lon="-1.624289"><ele>318</ele><time>2024-04-13T11:36:47Z</time><name>PT2047</name></trkpt>
<trkpt lat="53.334752" lon="-1.624243"><ele>319</ele><time>2024-04-13T11:36:50Z</time><name>PT2048</name></trkpt>
<trkpt lat="53.334766" lon="-1.624201"><ele>319</ele><time>2024-04-13T11:36:53Z</time><name>PT2049</name></trkpt>
<trkpt lat="53.334791" lon="-1.624147"><ele>319</ele><time>2024-04-13T11:36:56Z</time><name>PT2050</name></trkpt>
<trkpt lat="53.334813" lon="-1.624104"><ele>320</ele><time>2024-04-13T11:37:00Z</time><name>PT2051</name></trkpt>
<trkpt lat="53.334834" lon="-1.624066"><ele>321</ele><time>2024-04-13T11:37:03Z</time><name>PT2052</name></trkpt>
<trkpt lat="53.334852" lon="-1.624025"><ele>322</ele><time>2024-04-13T11:37:06Z</time><name>PT2053</name></trkpt>
<trkpt lat="53.334873" lon="-1.623967"><ele>323</ele><time>2024-04-13T11:37:11Z</time><name>PT2054</name></trkpt>
<trkpt lat="53.334890" lon="-1.623908"><ele>323</ele><time>2024-04-13T11:37:14Z</time><name>PT2055</name></trkpt>
<trkpt lat="53.334923" lon="-1.623851"><ele>324</ele><time>2024-04-13T11:37:18Z</time><name>PT2056</name></trkpt>
<trkpt lat="53.334943" lon="-1.623790"><ele>325</ele><time>2024-04-13T11:37:23Z</time><name>PT2057</name></trkpt>
<trkpt lat="53.334959" lon="-1.623749"><ele>326</ele><time>2024-04-13T11:37:26Z</time><name>PT2058</name></trkpt>
<trkpt lat="53.334981" lon="-1.623704"><ele>326</ele><time>2024-04-13T11:37:29Z</time><name>PT2059</name></trkpt>
<trkpt lat="53.334999" lon="-1.623655"><ele>326</ele><time>2024-04-13T11:37:33Z</time><name>PT2060</name></trkpt>
<trkpt lat="53.335022" lon="-1.623615"><ele>327</ele><time>2024-04-13T11:37:38Z</time><name>PT2061</name></trkpt>
<trkpt lat="53.335043" lon="-1.623588"><ele>328</ele><time>2024-04-13T11:37:41Z</time><name>PT2062</name></trkpt>
<trkpt lat="53.335054" lon="-1.623554"><ele>328</ele><time>2024-04-13T11:37:44Z</time><name>PT2063</name></trkpt>
<trkpt lat="53.335069" lon="-1.623508"><ele>329</ele><time>2024-04-13T11:37:47Z</time><name>PT2064</name></trkpt>
<trkpt lat="53.335085" lon="-1.623473"><ele>330</ele><time>2024-04-13T11:37:51Z</time><name>PT2065</name></trkpt>
<trkpt lat="53.335103" lon="-1.623447"><ele>330</ele><time>2024-04-13T11:37:54Z</time><name>PT2066</name></trkpt>
<trkpt lat="53.335115" lon="-1.623402"><ele>330</ele><time>2024-04-13T11:37:57Z</time><name>PT2067</name></trkpt>
<trkpt lat="53.335140" lon="-1.623349"><ele>331</ele><time>2024-04-13T11:38:02Z</time><name>PT2068</name></trkpt>
<trkpt lat="53.335151" lon="-1.623309"><ele>332</ele><time>2024-04-13T11:38:05Z</time><name>PT2069</name></trkpt>
<trkpt lat="53.335163" lon="-1.623265"><ele>332</ele><time>2024-04-13T11:38:08Z</time><name>PT2070</name></trkpt>
<trkpt lat="53.335172" lon="-1.623225"><ele>333</ele><time>2024-04-13T11:38:11Z</time><name>PT2071</name></trkpt>
<trkpt lat="53.335177" lon="-1.623205"><ele>334</ele><time>2024-04-13T11:38:14Z</time><name>PT2072</name></trkpt>
<trkpt lat="53.335185" lon="-1.623197"><ele>334</ele><time>2024-04-13T11:38:17Z</time><name>PT2073</name></trkpt>
<trkpt lat="53.335193" lon="-1.623179"><ele>334</ele><time>2024-04-13T11:38:20Z</time><name>PT2074</name></trkpt>
<trkpt lat="53.335211" lon="-1.623133"><ele>335</ele><time>2024-04-13T11:38:24Z</time><name>PT2075</name></trkpt>
<trkpt lat="53.335225" lon="-1.623097"><ele>335</ele><time>2024-04-13T11:38:27Z</time><name>PT2076</name></trkpt>
<trkpt lat="53.335248" lon="-1.623039"><ele>336</ele><time>2024-04-13T11:38:32Z</time><name>PT2077</name></trkpt>
<trkpt lat="53.335261" lon="-1.623007"><ele>337</ele><time>2024-04-13T11:38:35Z</time><name>PT2078</name></trkpt>
<trkpt lat="53.335276" lon="-1.622952"><ele>338</ele><time>2024-04-13T11:38:38Z</time><name>PT2079</name></trkpt>
<trkpt lat="53.335295" lon="-1.622907"><ele>338</ele><time>2024-04-13T11:38:42Z</time><name>PT2080</name></trkpt>
<trkpt lat="53.335324" lon="-1.622875"><ele>339</ele><time>2024-04-13T11:38:47Z</time><name>PT2081</name></trkpt>
<trkpt lat="53.335348" lon="-1.622842"><ele>340</ele><time>2024-04-13T11:38:50Z</time><name>PT2082</name></trkpt>
<trkpt lat="53.335365" lon="-1.622807"><ele>340</ele><time>2024-04-13T11:38:54Z</time><name>PT2083</name></trkpt>
<trkpt lat="53.335378" lon="-1.622787"><ele>340</ele><time>2024-04-13T11:38:57Z</time><name>PT2084</name></trkpt>
<trkpt lat="53.335392" lon="-1.622752"><ele>341</ele><time>2024-04-13T11:39:02Z</time><name>PT2085</name></trkpt>
<trkpt lat="53.335403" lon="-1.622717"><ele>342</ele><time>2024-04-13T11:39:05Z</time><name>PT2086</name></trkpt>
<trkpt lat="53.335411" lon="-1.622686"><ele>342</ele><time>2024-04-13T11:39:08Z</time><name>PT2087</name></trkpt>
<trkpt lat="53.335420" lon="-1.622645"><ele>343</ele><time>2024-04-13T11:39:11Z</time><name>PT2088</name></trkpt>
<trkpt lat="53.335428" lon="-1.622605"><ele>343</ele><time>2024-04-13T11:39:14Z</time><name>PT2089</name></trkpt>
<trkpt lat="53.335456" lon="-1.622550"><ele>344</ele><time>2024-04-13T11:39:17Z</time><name>PT2090</name></trkpt>
<trkpt lat="53.335480" lon="-1.622501"><ele>345</ele><time>2024-04-13T11:39:21Z</time><name>PT2091</name></trkpt>
<trkpt lat="53.335495" lon="-1.622460"><ele>345</ele><time>2024-04-13T11:39:24Z</time><name>PT2092</name></trkpt>
<trkpt lat="53.335515" lon="-1.622399"><ele>346</ele><time>2024-04-13T11:39:29Z</time><name>PT2093</name></trkpt>
<trkpt lat="53.335535" lon="-1.622341"><ele>347</ele><time>2024-04-13T11:39:32Z</time><name>PT2094</name></trkpt>
<trkpt lat="53.335547" lon="-1.622298"><ele>347</ele><time>2024-04-13T11:39:35Z</time><name>PT2095</name></trkpt>
<trkpt lat="53.335554" lon="-1.622243"><ele>348</ele><time>2024-04-13T11:39:39Z</time><name>PT2096</name></trkpt>
<trkpt lat="53.335564" lon="-1.622199"><ele>348</ele><time>2024-04-13T11:39:42Z</time><name>PT2097</name></trkpt>
<trkpt lat="53.335574" lon="-1.622142"><ele>347</ele><time>2024-04-13T11:39:47Z</time><name>PT2098</name></trkpt>
<trkpt lat="53.335585" lon="-1.622103"><ele>348</ele><time>2024-04-13T11:39:50Z</time><name>PT2099</name></trkpt>
<trkpt lat="53.335598" lon="-1.622050"><ele>349</ele><time>2024-04-13T11:39:53Z</time><name>PT2100</name></trkpt>
<trkpt lat="53.335614" lon="-1.621980"><ele>351</ele><time>2024-04-13T11:39:57Z</time><name>PT2101</name></trkpt>
<trkpt lat="53.335619" lon="-1.621932"><ele>351</ele><time>2024-04-13T11:40:00Z</time><name>PT2102</name></trkpt>
<trkpt lat="53.335629" lon="-1.621879"><ele>351</ele><time>2024-04-13T11:40:05Z</time><name>PT2103</name></trkpt>
<trkpt lat="53.335631" lon="-1.621838"><ele>352</ele><time>2024-04-13T11:40:08Z</time><name>PT2104</name></trkpt>
<trkpt lat="53.335633" lon="-1.621826"><ele>352</ele><time>2024-04-13T11:40:11Z</time><name>PT2105</name></trkpt>
<trkpt lat="53.335642" lon="-1.621796"><ele>352</ele><time>2024-04-13T11:40:14Z</time><name>PT2106</name></trkpt>
<trkpt lat="53.335651" lon="-1.621734"><ele>353</ele><time>2024-04-13T11:40:18Z</time><name>PT2107</name></trkpt>
<trkpt lat="53.335659" lon="-1.621681"><ele>354</ele><time>2024-04-13T11:40:21Z</time><name>PT2108</name></trkpt>
<trkpt lat="53.335665" lon="-1.621616"><ele>354</ele><time>2024-04-13T11:40:26Z</time><name>PT2109</name></trkpt>
<trkpt lat="53.335675" lon="-1.621573"><ele>355</ele><time>2024-04-13T11:40:29Z</time><name>PT2110</name></trkpt>
<trkpt lat="53.335680" lon="-1.621527"><ele>355</ele><time>2024-04-13T11:40:32Z</time><name>PT2111</name></trkpt>
<trkpt lat="53.335684" lon="-1.621520"><ele>355</ele><time>2024-04-13T11:40:35Z</time><name>PT2112</name></trkpt>
<trkpt lat="53.335683" lon="-1.621518"><ele>355</ele><time>2024-04-13T11:40:38Z</time><name>PT2113</name></trkpt>
<trkpt lat="53.335684" lon="-1.621519"><ele>355</ele><time>2024-04-13T11:40:42Z</time><name>PT2114</name></trkpt>
<trkpt lat="53.335682" lon="-1.621511"><ele>356</ele><time>2024-04-13T11:40:53Z</time><name>PT2115</name></trkpt>
<trkpt lat="53.335681" lon="-1.621510"><ele>356</ele><time>2024-04-13T11:40:56Z</time><name>PT2116</name></trkpt>
<trkpt lat="53.335680" lon="-1.621520"><ele>357</ele><time>2024-04-13T11:41:04Z</time><name>PT2117</name></trkpt>
<trkpt lat="53.335686" lon="-1.621514"><ele>358</ele><time>2024-04-13T11:41:08Z</time><name>PT2118</name></trkpt>
<trkpt lat="53.335684" lon="-1.621517"><ele>359</ele><time>2024-04-13T11:41:18Z</time><name>PT2119</name></trkpt>
<trkpt lat="53.335682" lon="-1.621518"><ele>359</ele><time>2024-04-13T11:41:23Z</time><name>PT2120</name></trkpt>
<trkpt lat="53.335677" lon="-1.621503"><ele>359</ele><time>2024-04-13T11:42:05Z</time><name>PT2121</name></trkpt>
<trkpt lat="53.335677" lon="-1.621498"><ele>359</ele><time>2024-04-13T11:42:08Z</time><name>PT2122</name></trkpt>
<trkpt lat="53.335671" lon="-1.621490"><ele>359</ele><time>2024-04-13T11:42:42Z</time><name>PT2123</name></trkpt>
<trkpt lat="53.335670" lon="-1.621484"><ele>359</ele><time>2024-04-13T11:42:45Z</time><name>PT2124</name></trkpt>
<trkpt lat="53.335679" lon="-1.621465"><ele>359</ele><time>2024-04-13T11:44:05Z</time><name>PT2125</name></trkpt>
<trkpt lat="53.335671" lon="-1.621439"><ele>360</ele><time>2024-04-13T11:44:08Z</time><name>PT2126</name></trkpt>
<trkpt lat="53.335686" lon="-1.621398"><ele>359</ele><time>2024-04-13T11:44:11Z</time><name>PT2127</name></trkpt>
<trkpt lat="53.335693" lon="-1.621353"><ele>358</ele><time>2024-04-13T11:44:14Z</time><name>PT2128</name></trkpt>
<trkpt lat="53.335708" lon="-1.621280"><ele>359</ele><time>2024-04-13T11:44:17Z</time><name>PT2129</name></trkpt>
<trkpt lat="53.335719" lon="-1.621234"><ele>360</ele><time>2024-04-13T11:44:20Z</time><name>PT2130</name></trkpt>
<trkpt lat="53.335735" lon="-1.621180"><ele>359</ele><time>2024-04-13T11:44:24Z</time><name>PT2131</name></trkpt>
<trkpt lat="53.335747" lon="-1.621135"><ele>360</ele><time>2024-04-13T11:44:27Z</time><name>PT2132</name></trkpt>
<trkpt lat="53.335752" lon="-1.621089"><ele>360</ele><time>2024-04-13T11:44:32Z</time><name>PT2133</name></trkpt>
<trkpt lat="53.335769" lon="-1.621051"><ele>360</ele><time>2024-04-13T11:44:35Z</time><name>PT2134</name></trkpt>
<trkpt lat="53.335777" lon="-1.620989"><ele>361</ele><time>2024-04-13T11:44:38Z</time><name>PT2135</name></trkpt>
<trkpt lat="53.335782" lon="-1.620940"><ele>361</ele><time>2024-04-13T11:44:41Z</time><name>PT2136</name></trkpt>
<trkpt lat="53.335808" lon="-1.620878"><ele>362</ele><time>2024-04-13T11:44:45Z</time><name>PT2137</name></trkpt>
<trkpt lat="53.335826" lon="-1.620835"><ele>362</ele><time>2024-04-13T11:44:48Z</time><name>PT2138</name></trkpt>
<trkpt lat="53.335841" lon="-1.620792"><ele>363</ele><time>2024-04-13T11:44:51Z</time><name>PT2139</name></trkpt>
<trkpt lat="53.335853" lon="-1.620740"><ele>364</ele><time>2024-04-13T11:44:56Z</time><name>PT2140</name></trkpt>
<trkpt lat="53.335858" lon="-1.620717"><ele>363</ele><time>2024-04-13T11:44:59Z</time><name>PT2141</name></trkpt>
<trkpt lat="53.335868" lon="-1.620679"><ele>363</ele><time>2024-04-13T11:45:02Z</time><name>PT2142</name></trkpt>
<trkpt lat="53.335880" lon="-1.620646"><ele>364</ele><time>2024-04-13T11:45:05Z</time><name>PT2143</name></trkpt>
<trkpt lat="53.335895" lon="-1.620585"><ele>365</ele><time>2024-04-13T11:45:08Z</time><name>PT2144</name></trkpt>
<trkpt lat="53.335899" lon="-1.620537"><ele>367</ele><time>2024-04-13T11:45:12Z</time><name>PT2145</name></trkpt>
<trkpt lat="53.335911" lon="-1.620493"><ele>369</ele><time>2024-04-13T11:45:17Z</time><name>PT2146</name></trkpt>
<trkpt lat="53.335930" lon="-1.620453"><ele>370</ele><time>2024-04-13T11:45:20Z</time><name>PT2147</name></trkpt>
<trkpt lat="53.335946" lon="-1.620421"><ele>370</ele><time>2024-04-13T11:45:24Z</time><name>PT2148</name></trkpt>
<trkpt lat="53.335958" lon="-1.620392"><ele>371</ele><time>2024-04-13T11:45:27Z</time><name>PT2149</name></trkpt>
<trkpt lat="53.335971" lon="-1.620359"><ele>371</ele><time>2024-04-13T11:45:30Z</time><name>PT2150</name></trkpt>
<trkpt lat="53.335983" lon="-1.620327"><ele>372</ele><time>2024-04-13T11:45:35Z</time><name>PT2151</name></trkpt>
<trkpt lat="53.336002" lon="-1.620295"><ele>372</ele><time>2024-04-13T11:45:38Z</time><name>PT2152</name></trkpt>
<trkpt lat="53.336013" lon="-1.620260"><ele>373</ele><time>2024-04-13T11:45:41Z</time><name>PT2153</name></trkpt>
<trkpt lat="53.336019" lon="-1.620217"><ele>374</ele><time>2024-04-13T11:45:45Z</time><name>PT2154</name></trkpt>
<trkpt lat="53.336028" lon="-1.620189"><ele>374</ele><time>2024-04-13T11:45:48Z</time><name>PT2155</name></trkpt>
<trkpt lat="53.336044" lon="-1.620146"><ele>375</ele><time>2024-04-13T11:45:53Z</time><name>PT2156</name></trkpt>
<trkpt lat="53.336052" lon="-1.620112"><ele>375</ele><time>2024-04-13T11:45:56Z</time><name>PT2157</name></trkpt>
<trkpt lat="53.336066" lon="-1.620068"><ele>376</ele><time>2024-04-13T11:45:59Z</time><name>PT2158</name></trkpt>
<trkpt lat="53.336078" lon="-1.620029"><ele>378</ele><time>2024-04-13T11:46:03Z</time><name>PT2159</name></trkpt>
<trkpt lat="53.336084" lon="-1.619991"><ele>379</ele><time>2024-04-13T11:46:06Z</time><name>PT2160</name></trkpt>
<trkpt lat="53.336094" lon="-1.619947"><ele>379</ele><time>2024-04-13T11:46:11Z</time><name>PT2161</name></trkpt>
<trkpt lat="53.336111" lon="-1.619906"><ele>381</ele><time>2024-04-13T11:46:14Z</time><name>PT2162</name></trkpt>
<trkpt lat="53.336119" lon="-1.619877"><ele>382</ele><time>2024-04-13T11:46:17Z</time><name>PT2163</name></trkpt>
<trkpt lat="53.336137" lon="-1.619842"><ele>384</ele><time>2024-04-13T11:46:20Z</time><name>PT2164</name></trkpt>
<trkpt lat="53.336146" lon="-1.619819"><ele>384</ele><time>2024-04-13T11:46:23Z</time><name>PT2165</name></trkpt>
<trkpt lat="53.336157" lon="-1.619791"><ele>385</ele><time>2024-04-13T11:46:26Z</time><name>PT2166</name></trkpt>
<trkpt lat="53.336170" lon="-1.619771"><ele>387</ele><time>2024-04-13T11:46:29Z</time><name>PT2167</name></trkpt>
<trkpt lat="53.336192" lon="-1.619737"><ele>387</ele><time>2024-04-13T11:46:33Z</time><name>PT2168</name></trkpt>
<trkpt lat="53.336214" lon="-1.619699"><ele>388</ele><time>2024-04-13T11:46:38Z</time><name>PT2169</name></trkpt>
<trkpt lat="53.336229" lon="-1.619675"><ele>389</ele><time>2024-04-13T11:46:41Z</time><name>PT2170</name></trkpt>
<trkpt lat="53.336255" lon="-1.619634"><ele>392</ele><time>2024-04-13T11:46:44Z</time><name>PT2171</name></trkpt>
<trkpt lat="53.336268" lon="-1.619600"><ele>394</ele><time>2024-04-13T11:46:47Z</time><name>PT2172</name></trkpt>
<trkpt lat="53.336285" lon="-1.619561"><ele>394</ele><time>2024-04-13T11:46:51Z</time><name>PT2173</name></trkpt>
<trkpt lat="53.336303" lon="-1.619518"><ele>395</ele><time>2024-04-13T11:46:56Z</time><name>PT2174</name></trkpt>
<trkpt lat="53.336312" lon="-1.619485"><ele>394</ele><time>2024-04-13T11:46:59Z</time><name>PT2175</name></trkpt>
<trkpt lat="53.336317" lon="-1.619431"><ele>395</ele><time>2024-04-13T11:47:02Z</time><name>PT2176</name></trkpt>
<trkpt lat="53.336316" lon="-1.619384"><ele>396</ele><time>2024-04-13T11:47:06Z</time><name>PT2177</name></trkpt>
<trkpt lat="53.336323" lon="-1.619348"><ele>396</ele><time>2024-04-13T11:47:09Z</time><name>PT2178</name></trkpt>
<trkpt lat="53.336327" lon="-1.619293"><ele>397</ele><time>2024-04-13T11:47:14Z</time><name>PT2179</name></trkpt>
<trkpt lat="53.336335" lon="-1.619252"><ele>397</ele><time>2024-04-13T11:47:17Z</time><name>PT2180</name></trkpt>
<trkpt lat="53.336341" lon="-1.619206"><ele>398</ele><time>2024-04-13T11:47:20Z</time><name>PT2181</name></trkpt>
<trkpt lat="53.336347" lon="-1.619149"><ele>398</ele><time>2024-04-13T11:47:23Z</time><name>PT2182</name></trkpt>
<trkpt lat="53.336360" lon="-1.619095"><ele>398</ele><time>2024-04-13T11:47:27Z</time><name>PT2183</name></trkpt>
<trkpt lat="53.336373" lon="-1.619055"><ele>398</ele><time>2024-04-13T11:47:30Z</time><name>PT2184</name></trkpt>
<trkpt lat="53.336386" lon="-1.619000"><ele>398</ele><time>2024-04-13T11:47:35Z</time><name>PT2185</name></trkpt>
<trkpt lat="53.336393" lon="-1.618962"><ele>398</ele><time>2024-04-13T11:47:38Z</time><name>PT2186</name></trkpt>
<trkpt lat="53.336409" lon="-1.618902"><ele>399</ele><time>2024-04-13T11:47:41Z</time><name>PT2187</name></trkpt>
<trkpt lat="53.336419" lon="-1.618840"><ele>400</ele><time>2024-04-13T11:47:45Z</time><name>PT2188</name></trkpt>
<trkpt lat="53.336427" lon="-1.618799"><ele>400</ele><time>2024-04-13T11:47:48Z</time><name>PT2189</name></trkpt>
<trkpt lat="53.336454" lon="-1.618738"><ele>402</ele><time>2024-04-13T11:47:53Z</time><name>PT2190</name></trkpt>
<trkpt lat="53.336467" lon="-1.618689"><ele>402</ele><time>2024-04-13T11:47:56Z</time><name>PT2191</name></trkpt>
<trkpt lat="53.336483" lon="-1.618635"><ele>403</ele><time>2024-04-13T11:47:59Z</time><name>PT2192</name></trkpt>
<trkpt lat="53.336499" lon="-1.618588"><ele>403</ele><time>2024-04-13T11:48:02Z</time><name>PT2193</name></trkpt>
<trkpt lat="53.336521" lon="-1.618543"><ele>404</ele><time>2024-04-13T11:48:05Z</time><name>PT2194</name></trkpt>
<trkpt lat="53.336549" lon="-1.618478"><ele>405</ele><time>2024-04-13T11:48:09Z</time><name>PT2195</name></trkpt>
<trkpt lat="53.336570" lon="-1.618416"><ele>405</ele><time>2024-04-13T11:48:14Z</time><name>PT2196</name></trkpt>
<trkpt lat="53.336592" lon="-1.618355"><ele>405</ele><time>2024-04-13T11:48:17Z</time><name>PT2197</name></trkpt>
<trkpt lat="53.336608" lon="-1.618280"><ele>406</ele><time>2024-04-13T11:48:21Z</time><name>PT2198</name></trkpt>
<trkpt lat="53.336616" lon="-1.618230"><ele>406</ele><time>2024-04-13T11:48:24Z</time><name>PT2199</name></trkpt>
<trkpt lat="53.336642" lon="-1.618176"><ele>406</ele><time>2024-04-13T11:48:29Z</time><name>PT2200</name></trkpt>
<trkpt lat="53.336664" lon="-1.618123"><ele>406</ele><time>2024-04-13T11:48:32Z</time><name>PT2201</name></trkpt>
<trkpt lat="53.336673" lon="-1.618075"><ele>405</ele><time>2024-04-13T11:48:35Z</time><name>PT2202</name></trkpt>
<trkpt lat="53.336690" lon="-1.618025"><ele>406</ele><time>2024-04-13T11:48:38Z</time><name>PT2203</name></trkpt>
<trkpt lat="53.336714" lon="-1.617969"><ele>406</ele><time>2024-04-13T11:48:42Z</time><name>PT2204</name></trkpt>
<trkpt lat="53.336729" lon="-1.617916"><ele>406</ele><time>2024-04-13T11:48:45Z</time><name>PT2205</name></trkpt>
<trkpt lat="53.336744" lon="-1.617838"><ele>406</ele><time>2024-04-13T11:48:50Z</time><name>PT2206</name></trkpt>
<trkpt lat="53.336765" lon="-1.617777"><ele>406</ele><time>2024-04-13T11:48:53Z</time><name>PT2207</name></trkpt>
<trkpt lat="53.336788" lon="-1.617706"><ele>407</ele><time>2024-04-13T11:48:56Z</time><name>PT2208</name></trkpt>
<trkpt lat="53.336815" lon="-1.617644"><ele>407</ele><time>2024-04-13T11:49:00Z</time><name>PT2209</name></trkpt>
<trkpt lat="53.336832" lon="-1.617596"><ele>408</ele><time>2024-04-13T11:49:03Z</time><name>PT2210</name></trkpt>
<trkpt lat="53.336848" lon="-1.617550"><ele>408</ele><time>2024-04-13T11:49:06Z</time><name>PT2211</name></trkpt>
<trkpt lat="53.336873" lon="-1.617491"><ele>410</ele><time>2024-04-13T11:49:11Z</time><name>PT2212</name></trkpt>
<trkpt lat="53.336896" lon="-1.617443"><ele>411</ele><time>2024-04-13T11:49:14Z</time><name>PT2213</name></trkpt>
<trkpt lat="53.336915" lon="-1.617398"><ele>411</ele><time>2024-04-13T11:49:17Z</time><name>PT2214</name></trkpt>
<trkpt lat="53.336946" lon="-1.617343"><ele>413</ele><time>2024-04-13T11:49:20Z</time><name>PT2215</name></trkpt>
<trkpt lat="53.336977" lon="-1.617285"><ele>414</ele><time>2024-04-13T11:49:24Z</time><name>PT2216</name></trkpt>
<trkpt lat="53.336997" lon="-1.617237"><ele>414</ele><time>2024-04-13T11:49:27Z</time><name>PT2217</name></trkpt>
<trkpt lat="53.337019" lon="-1.617196"><ele>414</ele><time>2024-04-13T11:49:30Z</time><name>PT2218</name></trkpt>
<trkpt lat="53.337044" lon="-1.617134"><ele>415</ele><time>2024-04-13T11:49:35Z</time><name>PT2219</name></trkpt>
<trkpt lat="53.337071" lon="-1.617102"><ele>415</ele><time>2024-04-13T11:49:38Z</time><name>PT2220</name></trkpt>
<trkpt lat="53.337112" lon="-1.617085"><ele>417</ele><time>2024-04-13T11:49:41Z</time><name>PT2221</name></trkpt>
<trkpt lat="53.337148" lon="-1.617115"><ele>417</ele><time>2024-04-13T11:49:45Z</time><name>PT2222</name></trkpt>
<trkpt lat="53.337173" lon="-1.617157"><ele>418</ele><time>2024-04-13T11:49:48Z</time><name>PT2223</name></trkpt>
<trkpt lat="53.337198" lon="-1.617196"><ele>418</ele><time>2024-04-13T11:49:51Z</time><name>PT2224</name></trkpt>
<trkpt lat="53.337227" lon="-1.617237"><ele>418</ele><time>2024-04-13T11:49:54Z</time><name>PT2225</name></trkpt>
<trkpt lat="53.337262" lon="-1.617287"><ele>418</ele><time>2024-04-13T11:49:59Z</time><name>PT2226</name></trkpt>
<trkpt lat="53.337290" lon="-1.617323"><ele>419</ele><time>2024-04-13T11:50:02Z</time><name>PT2227</name></trkpt>
<trkpt lat="53.337312" lon="-1.617364"><ele>420</ele><time>2024-04-13T11:50:05Z</time><name>PT2228</name></trkpt>
<trkpt lat="53.337330" lon="-1.617410"><ele>420</ele><time>2024-04-13T11:50:08Z</time><name>PT2229</name></trkpt>
<trkpt lat="53.337367" lon="-1.617470"><ele>420</ele><time>2024-04-13T11:50:11Z</time><name>PT2230</name></trkpt>
<trkpt lat="53.337397" lon="-1.617532"><ele>420</ele><time>2024-04-13T11:50:15Z</time><name>PT2231</name></trkpt>
<trkpt lat="53.337421" lon="-1.617580"><ele>420</ele><time>2024-04-13T11:50:18Z</time><name>PT2232</name></trkpt>
<trkpt lat="53.337454" lon="-1.617645"><ele>421</ele><time>2024-04-13T11:50:23Z</time><name>PT2233</name></trkpt>
<trkpt lat="53.337481" lon="-1.617697"><ele>421</ele><time>2024-04-13T11:50:26Z</time><name>PT2234</name></trkpt>
<trkpt lat="53.337504" lon="-1.617748"><ele>421</ele><time>2024-04-13T11:50:29Z</time><name>PT2235</name></trkpt>
<trkpt lat="53.337537" lon="-1.617818"><ele>421</ele><time>2024-04-13T11:50:32Z</time><name>PT2236</name></trkpt>
<trkpt lat="53.337568" lon="-1.617884"><ele>422</ele><time>2024-04-13T11:50:36Z</time><name>PT2237</name></trkpt>
<trkpt lat="53.337596" lon="-1.617919"><ele>422</ele><time>2024-04-13T11:50:39Z</time><name>PT2238</name></trkpt>
<trkpt lat="53.337628" lon="-1.617979"><ele>422</ele><time>2024-04-13T11:50:44Z</time><name>PT2239</name></trkpt>
<trkpt lat="53.337651" lon="-1.618018"><ele>422</ele><time>2024-04-13T11:50:47Z</time><name>PT2240</name></trkpt>
<trkpt lat="53.337688" lon="-1.618079"><ele>422</ele><time>2024-04-13T11:50:50Z</time><name>PT2241</name></trkpt>
<trkpt lat="53.337708" lon="-1.618125"><ele>422</ele><time>2024-04-13T11:50:53Z</time><name>PT2242</name></trkpt>
<trkpt lat="53.337743" lon="-1.618186"><ele>422</ele><time>2024-04-13T11:50:57Z</time><name>PT2243</name></trkpt>
<trkpt lat="53.337773" lon="-1.618234"><ele>422</ele><time>2024-04-13T11:51:02Z</time><name>PT2244</name></trkpt>
<trkpt lat="53.337799" lon="-1.618284"><ele>422</ele><time>2024-04-13T11:51:05Z</time><name>PT2245</name></trkpt>
<trkpt lat="53.337824" lon="-1.618330"><ele>422</ele><time>2024-04-13T11:51:08Z</time><name>PT2246</name></trkpt>
<trkpt lat="53.337847" lon="-1.618386"><ele>422</ele><time>2024-04-13T11:51:11Z</time><name>PT2247</name></trkpt>
<trkpt lat="53.337874" lon="-1.618445"><ele>423</ele><time>2024-04-13T11:51:14Z</time><name>PT2248</name></trkpt>
<trkpt lat="53.337904" lon="-1.618510"><ele>423</ele><time>2024-04-13T11:51:18Z</time><name>PT2249</name></trkpt>
<trkpt lat="53.337925" lon="-1.618557"><ele>423</ele><time>2024-04-13T11:51:21Z</time><name>PT2250</name></trkpt>
<trkpt lat="53.337958" lon="-1.618624"><ele>423</ele><time>2024-04-13T11:51:26Z</time><name>PT2251</name></trkpt>
<trkpt lat="53.337987" lon="-1.618688"><ele>424</ele><time>2024-04-13T11:51:29Z</time><name>PT2252</name></trkpt>
<trkpt lat="53.338014" lon="-1.618732"><ele>424</ele><time>2024-04-13T11:51:32Z</time><name>PT2253</name></trkpt>
<trkpt lat="53.338042" lon="-1.618789"><ele>424</ele><time>2024-04-13T11:51:36Z</time><name>PT2254</name></trkpt>
<trkpt lat="53.338066" lon="-1.618824"><ele>424</ele><time>2024-04-13T11:51:39Z</time><name>PT2255</name></trkpt>
<trkpt lat="53.338091" lon="-1.618868"><ele>425</ele><time>2024-04-13T11:51:42Z</time><name>PT2256</name></trkpt>
<trkpt lat="53.338121" lon="-1.618916"><ele>425</ele><time>2024-04-13T11:51:47Z</time><name>PT2257</name></trkpt>
<trkpt lat="53.338147" lon="-1.618947"><ele>425</ele><time>2024-04-13T11:51:50Z</time><name>PT2258</name></trkpt>
<trkpt lat="53.338174" lon="-1.618988"><ele>425</ele><time>2024-04-13T11:51:53Z</time><name>PT2259</name></trkpt>
<trkpt lat="53.338197" lon="-1.619027"><ele>425</ele><time>2024-04-13T11:51:56Z</time><name>PT2260</name></trkpt>
<trkpt lat="53.338218" lon="-1.619059"><ele>426</ele><time>2024-04-13T11:51:59Z</time><name>PT2261</name></trkpt>
<trkpt lat="53.338251" lon="-1.619119"><ele>426</ele><time>2024-04-13T11:52:03Z</time><name>PT2262</name></trkpt>
<trkpt lat="53.338261" lon="-1.619140"><ele>426</ele><time>2024-04-13T11:52:06Z</time><name>PT2263</name></trkpt>
<trkpt lat="53.338261" lon="-1.619140"><ele>426</ele><time>2024-04-13T11:52:11Z</time><name>PT2264</name></trkpt>
<trkpt lat="53.338276" lon="-1.619199"><ele>426</ele><time>2024-04-13T11:52:17Z</time><name>PT2265</name></trkpt>
<trkpt lat="53.338278" lon="-1.619209"><ele>425</ele><time>2024-04-13T11:52:20Z</time><name>PT2266</name></trkpt>
<trkpt lat="53.338290" lon="-1.619219"><ele>426</ele><time>2024-04-13T11:52:35Z</time><name>PT2267</name></trkpt>
<trkpt lat="53.338324" lon="-1.619273"><ele>426</ele><time>2024-04-13T11:52:39Z</time><name>PT2268</name></trkpt>
<trkpt lat="53.338336" lon="-1.619284"><ele>426</ele><time>2024-04-13T11:52:42Z</time><name>PT2269</name></trkpt>
<trkpt lat="53.338363" lon="-1.619321"><ele>426</ele><time>2024-04-13T11:52:47Z</time><name>PT2270</name></trkpt>
<trkpt lat="53.338395" lon="-1.619369"><ele>427</ele><time>2024-04-13T11:52:50Z</time><name>PT2271</name></trkpt>
<trkpt lat="53.338424" lon="-1.619409"><ele>427</ele><time>2024-04-13T11:52:53Z</time><name>PT2272</name></trkpt>
<trkpt lat="53.338458" lon="-1.619468"><ele>427</ele><time>2024-04-13T11:52:57Z</time><name>PT2273</name></trkpt>
<trkpt lat="53.338494" lon="-1.619531"><ele>427</ele><time>2024-04-13T11:53:02Z</time><name>PT2274</name></trkpt>
<trkpt lat="53.338514" lon="-1.619571"><ele>427</ele><time>2024-04-13T11:53:05Z</time><name>PT2275</name></trkpt>
<trkpt lat="53.338549" lon="-1.619627"><ele>428</ele><time>2024-04-13T11:53:08Z</time><name>PT2276</name></trkpt>
<trkpt lat="53.338580" lon="-1.619682"><ele>428</ele><time>2024-04-13T11:53:12Z</time><name>PT2277</name></trkpt>
<trkpt lat="53.338603" lon="-1.619727"><ele>428</ele><time>2024-04-13T11:53:15Z</time><name>PT2278</name></trkpt>
<trkpt lat="53.338630" lon="-1.619757"><ele>429</ele><time>2024-04-13T11:53:18Z</time><name>PT2279</name></trkpt>
<trkpt lat="53.338659" lon="-1.619790"><ele>429</ele><time>2024-04-13T11:53:21Z</time><name>PT2280</name></trkpt>
<trkpt lat="53.338683" lon="-1.619829"><ele>430</ele><time>2024-04-13T11:53:24Z</time><name>PT2281</name></trkpt>
<trkpt lat="53.338714" lon="-1.619883"><ele>430</ele><time>2024-04-13T11:53:29Z</time><name>PT2282</name></trkpt>
<trkpt lat="53.338746" lon="-1.619930"><ele>431</ele><time>2024-04-13T11:53:32Z</time><name>PT2283</name></trkpt>
<trkpt lat="53.338773" lon="-1.619974"><ele>431</ele><time>2024-04-13T11:53:35Z</time><name>PT2284</name></trkpt>
<trkpt lat="53.338796" lon="-1.620013"><ele>431</ele><time>2024-04-13T11:53:38Z</time><name>PT2285</name></trkpt>
<trkpt lat="53.338816" lon="-1.620054"><ele>431</ele><time>2024-04-13T11:53:41Z</time><name>PT2286</name></trkpt>
<trkpt lat="53.338845" lon="-1.620103"><ele>431</ele><time>2024-04-13T11:53:45Z</time><name>PT2287</name></trkpt>
<trkpt lat="53.338873" lon="-1.620143"><ele>431</ele><time>2024-04-13T11:53:48Z</time><name>PT2288</name></trkpt>
<trkpt lat="53.338907" lon="-1.620195"><ele>431</ele><time>2024-04-13T11:53:53Z</time><name>PT2289</name></trkpt>
<trkpt lat="53.338932" lon="-1.620237"><ele>432</ele><time>2024-04-13T11:53:56Z</time><name>PT2290</name></trkpt>
<trkpt lat="53.338964" lon="-1.620295"><ele>432</ele><time>2024-04-13T11:53:59Z</time><name>PT2291</name></trkpt>
<trkpt lat="53.338993" lon="-1.620352"><ele>431</ele><time>2024-04-13T11:54:03Z</time><name>PT2292</name></trkpt>
<trkpt lat="53.339018" lon="-1.620392"><ele>432</ele><time>2024-04-13T11:54:06Z</time><name>PT2293</name></trkpt>
<trkpt lat="53.339047" lon="-1.620448"><ele>432</ele><time>2024-04-13T11:54:11Z</time><name>PT2294</name></trkpt>
<trkpt lat="53.339074" lon="-1.620485"><ele>432</ele><time>2024-04-13T11:54:14Z</time><name>PT2295</name></trkpt>
<trkpt lat="53.339107" lon="-1.620528"><ele>433</ele><time>2024-04-13T11:54:17Z</time><name>PT2296</name></trkpt>
<trkpt lat="53.339139" lon="-1.620583"><ele>432</ele><time>2024-04-13T11:54:21Z</time><name>PT2297</name></trkpt>
<trkpt lat="53.339165" lon="-1.620624"><ele>433</ele><time>2024-04-13T11:54:24Z</time><name>PT2298</name></trkpt>
<trkpt lat="53.339190" lon="-1.620667"><ele>433</ele><time>2024-04-13T11:54:27Z</time><name>PT2299</name></trkpt>
<trkpt lat="53.339226" lon="-1.620717"><ele>433</ele><time>2024-04-13T11:54:32Z</time><name>PT2300</name></trkpt>
<trkpt lat="53.339257" lon="-1.620774"><ele>433</ele><time>2024-04-13T11:54:35Z</time><name>PT2301</name></trkpt>
<trkpt lat="53.339284" lon="-1.620816"><ele>432</ele><time>2024-04-13T11:54:38Z</time><name>PT2302</name></trkpt>
<trkpt lat="53.339317" lon="-1.620861"><ele>433</ele><time>2024-04-13T11:54:42Z</time><name>PT2303</name></trkpt>
<trkpt lat="53.339354" lon="-1.620922"><ele>433</ele><time>2024-04-13T11:54:47Z</time><name>PT2304</name></trkpt>
<trkpt lat="53.339384" lon="-1.620957"><ele>433</ele><time>2024-04-13T11:54:50Z</time><name>PT2305</name></trkpt>
<trkpt lat="53.339413" lon="-1.620994"><ele>433</ele><time>2024-04-13T11:54:53Z</time><name>PT2306</name></trkpt>
<trkpt lat="53.339437" lon="-1.621038"><ele>433</ele><time>2024-04-13T11:54:56Z</time><name>PT2307</name></trkpt>
<trkpt lat="53.339444" lon="-1.621061"><ele>433</ele><time>2024-04-13T11:55:00Z</time><name>PT2308</name></trkpt>
<trkpt lat="53.339442" lon="-1.621059"><ele>433</ele><time>2024-04-13T11:55:03Z</time><name>PT2309</name></trkpt>
<trkpt lat="53.339460" lon="-1.621050"><ele>433</ele><time>2024-04-13T11:55:08Z</time><name>PT2310</name></trkpt>
<trkpt lat="53.339479" lon="-1.621032"><ele>434</ele><time>2024-04-13T11:55:11Z</time><name>PT2311</name></trkpt>
<trkpt lat="53.339493" lon="-1.621032"><ele>434</ele><time>2024-04-13T11:55:14Z</time><name>PT2312</name></trkpt>
<trkpt lat="53.339498" lon="-1.621029"><ele>434</ele><time>2024-04-13T11:55:17Z</time><name>PT2313</name></trkpt>
<trkpt lat="53.339514" lon="-1.621014"><ele>434</ele><time>2024-04-13T11:55:21Z</time><name>PT2314</name></trkpt>
<trkpt lat="53.339532" lon="-1.621008"><ele>434</ele><time>2024-04-13T11:55:26Z</time><name>PT2315</name></trkpt>
<trkpt lat="53.339560" lon="-1.620995"><ele>434</ele><time>2024-04-13T11:55:29Z</time><name>PT2316</name></trkpt>
<trkpt lat="53.339563" lon="-1.620995"><ele>433</ele><time>2024-04-13T11:55:32Z</time><name>PT2317</name></trkpt>
<trkpt lat="53.339562" lon="-1.620997"><ele>433</ele><time>2024-04-13T11:55:42Z</time><name>PT2318</name></trkpt>
<trkpt lat="53.339561" lon="-1.620996"><ele>433</ele><time>2024-04-13T11:55:50Z</time><name>PT2319</name></trkpt>
<trkpt lat="53.339544" lon="-1.621007"><ele>433</ele><time>2024-04-13T11:55:53Z</time><name>PT2320</name></trkpt>
<trkpt lat="53.339538" lon="-1.621010"><ele>433</ele><time>2024-04-13T11:55:56Z</time><name>PT2321</name></trkpt>
<trkpt lat="53.339536" lon="-1.621010"><ele>433</ele><time>2024-04-13T11:57:29Z</time><name>PT2322</name></trkpt>
<trkpt lat="53.339535" lon="-1.621012"><ele>433</ele><time>2024-04-13T11:57:32Z</time><name>PT2323</name></trkpt>
<trkpt lat="53.339554" lon="-1.621009"><ele>434</ele><time>2024-04-13T11:58:03Z</time><name>PT2324</name></trkpt>
<trkpt lat="53.339586" lon="-1.620993"><ele>434</ele><time>2024-04-13T11:58:06Z</time><name>PT2325</name></trkpt>
<trkpt lat="53.339628" lon="-1.620994"><ele>434</ele><time>2024-04-13T11:58:11Z</time><name>PT2326</name></trkpt>
<trkpt lat="53.339656" lon="-1.621024"><ele>434</ele><time>2024-04-13T11:58:14Z</time><name>PT2327</name></trkpt>
<trkpt lat="53.339695" lon="-1.621065"><ele>434</ele><time>2024-04-13T11:58:17Z</time><name>PT2328</name></trkpt>
<trkpt lat="53.339727" lon="-1.621099"><ele>434</ele><time>2024-04-13T11:58:20Z</time><name>PT2329</name></trkpt>
<trkpt lat="53.339766" lon="-1.621131"><ele>435</ele><time>2024-04-13T11:58:24Z</time><name>PT2330</name></trkpt>
<trkpt lat="53.339800" lon="-1.621157"><ele>434</ele><time>2024-04-13T11:58:27Z</time><name>PT2331</name></trkpt>
<trkpt lat="53.339832" lon="-1.621187"><ele>434</ele><time>2024-04-13T11:58:30Z</time><name>PT2332</name></trkpt>
<trkpt lat="53.339877" lon="-1.621220"><ele>435</ele><time>2024-04-13T11:58:35Z</time><name>PT2333</name></trkpt>
<trkpt lat="53.339907" lon="-1.621240"><ele>434</ele><time>2024-04-13T11:58:38Z</time><name>PT2334</name></trkpt>
<trkpt lat="53.339936" lon="-1.621265"><ele>435</ele><time>2024-04-13T11:58:41Z</time><name>PT2335</name></trkpt>
<trkpt lat="53.339966" lon="-1.621299"><ele>435</ele><time>2024-04-13T11:58:44Z</time><name>PT2336</name></trkpt>
<trkpt lat="53.340011" lon="-1.621321"><ele>435</ele><time>2024-04-13T11:58:47Z</time><name>PT2337</name></trkpt>
<trkpt lat="53.340053" lon="-1.621331"><ele>435</ele><time>2024-04-13T11:58:51Z</time><name>PT2338</name></trkpt>
<trkpt lat="53.340081" lon="-1.621338"><ele>434</ele><time>2024-04-13T11:58:54Z</time><name>PT2339</name></trkpt>
<trkpt lat="53.340123" lon="-1.621349"><ele>434</ele><time>2024-04-13T11:58:59Z</time><name>PT2340</name></trkpt>
<trkpt lat="53.340154" lon="-1.621363"><ele>434</ele><time>2024-04-13T11:59:02Z</time><name>PT2341</name></trkpt>
<trkpt lat="53.340194" lon="-1.621398"><ele>434</ele><time>2024-04-13T11:59:05Z</time><name>PT2342</name></trkpt>
<trkpt lat="53.340227" lon="-1.621424"><ele>434</ele><time>2024-04-13T11:59:08Z</time><name>PT2343</name></trkpt>
<trkpt lat="53.340273" lon="-1.621463"><ele>434</ele><time>2024-04-13T11:59:12Z</time><name>PT2344</name></trkpt>
<trkpt lat="53.340313" lon="-1.621524"><ele>434</ele><time>2024-04-13T11:59:17Z</time><name>PT2345</name></trkpt>
<trkpt lat="53.340354" lon="-1.621572"><ele>435</ele><time>2024-04-13T11:59:20Z</time><name>PT2346</name></trkpt>
<trkpt lat="53.340394" lon="-1.621616"><ele>436</ele><time>2024-04-13T11:59:24Z</time><name>PT2347</name></trkpt>
<trkpt lat="53.340427" lon="-1.621654"><ele>436</ele><time>2024-04-13T11:59:27Z</time><name>PT2348</name></trkpt>
<trkpt lat="53.340457" lon="-1.621691"><ele>436</ele><time>2024-04-13T11:59:30Z</time><name>PT2349</name></trkpt>
<trkpt lat="53.340479" lon="-1.621733"><ele>436</ele><time>2024-04-13T11:59:33Z</time><name>PT2350</name></trkpt>
<trkpt lat="53.340503" lon="-1.621787"><ele>436</ele><time>2024-04-13T11:59:36Z</time><name>PT2351</name></trkpt>
<trkpt lat="53.340524" lon="-1.621840"><ele>437</ele><time>2024-04-13T11:59:39Z</time><name>PT2352</name></trkpt>
<trkpt lat="53.340548" lon="-1.621915"><ele>437</ele><time>2024-04-13T11:59:44Z</time><name>PT2353</name></trkpt>
<trkpt lat="53.340570" lon="-1.621975"><ele>437</ele><time>2024-04-13T11:59:47Z</time><name>PT2354</name></trkpt>
<trkpt lat="53.340601" lon="-1.622054"><ele>437</ele><time>2024-04-13T11:59:50Z</time><name>PT2355</name></trkpt>
<trkpt lat="53.340636" lon="-1.622113"><ele>438</ele><time>2024-04-13T11:59:54Z</time><name>PT2356</name></trkpt>
<trkpt lat="53.340671" lon="-1.622161"><ele>438</ele><time>2024-04-13T11:59:59Z</time><name>PT2357</name></trkpt>
<trkpt lat="53.340694" lon="-1.622191"><ele>437</ele><time>2024-04-13T12:00:02Z</time><name>PT2358</name></trkpt>
<trkpt lat="53.340726" lon="-1.622242"><ele>438</ele><time>2024-04-13T12:00:05Z</time><name>PT2359</name></trkpt>
<trkpt lat="53.340749" lon="-1.622269"><ele>438</ele><time>2024-04-13T12:00:08Z</time><name>PT2360</name></trkpt>
<trkpt lat="53.340777" lon="-1.622295"><ele>438</ele><time>2024-04-13T12:00:11Z</time><name>PT2361</name></trkpt>
<trkpt lat="53.340806" lon="-1.622333"><ele>437</ele><time>2024-04-13T12:00:14Z</time><name>PT2362</name></trkpt>
<trkpt lat="53.340839" lon="-1.622388"><ele>437</ele><time>2024-04-13T12:00:18Z</time><name>PT2363</name></trkpt>
<trkpt lat="53.340864" lon="-1.622440"><ele>437</ele><time>2024-04-13T12:00:21Z</time><name>PT2364</name></trkpt>
<trkpt lat="53.340887" lon="-1.622475"><ele>437</ele><time>2024-04-13T12:00:24Z</time><name>PT2365</name></trkpt>
<trkpt lat="53.340924" lon="-1.622529"><ele>436</ele><time>2024-04-13T12:00:29Z</time><name>PT2366</name></trkpt>
<trkpt lat="53.340954" lon="-1.622590"><ele>435</ele><time>2024-04-13T12:00:32Z</time><name>PT2367</name></trkpt>
<trkpt lat="53.340983" lon="-1.622630"><ele>435</ele><time>2024-04-13T12:00:35Z</time><name>PT2368</name></trkpt>
<trkpt lat="53.341021" lon="-1.622688"><ele>435</ele><time>2024-04-13T12:00:39Z</time><name>PT2369</name></trkpt>
<trkpt lat="53.341040" lon="-1.622726"><ele>435</ele><time>2024-04-13T12:00:44Z</time><name>PT2370</name></trkpt>
<trkpt lat="53.341044" lon="-1.622727"><ele>435</ele><time>2024-04-13T12:00:47Z</time><name>PT2371</name></trkpt>
<trkpt lat="53.341049" lon="-1.622733"><ele>435</ele><time>2024-04-13T12:00:56Z</time><name>PT2372</name></trkpt>
<trkpt lat="53.341084" lon="-1.622783"><ele>436</ele><time>2024-04-13T12:01:00Z</time><name>PT2373</name></trkpt>
<trkpt lat="53.341118" lon="-1.622844"><ele>435</ele><time>2024-04-13T12:01:05Z</time><name>PT2374</name></trkpt>
<trkpt lat="53.341134" lon="-1.622891"><ele>435</ele><time>2024-04-13T12:01:08Z</time><name>PT2375</name></trkpt>
<trkpt lat="53.341158" lon="-1.622938"><ele>435</ele><time>2024-04-13T12:01:11Z</time><name>PT2376</name></trkpt>
<trkpt lat="53.341184" lon="-1.622996"><ele>435</ele><time>2024-04-13T12:01:14Z</time><name>PT2377</name></trkpt>
<trkpt lat="53.341212" lon="-1.623042"><ele>435</ele><time>2024-04-13T12:01:17Z</time><name>PT2378</name></trkpt>
<trkpt lat="53.341244" lon="-1.623101"><ele>434</ele><time>2024-04-13T12:01:20Z</time><name>PT2379</name></trkpt>
<trkpt lat="53.341277" lon="-1.623134"><ele>434</ele><time>2024-04-13T12:01:23Z</time><name>PT2380</name></trkpt>
<trkpt lat="53.341307" lon="-1.623175"><ele>434</ele><time>2024-04-13T12:01:26Z</time><name>PT2381</name></trkpt>
<trkpt lat="53.341344" lon="-1.623216"><ele>433</ele><time>2024-04-13T12:01:30Z</time><name>PT2382</name></trkpt>
<trkpt lat="53.341391" lon="-1.623269"><ele>433</ele><time>2024-04-13T12:01:35Z</time><name>PT2383</name></trkpt>
<trkpt lat="53.341422" lon="-1.623306"><ele>433</ele><time>2024-04-13T12:01:38Z</time><name>PT2384</name></trkpt>
<trkpt lat="53.341456" lon="-1.623338"><ele>434</ele><time>2024-04-13T12:01:41Z</time><name>PT2385</name></trkpt>
<trkpt lat="53.341499" lon="-1.623371"><ele>433</ele><time>2024-04-13T12:01:44Z</time><name>PT2386</name></trkpt>
<trkpt lat="53.341533" lon="-1.623398"><ele>433</ele><time>2024-04-13T12:01:47Z</time><name>PT2387</name></trkpt>
<trkpt lat="53.341566" lon="-1.623424"><ele>433</ele><time>2024-04-13T12:01:50Z</time><name>PT2388</name></trkpt>
<trkpt lat="53.341602" lon="-1.623441"><ele>433</ele><time>2024-04-13T12:01:53Z</time><name>PT2389</name></trkpt>
<trkpt lat="53.341643" lon="-1.623465"><ele>434</ele><time>2024-04-13T12:01:56Z</time><name>PT2390</name></trkpt>
<trkpt lat="53.341689" lon="-1.623487"><ele>433</ele><time>2024-04-13T12:02:00Z</time><name>PT2391</name></trkpt>
<trkpt lat="53.341738" lon="-1.623467"><ele>433</ele><time>2024-04-13T12:02:05Z</time><name>PT2392</name></trkpt>
<trkpt lat="53.341782" lon="-1.623437"><ele>433</ele><time>2024-04-13T12:02:08Z</time><name>PT2393</name></trkpt>
<trkpt lat="53.341817" lon="-1.623415"><ele>434</ele><time>2024-04-13T12:02:11Z</time><name>PT2394</name></trkpt>
<trkpt lat="53.341858" lon="-1.623385"><ele>435</ele><time>2024-04-13T12:02:15Z</time><name>PT2395</name></trkpt>
<trkpt lat="53.341896" lon="-1.623367"><ele>435</ele><time>2024-04-13T12:02:18Z</time><name>PT2396</name></trkpt>
<trkpt lat="53.341940" lon="-1.623337"><ele>436</ele><time>2024-04-13T12:02:23Z</time><name>PT2397</name></trkpt>
<trkpt lat="53.341981" lon="-1.623304"><ele>436</ele><time>2024-04-13T12:02:26Z</time><name>PT2398</name></trkpt>
<trkpt lat="53.342008" lon="-1.623278"><ele>436</ele><time>2024-04-13T12:02:29Z</time><name>PT2399</name></trkpt>
<trkpt lat="53.342047" lon="-1.623248"><ele>436</ele><time>2024-04-13T12:02:33Z</time><name>PT2400</name></trkpt>
<trkpt lat="53.342077" lon="-1.623226"><ele>436</ele><time>2024-04-13T12:02:36Z</time><name>PT2401</name></trkpt>
<trkpt lat="53.342117" lon="-1.623210"><ele>437</ele><time>2024-04-13T12:02:41Z</time><name>PT2402</name></trkpt>
<trkpt lat="53.342149" lon="-1.623191"><ele>438</ele><time>2024-04-13T12:02:44Z</time><name>PT2403</name></trkpt>
<trkpt lat="53.342196" lon="-1.623149"><ele>438</ele><time>2024-04-13T12:02:47Z</time><name>PT2404</name></trkpt>
<trkpt lat="53.342221" lon="-1.623113"><ele>437</ele><time>2024-04-13T12:02:50Z</time><name>PT2405</name></trkpt>
<trkpt lat="53.342262" lon="-1.623055"><ele>438</ele><time>2024-04-13T12:02:54Z</time><name>PT2406</name></trkpt>
<trkpt lat="53.342296" lon="-1.623014"><ele>438</ele><time>2024-04-13T12:02:57Z</time><name>PT2407</name></trkpt>
<trkpt lat="53.342347" lon="-1.622966"><ele>439</ele><time>2024-04-13T12:03:02Z</time><name>PT2408</name></trkpt>
<trkpt lat="53.342391" lon="-1.622951"><ele>439</ele><time>2024-04-13T12:03:05Z</time><name>PT2409</name></trkpt>
<trkpt lat="53.342429" lon="-1.622954"><ele>439</ele><time>2024-04-13T12:03:08Z</time><name>PT2410</name></trkpt>
<trkpt lat="53.342480" lon="-1.622950"><ele>439</ele><time>2024-04-13T12:03:11Z</time><name>PT2411</name></trkpt>
<trkpt lat="53.342532" lon="-1.622954"><ele>438</ele><time>2024-04-13T12:03:15Z</time><name>PT2412</name></trkpt>
<trkpt lat="53.342589" lon="-1.622944"><ele>438</ele><time>2024-04-13T12:03:20Z</time><name>PT2413</name></trkpt>
<trkpt lat="53.342630" lon="-1.622957"><ele>437</ele><time>2024-04-13T12:03:23Z</time><name>PT2414</name></trkpt>
<trkpt lat="53.342675" lon="-1.622962"><ele>438</ele><time>2024-04-13T12:03:26Z</time><name>PT2415</name></trkpt>
<trkpt lat="53.342718" lon="-1.622937"><ele>438</ele><time>2024-04-13T12:03:30Z</time><name>PT2416</name></trkpt>
<trkpt lat="53.342757" lon="-1.622916"><ele>437</ele><time>2024-04-13T12:03:33Z</time><name>PT2417</name></trkpt>
<trkpt lat="53.342808" lon="-1.622889"><ele>436</ele><time>2024-04-13T12:03:38Z</time><name>PT2418</name></trkpt>
<trkpt lat="53.342851" lon="-1.622858"><ele>438</ele><time>2024-04-13T12:03:41Z</time><name>PT2419</name></trkpt>
<trkpt lat="53.342901" lon="-1.622818"><ele>438</ele><time>2024-04-13T12:03:45Z</time><name>PT2420</name></trkpt>
<trkpt lat="53.342934" lon="-1.622805"><ele>438</ele><time>2024-04-13T12:03:48Z</time><name>PT2421</name></trkpt>
<trkpt lat="53.342963" lon="-1.622783"><ele>438</ele><time>2024-04-13T12:03:51Z</time><name>PT2422</name></trkpt>
<trkpt lat="53.343015" lon="-1.622764"><ele>440</ele><time>2024-04-13T12:03:56Z</time><name>PT2423</name></trkpt>
<trkpt lat="53.343066" lon="-1.622752"><ele>440</ele><time>2024-04-13T12:03:59Z</time><name>PT2424</name></trkpt>
<trkpt lat="53.343108" lon="-1.622755"><ele>441</ele><time>2024-04-13T12:04:03Z</time><name>PT2425</name></trkpt>
<trkpt lat="53.343148" lon="-1.622747"><ele>443</ele><time>2024-04-13T12:04:08Z</time><name>PT2426</name></trkpt>
<trkpt lat="53.343183" lon="-1.622743"><ele>444</ele><time>2024-04-13T12:04:11Z</time><name>PT2427</name></trkpt>
<trkpt lat="53.343212" lon="-1.622744"><ele>444</ele><time>2024-04-13T12:04:14Z</time><name>PT2428</name></trkpt>
<trkpt lat="53.343249" lon="-1.622758"><ele>444</ele><time>2024-04-13T12:04:18Z</time><name>PT2429</name></trkpt>
<trkpt lat="53.343284" lon="-1.622755"><ele>445</ele><time>2024-04-13T12:04:21Z</time><name>PT2430</name></trkpt>
<trkpt lat="53.343312" lon="-1.622747"><ele>445</ele><time>2024-04-13T12:04:24Z</time><name>PT2431</name></trkpt>
<trkpt lat="53.343355" lon="-1.622748"><ele>444</ele><time>2024-04-13T12:04:29Z</time><name>PT2432</name></trkpt>
<trkpt lat="53.343395" lon="-1.622756"><ele>444</ele><time>2024-04-13T12:04:32Z</time><name>PT2433</name></trkpt>
<trkpt lat="53.343416" lon="-1.622776"><ele>444</ele><time>2024-04-13T12:04:36Z</time><name>PT2434</name></trkpt>
<trkpt lat="53.343433" lon="-1.622785"><ele>444</ele><time>2024-04-13T12:04:41Z</time><name>PT2435</name></trkpt>
<trkpt lat="53.343435" lon="-1.622786"><ele>444</ele><time>2024-04-13T12:04:44Z</time><name>PT2436</name></trkpt>
<trkpt lat="53.343441" lon="-1.622784"><ele>444</ele><time>2024-04-13T12:04:47Z</time><name>PT2437</name></trkpt>
<trkpt lat="53.343482" lon="-1.622796"><ele>443</ele><time>2024-04-13T12:04:51Z</time><name>PT2438</name></trkpt>
<trkpt lat="53.343515" lon="-1.622798"><ele>442</ele><time>2024-04-13T12:04:56Z</time><name>PT2439</name></trkpt>
<trkpt lat="53.343540" lon="-1.622810"><ele>441</ele><time>2024-04-13T12:04:59Z</time><name>PT2440</name></trkpt>
<trkpt lat="53.343554" lon="-1.622808"><ele>442</ele><time>2024-04-13T12:05:03Z</time><name>PT2441</name></trkpt>
<trkpt lat="53.343569" lon="-1.622807"><ele>442</ele><time>2024-04-13T12:05:14Z</time><name>PT2442</name></trkpt>
<trkpt lat="53.343577" lon="-1.622805"><ele>442</ele><time>2024-04-13T12:05:24Z</time><name>PT2443</name></trkpt>
<trkpt lat="53.343582" lon="-1.622815"><ele>442</ele><time>2024-04-13T12:05:27Z</time><name>PT2444</name></trkpt>
<trkpt lat="53.343583" lon="-1.622815"><ele>442</ele><time>2024-04-13T12:05:32Z</time><name>PT2445</name></trkpt>
<trkpt lat="53.343590" lon="-1.622823"><ele>443</ele><time>2024-04-13T12:05:45Z</time><name>PT2446</name></trkpt>
<trkpt lat="53.343589" lon="-1.622817"><ele>443</ele><time>2024-04-13T12:16:41Z</time><name>PT2447</name></trkpt>
<trkpt lat="53.343592" lon="-1.622816"><ele>444</ele><time>2024-04-13T12:16:45Z</time><name>PT2448</name></trkpt>
<trkpt lat="53.343598" lon="-1.622808"><ele>444</ele><time>2024-04-13T12:22:00Z</time><name>PT2449</name></trkpt>
<trkpt lat="53.343601" lon="-1.622819"><ele>444</ele><time>2024-04-13T12:22:03Z</time><name>PT2450</name></trkpt>
<trkpt lat="53.343599" lon="-1.622826"><ele>444</ele><time>2024-04-13T12:22:21Z</time><name>PT2451</name></trkpt>
<trkpt lat="53.343597" lon="-1.622836"><ele>445</ele><time>2024-04-13T12:22:29Z</time><name>PT2452</name></trkpt>
<trkpt lat="53.343605" lon="-1.622842"><ele>444</ele><time>2024-04-13T12:22:32Z</time><name>PT2453</name></trkpt>
<trkpt lat="53.343605" lon="-1.622842"><ele>445</ele><time>2024-04-13T12:22:35Z</time><name>PT2454</name></trkpt>
<trkpt lat="53.343603" lon="-1.622829"><ele>445</ele><time>2024-04-13T12:25:02Z</time><name>PT2455</name></trkpt>
<trkpt lat="53.343602" lon="-1.622819"><ele>446</ele><time>2024-04-13T12:25:05Z</time><name>PT2456</name></trkpt>
<trkpt lat="53.343582" lon="-1.622826"><ele>446</ele><time>2024-04-13T12:25:08Z</time><name>PT2457</name></trkpt>
<trkpt lat="53.343565" lon="-1.622846"><ele>448</ele><time>2024-04-13T12:25:12Z</time><name>PT2458</name></trkpt>
<trkpt lat="53.343551" lon="-1.622877"><ele>449</ele><time>2024-04-13T12:25:17Z</time><name>PT2459</name></trkpt>
<trkpt lat="53.343549" lon="-1.622906"><ele>449</ele><time>2024-04-13T12:25:20Z</time><name>PT2460</name></trkpt>
<trkpt lat="53.343545" lon="-1.622919"><ele>449</ele><time>2024-04-13T12:25:24Z</time><name>PT2461</name></trkpt>
<trkpt lat="53.343534" lon="-1.622930"><ele>450</ele><time>2024-04-13T12:25:28Z</time><name>PT2462</name></trkpt>
<trkpt lat="53.343519" lon="-1.622931"><ele>451</ele><time>2024-04-13T12:25:32Z</time><name>PT2463</name></trkpt>
<trkpt lat="53.343517" lon="-1.622936"><ele>451</ele><time>2024-04-13T12:25:36Z</time><name>PT2464</name></trkpt>
<trkpt lat="53.343515" lon="-1.622964"><ele>451</ele><time>2024-04-13T12:25:40Z</time><name>PT2465</name></trkpt>
<trkpt lat="53.343519" lon="-1.622979"><ele>452</ele><time>2024-04-13T12:25:44Z</time><name>PT2466</name></trkpt>
<trkpt lat="53.343517" lon="-1.622987"><ele>452</ele><time>2024-04-13T12:25:47Z</time><name>PT2467</name></trkpt>
<trkpt lat="53.343533" lon="-1.623043"><ele>452</ele><time>2024-04-13T12:25:51Z</time><name>PT2468</name></trkpt>
<trkpt lat="53.343521" lon="-1.623085"><ele>453</ele><time>2024-04-13T12:25:56Z</time><name>PT2469</name></trkpt>
<trkpt lat="53.343522" lon="-1.623118"><ele>454</ele><time>2024-04-13T12:25:59Z</time><name>PT2470</name></trkpt>
<trkpt lat="53.343518" lon="-1.623130"><ele>454</ele><time>2024-04-13T12:26:03Z</time><name>PT2471</name></trkpt>
<trkpt lat="53.343501" lon="-1.623147"><ele>454</ele><time>2024-04-13T12:26:06Z</time><name>PT2472</name></trkpt>
<trkpt lat="53.343494" lon="-1.623190"><ele>455</ele><time>2024-04-13T12:26:09Z</time><name>PT2473</name></trkpt>
<trkpt lat="53.343484" lon="-1.623226"><ele>455</ele><time>2024-04-13T12:26:12Z</time><name>PT2474</name></trkpt>
<trkpt lat="53.343468" lon="-1.623272"><ele>456</ele><time>2024-04-13T12:26:17Z</time><name>PT2475</name></trkpt>
<trkpt lat="53.343463" lon="-1.623315"><ele>456</ele><time>2024-04-13T12:26:20Z</time><name>PT2476</name></trkpt>
<trkpt lat="53.343454" lon="-1.623380"><ele>456</ele><time>2024-04-13T12:26:23Z</time><name>PT2477</name></trkpt>
<trkpt lat="53.343467" lon="-1.623427"><ele>456</ele><time>2024-04-13T12:26:26Z</time><name>PT2478</name></trkpt>
<trkpt lat="53.343459" lon="-1.623488"><ele>457</ele><time>2024-04-13T12:26:30Z</time><name>PT2479</name></trkpt>
<trkpt lat="53.343445" lon="-1.623519"><ele>456</ele><time>2024-04-13T12:26:33Z</time><name>PT2480</name></trkpt>
<trkpt lat="53.343422" lon="-1.623539"><ele>456</ele><time>2024-04-13T12:26:38Z</time><name>PT2481</name></trkpt>
<trkpt lat="53.343411" lon="-1.623565"><ele>457</ele><time>2024-04-13T12:26:41Z</time><name>PT2482</name></trkpt>
<trkpt lat="53.343383" lon="-1.623633"><ele>456</ele><time>2024-04-13T12:26:44Z</time><name>PT2483</name></trkpt>
<trkpt lat="53.343364" lon="-1.623668"><ele>457</ele><time>2024-04-13T12:26:47Z</time><name>PT2484</name></trkpt>
<trkpt lat="53.343361" lon="-1.623715"><ele>458</ele><time>2024-04-13T12:26:51Z</time><name>PT2485</name></trkpt>
<trkpt lat="53.343361" lon="-1.623773"><ele>459</ele><time>2024-04-13T12:26:54Z</time><name>PT2486</name></trkpt>
<trkpt lat="53.343373" lon="-1.623842"><ele>460</ele><time>2024-04-13T12:26:59Z</time><name>PT2487</name></trkpt>
<trkpt lat="53.343377" lon="-1.623896"><ele>460</ele><time>2024-04-13T12:27:02Z</time><name>PT2488</name></trkpt>
<trkpt lat="53.343380" lon="-1.623957"><ele>460</ele><time>2024-04-13T12:27:05Z</time><name>PT2489</name></trkpt>
<trkpt lat="53.343389" lon="-1.624032"><ele>460</ele><time>2024-04-13T12:27:08Z</time><name>PT2490</name></trkpt>
<trkpt lat="53.343409" lon="-1.624097"><ele>461</ele><time>2024-04-13T12:27:12Z</time><name>PT2491</name></trkpt>
<trkpt lat="53.343432" lon="-1.624159"><ele>461</ele><time>2024-04-13T12:27:17Z</time><name>PT2492</name></trkpt>
<trkpt lat="53.343451" lon="-1.624218"><ele>461</ele><time>2024-04-13T12:27:20Z</time><name>PT2493</name></trkpt>
<trkpt lat="53.343465" lon="-1.624277"><ele>461</ele><time>2024-04-13T12:27:24Z</time><name>PT2494</name></trkpt>
<trkpt lat="53.343473" lon="-1.624350"><ele>462</ele><time>2024-04-13T12:27:29Z</time><name>PT2495</name></trkpt>
<trkpt lat="53.343503" lon="-1.624392"><ele>463</ele><time>2024-04-13T12:27:32Z</time><name>PT2496</name></trkpt>
<trkpt lat="53.343514" lon="-1.624455"><ele>464</ele><time>2024-04-13T12:27:35Z</time><name>PT2497</name></trkpt>
<trkpt lat="53.343504" lon="-1.624495"><ele>464</ele><time>2024-04-13T12:27:39Z</time><name>PT2498</name></trkpt>
<trkpt lat="53.343487" lon="-1.624505"><ele>463</ele><time>2024-04-13T12:27:42Z</time><name>PT2499</name></trkpt>
<trkpt lat="53.343474" lon="-1.624513"><ele>463</ele><time>2024-04-13T12:27:47Z</time><name>PT2500</name></trkpt>
<trkpt lat="53.343473" lon="-1.624514"><ele>463</ele><time>2024-04-13T12:27:50Z</time><name>PT2501</name></trkpt>
<trkpt lat="53.343476" lon="-1.624518"><ele>463</ele><time>2024-04-13T12:28:44Z</time><name>PT2502</name></trkpt>
<trkpt lat="53.343475" lon="-1.624521"><ele>463</ele><time>2024-04-13T12:28:48Z</time><name>PT2503</name></trkpt>
<trkpt lat="53.343473" lon="-1.624520"><ele>462</ele><time>2024-04-13T12:29:38Z</time><name>PT2504</name></trkpt>
<trkpt lat="53.343474" lon="-1.624514"><ele>461</ele><time>2024-04-13T12:29:41Z</time><name>PT2505</name></trkpt>
<trkpt lat="53.343483" lon="-1.624501"><ele>461</ele><time>2024-04-13T12:29:44Z</time><name>PT2506</name></trkpt>
<trkpt lat="53.343499" lon="-1.624506"><ele>461</ele><time>2024-04-13T12:29:47Z</time><name>PT2507</name></trkpt>
<trkpt lat="53.343499" lon="-1.624507"><ele>461</ele><time>2024-04-13T12:29:50Z</time><name>PT2508</name></trkpt>
<trkpt lat="53.343511" lon="-1.624505"><ele>461</ele><time>2024-04-13T12:30:41Z</time><name>PT2509</name></trkpt>
<trkpt lat="53.343513" lon="-1.624478"><ele>461</ele><time>2024-04-13T12:30:44Z</time><name>PT2510</name></trkpt>
<trkpt lat="53.343513" lon="-1.624427"><ele>462</ele><time>2024-04-13T12:30:48Z</time><name>PT2511</name></trkpt>
<trkpt lat="53.343527" lon="-1.624401"><ele>461</ele><time>2024-04-13T12:30:51Z</time><name>PT2512</name></trkpt>
<trkpt lat="53.343539" lon="-1.624424"><ele>461</ele><time>2024-04-13T12:30:56Z</time><name>PT2513</name></trkpt>
<trkpt lat="53.343547" lon="-1.624471"><ele>460</ele><time>2024-04-13T12:30:59Z</time><name>PT2514</name></trkpt>
<trkpt lat="53.343545" lon="-1.624482"><ele>460</ele><time>2024-04-13T12:31:03Z</time><name>PT2515</name></trkpt>
<trkpt lat="53.343546" lon="-1.624486"><ele>459</ele><time>2024-04-13T12:31:07Z</time><name>PT2516</name></trkpt>
<trkpt lat="53.343546" lon="-1.624487"><ele>459</ele><time>2024-04-13T12:31:11Z</time><name>PT2517</name></trkpt>
<trkpt lat="53.343548" lon="-1.624495"><ele>459</ele><time>2024-04-13T12:31:17Z</time><name>PT2518</name></trkpt>
<trkpt lat="53.343555" lon="-1.624515"><ele>459</ele><time>2024-04-13T12:31:27Z</time><name>PT2519</name></trkpt>
<trkpt lat="53.343565" lon="-1.624536"><ele>459</ele><time>2024-04-13T12:31:30Z</time><name>PT2520</name></trkpt>
<trkpt lat="53.343580" lon="-1.624557"><ele>458</ele><time>2024-04-13T12:31:33Z</time><name>PT2521</name></trkpt>
<trkpt lat="53.343583" lon="-1.624562"><ele>458</ele><time>2024-04-13T12:31:37Z</time><name>PT2522</name></trkpt>
<trkpt lat="53.343587" lon="-1.624580"><ele>458</ele><time>2024-04-13T12:31:40Z</time><name>PT2523</name></trkpt>
<trkpt lat="53.343586" lon="-1.624617"><ele>458</ele><time>2024-04-13T12:31:44Z</time><name>PT2524</name></trkpt>
<trkpt lat="53.343590" lon="-1.624638"><ele>458</ele><time>2024-04-13T12:31:47Z</time><name>PT2525</name></trkpt>
<trkpt lat="53.343596" lon="-1.624643"><ele>458</ele><time>2024-04-13T12:31:51Z</time><name>PT2526</name></trkpt>
<trkpt lat="53.343605" lon="-1.624683"><ele>459</ele><time>2024-04-13T12:32:20Z</time><name>PT2527</name></trkpt>
<trkpt lat="53.343627" lon="-1.624741"><ele>459</ele><time>2024-04-13T12:32:23Z</time><name>PT2528</name></trkpt>
<trkpt lat="53.343644" lon="-1.624782"><ele>459</ele><time>2024-04-13T12:32:26Z</time><name>PT2529</name></trkpt>
<trkpt lat="53.343663" lon="-1.624813"><ele>459</ele><time>2024-04-13T12:32:29Z</time><name>PT2530</name></trkpt>
<trkpt lat="53.343700" lon="-1.624866"><ele>459</ele><time>2024-04-13T12:32:33Z</time><name>PT2531</name></trkpt>
<trkpt lat="53.343713" lon="-1.624914"><ele>460</ele><time>2024-04-13T12:32:36Z</time><name>PT2532</name></trkpt>
<trkpt lat="53.343730" lon="-1.624970"><ele>459</ele><time>2024-04-13T12:32:40Z</time><name>PT2533</name></trkpt>
<trkpt lat="53.343745" lon="-1.625024"><ele>460</ele><time>2024-04-13T12:32:43Z</time><name>PT2534</name></trkpt>
<trkpt lat="53.343770" lon="-1.625059"><ele>460</ele><time>2024-04-13T12:32:47Z</time><name>PT2535</name></trkpt>
<trkpt lat="53.343786" lon="-1.625124"><ele>459</ele><time>2024-04-13T12:32:50Z</time><name>PT2536</name></trkpt>
<trkpt lat="53.343784" lon="-1.625200"><ele>459</ele><time>2024-04-13T12:32:54Z</time><name>PT2537</name></trkpt>
<trkpt lat="53.343785" lon="-1.625257"><ele>460</ele><time>2024-04-13T12:32:57Z</time><name>PT2538</name></trkpt>
<trkpt lat="53.343797" lon="-1.625329"><ele>460</ele><time>2024-04-13T12:33:01Z</time><name>PT2539</name></trkpt>
<trkpt lat="53.343811" lon="-1.625379"><ele>460</ele><time>2024-04-13T12:33:04Z</time><name>PT2540</name></trkpt>
<trkpt lat="53.343824" lon="-1.625452"><ele>458</ele><time>2024-04-13T12:33:08Z</time><name>PT2541</name></trkpt>
<trkpt lat="53.343822" lon="-1.625508"><ele>458</ele><time>2024-04-13T12:33:11Z</time><name>PT2542</name></trkpt>
<trkpt lat="53.343833" lon="-1.625558"><ele>458</ele><time>2024-04-13T12:33:14Z</time><name>PT2543</name></trkpt>
<trkpt lat="53.343846" lon="-1.625635"><ele>458</ele><time>2024-04-13T12:33:18Z</time><name>PT2544</name></trkpt>
<trkpt lat="53.343853" lon="-1.625723"><ele>460</ele><time>2024-04-13T12:33:23Z</time><name>PT2545</name></trkpt>
<trkpt lat="53.343874" lon="-1.625790"><ele>459</ele><time>2024-04-13T12:33:26Z</time><name>PT2546</name></trkpt>
<trkpt lat="53.343892" lon="-1.625861"><ele>459</ele><time>2024-04-13T12:33:30Z</time><name>PT2547</name></trkpt>
<trkpt lat="53.343912" lon="-1.625914"><ele>460</ele><time>2024-04-13T12:33:33Z</time><name>PT2548</name></trkpt>
<trkpt lat="53.343917" lon="-1.625965"><ele>460</ele><time>2024-04-13T12:33:36Z</time><name>PT2549</name></trkpt>
<trkpt lat="53.343923" lon="-1.626021"><ele>460</ele><time>2024-04-13T12:33:40Z</time><name>PT2550</name></trkpt>
<trkpt lat="53.343925" lon="-1.626070"><ele>460</ele><time>2024-04-13T12:33:43Z</time><name>PT2551</name></trkpt>
<trkpt lat="53.343938" lon="-1.626115"><ele>459</ele><time>2024-04-13T12:33:47Z</time><name>PT2552</name></trkpt>
<trkpt lat="53.343959" lon="-1.626155"><ele>459</ele><time>2024-04-13T12:33:51Z</time><name>PT2553</name></trkpt>
<trkpt lat="53.343972" lon="-1.626188"><ele>458</ele><time>2024-04-13T12:33:54Z</time><name>PT2554</name></trkpt>
<trkpt lat="53.343986" lon="-1.626240"><ele>458</ele><time>2024-04-13T12:33:58Z</time><name>PT2555</name></trkpt>
<trkpt lat="53.343997" lon="-1.626293"><ele>458</ele><time>2024-04-13T12:34:02Z</time><name>PT2556</name></trkpt>
<trkpt lat="53.344018" lon="-1.626354"><ele>460</ele><time>2024-04-13T12:34:05Z</time><name>PT2557</name></trkpt>
<trkpt lat="53.344050" lon="-1.626399"><ele>459</ele><time>2024-04-13T12:34:08Z</time><name>PT2558</name></trkpt>
<trkpt lat="53.344079" lon="-1.626464"><ele>459</ele><time>2024-04-13T12:34:12Z</time><name>PT2559</name></trkpt>
<trkpt lat="53.344101" lon="-1.626519"><ele>459</ele><time>2024-04-13T12:34:16Z</time><name>PT2560</name></trkpt>
<trkpt lat="53.344123" lon="-1.626546"><ele>460</ele><time>2024-04-13T12:34:19Z</time><name>PT2561</name></trkpt>
<trkpt lat="53.344132" lon="-1.626606"><ele>459</ele><time>2024-04-13T12:34:23Z</time><name>PT2562</name></trkpt>
<trkpt lat="53.344158" lon="-1.626660"><ele>459</ele><time>2024-04-13T12:34:27Z</time><name>PT2563</name></trkpt>
<trkpt lat="53.344197" lon="-1.626721"><ele>458</ele><time>2024-04-13T12:34:31Z</time><name>PT2564</name></trkpt>
<trkpt lat="53.344210" lon="-1.626771"><ele>458</ele><time>2024-04-13T12:34:34Z</time><name>PT2565</name></trkpt>
<trkpt lat="53.344216" lon="-1.626820"><ele>458</ele><time>2024-04-13T12:34:37Z</time><name>PT2566</name></trkpt>
<trkpt lat="53.344219" lon="-1.626871"><ele>457</ele><time>2024-04-13T12:34:40Z</time><name>PT2567</name></trkpt>
<trkpt lat="53.344242" lon="-1.626928"><ele>457</ele><time>2024-04-13T12:34:44Z</time><name>PT2568</name></trkpt>
<trkpt lat="53.344261" lon="-1.626992"><ele>457</ele><time>2024-04-13T12:34:48Z</time><name>PT2569</name></trkpt>
<trkpt lat="53.344272" lon="-1.627036"><ele>456</ele><time>2024-04-13T12:34:51Z</time><name>PT2570</name></trkpt>
<trkpt lat="53.344276" lon="-1.627110"><ele>456</ele><time>2024-04-13T12:34:55Z</time><name>PT2571</name></trkpt>
<trkpt lat="53.344293" lon="-1.627180"><ele>456</ele><time>2024-04-13T12:34:59Z</time><name>PT2572</name></trkpt>
<trkpt lat="53.344310" lon="-1.627239"><ele>456</ele><time>2024-04-13T12:35:02Z</time><name>PT2573</name></trkpt>
<trkpt lat="53.344329" lon="-1.627311"><ele>456</ele><time>2024-04-13T12:35:06Z</time><name>PT2574</name></trkpt>
<trkpt lat="53.344361" lon="-1.627364"><ele>457</ele><time>2024-04-13T12:35:10Z</time><name>PT2575</name></trkpt>
<trkpt lat="53.344376" lon="-1.627413"><ele>457</ele><time>2024-04-13T12:35:13Z</time><name>PT2576</name></trkpt>
<trkpt lat="53.344387" lon="-1.627463"><ele>456</ele><time>2024-04-13T12:35:17Z</time><name>PT2577</name></trkpt>
<trkpt lat="53.344397" lon="-1.627539"><ele>457</ele><time>2024-04-13T12:35:20Z</time><name>PT2578</name></trkpt>
<trkpt lat="53.344408" lon="-1.627585"><ele>457</ele><time>2024-04-13T12:35:23Z</time><name>PT2579</name></trkpt>
<trkpt lat="53.344414" lon="-1.627625"><ele>457</ele><time>2024-04-13T12:35:26Z</time><name>PT2580</name></trkpt>
<trkpt lat="53.344437" lon="-1.627685"><ele>456</ele><time>2024-04-13T12:35:29Z</time><name>PT2581</name></trkpt>
<trkpt lat="53.344465" lon="-1.627739"><ele>456</ele><time>2024-04-13T12:35:32Z</time><name>PT2582</name></trkpt>
<trkpt lat="53.344488" lon="-1.627797"><ele>456</ele><time>2024-04-13T12:35:35Z</time><name>PT2583</name></trkpt>
<trkpt lat="53.344527" lon="-1.627848"><ele>454</ele><time>2024-04-13T12:35:39Z</time><name>PT2584</name></trkpt>
<trkpt lat="53.344561" lon="-1.627902"><ele>454</ele><time>2024-04-13T12:35:43Z</time><name>PT2585</name></trkpt>
<trkpt lat="53.344588" lon="-1.627935"><ele>453</ele><time>2024-04-13T12:35:46Z</time><name>PT2586</name></trkpt>
<trkpt lat="53.344625" lon="-1.627985"><ele>452</ele><time>2024-04-13T12:35:50Z</time><name>PT2587</name></trkpt>
<trkpt lat="53.344665" lon="-1.628057"><ele>453</ele><time>2024-04-13T12:35:54Z</time><name>PT2588</name></trkpt>
<trkpt lat="53.344697" lon="-1.628109"><ele>453</ele><time>2024-04-13T12:35:58Z</time><name>PT2589</name></trkpt>
<trkpt lat="53.344725" lon="-1.628147"><ele>452</ele><time>2024-04-13T12:36:01Z</time><name>PT2590</name></trkpt>
<trkpt lat="53.344756" lon="-1.628195"><ele>451</ele><time>2024-04-13T12:36:05Z</time><name>PT2591</name></trkpt>
<trkpt lat="53.344791" lon="-1.628235"><ele>451</ele><time>2024-04-13T12:36:09Z</time><name>PT2592</name></trkpt>
<trkpt lat="53.344819" lon="-1.628286"><ele>451</ele><time>2024-04-13T12:36:13Z</time><name>PT2593</name></trkpt>
<trkpt lat="53.344846" lon="-1.628308"><ele>449</ele><time>2024-04-13T12:36:16Z</time><name>PT2594</name></trkpt>
<trkpt lat="53.344875" lon="-1.628360"><ele>449</ele><time>2024-04-13T12:36:20Z</time><name>PT2595</name></trkpt>
<trkpt lat="53.344899" lon="-1.628427"><ele>450</ele><time>2024-04-13T12:36:23Z</time><name>PT2596</name></trkpt>
<trkpt lat="53.344923" lon="-1.628483"><ele>450</ele><time>2024-04-13T12:36:27Z</time><name>PT2597</name></trkpt>
<trkpt lat="53.344937" lon="-1.628535"><ele>449</ele><time>2024-04-13T12:36:30Z</time><name>PT2598</name></trkpt>
<trkpt lat="53.344971" lon="-1.628594"><ele>449</ele><time>2024-04-13T12:36:34Z</time><name>PT2599</name></trkpt>
<trkpt lat="53.344987" lon="-1.628644"><ele>449</ele><time>2024-04-13T12:36:37Z</time><name>PT2600</name></trkpt>
<trkpt lat="53.345013" lon="-1.628692"><ele>449</ele><time>2024-04-13T12:36:41Z</time><name>PT2601</name></trkpt>
<trkpt lat="53.345041" lon="-1.628759"><ele>450</ele><time>2024-04-13T12:36:44Z</time><name>PT2602</name></trkpt>
<trkpt lat="53.345061" lon="-1.628831"><ele>450</ele><time>2024-04-13T12:36:48Z</time><name>PT2603</name></trkpt>
<trkpt lat="53.345091" lon="-1.628899"><ele>450</ele><time>2024-04-13T12:36:52Z</time><name>PT2604</name></trkpt>
<trkpt lat="53.345100" lon="-1.628952"><ele>449</ele><time>2024-04-13T12:36:55Z</time><name>PT2605</name></trkpt>
<trkpt lat="53.345118" lon="-1.629004"><ele>450</ele><time>2024-04-13T12:36:59Z</time><name>PT2606</name></trkpt>
<trkpt lat="53.345145" lon="-1.629074"><ele>449</ele><time>2024-04-13T12:37:02Z</time><name>PT2607</name></trkpt>
<trkpt lat="53.345179" lon="-1.629128"><ele>449</ele><time>2024-04-13T12:37:06Z</time><name>PT2608</name></trkpt>
<trkpt lat="53.345197" lon="-1.629172"><ele>448</ele><time>2024-04-13T12:37:09Z</time><name>PT2609</name></trkpt>
<trkpt lat="53.345216" lon="-1.629257"><ele>449</ele><time>2024-04-13T12:37:13Z</time><name>PT2610</name></trkpt>
<trkpt lat="53.345248" lon="-1.629318"><ele>449</ele><time>2024-04-13T12:37:17Z</time><name>PT2611</name></trkpt>
<trkpt lat="53.345281" lon="-1.629375"><ele>449</ele><time>2024-04-13T12:37:21Z</time><name>PT2612</name></trkpt>
<trkpt lat="53.345307" lon="-1.629417"><ele>448</ele><time>2024-04-13T12:37:24Z</time><name>PT2613</name></trkpt>
<trkpt lat="53.345343" lon="-1.629463"><ele>448</ele><time>2024-04-13T12:37:28Z</time><name>PT2614</name></trkpt>
<trkpt lat="53.345385" lon="-1.629536"><ele>449</ele><time>2024-04-13T12:37:32Z</time><name>PT2615</name></trkpt>
<trkpt lat="53.345423" lon="-1.629593"><ele>449</ele><time>2024-04-13T12:37:36Z</time><name>PT2616</name></trkpt>
<trkpt lat="53.345442" lon="-1.629642"><ele>449</ele><time>2024-04-13T12:37:39Z</time><name>PT2617</name></trkpt>
<trkpt lat="53.345455" lon="-1.629692"><ele>448</ele><time>2024-04-13T12:37:42Z</time><name>PT2618</name></trkpt>
<trkpt lat="53.345477" lon="-1.629753"><ele>449</ele><time>2024-04-13T12:37:46Z</time><name>PT2619</name></trkpt>
<trkpt lat="53.345499" lon="-1.629794"><ele>448</ele><time>2024-04-13T12:37:49Z</time><name>PT2620</name></trkpt>
<trkpt lat="53.345527" lon="-1.629855"><ele>447</ele><time>2024-04-13T12:37:53Z</time><name>PT2621</name></trkpt>
<trkpt lat="53.345554" lon="-1.629916"><ele>447</ele><time>2024-04-13T12:37:57Z</time><name>PT2622</name></trkpt>
<trkpt lat="53.345574" lon="-1.629969"><ele>446</ele><time>2024-04-13T12:38:00Z</time><name>PT2623</name></trkpt>
<trkpt lat="53.345603" lon="-1.630040"><ele>446</ele><time>2024-04-13T12:38:04Z</time><name>PT2624</name></trkpt>
<trkpt lat="53.345625" lon="-1.630086"><ele>446</ele><time>2024-04-13T12:38:07Z</time><name>PT2625</name></trkpt>
<trkpt lat="53.345646" lon="-1.630162"><ele>446</ele><time>2024-04-13T12:38:11Z</time><name>PT2626</name></trkpt>
<trkpt lat="53.345674" lon="-1.630229"><ele>446</ele><time>2024-04-13T12:38:15Z</time><name>PT2627</name></trkpt>
<trkpt lat="53.345706" lon="-1.630290"><ele>445</ele><time>2024-04-13T12:38:19Z</time><name>PT2628</name></trkpt>
<trkpt lat="53.345733" lon="-1.630349"><ele>442</ele><time>2024-04-13T12:38:23Z</time><name>PT2629</name></trkpt>
<trkpt lat="53.345760" lon="-1.630398"><ele>442</ele><time>2024-04-13T12:38:26Z</time><name>PT2630</name></trkpt>
<trkpt lat="53.345780" lon="-1.630455"><ele>441</ele><time>2024-04-13T12:38:29Z</time><name>PT2631</name></trkpt>
<trkpt lat="53.345798" lon="-1.630521"><ele>441</ele><time>2024-04-13T12:38:32Z</time><name>PT2632</name></trkpt>
<trkpt lat="53.345812" lon="-1.630579"><ele>440</ele><time>2024-04-13T12:38:35Z</time><name>PT2633</name></trkpt>
<trkpt lat="53.345821" lon="-1.630633"><ele>441</ele><time>2024-04-13T12:38:38Z</time><name>PT2634</name></trkpt>
<trkpt lat="53.345843" lon="-1.630714"><ele>441</ele><time>2024-04-13T12:38:42Z</time><name>PT2635</name></trkpt>
<trkpt lat="53.345876" lon="-1.630767"><ele>441</ele><time>2024-04-13T12:38:46Z</time><name>PT2636</name></trkpt>
<trkpt lat="53.345910" lon="-1.630790"><ele>440</ele><time>2024-04-13T12:38:49Z</time><name>PT2637</name></trkpt>
<trkpt lat="53.345939" lon="-1.630843"><ele>440</ele><time>2024-04-13T12:38:52Z</time><name>PT2638</name></trkpt>
<trkpt lat="53.345972" lon="-1.630900"><ele>439</ele><time>2024-04-13T12:38:55Z</time><name>PT2639</name></trkpt>
<trkpt lat="53.346004" lon="-1.630975"><ele>439</ele><time>2024-04-13T12:38:59Z</time><name>PT2640</name></trkpt>
<trkpt lat="53.346036" lon="-1.631039"><ele>438</ele><time>2024-04-13T12:39:03Z</time><name>PT2641</name></trkpt>
<trkpt lat="53.346072" lon="-1.631093"><ele>437</ele><time>2024-04-13T12:39:07Z</time><name>PT2642</name></trkpt>
<trkpt lat="53.346107" lon="-1.631141"><ele>436</ele><time>2024-04-13T12:39:10Z</time><name>PT2643</name></trkpt>
<trkpt lat="53.346147" lon="-1.631209"><ele>436</ele><time>2024-04-13T12:39:14Z</time><name>PT2644</name></trkpt>
<trkpt lat="53.346177" lon="-1.631261"><ele>436</ele><time>2024-04-13T12:39:17Z</time><name>PT2645</name></trkpt>
<trkpt lat="53.346216" lon="-1.631309"><ele>436</ele><time>2024-04-13T12:39:21Z</time><name>PT2646</name></trkpt>
<trkpt lat="53.346245" lon="-1.631375"><ele>437</ele><time>2024-04-13T12:39:25Z</time><name>PT2647</name></trkpt>
<trkpt lat="53.346268" lon="-1.631430"><ele>439</ele><time>2024-04-13T12:39:29Z</time><name>PT2648</name></trkpt>
<trkpt lat="53.346300" lon="-1.631502"><ele>440</ele><time>2024-04-13T12:39:32Z</time><name>PT2649</name></trkpt>
<trkpt lat="53.346337" lon="-1.631561"><ele>440</ele><time>2024-04-13T12:39:36Z</time><name>PT2650</name></trkpt>
<trkpt lat="53.346357" lon="-1.631615"><ele>439</ele><time>2024-04-13T12:39:39Z</time><name>PT2651</name></trkpt>
<trkpt lat="53.346391" lon="-1.631673"><ele>439</ele><time>2024-04-13T12:39:43Z</time><name>PT2652</name></trkpt>
<trkpt lat="53.346419" lon="-1.631713"><ele>439</ele><time>2024-04-13T12:39:46Z</time><name>PT2653</name></trkpt>
<trkpt lat="53.346453" lon="-1.631774"><ele>439</ele><time>2024-04-13T12:39:50Z</time><name>PT2654</name></trkpt>
<trkpt lat="53.346489" lon="-1.631841"><ele>439</ele><time>2024-04-13T12:39:54Z</time><name>PT2655</name></trkpt>
<trkpt lat="53.346514" lon="-1.631881"><ele>438</ele><time>2024-04-13T12:39:58Z</time><name>PT2656</name></trkpt>
<trkpt lat="53.346539" lon="-1.631933"><ele>438</ele><time>2024-04-13T12:40:01Z</time><name>PT2657</name></trkpt>
<trkpt lat="53.346573" lon="-1.631999"><ele>438</ele><time>2024-04-13T12:40:05Z</time><name>PT2658</name></trkpt>
<trkpt lat="53.346594" lon="-1.632054"><ele>437</ele><time>2024-04-13T12:40:08Z</time><name>PT2659</name></trkpt>
<trkpt lat="53.346624" lon="-1.632100"><ele>437</ele><time>2024-04-13T12:40:11Z</time><name>PT2660</name></trkpt>
<trkpt lat="53.346658" lon="-1.632138"><ele>438</ele><time>2024-04-13T12:40:15Z</time><name>PT2661</name></trkpt>
<trkpt lat="53.346681" lon="-1.632178"><ele>439</ele><time>2024-04-13T12:40:18Z</time><name>PT2662</name></trkpt>
<trkpt lat="53.346714" lon="-1.632247"><ele>439</ele><time>2024-04-13T12:40:23Z</time><name>PT2663</name></trkpt>
<trkpt lat="53.346745" lon="-1.632301"><ele>438</ele><time>2024-04-13T12:40:26Z</time><name>PT2664</name></trkpt>
<trkpt lat="53.346762" lon="-1.632334"><ele>439</ele><time>2024-04-13T12:40:29Z</time><name>PT2665</name></trkpt>
<trkpt lat="53.346803" lon="-1.632374"><ele>438</ele><time>2024-04-13T12:40:33Z</time><name>PT2666</name></trkpt>
<trkpt lat="53.346827" lon="-1.632411"><ele>438</ele><time>2024-04-13T12:40:36Z</time><name>PT2667</name></trkpt>
<trkpt lat="53.346848" lon="-1.632465"><ele>437</ele><time>2024-04-13T12:40:39Z</time><name>PT2668</name></trkpt>
<trkpt lat="53.346889" lon="-1.632514"><ele>436</ele><time>2024-04-13T12:40:44Z</time><name>PT2669</name></trkpt>
<trkpt lat="53.346925" lon="-1.632542"><ele>435</ele><time>2024-04-13T12:40:47Z</time><name>PT2670</name></trkpt>
<trkpt lat="53.346955" lon="-1.632633"><ele>433</ele><time>2024-04-13T12:40:50Z</time><name>PT2671</name></trkpt>
<trkpt lat="53.346984" lon="-1.632696"><ele>435</ele><time>2024-04-13T12:40:54Z</time><name>PT2672</name></trkpt>
<trkpt lat="53.347004" lon="-1.632744"><ele>435</ele><time>2024-04-13T12:40:58Z</time><name>PT2673</name></trkpt>
<trkpt lat="53.347038" lon="-1.632796"><ele>436</ele><time>2024-04-13T12:41:02Z</time><name>PT2674</name></trkpt>
<trkpt lat="53.347073" lon="-1.632840"><ele>437</ele><time>2024-04-13T12:41:06Z</time><name>PT2675</name></trkpt>
<trkpt lat="53.347103" lon="-1.632878"><ele>438</ele><time>2024-04-13T12:41:09Z</time><name>PT2676</name></trkpt>
<trkpt lat="53.347133" lon="-1.632929"><ele>437</ele><time>2024-04-13T12:41:13Z</time><name>PT2677</name></trkpt>
<trkpt lat="53.347169" lon="-1.632962"><ele>437</ele><time>2024-04-13T12:41:17Z</time><name>PT2678</name></trkpt>
<trkpt lat="53.347208" lon="-1.633002"><ele>438</ele><time>2024-04-13T12:41:20Z</time><name>PT2679</name></trkpt>
<trkpt lat="53.347245" lon="-1.633020"><ele>437</ele><time>2024-04-13T12:41:23Z</time><name>PT2680</name></trkpt>
<trkpt lat="53.347286" lon="-1.633048"><ele>437</ele><time>2024-04-13T12:41:27Z</time><name>PT2681</name></trkpt>
<trkpt lat="53.347314" lon="-1.633062"><ele>435</ele><time>2024-04-13T12:41:30Z</time><name>PT2682</name></trkpt>
<trkpt lat="53.347343" lon="-1.633093"><ele>436</ele><time>2024-04-13T12:41:33Z</time><name>PT2683</name></trkpt>
<trkpt lat="53.347379" lon="-1.633160"><ele>435</ele><time>2024-04-13T12:41:37Z</time><name>PT2684</name></trkpt>
<trkpt lat="53.347405" lon="-1.633225"><ele>435</ele><time>2024-04-13T12:41:41Z</time><name>PT2685</name></trkpt>
<trkpt lat="53.347437" lon="-1.633282"><ele>436</ele><time>2024-04-13T12:41:45Z</time><name>PT2686</name></trkpt>
<trkpt lat="53.347480" lon="-1.633334"><ele>437</ele><time>2024-04-13T12:41:49Z</time><name>PT2687</name></trkpt>
<trkpt lat="53.347501" lon="-1.633374"><ele>437</ele><time>2024-04-13T12:41:52Z</time><name>PT2688</name></trkpt>
<trkpt lat="53.347539" lon="-1.633407"><ele>435</ele><time>2024-04-13T12:41:56Z</time><name>PT2689</name></trkpt>
<trkpt lat="53.347581" lon="-1.633419"><ele>435</ele><time>2024-04-13T12:41:59Z</time><name>PT2690</name></trkpt>
<trkpt lat="53.347611" lon="-1.633453"><ele>435</ele><time>2024-04-13T12:42:02Z</time><name>PT2691</name></trkpt>
<trkpt lat="53.347650" lon="-1.633505"><ele>435</ele><time>2024-04-13T12:42:06Z</time><name>PT2692</name></trkpt>
<trkpt lat="53.347682" lon="-1.633540"><ele>435</ele><time>2024-04-13T12:42:10Z</time><name>PT2693</name></trkpt>
<trkpt lat="53.347705" lon="-1.633565"><ele>435</ele><time>2024-04-13T12:42:14Z</time><name>PT2694</name></trkpt>
<trkpt lat="53.347745" lon="-1.633583"><ele>434</ele><time>2024-04-13T12:42:17Z</time><name>PT2695</name></trkpt>
<trkpt lat="53.347775" lon="-1.633587"><ele>434</ele><time>2024-04-13T12:42:20Z</time><name>PT2696</name></trkpt>
<trkpt lat="53.347811" lon="-1.633568"><ele>434</ele><time>2024-04-13T12:42:24Z</time><name>PT2697</name></trkpt>
<trkpt lat="53.347859" lon="-1.633588"><ele>434</ele><time>2024-04-13T12:42:28Z</time><name>PT2698</name></trkpt>
<trkpt lat="53.347890" lon="-1.633613"><ele>434</ele><time>2024-04-13T12:42:31Z</time><name>PT2699</name></trkpt>
<trkpt lat="53.347923" lon="-1.633668"><ele>433</ele><time>2024-04-13T12:42:35Z</time><name>PT2700</name></trkpt>
<trkpt lat="53.347966" lon="-1.633717"><ele>434</ele><time>2024-04-13T12:42:39Z</time><name>PT2701</name></trkpt>
<trkpt lat="53.348009" lon="-1.633756"><ele>435</ele><time>2024-04-13T12:42:43Z</time><name>PT2702</name></trkpt>
<trkpt lat="53.348038" lon="-1.633778"><ele>434</ele><time>2024-04-13T12:42:46Z</time><name>PT2703</name></trkpt>
<trkpt lat="53.348064" lon="-1.633796"><ele>433</ele><time>2024-04-13T12:42:50Z</time><name>PT2704</name></trkpt>
<trkpt lat="53.348098" lon="-1.633856"><ele>433</ele><time>2024-04-13T12:42:53Z</time><name>PT2705</name></trkpt>
<trkpt lat="53.348128" lon="-1.633912"><ele>433</ele><time>2024-04-13T12:42:57Z</time><name>PT2706</name></trkpt>
<trkpt lat="53.348160" lon="-1.633947"><ele>432</ele><time>2024-04-13T12:43:00Z</time><name>PT2707</name></trkpt>
<trkpt lat="53.348195" lon="-1.633979"><ele>433</ele><time>2024-04-13T12:43:03Z</time><name>PT2708</name></trkpt>
<trkpt lat="53.348248" lon="-1.634014"><ele>433</ele><time>2024-04-13T12:43:07Z</time><name>PT2709</name></trkpt>
<trkpt lat="53.348284" lon="-1.634034"><ele>434</ele><time>2024-04-13T12:43:10Z</time><name>PT2710</name></trkpt>
<trkpt lat="53.348318" lon="-1.634054"><ele>435</ele><time>2024-04-13T12:43:13Z</time><name>PT2711</name></trkpt>
<trkpt lat="53.348357" lon="-1.634072"><ele>435</ele><time>2024-04-13T12:43:17Z</time><name>PT2712</name></trkpt>
<trkpt lat="53.348395" lon="-1.634125"><ele>435</ele><time>2024-04-13T12:43:20Z</time><name>PT2713</name></trkpt>
<trkpt lat="53.348444" lon="-1.634155"><ele>435</ele><time>2024-04-13T12:43:24Z</time><name>PT2714</name></trkpt>
<trkpt lat="53.348480" lon="-1.634189"><ele>435</ele><time>2024-04-13T12:43:27Z</time><name>PT2715</name></trkpt>
<trkpt lat="53.348525" lon="-1.634228"><ele>435</ele><time>2024-04-13T12:43:31Z</time><name>PT2716</name></trkpt>
<trkpt lat="53.348566" lon="-1.634272"><ele>434</ele><time>2024-04-13T12:43:35Z</time><name>PT2717</name></trkpt>
<trkpt lat="53.348598" lon="-1.634279"><ele>432</ele><time>2024-04-13T12:43:38Z</time><name>PT2718</name></trkpt>
<trkpt lat="53.348643" lon="-1.634303"><ele>432</ele><time>2024-04-13T12:43:42Z</time><name>PT2719</name></trkpt>
<trkpt lat="53.348684" lon="-1.634361"><ele>432</ele><time>2024-04-13T12:43:46Z</time><name>PT2720</name></trkpt>
<trkpt lat="53.348728" lon="-1.634399"><ele>431</ele><time>2024-04-13T12:43:50Z</time><name>PT2721</name></trkpt>
<trkpt lat="53.348765" lon="-1.634431"><ele>432</ele><time>2024-04-13T12:43:53Z</time><name>PT2722</name></trkpt>
<trkpt lat="53.348815" lon="-1.634467"><ele>433</ele><time>2024-04-13T12:43:57Z</time><name>PT2723</name></trkpt>
<trkpt lat="53.348853" lon="-1.634496"><ele>433</ele><time>2024-04-13T12:44:01Z</time><name>PT2724</name></trkpt>
<trkpt lat="53.348890" lon="-1.634521"><ele>433</ele><time>2024-04-13T12:44:04Z</time><name>PT2725</name></trkpt>
<trkpt lat="53.348934" lon="-1.634560"><ele>432</ele><time>2024-04-13T12:44:08Z</time><name>PT2726</name></trkpt>
<trkpt lat="53.348974" lon="-1.634573"><ele>433</ele><time>2024-04-13T12:44:11Z</time><name>PT2727</name></trkpt>
<trkpt lat="53.349024" lon="-1.634605"><ele>432</ele><time>2024-04-13T12:44:15Z</time><name>PT2728</name></trkpt>
<trkpt lat="53.349047" lon="-1.634638"><ele>431</ele><time>2024-04-13T12:44:18Z</time><name>PT2729</name></trkpt>
<trkpt lat="53.349078" lon="-1.634662"><ele>431</ele><time>2024-04-13T12:44:22Z</time><name>PT2730</name></trkpt>
<trkpt lat="53.349106" lon="-1.634664"><ele>430</ele><time>2024-04-13T12:44:25Z</time><name>PT2731</name></trkpt>
<trkpt lat="53.349130" lon="-1.634681"><ele>430</ele><time>2024-04-13T12:44:28Z</time><name>PT2732</name></trkpt>
<trkpt lat="53.349158" lon="-1.634691"><ele>430</ele><time>2024-04-13T12:44:32Z</time><name>PT2733</name></trkpt>
<trkpt lat="53.349185" lon="-1.634705"><ele>431</ele><time>2024-04-13T12:44:35Z</time><name>PT2734</name></trkpt>
<trkpt lat="53.349213" lon="-1.634714"><ele>429</ele><time>2024-04-13T12:44:38Z</time><name>PT2735</name></trkpt>
<trkpt lat="53.349233" lon="-1.634717"><ele>430</ele><time>2024-04-13T12:44:41Z</time><name>PT2736</name></trkpt>
<trkpt lat="53.349256" lon="-1.634721"><ele>429</ele><time>2024-04-13T12:44:47Z</time><name>PT2737</name></trkpt>
<trkpt lat="53.349270" lon="-1.634725"><ele>429</ele><time>2024-04-13T12:44:51Z</time><name>PT2738</name></trkpt>
<trkpt lat="53.349269" lon="-1.634706"><ele>430</ele><time>2024-04-13T12:45:32Z</time><name>PT2739</name></trkpt>
<trkpt lat="53.349274" lon="-1.634683"><ele>430</ele><time>2024-04-13T12:45:36Z</time><name>PT2740</name></trkpt>
<trkpt lat="53.349275" lon="-1.634683"><ele>430</ele><time>2024-04-13T12:45:39Z</time><name>PT2741</name></trkpt>
<trkpt lat="53.349273" lon="-1.634686"><ele>430</ele><time>2024-04-13T12:46:36Z</time><name>PT2742</name></trkpt>
<trkpt lat="53.349274" lon="-1.634688"><ele>430</ele><time>2024-04-13T12:46:40Z</time><name>PT2743</name></trkpt>
<trkpt lat="53.349283" lon="-1.634697"><ele>432</ele><time>2024-04-13T12:46:59Z</time><name>PT2744</name></trkpt>
<trkpt lat="53.349288" lon="-1.634684"><ele>432</ele><time>2024-04-13T12:47:02Z</time><name>PT2745</name></trkpt>
<trkpt lat="53.349286" lon="-1.634684"><ele>432</ele><time>2024-04-13T12:47:06Z</time><name>PT2746</name></trkpt>
<trkpt lat="53.349285" lon="-1.634683"><ele>432</ele><time>2024-04-13T12:47:09Z</time><name>PT2747</name></trkpt>
<trkpt lat="53.349285" lon="-1.634688"><ele>432</ele><time>2024-04-13T12:47:12Z</time><name>PT2748</name></trkpt>
<trkpt lat="53.349285" lon="-1.634687"><ele>432</ele><time>2024-04-13T12:47:15Z</time><name>PT2749</name></trkpt>
<trkpt lat="53.349291" lon="-1.634686"><ele>432</ele><time>2024-04-13T12:47:22Z</time><name>PT2750</name></trkpt>
<trkpt lat="53.349300" lon="-1.634686"><ele>431</ele><time>2024-04-13T12:47:26Z</time><name>PT2751</name></trkpt>
<trkpt lat="53.349332" lon="-1.634717"><ele>430</ele><time>2024-04-13T12:47:30Z</time><name>PT2752</name></trkpt>
<trkpt lat="53.349355" lon="-1.634740"><ele>430</ele><time>2024-04-13T12:47:33Z</time><name>PT2753</name></trkpt>
<trkpt lat="53.349384" lon="-1.634773"><ele>429</ele><time>2024-04-13T12:47:37Z</time><name>PT2754</name></trkpt>
<trkpt lat="53.349407" lon="-1.634807"><ele>428</ele><time>2024-04-13T12:47:41Z</time><name>PT2755</name></trkpt>
<trkpt lat="53.349437" lon="-1.634858"><ele>428</ele><time>2024-04-13T12:47:44Z</time><name>PT2756</name></trkpt>
<trkpt lat="53.349466" lon="-1.634874"><ele>428</ele><time>2024-04-13T12:47:47Z</time><name>PT2757</name></trkpt>
<trkpt lat="53.349506" lon="-1.634870"><ele>427</ele><time>2024-04-13T12:47:51Z</time><name>PT2758</name></trkpt>
<trkpt lat="53.349538" lon="-1.634890"><ele>427</ele><time>2024-04-13T12:47:54Z</time><name>PT2759</name></trkpt>
<trkpt lat="53.349565" lon="-1.634910"><ele>426</ele><time>2024-04-13T12:47:57Z</time><name>PT2760</name></trkpt>
<trkpt lat="53.349603" lon="-1.634938"><ele>426</ele><time>2024-04-13T12:48:01Z</time><name>PT2761</name></trkpt>
<trkpt lat="53.349637" lon="-1.634938"><ele>426</ele><time>2024-04-13T12:48:05Z</time><name>PT2762</name></trkpt>
<trkpt lat="53.349676" lon="-1.634952"><ele>426</ele><time>2024-04-13T12:48:08Z</time><name>PT2763</name></trkpt>
<trkpt lat="53.349717" lon="-1.634984"><ele>426</ele><time>2024-04-13T12:48:12Z</time><name>PT2764</name></trkpt>
<trkpt lat="53.349765" lon="-1.635008"><ele>424</ele><time>2024-04-13T12:48:16Z</time><name>PT2765</name></trkpt>
<trkpt lat="53.349801" lon="-1.635039"><ele>424</ele><time>2024-04-13T12:48:19Z</time><name>PT2766</name></trkpt>
<trkpt lat="53.349851" lon="-1.635067"><ele>425</ele><time>2024-04-13T12:48:23Z</time><name>PT2767</name></trkpt>
<trkpt lat="53.349877" lon="-1.635097"><ele>424</ele><time>2024-04-13T12:48:26Z</time><name>PT2768</name></trkpt>
<trkpt lat="53.349906" lon="-1.635113"><ele>425</ele><time>2024-04-13T12:48:29Z</time><name>PT2769</name></trkpt>
<trkpt lat="53.349938" lon="-1.635131"><ele>425</ele><time>2024-04-13T12:48:32Z</time><name>PT2770</name></trkpt>
<trkpt lat="53.349981" lon="-1.635150"><ele>425</ele><time>2024-04-13T12:48:36Z</time><name>PT2771</name></trkpt>
<trkpt lat="53.350010" lon="-1.635168"><ele>425</ele><time>2024-04-13T12:48:39Z</time><name>PT2772</name></trkpt>
<trkpt lat="53.350039" lon="-1.635187"><ele>424</ele><time>2024-04-13T12:48:42Z</time><name>PT2773</name></trkpt>
<trkpt lat="53.350078" lon="-1.635231"><ele>424</ele><time>2024-04-13T12:48:46Z</time><name>PT2774</name></trkpt>
<trkpt lat="53.350121" lon="-1.635272"><ele>424</ele><time>2024-04-13T12:48:50Z</time><name>PT2775</name></trkpt>
<trkpt lat="53.350160" lon="-1.635304"><ele>425</ele><time>2024-04-13T12:48:54Z</time><name>PT2776</name></trkpt>
<trkpt lat="53.350199" lon="-1.635320"><ele>424</ele><time>2024-04-13T12:48:58Z</time><name>PT2777</name></trkpt>
<trkpt lat="53.350235" lon="-1.635355"><ele>424</ele><time>2024-04-13T12:49:02Z</time><name>PT2778</name></trkpt>
<trkpt lat="53.350260" lon="-1.635387"><ele>424</ele><time>2024-04-13T12:49:05Z</time><name>PT2779</name></trkpt>
<trkpt lat="53.350291" lon="-1.635395"><ele>424</ele><time>2024-04-13T12:49:09Z</time><name>PT2780</name></trkpt>
<trkpt lat="53.350331" lon="-1.635418"><ele>424</ele><time>2024-04-13T12:49:13Z</time><name>PT2781</name></trkpt>
<trkpt lat="53.350362" lon="-1.635417"><ele>423</ele><time>2024-04-13T12:49:16Z</time><name>PT2782</name></trkpt>
<trkpt lat="53.350400" lon="-1.635426"><ele>423</ele><time>2024-04-13T12:49:20Z</time><name>PT2783</name></trkpt>
<trkpt lat="53.350428" lon="-1.635452"><ele>422</ele><time>2024-04-13T12:49:23Z</time><name>PT2784</name></trkpt>
<trkpt lat="53.350465" lon="-1.635469"><ele>422</ele><time>2024-04-13T12:49:27Z</time><name>PT2785</name></trkpt>
<trkpt lat="53.350488" lon="-1.635479"><ele>421</ele><time>2024-04-13T12:49:30Z</time><name>PT2786</name></trkpt>
<trkpt lat="53.350512" lon="-1.635502"><ele>421</ele><time>2024-04-13T12:49:33Z</time><name>PT2787</name></trkpt>
<trkpt lat="53.350551" lon="-1.635532"><ele>420</ele><time>2024-04-13T12:49:37Z</time><name>PT2788</name></trkpt>
<trkpt lat="53.350580" lon="-1.635566"><ele>420</ele><time>2024-04-13T12:49:40Z</time><name>PT2789</name></trkpt>
<trkpt lat="53.350617" lon="-1.635617"><ele>420</ele><time>2024-04-13T12:49:44Z</time><name>PT2790</name></trkpt>
<trkpt lat="53.350661" lon="-1.635658"><ele>420</ele><time>2024-04-13T12:49:48Z</time><name>PT2791</name></trkpt>
<trkpt lat="53.350701" lon="-1.635683"><ele>419</ele><time>2024-04-13T12:49:51Z</time><name>PT2792</name></trkpt>
<trkpt lat="53.350750" lon="-1.635667"><ele>419</ele><time>2024-04-13T12:49:55Z</time><name>PT2793</name></trkpt>
<trkpt lat="53.350787" lon="-1.635674"><ele>420</ele><time>2024-04-13T12:49:59Z</time><name>PT2794</name></trkpt>
<trkpt lat="53.350837" lon="-1.635677"><ele>422</ele><time>2024-04-13T12:50:02Z</time><name>PT2795</name></trkpt>
<trkpt lat="53.350870" lon="-1.635693"><ele>422</ele><time>2024-04-13T12:50:06Z</time><name>PT2796</name></trkpt>
<trkpt lat="53.350895" lon="-1.635708"><ele>421</ele><time>2024-04-13T12:50:09Z</time><name>PT2797</name></trkpt>
<trkpt lat="53.350929" lon="-1.635719"><ele>421</ele><time>2024-04-13T12:50:13Z</time><name>PT2798</name></trkpt>
<trkpt lat="53.350959" lon="-1.635733"><ele>421</ele><time>2024-04-13T12:50:16Z</time><name>PT2799</name></trkpt>
<trkpt lat="53.351003" lon="-1.635760"><ele>421</ele><time>2024-04-13T12:50:20Z</time><name>PT2800</name></trkpt>
<trkpt lat="53.351021" lon="-1.635786"><ele>421</ele><time>2024-04-13T12:50:24Z</time><name>PT2801</name></trkpt>
<trkpt lat="53.351053" lon="-1.635801"><ele>421</ele><time>2024-04-13T12:50:27Z</time><name>PT2802</name></trkpt>
<trkpt lat="53.351077" lon="-1.635841"><ele>421</ele><time>2024-04-13T12:50:30Z</time><name>PT2803</name></trkpt>
<trkpt lat="53.351108" lon="-1.635904"><ele>422</ele><time>2024-04-13T12:50:34Z</time><name>PT2804</name></trkpt>
<trkpt lat="53.351136" lon="-1.635948"><ele>422</ele><time>2024-04-13T12:50:38Z</time><name>PT2805</name></trkpt>
<trkpt lat="53.351159" lon="-1.636011"><ele>422</ele><time>2024-04-13T12:50:41Z</time><name>PT2806</name></trkpt>
<trkpt lat="53.351193" lon="-1.636053"><ele>423</ele><time>2024-04-13T12:50:45Z</time><name>PT2807</name></trkpt>
<trkpt lat="53.351222" lon="-1.636079"><ele>423</ele><time>2024-04-13T12:50:48Z</time><name>PT2808</name></trkpt>
<trkpt lat="53.351257" lon="-1.636114"><ele>422</ele><time>2024-04-13T12:50:52Z</time><name>PT2809</name></trkpt>
<trkpt lat="53.351289" lon="-1.636141"><ele>421</ele><time>2024-04-13T12:50:56Z</time><name>PT2810</name></trkpt>
<trkpt lat="53.351331" lon="-1.636167"><ele>421</ele><time>2024-04-13T12:51:00Z</time><name>PT2811</name></trkpt>
<trkpt lat="53.351363" lon="-1.636226"><ele>422</ele><time>2024-04-13T12:51:04Z</time><name>PT2812</name></trkpt>
<trkpt lat="53.351398" lon="-1.636278"><ele>421</ele><time>2024-04-13T12:51:08Z</time><name>PT2813</name></trkpt>
<trkpt lat="53.351433" lon="-1.636310"><ele>421</ele><time>2024-04-13T12:51:12Z</time><name>PT2814</name></trkpt>
<trkpt lat="53.351456" lon="-1.636339"><ele>421</ele><time>2024-04-13T12:51:15Z</time><name>PT2815</name></trkpt>
<trkpt lat="53.351491" lon="-1.636383"><ele>421</ele><time>2024-04-13T12:51:19Z</time><name>PT2816</name></trkpt>
<trkpt lat="53.351526" lon="-1.636433"><ele>421</ele><time>2024-04-13T12:51:23Z</time><name>PT2817</name></trkpt>
<trkpt lat="53.351546" lon="-1.636478"><ele>421</ele><time>2024-04-13T12:51:26Z</time><name>PT2818</name></trkpt>
<trkpt lat="53.351567" lon="-1.636526"><ele>421</ele><time>2024-04-13T12:51:29Z</time><name>PT2819</name></trkpt>
<trkpt lat="53.351601" lon="-1.636579"><ele>422</ele><time>2024-04-13T12:51:33Z</time><name>PT2820</name></trkpt>
<trkpt lat="53.351634" lon="-1.636628"><ele>422</ele><time>2024-04-13T12:51:37Z</time><name>PT2821</name></trkpt>
<trkpt lat="53.351662" lon="-1.636664"><ele>422</ele><time>2024-04-13T12:51:41Z</time><name>PT2822</name></trkpt>
<trkpt lat="53.351695" lon="-1.636708"><ele>422</ele><time>2024-04-13T12:51:44Z</time><name>PT2823</name></trkpt>
<trkpt lat="53.351719" lon="-1.636741"><ele>422</ele><time>2024-04-13T12:51:47Z</time><name>PT2824</name></trkpt>
<trkpt lat="53.351758" lon="-1.636782"><ele>421</ele><time>2024-04-13T12:51:51Z</time><name>PT2825</name></trkpt>
<trkpt lat="53.351793" lon="-1.636825"><ele>421</ele><time>2024-04-13T12:51:55Z</time><name>PT2826</name></trkpt>
<trkpt lat="53.351817" lon="-1.636862"><ele>422</ele><time>2024-04-13T12:51:58Z</time><name>PT2827</name></trkpt>
<trkpt lat="53.351845" lon="-1.636908"><ele>422</ele><time>2024-04-13T12:52:02Z</time><name>PT2828</name></trkpt>
<trkpt lat="53.351871" lon="-1.636932"><ele>422</ele><time>2024-04-13T12:52:05Z</time><name>PT2829</name></trkpt>
<trkpt lat="53.351907" lon="-1.636981"><ele>422</ele><time>2024-04-13T12:52:09Z</time><name>PT2830</name></trkpt>
<trkpt lat="53.351949" lon="-1.637007"><ele>423</ele><time>2024-04-13T12:52:13Z</time><name>PT2831</name></trkpt>
<trkpt lat="53.351984" lon="-1.637025"><ele>423</ele><time>2024-04-13T12:52:17Z</time><name>PT2832</name></trkpt>
<trkpt lat="53.352018" lon="-1.637055"><ele>424</ele><time>2024-04-13T12:52:20Z</time><name>PT2833</name></trkpt>
<trkpt lat="53.352041" lon="-1.637090"><ele>424</ele><time>2024-04-13T12:52:23Z</time><name>PT2834</name></trkpt>
<trkpt lat="53.352077" lon="-1.637138"><ele>424</ele><time>2024-04-13T12:52:27Z</time><name>PT2835</name></trkpt>
<trkpt lat="53.352100" lon="-1.637163"><ele>425</ele><time>2024-04-13T12:52:30Z</time><name>PT2836</name></trkpt>
<trkpt lat="53.352106" lon="-1.637169"><ele>425</ele><time>2024-04-13T12:52:33Z</time><name>PT2837</name></trkpt>
<trkpt lat="53.352122" lon="-1.637175"><ele>424</ele><time>2024-04-13T12:52:36Z</time><name>PT2838</name></trkpt>
<trkpt lat="53.352165" lon="-1.637213"><ele>424</ele><time>2024-04-13T12:52:40Z</time><name>PT2839</name></trkpt>
<trkpt lat="53.352202" lon="-1.637229"><ele>424</ele><time>2024-04-13T12:52:43Z</time><name>PT2840</name></trkpt>
<trkpt lat="53.352248" lon="-1.637245"><ele>424</ele><time>2024-04-13T12:52:47Z</time><name>PT2841</name></trkpt>
<trkpt lat="53.352283" lon="-1.637261"><ele>424</ele><time>2024-04-13T12:52:50Z</time><name>PT2842</name></trkpt>
<trkpt lat="53.352322" lon="-1.637285"><ele>424</ele><time>2024-04-13T12:52:54Z</time><name>PT2843</name></trkpt>
<trkpt lat="53.352351" lon="-1.637323"><ele>424</ele><time>2024-04-13T12:52:58Z</time><name>PT2844</name></trkpt>
<trkpt lat="53.352372" lon="-1.637371"><ele>424</ele><time>2024-04-13T12:53:02Z</time><name>PT2845</name></trkpt>
<trkpt lat="53.352416" lon="-1.637408"><ele>424</ele><time>2024-04-13T12:53:06Z</time><name>PT2846</name></trkpt>
<trkpt lat="53.352440" lon="-1.637446"><ele>424</ele><time>2024-04-13T12:53:09Z</time><name>PT2847</name></trkpt>
<trkpt lat="53.352461" lon="-1.637479"><ele>424</ele><time>2024-04-13T12:53:12Z</time><name>PT2848</name></trkpt>
<trkpt lat="53.352494" lon="-1.637512"><ele>424</ele><time>2024-04-13T12:53:16Z</time><name>PT2849</name></trkpt>
<trkpt lat="53.352521" lon="-1.637547"><ele>425</ele><time>2024-04-13T12:53:20Z</time><name>PT2850</name></trkpt>
<trkpt lat="53.352552" lon="-1.637586"><ele>425</ele><time>2024-04-13T12:53:23Z</time><name>PT2851</name></trkpt>
<trkpt lat="53.352580" lon="-1.637618"><ele>425</ele><time>2024-04-13T12:53:26Z</time><name>PT2852</name></trkpt>
<trkpt lat="53.352617" lon="-1.637647"><ele>425</ele><time>2024-04-13T12:53:30Z</time><name>PT2853</name></trkpt>
<trkpt lat="53.352644" lon="-1.637636"><ele>425</ele><time>2024-04-13T12:53:35Z</time><name>PT2854</name></trkpt>
<trkpt lat="53.352656" lon="-1.637617"><ele>424</ele><time>2024-04-13T12:53:38Z</time><name>PT2855</name></trkpt>
<trkpt lat="53.352664" lon="-1.637619"><ele>425</ele><time>2024-04-13T12:53:41Z</time><name>PT2856</name></trkpt>
<trkpt lat="53.352691" lon="-1.637645"><ele>425</ele><time>2024-04-13T12:53:45Z</time><name>PT2857</name></trkpt>
<trkpt lat="53.352724" lon="-1.637683"><ele>425</ele><time>2024-04-13T12:53:49Z</time><name>PT2858</name></trkpt>
<trkpt lat="53.352749" lon="-1.637715"><ele>425</ele><time>2024-04-13T12:53:52Z</time><name>PT2859</name></trkpt>
<trkpt lat="53.352785" lon="-1.637757"><ele>425</ele><time>2024-04-13T12:53:56Z</time><name>PT2860</name></trkpt>
<trkpt lat="53.352826" lon="-1.637788"><ele>426</ele><time>2024-04-13T12:54:00Z</time><name>PT2861</name></trkpt>
<trkpt lat="53.352859" lon="-1.637839"><ele>427</ele><time>2024-04-13T12:54:03Z</time><name>PT2862</name></trkpt>
<trkpt lat="53.352897" lon="-1.637884"><ele>428</ele><time>2024-04-13T12:54:07Z</time><name>PT2863</name></trkpt>
<trkpt lat="53.352919" lon="-1.637924"><ele>429</ele><time>2024-04-13T12:54:11Z</time><name>PT2864</name></trkpt>
<trkpt lat="53.352946" lon="-1.637982"><ele>429</ele><time>2024-04-13T12:54:14Z</time><name>PT2865</name></trkpt>
<trkpt lat="53.352985" lon="-1.638018"><ele>430</ele><time>2024-04-13T12:54:18Z</time><name>PT2866</name></trkpt>
<trkpt lat="53.353013" lon="-1.638041"><ele>430</ele><time>2024-04-13T12:54:21Z</time><name>PT2867</name></trkpt>
<trkpt lat="53.353040" lon="-1.638083"><ele>429</ele><time>2024-04-13T12:54:24Z</time><name>PT2868</name></trkpt>
<trkpt lat="53.353075" lon="-1.638129"><ele>429</ele><time>2024-04-13T12:54:28Z</time><name>PT2869</name></trkpt>
<trkpt lat="53.353110" lon="-1.638156"><ele>429</ele><time>2024-04-13T12:54:31Z</time><name>PT2870</name></trkpt>
<trkpt lat="53.353140" lon="-1.638198"><ele>429</ele><time>2024-04-13T12:54:34Z</time><name>PT2871</name></trkpt>
<trkpt lat="53.353172" lon="-1.638258"><ele>430</ele><time>2024-04-13T12:54:38Z</time><name>PT2872</name></trkpt>
<trkpt lat="53.353197" lon="-1.638309"><ele>430</ele><time>2024-04-13T12:54:41Z</time><name>PT2873</name></trkpt>
<trkpt lat="53.353235" lon="-1.638348"><ele>430</ele><time>2024-04-13T12:54:45Z</time><name>PT2874</name></trkpt>
<trkpt lat="53.353255" lon="-1.638398"><ele>430</ele><time>2024-04-13T12:54:48Z</time><name>PT2875</name></trkpt>
<trkpt lat="53.353289" lon="-1.638460"><ele>431</ele><time>2024-04-13T12:54:52Z</time><name>PT2876</name></trkpt>
<trkpt lat="53.353310" lon="-1.638487"><ele>431</ele><time>2024-04-13T12:54:55Z</time><name>PT2877</name></trkpt>
<trkpt lat="53.353338" lon="-1.638521"><ele>430</ele><time>2024-04-13T12:54:59Z</time><name>PT2878</name></trkpt>
<trkpt lat="53.353377" lon="-1.638572"><ele>430</ele><time>2024-04-13T12:55:03Z</time><name>PT2879</name></trkpt>
<trkpt lat="53.353407" lon="-1.638619"><ele>430</ele><time>2024-04-13T12:55:06Z</time><name>PT2880</name></trkpt>
<trkpt lat="53.353441" lon="-1.638656"><ele>430</ele><time>2024-04-13T12:55:09Z</time><name>PT2881</name></trkpt>
<trkpt lat="53.353485" lon="-1.638700"><ele>429</ele><time>2024-04-13T12:55:14Z</time><name>PT2882</name></trkpt>
<trkpt lat="53.353528" lon="-1.638755"><ele>429</ele><time>2024-04-13T12:55:17Z</time><name>PT2883</name></trkpt>
<trkpt lat="53.353561" lon="-1.638798"><ele>430</ele><time>2024-04-13T12:55:20Z</time><name>PT2884</name></trkpt>
<trkpt lat="53.353601" lon="-1.638860"><ele>430</ele><time>2024-04-13T12:55:24Z</time><name>PT2885</name></trkpt>
<trkpt lat="53.353628" lon="-1.638892"><ele>430</ele><time>2024-04-13T12:55:27Z</time><name>PT2886</name></trkpt>
<trkpt lat="53.353659" lon="-1.638915"><ele>430</ele><time>2024-04-13T12:55:30Z</time><name>PT2887</name></trkpt>
<trkpt lat="53.353691" lon="-1.638941"><ele>430</ele><time>2024-04-13T12:55:33Z</time><name>PT2888</name></trkpt>
<trkpt lat="53.353725" lon="-1.638961"><ele>430</ele><time>2024-04-13T12:55:36Z</time><name>PT2889</name></trkpt>
<trkpt lat="53.353769" lon="-1.638987"><ele>430</ele><time>2024-04-13T12:55:40Z</time><name>PT2890</name></trkpt>
<trkpt lat="53.353798" lon="-1.639008"><ele>430</ele><time>2024-04-13T12:55:43Z</time><name>PT2891</name></trkpt>
<trkpt lat="53.353834" lon="-1.639056"><ele>429</ele><time>2024-04-13T12:55:47Z</time><name>PT2892</name></trkpt>
<trkpt lat="53.353873" lon="-1.639106"><ele>429</ele><time>2024-04-13T12:55:51Z</time><name>PT2893</name></trkpt>
<trkpt lat="53.353916" lon="-1.639152"><ele>429</ele><time>2024-04-13T12:55:55Z</time><name>PT2894</name></trkpt>
<trkpt lat="53.353946" lon="-1.639177"><ele>429</ele><time>2024-04-13T12:55:58Z</time><name>PT2895</name></trkpt>
<trkpt lat="53.353976" lon="-1.639234"><ele>430</ele><time>2024-04-13T12:56:02Z</time><name>PT2896</name></trkpt>
<trkpt lat="53.354021" lon="-1.639264"><ele>430</ele><time>2024-04-13T12:56:06Z</time><name>PT2897</name></trkpt>
<trkpt lat="53.354059" lon="-1.639310"><ele>430</ele><time>2024-04-13T12:56:10Z</time><name>PT2898</name></trkpt>
<trkpt lat="53.354088" lon="-1.639325"><ele>430</ele><time>2024-04-13T12:56:13Z</time><name>PT2899</name></trkpt>
<trkpt lat="53.354123" lon="-1.639336"><ele>430</ele><time>2024-04-13T12:56:17Z</time><name>PT2900</name></trkpt>
<trkpt lat="53.354160" lon="-1.639376"><ele>429</ele><time>2024-04-13T12:56:20Z</time><name>PT2901</name></trkpt>
<trkpt lat="53.354198" lon="-1.639417"><ele>429</ele><time>2024-04-13T12:56:24Z</time><name>PT2902</name></trkpt>
<trkpt lat="53.354227" lon="-1.639449"><ele>429</ele><time>2024-04-13T12:56:27Z</time><name>PT2903</name></trkpt>
<trkpt lat="53.354261" lon="-1.639473"><ele>429</ele><time>2024-04-13T12:56:30Z</time><name>PT2904</name></trkpt>
<trkpt lat="53.354289" lon="-1.639511"><ele>429</ele><time>2024-04-13T12:56:33Z</time><name>PT2905</name></trkpt>
<trkpt lat="53.354324" lon="-1.639561"><ele>428</ele><time>2024-04-13T12:56:37Z</time><name>PT2906</name></trkpt>
<trkpt lat="53.354354" lon="-1.639588"><ele>427</ele><time>2024-04-13T12:56:40Z</time><name>PT2907</name></trkpt>
<trkpt lat="53.354386" lon="-1.639621"><ele>427</ele><time>2024-04-13T12:56:43Z</time><name>PT2908</name></trkpt>
<trkpt lat="53.354431" lon="-1.639660"><ele>426</ele><time>2024-04-13T12:56:47Z</time><name>PT2909</name></trkpt>
<trkpt lat="53.354461" lon="-1.639686"><ele>426</ele><time>2024-04-13T12:56:50Z</time><name>PT2910</name></trkpt>
<trkpt lat="53.354497" lon="-1.639711"><ele>427</ele><time>2024-04-13T12:56:53Z</time><name>PT2911</name></trkpt>
<trkpt lat="53.354534" lon="-1.639725"><ele>426</ele><time>2024-04-13T12:56:57Z</time><name>PT2912</name></trkpt>
<trkpt lat="53.354565" lon="-1.639734"><ele>425</ele><time>2024-04-13T12:57:00Z</time><name>PT2913</name></trkpt>
<trkpt lat="53.354599" lon="-1.639764"><ele>425</ele><time>2024-04-13T12:57:04Z</time><name>PT2914</name></trkpt>
<trkpt lat="53.354629" lon="-1.639789"><ele>425</ele><time>2024-04-13T12:57:08Z</time><name>PT2915</name></trkpt>
<trkpt lat="53.354657" lon="-1.639814"><ele>425</ele><time>2024-04-13T12:57:11Z</time><name>PT2916</name></trkpt>
<trkpt lat="53.354683" lon="-1.639841"><ele>425</ele><time>2024-04-13T12:57:14Z</time><name>PT2917</name></trkpt>
<trkpt lat="53.354726" lon="-1.639863"><ele>425</ele><time>2024-04-13T12:57:18Z</time><name>PT2918</name></trkpt>
<trkpt lat="53.354766" lon="-1.639897"><ele>425</ele><time>2024-04-13T12:57:22Z</time><name>PT2919</name></trkpt>
<trkpt lat="53.354796" lon="-1.639916"><ele>426</ele><time>2024-04-13T12:57:25Z</time><name>PT2920</name></trkpt>
<trkpt lat="53.354830" lon="-1.639951"><ele>425</ele><time>2024-04-13T12:57:29Z</time><name>PT2921</name></trkpt>
<trkpt lat="53.354859" lon="-1.639984"><ele>426</ele><time>2024-04-13T12:57:32Z</time><name>PT2922</name></trkpt>
<trkpt lat="53.354888" lon="-1.640003"><ele>426</ele><time>2024-04-13T12:57:35Z</time><name>PT2923</name></trkpt>
<trkpt lat="53.354925" lon="-1.640050"><ele>426</ele><time>2024-04-13T12:57:39Z</time><name>PT2924</name></trkpt>
<trkpt lat="53.354962" lon="-1.640092"><ele>426</ele><time>2024-04-13T12:57:43Z</time><name>PT2925</name></trkpt>
<trkpt lat="53.354999" lon="-1.640115"><ele>427</ele><time>2024-04-13T12:57:46Z</time><name>PT2926</name></trkpt>
<trkpt lat="53.355045" lon="-1.640160"><ele>426</ele><time>2024-04-13T12:57:50Z</time><name>PT2927</name></trkpt>
<trkpt lat="53.355069" lon="-1.640197"><ele>426</ele><time>2024-04-13T12:57:53Z</time><name>PT2928</name></trkpt>
<trkpt lat="53.355097" lon="-1.640255"><ele>426</ele><time>2024-04-13T12:57:57Z</time><name>PT2929</name></trkpt>
<trkpt lat="53.355129" lon="-1.640293"><ele>425</ele><time>2024-04-13T12:58:01Z</time><name>PT2930</name></trkpt>
<trkpt lat="53.355163" lon="-1.640314"><ele>425</ele><time>2024-04-13T12:58:04Z</time><name>PT2931</name></trkpt>
<trkpt lat="53.355200" lon="-1.640353"><ele>425</ele><time>2024-04-13T12:58:08Z</time><name>PT2932</name></trkpt>
<trkpt lat="53.355244" lon="-1.640368"><ele>425</ele><time>2024-04-13T12:58:12Z</time><name>PT2933</name></trkpt>
<trkpt lat="53.355268" lon="-1.640404"><ele>425</ele><time>2024-04-13T12:58:15Z</time><name>PT2934</name></trkpt>
<trkpt lat="53.355294" lon="-1.640425"><ele>426</ele><time>2024-04-13T12:58:18Z</time><name>PT2935</name></trkpt>
<trkpt lat="53.355331" lon="-1.640484"><ele>425</ele><time>2024-04-13T12:58:23Z</time><name>PT2936</name></trkpt>
<trkpt lat="53.355365" lon="-1.640523"><ele>426</ele><time>2024-04-13T12:58:26Z</time><name>PT2937</name></trkpt>
<trkpt lat="53.355408" lon="-1.640570"><ele>425</ele><time>2024-04-13T12:58:30Z</time><name>PT2938</name></trkpt>
<trkpt lat="53.355454" lon="-1.640609"><ele>425</ele><time>2024-04-13T12:58:35Z</time><name>PT2939</name></trkpt>
<trkpt lat="53.355499" lon="-1.640642"><ele>425</ele><time>2024-04-13T12:58:38Z</time><name>PT2940</name></trkpt>
<trkpt lat="53.355529" lon="-1.640663"><ele>424</ele><time>2024-04-13T12:58:41Z</time><name>PT2941</name></trkpt>
<trkpt lat="53.355565" lon="-1.640690"><ele>425</ele><time>2024-04-13T12:58:44Z</time><name>PT2942</name></trkpt>
<trkpt lat="53.355599" lon="-1.640717"><ele>425</ele><time>2024-04-13T12:58:47Z</time><name>PT2943</name></trkpt>
<trkpt lat="53.355635" lon="-1.640736"><ele>425</ele><time>2024-04-13T12:58:50Z</time><name>PT2944</name></trkpt>
<trkpt lat="53.355681" lon="-1.640776"><ele>426</ele><time>2024-04-13T12:58:54Z</time><name>PT2945</name></trkpt>
<trkpt lat="53.355712" lon="-1.640810"><ele>426</ele><time>2024-04-13T12:58:57Z</time><name>PT2946</name></trkpt>
<trkpt lat="53.355740" lon="-1.640833"><ele>426</ele><time>2024-04-13T12:59:00Z</time><name>PT2947</name></trkpt>
<trkpt lat="53.355775" lon="-1.640883"><ele>426</ele><time>2024-04-13T12:59:04Z</time><name>PT2948</name></trkpt>
<trkpt lat="53.355816" lon="-1.640935"><ele>427</ele><time>2024-04-13T12:59:08Z</time><name>PT2949</name></trkpt>
<trkpt lat="53.355850" lon="-1.640964"><ele>427</ele><time>2024-04-13T12:59:11Z</time><name>PT2950</name></trkpt>
<trkpt lat="53.355882" lon="-1.641014"><ele>427</ele><time>2024-04-13T12:59:15Z</time><name>PT2951</name></trkpt>
<trkpt lat="53.355919" lon="-1.641043"><ele>426</ele><time>2024-04-13T12:59:19Z</time><name>PT2952</name></trkpt>
<trkpt lat="53.355944" lon="-1.641081"><ele>427</ele><time>2024-04-13T12:59:22Z</time><name>PT2953</name></trkpt>
<trkpt lat="53.355965" lon="-1.641125"><ele>426</ele><time>2024-04-13T12:59:25Z</time><name>PT2954</name></trkpt>
<trkpt lat="53.355993" lon="-1.641176"><ele>426</ele><time>2024-04-13T12:59:29Z</time><name>PT2955</name></trkpt>
<trkpt lat="53.356029" lon="-1.641229"><ele>423</ele><time>2024-04-13T12:59:33Z</time><name>PT2956</name></trkpt>
<trkpt lat="53.356047" lon="-1.641264"><ele>423</ele><time>2024-04-13T12:59:36Z</time><name>PT2957</name></trkpt>
<trkpt lat="53.356065" lon="-1.641304"><ele>423</ele><time>2024-04-13T12:59:40Z</time><name>PT2958</name></trkpt>
<trkpt lat="53.356085" lon="-1.641333"><ele>422</ele><time>2024-04-13T12:59:43Z</time><name>PT2959</name></trkpt>
<trkpt lat="53.356117" lon="-1.641368"><ele>422</ele><time>2024-04-13T12:59:46Z</time><name>PT2960</name></trkpt>
<trkpt lat="53.356145" lon="-1.641401"><ele>422</ele><time>2024-04-13T12:59:49Z</time><name>PT2961</name></trkpt>
<trkpt lat="53.356191" lon="-1.641468"><ele>422</ele><time>2024-04-13T12:59:53Z</time><name>PT2962</name></trkpt>
<trkpt lat="53.356226" lon="-1.641521"><ele>421</ele><time>2024-04-13T12:59:57Z</time><name>PT2963</name></trkpt>
<trkpt lat="53.356257" lon="-1.641551"><ele>422</ele><time>2024-04-13T13:00:00Z</time><name>PT2964</name></trkpt>
<trkpt lat="53.356288" lon="-1.641581"><ele>422</ele><time>2024-04-13T13:00:03Z</time><name>PT2965</name></trkpt>
<trkpt lat="53.356324" lon="-1.641634"><ele>422</ele><time>2024-04-13T13:00:07Z</time><name>PT2966</name></trkpt>
<trkpt lat="53.356345" lon="-1.641675"><ele>422</ele><time>2024-04-13T13:00:10Z</time><name>PT2967</name></trkpt>
<trkpt lat="53.356363" lon="-1.641732"><ele>422</ele><time>2024-04-13T13:00:14Z</time><name>PT2968</name></trkpt>
<trkpt lat="53.356392" lon="-1.641776"><ele>422</ele><time>2024-04-13T13:00:17Z</time><name>PT2969</name></trkpt>
<trkpt lat="53.356420" lon="-1.641819"><ele>422</ele><time>2024-04-13T13:00:20Z</time><name>PT2970</name></trkpt>
<trkpt lat="53.356460" lon="-1.641867"><ele>422</ele><time>2024-04-13T13:00:24Z</time><name>PT2971</name></trkpt>
<trkpt lat="53.356485" lon="-1.641904"><ele>423</ele><time>2024-04-13T13:00:27Z</time><name>PT2972</name></trkpt>
<trkpt lat="53.356524" lon="-1.641939"><ele>424</ele><time>2024-04-13T13:00:31Z</time><name>PT2973</name></trkpt>
<trkpt lat="53.356551" lon="-1.641971"><ele>424</ele><time>2024-04-13T13:00:34Z</time><name>PT2974</name></trkpt>
<trkpt lat="53.356587" lon="-1.642031"><ele>425</ele><time>2024-04-13T13:00:38Z</time><name>PT2975</name></trkpt>
<trkpt lat="53.356629" lon="-1.642086"><ele>424</ele><time>2024-04-13T13:00:42Z</time><name>PT2976</name></trkpt>
<trkpt lat="53.356663" lon="-1.642127"><ele>424</ele><time>2024-04-13T13:00:45Z</time><name>PT2977</name></trkpt>
<trkpt lat="53.356708" lon="-1.642171"><ele>424</ele><time>2024-04-13T13:00:49Z</time><name>PT2978</name></trkpt>
<trkpt lat="53.356743" lon="-1.642211"><ele>424</ele><time>2024-04-13T13:00:52Z</time><name>PT2979</name></trkpt>
<trkpt lat="53.356773" lon="-1.642251"><ele>425</ele><time>2024-04-13T13:00:55Z</time><name>PT2980</name></trkpt>
<trkpt lat="53.356817" lon="-1.642300"><ele>425</ele><time>2024-04-13T13:00:59Z</time><name>PT2981</name></trkpt>
<trkpt lat="53.356850" lon="-1.642336"><ele>425</ele><time>2024-04-13T13:01:02Z</time><name>PT2982</name></trkpt>
<trkpt lat="53.356895" lon="-1.642355"><ele>425</ele><time>2024-04-13T13:01:06Z</time><name>PT2983</name></trkpt>
<trkpt lat="53.356940" lon="-1.642384"><ele>425</ele><time>2024-04-13T13:01:10Z</time><name>PT2984</name></trkpt>
<trkpt lat="53.356971" lon="-1.642430"><ele>425</ele><time>2024-04-13T13:01:13Z</time><name>PT2985</name></trkpt>
<trkpt lat="53.357020" lon="-1.642482"><ele>425</ele><time>2024-04-13T13:01:17Z</time><name>PT2986</name></trkpt>
<trkpt lat="53.357053" lon="-1.642517"><ele>424</ele><time>2024-04-13T13:01:20Z</time><name>PT2987</name></trkpt>
<trkpt lat="53.357093" lon="-1.642566"><ele>424</ele><time>2024-04-13T13:01:24Z</time><name>PT2988</name></trkpt>
<trkpt lat="53.357127" lon="-1.642600"><ele>424</ele><time>2024-04-13T13:01:27Z</time><name>PT2989</name></trkpt>
<trkpt lat="53.357164" lon="-1.642660"><ele>424</ele><time>2024-04-13T13:01:31Z</time><name>PT2990</name></trkpt>
<trkpt lat="53.357204" lon="-1.642720"><ele>425</ele><time>2024-04-13T13:01:35Z</time><name>PT2991</name></trkpt>
<trkpt lat="53.357239" lon="-1.642774"><ele>425</ele><time>2024-04-13T13:01:39Z</time><name>PT2992</name></trkpt>
<trkpt lat="53.357274" lon="-1.642821"><ele>425</ele><time>2024-04-13T13:01:42Z</time><name>PT2993</name></trkpt>
<trkpt lat="53.357314" lon="-1.642874"><ele>425</ele><time>2024-04-13T13:01:46Z</time><name>PT2994</name></trkpt>
<trkpt lat="53.357345" lon="-1.642928"><ele>424</ele><time>2024-04-13T13:01:50Z</time><name>PT2995</name></trkpt>
<trkpt lat="53.357381" lon="-1.642990"><ele>424</ele><time>2024-04-13T13:01:54Z</time><name>PT2996</name></trkpt>
<trkpt lat="53.357412" lon="-1.643028"><ele>423</ele><time>2024-04-13T13:01:57Z</time><name>PT2997</name></trkpt>
<trkpt lat="53.357449" lon="-1.643055"><ele>423</ele><time>2024-04-13T13:02:00Z</time><name>PT2998</name></trkpt>
<trkpt lat="53.357498" lon="-1.643081"><ele>423</ele><time>2024-04-13T13:02:04Z</time><name>PT2999</name></trkpt>
<trkpt lat="53.357542" lon="-1.643095"><ele>423</ele><time>2024-04-13T13:02:08Z</time><name>PT3000</name></trkpt>
<trkpt lat="53.357571" lon="-1.643132"><ele>423</ele><time>2024-04-13T13:02:11Z</time><name>PT3001</name></trkpt>
<trkpt lat="53.357612" lon="-1.643194"><ele>422</ele><time>2024-04-13T13:02:15Z</time><name>PT3002</name></trkpt>
<trkpt lat="53.357640" lon="-1.643243"><ele>421</ele><time>2024-04-13T13:02:18Z</time><name>PT3003</name></trkpt>
<trkpt lat="53.357675" lon="-1.643297"><ele>421</ele><time>2024-04-13T13:02:21Z</time><name>PT3004</name></trkpt>
<trkpt lat="53.357714" lon="-1.643355"><ele>421</ele><time>2024-04-13T13:02:25Z</time><name>PT3005</name></trkpt>
<trkpt lat="53.357750" lon="-1.643428"><ele>420</ele><time>2024-04-13T13:02:29Z</time><name>PT3006</name></trkpt>
<trkpt lat="53.357786" lon="-1.643494"><ele>420</ele><time>2024-04-13T13:02:33Z</time><name>PT3007</name></trkpt>
<trkpt lat="53.357818" lon="-1.643543"><ele>420</ele><time>2024-04-13T13:02:36Z</time><name>PT3008</name></trkpt>
<trkpt lat="53.357848" lon="-1.643590"><ele>419</ele><time>2024-04-13T13:02:39Z</time><name>PT3009</name></trkpt>
<trkpt lat="53.357885" lon="-1.643652"><ele>419</ele><time>2024-04-13T13:02:43Z</time><name>PT3010</name></trkpt>
<trkpt lat="53.357911" lon="-1.643706"><ele>419</ele><time>2024-04-13T13:02:47Z</time><name>PT3011</name></trkpt>
<trkpt lat="53.357942" lon="-1.643766"><ele>418</ele><time>2024-04-13T13:02:50Z</time><name>PT3012</name></trkpt>
<trkpt lat="53.357970" lon="-1.643812"><ele>417</ele><time>2024-04-13T13:02:53Z</time><name>PT3013</name></trkpt>
<trkpt lat="53.358003" lon="-1.643877"><ele>416</ele><time>2024-04-13T13:02:57Z</time><name>PT3014</name></trkpt>
<trkpt lat="53.358033" lon="-1.643923"><ele>415</ele><time>2024-04-13T13:03:00Z</time><name>PT3015</name></trkpt>
<trkpt lat="53.358058" lon="-1.643965"><ele>414</ele><time>2024-04-13T13:03:03Z</time><name>PT3016</name></trkpt>
<trkpt lat="53.358084" lon="-1.644005"><ele>414</ele><time>2024-04-13T13:03:06Z</time><name>PT3017</name></trkpt>
<trkpt lat="53.358127" lon="-1.644058"><ele>413</ele><time>2024-04-13T13:03:10Z</time><name>PT3018</name></trkpt>
<trkpt lat="53.358155" lon="-1.644089"><ele>411</ele><time>2024-04-13T13:03:13Z</time><name>PT3019</name></trkpt>
<trkpt lat="53.358194" lon="-1.644145"><ele>410</ele><time>2024-04-13T13:03:17Z</time><name>PT3020</name></trkpt>
<trkpt lat="53.358235" lon="-1.644208"><ele>409</ele><time>2024-04-13T13:03:21Z</time><name>PT3021</name></trkpt>
<trkpt lat="53.358260" lon="-1.644261"><ele>409</ele><time>2024-04-13T13:03:24Z</time><name>PT3022</name></trkpt>
<trkpt lat="53.358290" lon="-1.644331"><ele>409</ele><time>2024-04-13T13:03:28Z</time><name>PT3023</name></trkpt>
<trkpt lat="53.358311" lon="-1.644404"><ele>407</ele><time>2024-04-13T13:03:32Z</time><name>PT3024</name></trkpt>
<trkpt lat="53.358339" lon="-1.644485"><ele>407</ele><time>2024-04-13T13:03:36Z</time><name>PT3025</name></trkpt>
<trkpt lat="53.358366" lon="-1.644552"><ele>406</ele><time>2024-04-13T13:03:40Z</time><name>PT3026</name></trkpt>
<trkpt lat="53.358386" lon="-1.644612"><ele>407</ele><time>2024-04-13T13:03:43Z</time><name>PT3027</name></trkpt>
<trkpt lat="53.358416" lon="-1.644697"><ele>407</ele><time>2024-04-13T13:03:47Z</time><name>PT3028</name></trkpt>
<trkpt lat="53.358441" lon="-1.644767"><ele>406</ele><time>2024-04-13T13:03:51Z</time><name>PT3029</name></trkpt>
<trkpt lat="53.358461" lon="-1.644818"><ele>406</ele><time>2024-04-13T13:03:54Z</time><name>PT3030</name></trkpt>
<trkpt lat="53.358489" lon="-1.644886"><ele>405</ele><time>2024-04-13T13:03:58Z</time><name>PT3031</name></trkpt>
<trkpt lat="53.358506" lon="-1.644949"><ele>404</ele><time>2024-04-13T13:04:01Z</time><name>PT3032</name></trkpt>
<trkpt lat="53.358525" lon="-1.645009"><ele>404</ele><time>2024-04-13T13:04:04Z</time><name>PT3033</name></trkpt>
<trkpt lat="53.358547" lon="-1.645062"><ele>404</ele><time>2024-04-13T13:04:07Z</time><name>PT3034</name></trkpt>
<trkpt lat="53.358581" lon="-1.645133"><ele>403</ele><time>2024-04-13T13:04:11Z</time><name>PT3035</name></trkpt>
<trkpt lat="53.358605" lon="-1.645186"><ele>402</ele><time>2024-04-13T13:04:14Z</time><name>PT3036</name></trkpt>
<trkpt lat="53.358644" lon="-1.645242"><ele>402</ele><time>2024-04-13T13:04:18Z</time><name>PT3037</name></trkpt>
<trkpt lat="53.358681" lon="-1.645294"><ele>401</ele><time>2024-04-13T13:04:22Z</time><name>PT3038</name></trkpt>
<trkpt lat="53.358707" lon="-1.645337"><ele>400</ele><time>2024-04-13T13:04:25Z</time><name>PT3039</name></trkpt>
<trkpt lat="53.358737" lon="-1.645362"><ele>398</ele><time>2024-04-13T13:04:28Z</time><name>PT3040</name></trkpt>
<trkpt lat="53.358770" lon="-1.645398"><ele>396</ele><time>2024-04-13T13:04:32Z</time><name>PT3041</name></trkpt>
<trkpt lat="53.358795" lon="-1.645456"><ele>396</ele><time>2024-04-13T13:04:35Z</time><name>PT3042</name></trkpt>
<trkpt lat="53.358831" lon="-1.645501"><ele>396</ele><time>2024-04-13T13:04:39Z</time><name>PT3043</name></trkpt>
<trkpt lat="53.358861" lon="-1.645573"><ele>395</ele><time>2024-04-13T13:04:43Z</time><name>PT3044</name></trkpt>
<trkpt lat="53.358873" lon="-1.645631"><ele>395</ele><time>2024-04-13T13:04:46Z</time><name>PT3045</name></trkpt>
<trkpt lat="53.358908" lon="-1.645711"><ele>395</ele><time>2024-04-13T13:04:50Z</time><name>PT3046</name></trkpt>
<trkpt lat="53.358941" lon="-1.645769"><ele>394</ele><time>2024-04-13T13:04:54Z</time><name>PT3047</name></trkpt>
<trkpt lat="53.358967" lon="-1.645808"><ele>394</ele><time>2024-04-13T13:04:57Z</time><name>PT3048</name></trkpt>
<trkpt lat="53.358983" lon="-1.645854"><ele>393</ele><time>2024-04-13T13:05:00Z</time><name>PT3049</name></trkpt>
<trkpt lat="53.359007" lon="-1.645904"><ele>392</ele><time>2024-04-13T13:05:03Z</time><name>PT3050</name></trkpt>
<trkpt lat="53.359031" lon="-1.645971"><ele>390</ele><time>2024-04-13T13:05:07Z</time><name>PT3051</name></trkpt>
<trkpt lat="53.359053" lon="-1.646046"><ele>389</ele><time>2024-04-13T13:05:11Z</time><name>PT3052</name></trkpt>
<trkpt lat="53.359068" lon="-1.646104"><ele>389</ele><time>2024-04-13T13:05:14Z</time><name>PT3053</name></trkpt>
<trkpt lat="53.359090" lon="-1.646158"><ele>388</ele><time>2024-04-13T13:05:17Z</time><name>PT3054</name></trkpt>
<trkpt lat="53.359119" lon="-1.646238"><ele>388</ele><time>2024-04-13T13:05:21Z</time><name>PT3055</name></trkpt>
<trkpt lat="53.359143" lon="-1.646321"><ele>388</ele><time>2024-04-13T13:05:25Z</time><name>PT3056</name></trkpt>
<trkpt lat="53.359174" lon="-1.646401"><ele>387</ele><time>2024-04-13T13:05:29Z</time><name>PT3057</name></trkpt>
<trkpt lat="53.359193" lon="-1.646459"><ele>387</ele><time>2024-04-13T13:05:32Z</time><name>PT3058</name></trkpt>
<trkpt lat="53.359215" lon="-1.646521"><ele>387</ele><time>2024-04-13T13:05:35Z</time><name>PT3059</name></trkpt>
<trkpt lat="53.359237" lon="-1.646578"><ele>387</ele><time>2024-04-13T13:05:38Z</time><name>PT3060</name></trkpt>
<trkpt lat="53.359259" lon="-1.646653"><ele>387</ele><time>2024-04-13T13:05:42Z</time><name>PT3061</name></trkpt>
<trkpt lat="53.359283" lon="-1.646689"><ele>387</ele><time>2024-04-13T13:05:45Z</time><name>PT3062</name></trkpt>
<trkpt lat="53.359309" lon="-1.646756"><ele>386</ele><time>2024-04-13T13:05:49Z</time><name>PT3063</name></trkpt>
<trkpt lat="53.359329" lon="-1.646809"><ele>386</ele><time>2024-04-13T13:05:52Z</time><name>PT3064</name></trkpt>
<trkpt lat="53.359351" lon="-1.646866"><ele>386</ele><time>2024-04-13T13:05:55Z</time><name>PT3065</name></trkpt>
<trkpt lat="53.359374" lon="-1.646938"><ele>386</ele><time>2024-04-13T13:05:59Z</time><name>PT3066</name></trkpt>
<trkpt lat="53.359395" lon="-1.647015"><ele>385</ele><time>2024-04-13T13:06:03Z</time><name>PT3067</name></trkpt>
<trkpt lat="53.359421" lon="-1.647063"><ele>384</ele><time>2024-04-13T13:06:06Z</time><name>PT3068</name></trkpt>
<trkpt lat="53.359438" lon="-1.647137"><ele>385</ele><time>2024-04-13T13:06:09Z</time><name>PT3069</name></trkpt>
<trkpt lat="53.359456" lon="-1.647216"><ele>385</ele><time>2024-04-13T13:06:13Z</time><name>PT3070</name></trkpt>
<trkpt lat="53.359476" lon="-1.647298"><ele>385</ele><time>2024-04-13T13:06:17Z</time><name>PT3071</name></trkpt>
<trkpt lat="53.359498" lon="-1.647386"><ele>385</ele><time>2024-04-13T13:06:21Z</time><name>PT3072</name></trkpt>
<trkpt lat="53.359522" lon="-1.647472"><ele>385</ele><time>2024-04-13T13:06:25Z</time><name>PT3073</name></trkpt>
<trkpt lat="53.359544" lon="-1.647549"><ele>385</ele><time>2024-04-13T13:06:29Z</time><name>PT3074</name></trkpt>
<trkpt lat="53.359560" lon="-1.647606"><ele>384</ele><time>2024-04-13T13:06:32Z</time><name>PT3075</name></trkpt>
<trkpt lat="53.359582" lon="-1.647660"><ele>385</ele><time>2024-04-13T13:06:35Z</time><name>PT3076</name></trkpt>
<trkpt lat="53.359605" lon="-1.647739"><ele>386</ele><time>2024-04-13T13:06:39Z</time><name>PT3077</name></trkpt>
<trkpt lat="53.359621" lon="-1.647805"><ele>385</ele><time>2024-04-13T13:06:42Z</time><name>PT3078</name></trkpt>
<trkpt lat="53.359642" lon="-1.647888"><ele>384</ele><time>2024-04-13T13:06:46Z</time><name>PT3079</name></trkpt>
<trkpt lat="53.359658" lon="-1.647953"><ele>384</ele><time>2024-04-13T13:06:50Z</time><name>PT3080</name></trkpt>
<trkpt lat="53.359663" lon="-1.647993"><ele>384</ele><time>2024-04-13T13:06:54Z</time><name>PT3081</name></trkpt>
<trkpt lat="53.359667" lon="-1.648009"><ele>384</ele><time>2024-04-13T13:06:57Z</time><name>PT3082</name></trkpt>
<trkpt lat="53.359658" lon="-1.648016"><ele>385</ele><time>2024-04-13T13:07:01Z</time><name>PT3083</name></trkpt>
<trkpt lat="53.359662" lon="-1.648024"><ele>385</ele><time>2024-04-13T13:07:04Z</time><name>PT3084</name></trkpt>
<trkpt lat="53.359667" lon="-1.648026"><ele>385</ele><time>2024-04-13T13:07:08Z</time><name>PT3085</name></trkpt>
<trkpt lat="53.359668" lon="-1.648020"><ele>386</ele><time>2024-04-13T13:07:11Z</time><name>PT3086</name></trkpt>
<trkpt lat="53.359668" lon="-1.648025"><ele>385</ele><time>2024-04-13T13:07:15Z</time><name>PT3087</name></trkpt>
<trkpt lat="53.359669" lon="-1.648023"><ele>386</ele><time>2024-04-13T13:07:19Z</time><name>PT3088</name></trkpt>
<trkpt lat="53.359671" lon="-1.648023"><ele>386</ele><time>2024-04-13T13:07:47Z</time><name>PT3089</name></trkpt>
<trkpt lat="53.359672" lon="-1.648023"><ele>386</ele><time>2024-04-13T13:07:51Z</time><name>PT3090</name></trkpt>
<trkpt lat="53.359668" lon="-1.648024"><ele>386</ele><time>2024-04-13T13:08:09Z</time><name>PT3091</name></trkpt>
<trkpt lat="53.359678" lon="-1.648019"><ele>387</ele><time>2024-04-13T13:08:39Z</time><name>PT3092</name></trkpt>
<trkpt lat="53.359679" lon="-1.648025"><ele>387</ele><time>2024-04-13T13:08:43Z</time><name>PT3093</name></trkpt>
<trkpt lat="53.359678" lon="-1.648031"><ele>387</ele><time>2024-04-13T13:08:47Z</time><name>PT3094</name></trkpt>
<trkpt lat="53.359683" lon="-1.648033"><ele>388</ele><time>2024-04-13T13:09:30Z</time><name>PT3095</name></trkpt>
<trkpt lat="53.359688" lon="-1.648032"><ele>387</ele><time>2024-04-13T13:09:34Z</time><name>PT3096</name></trkpt>
<trkpt lat="53.359694" lon="-1.648031"><ele>387</ele><time>2024-04-13T13:09:38Z</time><name>PT3097</name></trkpt>
<trkpt lat="53.359693" lon="-1.648033"><ele>387</ele><time>2024-04-13T13:10:01Z</time><name>PT3098</name></trkpt>
<trkpt lat="53.359692" lon="-1.648031"><ele>388</ele><time>2024-04-13T13:10:04Z</time><name>PT3099</name></trkpt>
<trkpt lat="53.359694" lon="-1.648033"><ele>387</ele><time>2024-04-13T13:10:11Z</time><name>PT3100</name></trkpt>
<trkpt lat="53.359694" lon="-1.648023"><ele>388</ele><time>2024-04-13T13:10:15Z</time><name>PT3101</name></trkpt>
<trkpt lat="53.359696" lon="-1.648029"><ele>388</ele><time>2024-04-13T13:10:19Z</time><name>PT3102</name></trkpt>
<trkpt lat="53.359694" lon="-1.648031"><ele>387</ele><time>2024-04-13T13:10:31Z</time><name>PT3103</name></trkpt>
<trkpt lat="53.359700" lon="-1.648081"><ele>387</ele><time>2024-04-13T13:10:34Z</time><name>PT3104</name></trkpt>
<trkpt lat="53.359706" lon="-1.648161"><ele>387</ele><time>2024-04-13T13:10:38Z</time><name>PT3105</name></trkpt>
<trkpt lat="53.359719" lon="-1.648206"><ele>387</ele><time>2024-04-13T13:10:41Z</time><name>PT3106</name></trkpt>
<trkpt lat="53.359722" lon="-1.648295"><ele>386</ele><time>2024-04-13T13:10:45Z</time><name>PT3107</name></trkpt>
<trkpt lat="53.359742" lon="-1.648372"><ele>386</ele><time>2024-04-13T13:10:49Z</time><name>PT3108</name></trkpt>
<trkpt lat="53.359758" lon="-1.648450"><ele>385</ele><time>2024-04-13T13:10:53Z</time><name>PT3109</name></trkpt>
<trkpt lat="53.359763" lon="-1.648534"><ele>386</ele><time>2024-04-13T13:10:57Z</time><name>PT3110</name></trkpt>
<trkpt lat="53.359772" lon="-1.648607"><ele>385</ele><time>2024-04-13T13:11:01Z</time><name>PT3111</name></trkpt>
<trkpt lat="53.359778" lon="-1.648665"><ele>385</ele><time>2024-04-13T13:11:04Z</time><name>PT3112</name></trkpt>
<trkpt lat="53.359783" lon="-1.648760"><ele>385</ele><time>2024-04-13T13:11:08Z</time><name>PT3113</name></trkpt>
<trkpt lat="53.359780" lon="-1.648833"><ele>385</ele><time>2024-04-13T13:11:12Z</time><name>PT3114</name></trkpt>
<trkpt lat="53.359787" lon="-1.648902"><ele>384</ele><time>2024-04-13T13:11:16Z</time><name>PT3115</name></trkpt>
<trkpt lat="53.359791" lon="-1.648950"><ele>383</ele><time>2024-04-13T13:11:19Z</time><name>PT3116</name></trkpt>
<trkpt lat="53.359798" lon="-1.649023"><ele>382</ele><time>2024-04-13T13:11:23Z</time><name>PT3117</name></trkpt>
<trkpt lat="53.359805" lon="-1.649074"><ele>381</ele><time>2024-04-13T13:11:26Z</time><name>PT3118</name></trkpt>
<trkpt lat="53.359810" lon="-1.649140"><ele>379</ele><time>2024-04-13T13:11:29Z</time><name>PT3119</name></trkpt>
<trkpt lat="53.359808" lon="-1.649231"><ele>378</ele><time>2024-04-13T13:11:33Z</time><name>PT3120</name></trkpt>
<trkpt lat="53.359810" lon="-1.649292"><ele>377</ele><time>2024-04-13T13:11:36Z</time><name>PT3121</name></trkpt>
<trkpt lat="53.359813" lon="-1.649384"><ele>377</ele><time>2024-04-13T13:11:40Z</time><name>PT3122</name></trkpt>
<trkpt lat="53.359818" lon="-1.649459"><ele>377</ele><time>2024-04-13T13:11:43Z</time><name>PT3123</name></trkpt>
<trkpt lat="53.359814" lon="-1.649555"><ele>377</ele><time>2024-04-13T13:11:47Z</time><name>PT3124</name></trkpt>
<trkpt lat="53.359816" lon="-1.649628"><ele>377</ele><time>2024-04-13T13:11:51Z</time><name>PT3125</name></trkpt>
<trkpt lat="53.359814" lon="-1.649687"><ele>376</ele><time>2024-04-13T13:11:54Z</time><name>PT3126</name></trkpt>
<trkpt lat="53.359809" lon="-1.649791"><ele>376</ele><time>2024-04-13T13:11:58Z</time><name>PT3127</name></trkpt>
<trkpt lat="53.359803" lon="-1.649866"><ele>376</ele><time>2024-04-13T13:12:01Z</time><name>PT3128</name></trkpt>
<trkpt lat="53.359799" lon="-1.649947"><ele>375</ele><time>2024-04-13T13:12:05Z</time><name>PT3129</name></trkpt>
<trkpt lat="53.359786" lon="-1.650045"><ele>376</ele><time>2024-04-13T13:12:08Z</time><name>PT3130</name></trkpt>
<trkpt lat="53.359779" lon="-1.650140"><ele>375</ele><time>2024-04-13T13:12:12Z</time><name>PT3131</name></trkpt>
<trkpt lat="53.359776" lon="-1.650217"><ele>375</ele><time>2024-04-13T13:12:15Z</time><name>PT3132</name></trkpt>
<trkpt lat="53.359775" lon="-1.650295"><ele>374</ele><time>2024-04-13T13:12:19Z</time><name>PT3133</name></trkpt>
<trkpt lat="53.359770" lon="-1.650368"><ele>373</ele><time>2024-04-13T13:12:22Z</time><name>PT3134</name></trkpt>
<trkpt lat="53.359775" lon="-1.650451"><ele>372</ele><time>2024-04-13T13:12:26Z</time><name>PT3135</name></trkpt>
<trkpt lat="53.359778" lon="-1.650513"><ele>371</ele><time>2024-04-13T13:12:30Z</time><name>PT3136</name></trkpt>
<trkpt lat="53.359775" lon="-1.650570"><ele>370</ele><time>2024-04-13T13:12:33Z</time><name>PT3137</name></trkpt>
<trkpt lat="53.359774" lon="-1.650644"><ele>369</ele><time>2024-04-13T13:12:36Z</time><name>PT3138</name></trkpt>
<trkpt lat="53.359766" lon="-1.650721"><ele>367</ele><time>2024-04-13T13:12:39Z</time><name>PT3139</name></trkpt>
<trkpt lat="53.359750" lon="-1.650818"><ele>367</ele><time>2024-04-13T13:12:43Z</time><name>PT3140</name></trkpt>
<trkpt lat="53.359745" lon="-1.650904"><ele>367</ele><time>2024-04-13T13:12:47Z</time><name>PT3141</name></trkpt>
<trkpt lat="53.359737" lon="-1.650980"><ele>367</ele><time>2024-04-13T13:12:50Z</time><name>PT3142</name></trkpt>
<trkpt lat="53.359730" lon="-1.651050"><ele>366</ele><time>2024-04-13T13:12:53Z</time><name>PT3143</name></trkpt>
<trkpt lat="53.359716" lon="-1.651146"><ele>366</ele><time>2024-04-13T13:12:57Z</time><name>PT3144</name></trkpt>
<trkpt lat="53.359713" lon="-1.651210"><ele>366</ele><time>2024-04-13T13:13:00Z</time><name>PT3145</name></trkpt>
<trkpt lat="53.359701" lon="-1.651301"><ele>366</ele><time>2024-04-13T13:13:04Z</time><name>PT3146</name></trkpt>
<trkpt lat="53.359691" lon="-1.651399"><ele>365</ele><time>2024-04-13T13:13:08Z</time><name>PT3147</name></trkpt>
<trkpt lat="53.359679" lon="-1.651473"><ele>365</ele><time>2024-04-13T13:13:11Z</time><name>PT3148</name></trkpt>
<trkpt lat="53.359672" lon="-1.651538"><ele>365</ele><time>2024-04-13T13:13:14Z</time><name>PT3149</name></trkpt>
<trkpt lat="53.359662" lon="-1.651641"><ele>365</ele><time>2024-04-13T13:13:18Z</time><name>PT3150</name></trkpt>
<trkpt lat="53.359654" lon="-1.651730"><ele>365</ele><time>2024-04-13T13:13:22Z</time><name>PT3151</name></trkpt>
<trkpt lat="53.359647" lon="-1.651808"><ele>365</ele><time>2024-04-13T13:13:25Z</time><name>PT3152</name></trkpt>
<trkpt lat="53.359644" lon="-1.651872"><ele>365</ele><time>2024-04-13T13:13:28Z</time><name>PT3153</name></trkpt>
<trkpt lat="53.359640" lon="-1.651970"><ele>364</ele><time>2024-04-13T13:13:32Z</time><name>PT3154</name></trkpt>
<trkpt lat="53.359633" lon="-1.652042"><ele>364</ele><time>2024-04-13T13:13:35Z</time><name>PT3155</name></trkpt>
<trkpt lat="53.359626" lon="-1.652114"><ele>364</ele><time>2024-04-13T13:13:38Z</time><name>PT3156</name></trkpt>
<trkpt lat="53.359618" lon="-1.652208"><ele>364</ele><time>2024-04-13T13:13:42Z</time><name>PT3157</name></trkpt>
<trkpt lat="53.359611" lon="-1.652304"><ele>364</ele><time>2024-04-13T13:13:46Z</time><name>PT3158</name></trkpt>
<trkpt lat="53.359603" lon="-1.652379"><ele>364</ele><time>2024-04-13T13:13:49Z</time><name>PT3159</name></trkpt>
<trkpt lat="53.359599" lon="-1.652472"><ele>364</ele><time>2024-04-13T13:13:53Z</time><name>PT3160</name></trkpt>
<trkpt lat="53.359593" lon="-1.652543"><ele>364</ele><time>2024-04-13T13:13:56Z</time><name>PT3161</name></trkpt>
<trkpt lat="53.359586" lon="-1.652638"><ele>364</ele><time>2024-04-13T13:14:00Z</time><name>PT3162</name></trkpt>
<trkpt lat="53.359587" lon="-1.652720"><ele>364</ele><time>2024-04-13T13:14:04Z</time><name>PT3163</name></trkpt>
<trkpt lat="53.359582" lon="-1.652792"><ele>363</ele><time>2024-04-13T13:14:07Z</time><name>PT3164</name></trkpt>
<trkpt lat="53.359573" lon="-1.652870"><ele>362</ele><time>2024-04-13T13:14:11Z</time><name>PT3165</name></trkpt>
<trkpt lat="53.359567" lon="-1.652942"><ele>361</ele><time>2024-04-13T13:14:14Z</time><name>PT3166</name></trkpt>
<trkpt lat="53.359562" lon="-1.653029"><ele>361</ele><time>2024-04-13T13:14:18Z</time><name>PT3167</name></trkpt>
<trkpt lat="53.359557" lon="-1.653098"><ele>361</ele><time>2024-04-13T13:14:21Z</time><name>PT3168</name></trkpt>
<trkpt lat="53.359560" lon="-1.653167"><ele>360</ele><time>2024-04-13T13:14:25Z</time><name>PT3169</name></trkpt>
<trkpt lat="53.359553" lon="-1.653239"><ele>359</ele><time>2024-04-13T13:14:28Z</time><name>PT3170</name></trkpt>
<trkpt lat="53.359551" lon="-1.653301"><ele>359</ele><time>2024-04-13T13:14:32Z</time><name>PT3171</name></trkpt>
<trkpt lat="53.359540" lon="-1.653394"><ele>358</ele><time>2024-04-13T13:14:35Z</time><name>PT3172</name></trkpt>
<trkpt lat="53.359530" lon="-1.653459"><ele>358</ele><time>2024-04-13T13:14:38Z</time><name>PT3173</name></trkpt>
<trkpt lat="53.359518" lon="-1.653553"><ele>358</ele><time>2024-04-13T13:14:42Z</time><name>PT3174</name></trkpt>
<trkpt lat="53.359509" lon="-1.653623"><ele>357</ele><time>2024-04-13T13:14:45Z</time><name>PT3175</name></trkpt>
<trkpt lat="53.359497" lon="-1.653713"><ele>357</ele><time>2024-04-13T13:14:49Z</time><name>PT3176</name></trkpt>
<trkpt lat="53.359487" lon="-1.653795"><ele>357</ele><time>2024-04-13T13:14:53Z</time><name>PT3177</name></trkpt>
<trkpt lat="53.359473" lon="-1.653870"><ele>356</ele><time>2024-04-13T13:14:56Z</time><name>PT3178</name></trkpt>
<trkpt lat="53.359462" lon="-1.653957"><ele>356</ele><time>2024-04-13T13:15:00Z</time><name>PT3179</name></trkpt>
<trkpt lat="53.359450" lon="-1.654039"><ele>355</ele><time>2024-04-13T13:15:04Z</time><name>PT3180</name></trkpt>
<trkpt lat="53.359427" lon="-1.654119"><ele>355</ele><time>2024-04-13T13:15:08Z</time><name>PT3181</name></trkpt>
<trkpt lat="53.359411" lon="-1.654211"><ele>354</ele><time>2024-04-13T13:15:12Z</time><name>PT3182</name></trkpt>
<trkpt lat="53.359398" lon="-1.654326"><ele>354</ele><time>2024-04-13T13:15:16Z</time><name>PT3183</name></trkpt>
<trkpt lat="53.359395" lon="-1.654391"><ele>355</ele><time>2024-04-13T13:15:19Z</time><name>PT3184</name></trkpt>
<trkpt lat="53.359390" lon="-1.654461"><ele>355</ele><time>2024-04-13T13:15:22Z</time><name>PT3185</name></trkpt>
<trkpt lat="53.359388" lon="-1.654545"><ele>355</ele><time>2024-04-13T13:15:26Z</time><name>PT3186</name></trkpt>
<trkpt lat="53.359388" lon="-1.654611"><ele>355</ele><time>2024-04-13T13:15:29Z</time><name>PT3187</name></trkpt>
<trkpt lat="53.359397" lon="-1.654700"><ele>355</ele><time>2024-04-13T13:15:33Z</time><name>PT3188</name></trkpt>
<trkpt lat="53.359403" lon="-1.654760"><ele>354</ele><time>2024-04-13T13:15:36Z</time><name>PT3189</name></trkpt>
<trkpt lat="53.359416" lon="-1.654850"><ele>353</ele><time>2024-04-13T13:15:40Z</time><name>PT3190</name></trkpt>
<trkpt lat="53.359427" lon="-1.654944"><ele>353</ele><time>2024-04-13T13:15:44Z</time><name>PT3191</name></trkpt>
<trkpt lat="53.359442" lon="-1.655004"><ele>351</ele><time>2024-04-13T13:15:47Z</time><name>PT3192</name></trkpt>
<trkpt lat="53.359446" lon="-1.655061"><ele>350</ele><time>2024-04-13T13:15:50Z</time><name>PT3193</name></trkpt>
<trkpt lat="53.359452" lon="-1.655156"><ele>349</ele><time>2024-04-13T13:15:54Z</time><name>PT3194</name></trkpt>
<trkpt lat="53.359462" lon="-1.655218"><ele>348</ele><time>2024-04-13T13:15:57Z</time><name>PT3195</name></trkpt>
<trkpt lat="53.359476" lon="-1.655278"><ele>348</ele><time>2024-04-13T13:16:00Z</time><name>PT3196</name></trkpt>
<trkpt lat="53.359495" lon="-1.655379"><ele>347</ele><time>2024-04-13T13:16:04Z</time><name>PT3197</name></trkpt>
<trkpt lat="53.359507" lon="-1.655472"><ele>345</ele><time>2024-04-13T13:16:08Z</time><name>PT3198</name></trkpt>
<trkpt lat="53.359538" lon="-1.655551"><ele>345</ele><time>2024-04-13T13:16:12Z</time><name>PT3199</name></trkpt>
<trkpt lat="53.359557" lon="-1.655634"><ele>344</ele><time>2024-04-13T13:16:16Z</time><name>PT3200</name></trkpt>
<trkpt lat="53.359565" lon="-1.655690"><ele>344</ele><time>2024-04-13T13:16:19Z</time><name>PT3201</name></trkpt>
<trkpt lat="53.359567" lon="-1.655785"><ele>344</ele><time>2024-04-13T13:16:23Z</time><name>PT3202</name></trkpt>
<trkpt lat="53.359574" lon="-1.655859"><ele>345</ele><time>2024-04-13T13:16:26Z</time><name>PT3203</name></trkpt>
<trkpt lat="53.359582" lon="-1.655950"><ele>345</ele><time>2024-04-13T13:16:30Z</time><name>PT3204</name></trkpt>
<trkpt lat="53.359589" lon="-1.656013"><ele>345</ele><time>2024-04-13T13:16:33Z</time><name>PT3205</name></trkpt>
<trkpt lat="53.359589" lon="-1.656092"><ele>346</ele><time>2024-04-13T13:16:36Z</time><name>PT3206</name></trkpt>
<trkpt lat="53.359599" lon="-1.656182"><ele>347</ele><time>2024-04-13T13:16:40Z</time><name>PT3207</name></trkpt>
<trkpt lat="53.359604" lon="-1.656286"><ele>347</ele><time>2024-04-13T13:16:44Z</time><name>PT3208</name></trkpt>
<trkpt lat="53.359608" lon="-1.656354"><ele>347</ele><time>2024-04-13T13:16:47Z</time><name>PT3209</name></trkpt>
<trkpt lat="53.359617" lon="-1.656448"><ele>347</ele><time>2024-04-13T13:16:51Z</time><name>PT3210</name></trkpt>
<trkpt lat="53.359622" lon="-1.656535"><ele>346</ele><time>2024-04-13T13:16:55Z</time><name>PT3211</name></trkpt>
<trkpt lat="53.359624" lon="-1.656624"><ele>346</ele><time>2024-04-13T13:16:59Z</time><name>PT3212</name></trkpt>
<trkpt lat="53.359632" lon="-1.656697"><ele>345</ele><time>2024-04-13T13:17:03Z</time><name>PT3213</name></trkpt>
<trkpt lat="53.359630" lon="-1.656783"><ele>345</ele><time>2024-04-13T13:17:07Z</time><name>PT3214</name></trkpt>
<trkpt lat="53.359629" lon="-1.656846"><ele>344</ele><time>2024-04-13T13:17:10Z</time><name>PT3215</name></trkpt>
<trkpt lat="53.359631" lon="-1.656895"><ele>344</ele><time>2024-04-13T13:17:13Z</time><name>PT3216</name></trkpt>
<trkpt lat="53.359631" lon="-1.656963"><ele>344</ele><time>2024-04-13T13:17:16Z</time><name>PT3217</name></trkpt>
<trkpt lat="53.359629" lon="-1.657050"><ele>343</ele><time>2024-04-13T13:17:20Z</time><name>PT3218</name></trkpt>
<trkpt lat="53.359630" lon="-1.657112"><ele>342</ele><time>2024-04-13T13:17:23Z</time><name>PT3219</name></trkpt>
<trkpt lat="53.359626" lon="-1.657205"><ele>343</ele><time>2024-04-13T13:17:27Z</time><name>PT3220</name></trkpt>
<trkpt lat="53.359621" lon="-1.657295"><ele>342</ele><time>2024-04-13T13:17:31Z</time><name>PT3221</name></trkpt>
<trkpt lat="53.359614" lon="-1.657364"><ele>342</ele><time>2024-04-13T13:17:34Z</time><name>PT3222</name></trkpt>
<trkpt lat="53.359605" lon="-1.657425"><ele>342</ele><time>2024-04-13T13:17:37Z</time><name>PT3223</name></trkpt>
<trkpt lat="53.359590" lon="-1.657500"><ele>342</ele><time>2024-04-13T13:17:41Z</time><name>PT3224</name></trkpt>
<trkpt lat="53.359578" lon="-1.657560"><ele>342</ele><time>2024-04-13T13:17:44Z</time><name>PT3225</name></trkpt>
<trkpt lat="53.359558" lon="-1.657644"><ele>342</ele><time>2024-04-13T13:17:48Z</time><name>PT3226</name></trkpt>
<trkpt lat="53.359534" lon="-1.657731"><ele>343</ele><time>2024-04-13T13:17:52Z</time><name>PT3227</name></trkpt>
<trkpt lat="53.359527" lon="-1.657789"><ele>342</ele><time>2024-04-13T13:17:55Z</time><name>PT3228</name></trkpt>
<trkpt lat="53.359500" lon="-1.657876"><ele>342</ele><time>2024-04-13T13:17:59Z</time><name>PT3229</name></trkpt>
<trkpt lat="53.359477" lon="-1.657936"><ele>342</ele><time>2024-04-13T13:18:02Z</time><name>PT3230</name></trkpt>
<trkpt lat="53.359451" lon="-1.658016"><ele>342</ele><time>2024-04-13T13:18:06Z</time><name>PT3231</name></trkpt>
<trkpt lat="53.359419" lon="-1.658086"><ele>342</ele><time>2024-04-13T13:18:10Z</time><name>PT3232</name></trkpt>
<trkpt lat="53.359394" lon="-1.658147"><ele>342</ele><time>2024-04-13T13:18:13Z</time><name>PT3233</name></trkpt>
<trkpt lat="53.359379" lon="-1.658199"><ele>341</ele><time>2024-04-13T13:18:16Z</time><name>PT3234</name></trkpt>
<trkpt lat="53.359358" lon="-1.658256"><ele>340</ele><time>2024-04-13T13:18:19Z</time><name>PT3235</name></trkpt>
<trkpt lat="53.359330" lon="-1.658332"><ele>339</ele><time>2024-04-13T13:18:23Z</time><name>PT3236</name></trkpt>
<trkpt lat="53.359296" lon="-1.658416"><ele>339</ele><time>2024-04-13T13:18:27Z</time><name>PT3237</name></trkpt>
<trkpt lat="53.359280" lon="-1.658475"><ele>340</ele><time>2024-04-13T13:18:30Z</time><name>PT3238</name></trkpt>
<trkpt lat="53.359256" lon="-1.658534"><ele>339</ele><time>2024-04-13T13:18:33Z</time><name>PT3239</name></trkpt>
<trkpt lat="53.359235" lon="-1.658598"><ele>339</ele><time>2024-04-13T13:18:37Z</time><name>PT3240</name></trkpt>
<trkpt lat="53.359219" lon="-1.658639"><ele>338</ele><time>2024-04-13T13:18:40Z</time><name>PT3241</name></trkpt>
<trkpt lat="53.359195" lon="-1.658702"><ele>337</ele><time>2024-04-13T13:18:44Z</time><name>PT3242</name></trkpt>
<trkpt lat="53.359172" lon="-1.658751"><ele>336</ele><time>2024-04-13T13:18:47Z</time><name>PT3243</name></trkpt>
<trkpt lat="53.359152" lon="-1.658796"><ele>335</ele><time>2024-04-13T13:18:50Z</time><name>PT3244</name></trkpt>
<trkpt lat="53.359110" lon="-1.658870"><ele>333</ele><time>2024-04-13T13:18:54Z</time><name>PT3245</name></trkpt>
<trkpt lat="53.359084" lon="-1.658916"><ele>332</ele><time>2024-04-13T13:18:57Z</time><name>PT3246</name></trkpt>
<trkpt lat="53.359053" lon="-1.658979"><ele>330</ele><time>2024-04-13T13:19:01Z</time><name>PT3247</name></trkpt>
<trkpt lat="53.359045" lon="-1.659014"><ele>328</ele><time>2024-04-13T13:19:05Z</time><name>PT3248</name></trkpt>
<trkpt lat="53.359034" lon="-1.659067"><ele>325</ele><time>2024-04-13T13:19:09Z</time><name>PT3249</name></trkpt>
<trkpt lat="53.359017" lon="-1.659134"><ele>323</ele><time>2024-04-13T13:19:13Z</time><name>PT3250</name></trkpt>
<trkpt lat="53.359003" lon="-1.659158"><ele>321</ele><time>2024-04-13T13:19:17Z</time><name>PT3251</name></trkpt>
<trkpt lat="53.358983" lon="-1.659188"><ele>318</ele><time>2024-04-13T13:19:20Z</time><name>PT3252</name></trkpt>
<trkpt lat="53.358956" lon="-1.659240"><ele>314</ele><time>2024-04-13T13:19:24Z</time><name>PT3253</name></trkpt>
<trkpt lat="53.358944" lon="-1.659302"><ele>313</ele><time>2024-04-13T13:19:28Z</time><name>PT3254</name></trkpt>
<trkpt lat="53.358934" lon="-1.659360"><ele>314</ele><time>2024-04-13T13:19:31Z</time><name>PT3255</name></trkpt>
<trkpt lat="53.358919" lon="-1.659395"><ele>313</ele><time>2024-04-13T13:19:34Z</time><name>PT3256</name></trkpt>
<trkpt lat="53.358893" lon="-1.659455"><ele>315</ele><time>2024-04-13T13:19:38Z</time><name>PT3257</name></trkpt>
<trkpt lat="53.358862" lon="-1.659508"><ele>317</ele><time>2024-04-13T13:19:41Z</time><name>PT3258</name></trkpt>
<trkpt lat="53.358810" lon="-1.659575"><ele>316</ele><time>2024-04-13T13:19:45Z</time><name>PT3259</name></trkpt>
<trkpt lat="53.358765" lon="-1.659652"><ele>315</ele><time>2024-04-13T13:19:49Z</time><name>PT3260</name></trkpt>
<trkpt lat="53.358722" lon="-1.659712"><ele>317</ele><time>2024-04-13T13:19:52Z</time><name>PT3261</name></trkpt>
<trkpt lat="53.358675" lon="-1.659765"><ele>318</ele><time>2024-04-13T13:19:56Z</time><name>PT3262</name></trkpt>
<trkpt lat="53.358637" lon="-1.659803"><ele>320</ele><time>2024-04-13T13:19:59Z</time><name>PT3263</name></trkpt>
<trkpt lat="53.358583" lon="-1.659822"><ele>320</ele><time>2024-04-13T13:20:03Z</time><name>PT3264</name></trkpt>
<trkpt lat="53.358542" lon="-1.659823"><ele>319</ele><time>2024-04-13T13:20:06Z</time><name>PT3265</name></trkpt>
<trkpt lat="53.358512" lon="-1.659824"><ele>319</ele><time>2024-04-13T13:20:09Z</time><name>PT3266</name></trkpt>
<trkpt lat="53.358482" lon="-1.659827"><ele>319</ele><time>2024-04-13T13:20:12Z</time><name>PT3267</name></trkpt>
<trkpt lat="53.358436" lon="-1.659836"><ele>318</ele><time>2024-04-13T13:20:16Z</time><name>PT3268</name></trkpt>
<trkpt lat="53.358395" lon="-1.659859"><ele>319</ele><time>2024-04-13T13:20:19Z</time><name>PT3269</name></trkpt>
<trkpt lat="53.358341" lon="-1.659883"><ele>318</ele><time>2024-04-13T13:20:23Z</time><name>PT3270</name></trkpt>
<trkpt lat="53.358279" lon="-1.659891"><ele>318</ele><time>2024-04-13T13:20:27Z</time><name>PT3271</name></trkpt>
<trkpt lat="53.358236" lon="-1.659907"><ele>319</ele><time>2024-04-13T13:20:30Z</time><name>PT3272</name></trkpt>
<trkpt lat="53.358176" lon="-1.659930"><ele>320</ele><time>2024-04-13T13:20:34Z</time><name>PT3273</name></trkpt>
<trkpt lat="53.358146" lon="-1.659940"><ele>320</ele><time>2024-04-13T13:20:37Z</time><name>PT3274</name></trkpt>
<trkpt lat="53.358081" lon="-1.659957"><ele>321</ele><time>2024-04-13T13:20:41Z</time><name>PT3275</name></trkpt>
<trkpt lat="53.358035" lon="-1.659984"><ele>321</ele><time>2024-04-13T13:20:45Z</time><name>PT3276</name></trkpt>
<trkpt lat="53.357997" lon="-1.659993"><ele>319</ele><time>2024-04-13T13:20:48Z</time><name>PT3277</name></trkpt>
<trkpt lat="53.357946" lon="-1.660016"><ele>320</ele><time>2024-04-13T13:20:51Z</time><name>PT3278</name></trkpt>
<trkpt lat="53.357906" lon="-1.660038"><ele>321</ele><time>2024-04-13T13:20:54Z</time><name>PT3279</name></trkpt>
<trkpt lat="53.357850" lon="-1.660034"><ele>321</ele><time>2024-04-13T13:20:58Z</time><name>PT3280</name></trkpt>
<trkpt lat="53.357794" lon="-1.660049"><ele>321</ele><time>2024-04-13T13:21:02Z</time><name>PT3281</name></trkpt>
<trkpt lat="53.357757" lon="-1.660053"><ele>320</ele><time>2024-04-13T13:21:05Z</time><name>PT3282</name></trkpt>
<trkpt lat="53.357715" lon="-1.660065"><ele>321</ele><time>2024-04-13T13:21:09Z</time><name>PT3283</name></trkpt>
<trkpt lat="53.357671" lon="-1.660054"><ele>321</ele><time>2024-04-13T13:21:12Z</time><name>PT3284</name></trkpt>
<trkpt lat="53.357633" lon="-1.660047"><ele>320</ele><time>2024-04-13T13:21:15Z</time><name>PT3285</name></trkpt>
<trkpt lat="53.357596" lon="-1.660036"><ele>320</ele><time>2024-04-13T13:21:19Z</time><name>PT3286</name></trkpt>
<trkpt lat="53.357574" lon="-1.660028"><ele>319</ele><time>2024-04-13T13:21:22Z</time><name>PT3287</name></trkpt>
<trkpt lat="53.357511" lon="-1.660015"><ele>318</ele><time>2024-04-13T13:21:26Z</time><name>PT3288</name></trkpt>
<trkpt lat="53.357448" lon="-1.660031"><ele>319</ele><time>2024-04-13T13:21:30Z</time><name>PT3289</name></trkpt>
<trkpt lat="53.357413" lon="-1.660047"><ele>318</ele><time>2024-04-13T13:21:33Z</time><name>PT3290</name></trkpt>
<trkpt lat="53.357362" lon="-1.660084"><ele>316</ele><time>2024-04-13T13:21:37Z</time><name>PT3291</name></trkpt>
<trkpt lat="53.357314" lon="-1.660101"><ele>317</ele><time>2024-04-13T13:21:40Z</time><name>PT3292</name></trkpt>
<trkpt lat="53.357238" lon="-1.660111"><ele>317</ele><time>2024-04-13T13:21:44Z</time><name>PT3293</name></trkpt>
<trkpt lat="53.357196" lon="-1.660134"><ele>316</ele><time>2024-04-13T13:21:47Z</time><name>PT3294</name></trkpt>
<trkpt lat="53.357147" lon="-1.660151"><ele>316</ele><time>2024-04-13T13:21:50Z</time><name>PT3295</name></trkpt>
<trkpt lat="53.357073" lon="-1.660140"><ele>316</ele><time>2024-04-13T13:21:54Z</time><name>PT3296</name></trkpt>
<trkpt lat="53.357022" lon="-1.660148"><ele>316</ele><time>2024-04-13T13:21:57Z</time><name>PT3297</name></trkpt>
<trkpt lat="53.356986" lon="-1.660163"><ele>315</ele><time>2024-04-13T13:22:00Z</time><name>PT3298</name></trkpt>
<trkpt lat="53.356926" lon="-1.660182"><ele>315</ele><time>2024-04-13T13:22:04Z</time><name>PT3299</name></trkpt>
<trkpt lat="53.356885" lon="-1.660193"><ele>315</ele><time>2024-04-13T13:22:07Z</time><name>PT3300</name></trkpt>
<trkpt lat="53.356832" lon="-1.660207"><ele>315</ele><time>2024-04-13T13:22:11Z</time><name>PT3301</name></trkpt>
<trkpt lat="53.356787" lon="-1.660215"><ele>315</ele><time>2024-04-13T13:22:14Z</time><name>PT3302</name></trkpt>
<trkpt lat="53.356727" lon="-1.660224"><ele>316</ele><time>2024-04-13T13:22:18Z</time><name>PT3303</name></trkpt>
<trkpt lat="53.356668" lon="-1.660227"><ele>316</ele><time>2024-04-13T13:22:22Z</time><name>PT3304</name></trkpt>
<trkpt lat="53.356629" lon="-1.660243"><ele>316</ele><time>2024-04-13T13:22:25Z</time><name>PT3305</name></trkpt>
<trkpt lat="53.356565" lon="-1.660241"><ele>316</ele><time>2024-04-13T13:22:29Z</time><name>PT3306</name></trkpt>
<trkpt lat="53.356518" lon="-1.660238"><ele>316</ele><time>2024-04-13T13:22:32Z</time><name>PT3307</name></trkpt>
<trkpt lat="53.356458" lon="-1.660238"><ele>317</ele><time>2024-04-13T13:22:36Z</time><name>PT3308</name></trkpt>
<trkpt lat="53.356414" lon="-1.660269"><ele>316</ele><time>2024-04-13T13:22:40Z</time><name>PT3309</name></trkpt>
<trkpt lat="53.356373" lon="-1.660280"><ele>316</ele><time>2024-04-13T13:22:43Z</time><name>PT3310</name></trkpt>
<trkpt lat="53.356319" lon="-1.660278"><ele>317</ele><time>2024-04-13T13:22:47Z</time><name>PT3311</name></trkpt>
<trkpt lat="53.356261" lon="-1.660287"><ele>318</ele><time>2024-04-13T13:22:51Z</time><name>PT3312</name></trkpt>
<trkpt lat="53.356197" lon="-1.660291"><ele>316</ele><time>2024-04-13T13:22:55Z</time><name>PT3313</name></trkpt>
<trkpt lat="53.356153" lon="-1.660292"><ele>317</ele><time>2024-04-13T13:22:58Z</time><name>PT3314</name></trkpt>
<trkpt lat="53.356105" lon="-1.660290"><ele>317</ele><time>2024-04-13T13:23:01Z</time><name>PT3315</name></trkpt>
<trkpt lat="53.356063" lon="-1.660282"><ele>318</ele><time>2024-04-13T13:23:04Z</time><name>PT3316</name></trkpt>
<trkpt lat="53.356002" lon="-1.660279"><ele>319</ele><time>2024-04-13T13:23:08Z</time><name>PT3317</name></trkpt>
<trkpt lat="53.355962" lon="-1.660282"><ele>319</ele><time>2024-04-13T13:23:11Z</time><name>PT3318</name></trkpt>
<trkpt lat="53.355909" lon="-1.660272"><ele>319</ele><time>2024-04-13T13:23:15Z</time><name>PT3319</name></trkpt>
<trkpt lat="53.355855" lon="-1.660261"><ele>318</ele><time>2024-04-13T13:23:19Z</time><name>PT3320</name></trkpt>
<trkpt lat="53.355811" lon="-1.660251"><ele>318</ele><time>2024-04-13T13:23:22Z</time><name>PT3321</name></trkpt>
<trkpt lat="53.355753" lon="-1.660258"><ele>317</ele><time>2024-04-13T13:23:26Z</time><name>PT3322</name></trkpt>
<trkpt lat="53.355706" lon="-1.660271"><ele>317</ele><time>2024-04-13T13:23:30Z</time><name>PT3323</name></trkpt>
<trkpt lat="53.355647" lon="-1.660259"><ele>317</ele><time>2024-04-13T13:23:34Z</time><name>PT3324</name></trkpt>
<trkpt lat="53.355599" lon="-1.660257"><ele>317</ele><time>2024-04-13T13:23:38Z</time><name>PT3325</name></trkpt>
<trkpt lat="53.355550" lon="-1.660253"><ele>317</ele><time>2024-04-13T13:23:42Z</time><name>PT3326</name></trkpt>
<trkpt lat="53.355520" lon="-1.660252"><ele>318</ele><time>2024-04-13T13:23:45Z</time><name>PT3327</name></trkpt>
<trkpt lat="53.355509" lon="-1.660256"><ele>318</ele><time>2024-04-13T13:23:48Z</time><name>PT3328</name></trkpt>
<trkpt lat="53.355501" lon="-1.660254"><ele>318</ele><time>2024-04-13T13:23:52Z</time><name>PT3329</name></trkpt>
<trkpt lat="53.355454" lon="-1.660269"><ele>318</ele><time>2024-04-13T13:23:55Z</time><name>PT3330</name></trkpt>
<trkpt lat="53.355413" lon="-1.660277"><ele>318</ele><time>2024-04-13T13:23:58Z</time><name>PT3331</name></trkpt>
<trkpt lat="53.355374" lon="-1.660299"><ele>319</ele><time>2024-04-13T13:24:02Z</time><name>PT3332</name></trkpt>
<trkpt lat="53.355328" lon="-1.660302"><ele>319</ele><time>2024-04-13T13:24:06Z</time><name>PT3333</name></trkpt>
<trkpt lat="53.355284" lon="-1.660305"><ele>319</ele><time>2024-04-13T13:24:09Z</time><name>PT3334</name></trkpt>
<trkpt lat="53.355240" lon="-1.660304"><ele>319</ele><time>2024-04-13T13:24:12Z</time><name>PT3335</name></trkpt>
<trkpt lat="53.355190" lon="-1.660322"><ele>320</ele><time>2024-04-13T13:24:16Z</time><name>PT3336</name></trkpt>
<trkpt lat="53.355153" lon="-1.660321"><ele>320</ele><time>2024-04-13T13:24:19Z</time><name>PT3337</name></trkpt>
<trkpt lat="53.355106" lon="-1.660317"><ele>320</ele><time>2024-04-13T13:24:23Z</time><name>PT3338</name></trkpt>
<trkpt lat="53.355068" lon="-1.660321"><ele>320</ele><time>2024-04-13T13:24:27Z</time><name>PT3339</name></trkpt>
<trkpt lat="53.355024" lon="-1.660307"><ele>320</ele><time>2024-04-13T13:24:31Z</time><name>PT3340</name></trkpt>
<trkpt lat="53.354973" lon="-1.660293"><ele>319</ele><time>2024-04-13T13:24:35Z</time><name>PT3341</name></trkpt>
<trkpt lat="53.354915" lon="-1.660299"><ele>320</ele><time>2024-04-13T13:24:39Z</time><name>PT3342</name></trkpt>
<trkpt lat="53.354879" lon="-1.660296"><ele>320</ele><time>2024-04-13T13:24:42Z</time><name>PT3343</name></trkpt>
<trkpt lat="53.354842" lon="-1.660284"><ele>319</ele><time>2024-04-13T13:24:45Z</time><name>PT3344</name></trkpt>
<trkpt lat="53.354802" lon="-1.660270"><ele>317</ele><time>2024-04-13T13:24:49Z</time><name>PT3345</name></trkpt>
<trkpt lat="53.354755" lon="-1.660275"><ele>316</ele><time>2024-04-13T13:24:53Z</time><name>PT3346</name></trkpt>
<trkpt lat="53.354710" lon="-1.660280"><ele>316</ele><time>2024-04-13T13:24:57Z</time><name>PT3347</name></trkpt>
<trkpt lat="53.354674" lon="-1.660282"><ele>316</ele><time>2024-04-13T13:25:00Z</time><name>PT3348</name></trkpt>
<trkpt lat="53.354627" lon="-1.660296"><ele>317</ele><time>2024-04-13T13:25:03Z</time><name>PT3349</name></trkpt>
<trkpt lat="53.354579" lon="-1.660303"><ele>317</ele><time>2024-04-13T13:25:06Z</time><name>PT3350</name></trkpt>
<trkpt lat="53.354528" lon="-1.660314"><ele>318</ele><time>2024-04-13T13:25:10Z</time><name>PT3351</name></trkpt>
<trkpt lat="53.354472" lon="-1.660328"><ele>319</ele><time>2024-04-13T13:25:14Z</time><name>PT3352</name></trkpt>
<trkpt lat="53.354420" lon="-1.660346"><ele>318</ele><time>2024-04-13T13:25:18Z</time><name>PT3353</name></trkpt>
<trkpt lat="53.354384" lon="-1.660362"><ele>320</ele><time>2024-04-13T13:25:21Z</time><name>PT3354</name></trkpt>
<trkpt lat="53.354335" lon="-1.660378"><ele>323</ele><time>2024-04-13T13:25:25Z</time><name>PT3355</name></trkpt>
<trkpt lat="53.354298" lon="-1.660398"><ele>321</ele><time>2024-04-13T13:25:28Z</time><name>PT3356</name></trkpt>
<trkpt lat="53.354248" lon="-1.660432"><ele>322</ele><time>2024-04-13T13:25:32Z</time><name>PT3357</name></trkpt>
<trkpt lat="53.354204" lon="-1.660475"><ele>322</ele><time>2024-04-13T13:25:36Z</time><name>PT3358</name></trkpt>
<trkpt lat="53.354159" lon="-1.660520"><ele>323</ele><time>2024-04-13T13:25:39Z</time><name>PT3359</name></trkpt>
<trkpt lat="53.354125" lon="-1.660574"><ele>323</ele><time>2024-04-13T13:25:43Z</time><name>PT3360</name></trkpt>
<trkpt lat="53.354097" lon="-1.660615"><ele>322</ele><time>2024-04-13T13:25:46Z</time><name>PT3361</name></trkpt>
<trkpt lat="53.354054" lon="-1.660671"><ele>323</ele><time>2024-04-13T13:25:50Z</time><name>PT3362</name></trkpt>
<trkpt lat="53.354012" lon="-1.660755"><ele>325</ele><time>2024-04-13T13:25:54Z</time><name>PT3363</name></trkpt>
<trkpt lat="53.353972" lon="-1.660808"><ele>325</ele><time>2024-04-13T13:25:58Z</time><name>PT3364</name></trkpt>
<trkpt lat="53.353939" lon="-1.660847"><ele>326</ele><time>2024-04-13T13:26:01Z</time><name>PT3365</name></trkpt>
<trkpt lat="53.353908" lon="-1.660896"><ele>325</ele><time>2024-04-13T13:26:05Z</time><name>PT3366</name></trkpt>
<trkpt lat="53.353881" lon="-1.660945"><ele>325</ele><time>2024-04-13T13:26:08Z</time><name>PT3367</name></trkpt>
<trkpt lat="53.353841" lon="-1.661006"><ele>325</ele><time>2024-04-13T13:26:12Z</time><name>PT3368</name></trkpt>
<trkpt lat="53.353802" lon="-1.661059"><ele>324</ele><time>2024-04-13T13:26:16Z</time><name>PT3369</name></trkpt>
<trkpt lat="53.353769" lon="-1.661097"><ele>324</ele><time>2024-04-13T13:26:19Z</time><name>PT3370</name></trkpt>
<trkpt lat="53.353727" lon="-1.661152"><ele>323</ele><time>2024-04-13T13:26:23Z</time><name>PT3371</name></trkpt>
<trkpt lat="53.353690" lon="-1.661206"><ele>323</ele><time>2024-04-13T13:26:26Z</time><name>PT3372</name></trkpt>
<trkpt lat="53.353650" lon="-1.661248"><ele>323</ele><time>2024-04-13T13:26:29Z</time><name>PT3373</name></trkpt>
<trkpt lat="53.353614" lon="-1.661302"><ele>324</ele><time>2024-04-13T13:26:32Z</time><name>PT3374</name></trkpt>
<trkpt lat="53.353567" lon="-1.661361"><ele>325</ele><time>2024-04-13T13:26:36Z</time><name>PT3375</name></trkpt>
<trkpt lat="53.353531" lon="-1.661411"><ele>325</ele><time>2024-04-13T13:26:39Z</time><name>PT3376</name></trkpt>
<trkpt lat="53.353501" lon="-1.661461"><ele>325</ele><time>2024-04-13T13:26:42Z</time><name>PT3377</name></trkpt>
<trkpt lat="53.353459" lon="-1.661519"><ele>325</ele><time>2024-04-13T13:26:46Z</time><name>PT3378</name></trkpt>
<trkpt lat="53.353426" lon="-1.661575"><ele>325</ele><time>2024-04-13T13:26:50Z</time><name>PT3379</name></trkpt>
<trkpt lat="53.353402" lon="-1.661608"><ele>325</ele><time>2024-04-13T13:26:53Z</time><name>PT3380</name></trkpt>
<trkpt lat="53.353357" lon="-1.661662"><ele>324</ele><time>2024-04-13T13:26:57Z</time><name>PT3381</name></trkpt>
<trkpt lat="53.353313" lon="-1.661718"><ele>323</ele><time>2024-04-13T13:27:01Z</time><name>PT3382</name></trkpt>
<trkpt lat="53.353264" lon="-1.661769"><ele>323</ele><time>2024-04-13T13:27:05Z</time><name>PT3383</name></trkpt>
<trkpt lat="53.353219" lon="-1.661816"><ele>324</ele><time>2024-04-13T13:27:08Z</time><name>PT3384</name></trkpt>
<trkpt lat="53.353175" lon="-1.661869"><ele>324</ele><time>2024-04-13T13:27:11Z</time><name>PT3385</name></trkpt>
<trkpt lat="53.353122" lon="-1.661918"><ele>324</ele><time>2024-04-13T13:27:15Z</time><name>PT3386</name></trkpt>
<trkpt lat="53.353097" lon="-1.661942"><ele>324</ele><time>2024-04-13T13:27:18Z</time><name>PT3387</name></trkpt>
<trkpt lat="53.353070" lon="-1.661965"><ele>324</ele><time>2024-04-13T13:27:21Z</time><name>PT3388</name></trkpt>
<trkpt lat="53.353020" lon="-1.661995"><ele>324</ele><time>2024-04-13T13:27:25Z</time><name>PT3389</name></trkpt>
<trkpt lat="53.352982" lon="-1.662024"><ele>324</ele><time>2024-04-13T13:27:28Z</time><name>PT3390</name></trkpt>
<trkpt lat="53.352929" lon="-1.662049"><ele>325</ele><time>2024-04-13T13:27:32Z</time><name>PT3391</name></trkpt>
<trkpt lat="53.352877" lon="-1.662071"><ele>325</ele><time>2024-04-13T13:27:36Z</time><name>PT3392</name></trkpt>
<trkpt lat="53.352839" lon="-1.662088"><ele>325</ele><time>2024-04-13T13:27:39Z</time><name>PT3393</name></trkpt>
<trkpt lat="53.352798" lon="-1.662098"><ele>325</ele><time>2024-04-13T13:27:42Z</time><name>PT3394</name></trkpt>
<trkpt lat="53.352746" lon="-1.662112"><ele>325</ele><time>2024-04-13T13:27:46Z</time><name>PT3395</name></trkpt>
<trkpt lat="53.352703" lon="-1.662120"><ele>326</ele><time>2024-04-13T13:27:50Z</time><name>PT3396</name></trkpt>
<trkpt lat="53.352651" lon="-1.662121"><ele>325</ele><time>2024-04-13T13:27:53Z</time><name>PT3397</name></trkpt>
<trkpt lat="53.352612" lon="-1.662119"><ele>325</ele><time>2024-04-13T13:27:56Z</time><name>PT3398</name></trkpt>
<trkpt lat="53.352560" lon="-1.662122"><ele>324</ele><time>2024-04-13T13:28:00Z</time><name>PT3399</name></trkpt>
<trkpt lat="53.352521" lon="-1.662126"><ele>324</ele><time>2024-04-13T13:28:03Z</time><name>PT3400</name></trkpt>
<trkpt lat="53.352463" lon="-1.662122"><ele>325</ele><time>2024-04-13T13:28:07Z</time><name>PT3401</name></trkpt>
<trkpt lat="53.352425" lon="-1.662119"><ele>324</ele><time>2024-04-13T13:28:10Z</time><name>PT3402</name></trkpt>
<trkpt lat="53.352384" lon="-1.662116"><ele>324</ele><time>2024-04-13T13:28:13Z</time><name>PT3403</name></trkpt>
<trkpt lat="53.352331" lon="-1.662117"><ele>324</ele><time>2024-04-13T13:28:17Z</time><name>PT3404</name></trkpt>
<trkpt lat="53.352289" lon="-1.662111"><ele>324</ele><time>2024-04-13T13:28:20Z</time><name>PT3405</name></trkpt>
<trkpt lat="53.352248" lon="-1.662104"><ele>324</ele><time>2024-04-13T13:28:23Z</time><name>PT3406</name></trkpt>
<trkpt lat="53.352199" lon="-1.662099"><ele>324</ele><time>2024-04-13T13:28:27Z</time><name>PT3407</name></trkpt>
<trkpt lat="53.352161" lon="-1.662083"><ele>324</ele><time>2024-04-13T13:28:31Z</time><name>PT3408</name></trkpt>
<trkpt lat="53.352156" lon="-1.662090"><ele>324</ele><time>2024-04-13T13:28:34Z</time><name>PT3409</name></trkpt>
<trkpt lat="53.352154" lon="-1.662091"><ele>324</ele><time>2024-04-13T13:29:48Z</time><name>PT3410</name></trkpt>
<trkpt lat="53.352154" lon="-1.662087"><ele>323</ele><time>2024-04-13T13:30:06Z</time><name>PT3411</name></trkpt>
<trkpt lat="53.352152" lon="-1.662087"><ele>323</ele><time>2024-04-13T13:30:10Z</time><name>PT3412</name></trkpt>
<trkpt lat="53.352149" lon="-1.662086"><ele>323</ele><time>2024-04-13T13:31:12Z</time><name>PT3413</name></trkpt>
<trkpt lat="53.352143" lon="-1.662083"><ele>323</ele><time>2024-04-13T13:31:21Z</time><name>PT3414</name></trkpt>
<trkpt lat="53.352141" lon="-1.662082"><ele>323</ele><time>2024-04-13T13:31:25Z</time><name>PT3415</name></trkpt>
<trkpt lat="53.352141" lon="-1.662081"><ele>323</ele><time>2024-04-13T13:31:28Z</time><name>PT3416</name></trkpt>
<trkpt lat="53.352139" lon="-1.662080"><ele>323</ele><time>2024-04-13T13:31:32Z</time><name>PT3417</name></trkpt>
<trkpt lat="53.352132" lon="-1.662074"><ele>323</ele><time>2024-04-13T13:31:39Z</time><name>PT3418</name></trkpt>
<trkpt lat="53.352119" lon="-1.662057"><ele>323</ele><time>2024-04-13T13:31:43Z</time><name>PT3419</name></trkpt>
<trkpt lat="53.352089" lon="-1.662037"><ele>323</ele><time>2024-04-13T13:31:46Z</time><name>PT3420</name></trkpt>
<trkpt lat="53.352041" lon="-1.662000"><ele>323</ele><time>2024-04-13T13:31:50Z</time><name>PT3421</name></trkpt>
<trkpt lat="53.352009" lon="-1.661967"><ele>323</ele><time>2024-04-13T13:31:53Z</time><name>PT3422</name></trkpt>
<trkpt lat="53.351967" lon="-1.661918"><ele>323</ele><time>2024-04-13T13:31:57Z</time><name>PT3423</name></trkpt>
<trkpt lat="53.351923" lon="-1.661862"><ele>323</ele><time>2024-04-13T13:32:01Z</time><name>PT3424</name></trkpt>
<trkpt lat="53.351895" lon="-1.661828"><ele>323</ele><time>2024-04-13T13:32:04Z</time><name>PT3425</name></trkpt>
<trkpt lat="53.351855" lon="-1.661769"><ele>325</ele><time>2024-04-13T13:32:08Z</time><name>PT3426</name></trkpt>
<trkpt lat="53.351824" lon="-1.661723"><ele>325</ele><time>2024-04-13T13:32:11Z</time><name>PT3427</name></trkpt>
<trkpt lat="53.351782" lon="-1.661669"><ele>325</ele><time>2024-04-13T13:32:15Z</time><name>PT3428</name></trkpt>
<trkpt lat="53.351753" lon="-1.661640"><ele>324</ele><time>2024-04-13T13:32:18Z</time><name>PT3429</name></trkpt>
<trkpt lat="53.351727" lon="-1.661606"><ele>323</ele><time>2024-04-13T13:32:21Z</time><name>PT3430</name></trkpt>
<trkpt lat="53.351687" lon="-1.661555"><ele>323</ele><time>2024-04-13T13:32:25Z</time><name>PT3431</name></trkpt>
<trkpt lat="53.351645" lon="-1.661509"><ele>322</ele><time>2024-04-13T13:32:29Z</time><name>PT3432</name></trkpt>
<trkpt lat="53.351603" lon="-1.661457"><ele>322</ele><time>2024-04-13T13:32:33Z</time><name>PT3433</name></trkpt>
<trkpt lat="53.351565" lon="-1.661428"><ele>322</ele><time>2024-04-13T13:32:36Z</time><name>PT3434</name></trkpt>
<trkpt lat="53.351516" lon="-1.661381"><ele>322</ele><time>2024-04-13T13:32:40Z</time><name>PT3435</name></trkpt>
<trkpt lat="53.351471" lon="-1.661343"><ele>322</ele><time>2024-04-13T13:32:43Z</time><name>PT3436</name></trkpt>
<trkpt lat="53.351424" lon="-1.661309"><ele>322</ele><time>2024-04-13T13:32:47Z</time><name>PT3437</name></trkpt>
<trkpt lat="53.351380" lon="-1.661284"><ele>322</ele><time>2024-04-13T13:32:50Z</time><name>PT3438</name></trkpt>
<trkpt lat="53.351341" lon="-1.661265"><ele>322</ele><time>2024-04-13T13:32:53Z</time><name>PT3439</name></trkpt>
<trkpt lat="53.351302" lon="-1.661246"><ele>322</ele><time>2024-04-13T13:32:56Z</time><name>PT3440</name></trkpt>
<trkpt lat="53.351253" lon="-1.661225"><ele>322</ele><time>2024-04-13T13:33:00Z</time><name>PT3441</name></trkpt>
<trkpt lat="53.351214" lon="-1.661207"><ele>322</ele><time>2024-04-13T13:33:03Z</time><name>PT3442</name></trkpt>
<trkpt lat="53.351167" lon="-1.661197"><ele>322</ele><time>2024-04-13T13:33:07Z</time><name>PT3443</name></trkpt>
<trkpt lat="53.351108" lon="-1.661192"><ele>322</ele><time>2024-04-13T13:33:11Z</time><name>PT3444</name></trkpt>
<trkpt lat="53.351068" lon="-1.661177"><ele>322</ele><time>2024-04-13T13:33:14Z</time><name>PT3445</name></trkpt>
<trkpt lat="53.351013" lon="-1.661158"><ele>323</ele><time>2024-04-13T13:33:18Z</time><name>PT3446</name></trkpt>
<trkpt lat="53.350958" lon="-1.661136"><ele>322</ele><time>2024-04-13T13:33:22Z</time><name>PT3447</name></trkpt>
<trkpt lat="53.350914" lon="-1.661116"><ele>323</ele><time>2024-04-13T13:33:25Z</time><name>PT3448</name></trkpt>
<trkpt lat="53.350861" lon="-1.661098"><ele>323</ele><time>2024-04-13T13:33:29Z</time><name>PT3449</name></trkpt>
<trkpt lat="53.350821" lon="-1.661080"><ele>323</ele><time>2024-04-13T13:33:32Z</time><name>PT3450</name></trkpt>
<trkpt lat="53.350768" lon="-1.661078"><ele>322</ele><time>2024-04-13T13:33:36Z</time><name>PT3451</name></trkpt>
<trkpt lat="53.350729" lon="-1.661082"><ele>322</ele><time>2024-04-13T13:33:39Z</time><name>PT3452</name></trkpt>
<trkpt lat="53.350679" lon="-1.661075"><ele>321</ele><time>2024-04-13T13:33:43Z</time><name>PT3453</name></trkpt>
<trkpt lat="53.350628" lon="-1.661077"><ele>320</ele><time>2024-04-13T13:33:47Z</time><name>PT3454</name></trkpt>
<trkpt lat="53.350574" lon="-1.661081"><ele>320</ele><time>2024-04-13T13:33:51Z</time><name>PT3455</name></trkpt>
<trkpt lat="53.350521" lon="-1.661085"><ele>319</ele><time>2024-04-13T13:33:55Z</time><name>PT3456</name></trkpt>
<trkpt lat="53.350478" lon="-1.661094"><ele>320</ele><time>2024-04-13T13:33:58Z</time><name>PT3457</name></trkpt>
<trkpt lat="53.350424" lon="-1.661110"><ele>320</ele><time>2024-04-13T13:34:02Z</time><name>PT3458</name></trkpt>
<trkpt lat="53.350384" lon="-1.661129"><ele>320</ele><time>2024-04-13T13:34:05Z</time><name>PT3459</name></trkpt>
<trkpt lat="53.350339" lon="-1.661146"><ele>319</ele><time>2024-04-13T13:34:09Z</time><name>PT3460</name></trkpt>
<trkpt lat="53.350310" lon="-1.661171"><ele>318</ele><time>2024-04-13T13:34:12Z</time><name>PT3461</name></trkpt>
<trkpt lat="53.350259" lon="-1.661200"><ele>319</ele><time>2024-04-13T13:34:16Z</time><name>PT3462</name></trkpt>
<trkpt lat="53.350212" lon="-1.661235"><ele>318</ele><time>2024-04-13T13:34:20Z</time><name>PT3463</name></trkpt>
<trkpt lat="53.350173" lon="-1.661257"><ele>318</ele><time>2024-04-13T13:34:23Z</time><name>PT3464</name></trkpt>
<trkpt lat="53.350135" lon="-1.661281"><ele>318</ele><time>2024-04-13T13:34:26Z</time><name>PT3465</name></trkpt>
<trkpt lat="53.350091" lon="-1.661319"><ele>317</ele><time>2024-04-13T13:34:30Z</time><name>PT3466</name></trkpt>
<trkpt lat="53.350044" lon="-1.661354"><ele>317</ele><time>2024-04-13T13:34:34Z</time><name>PT3467</name></trkpt>
<trkpt lat="53.350015" lon="-1.661391"><ele>317</ele><time>2024-04-13T13:34:37Z</time><name>PT3468</name></trkpt>
<trkpt lat="53.349991" lon="-1.661426"><ele>316</ele><time>2024-04-13T13:34:40Z</time><name>PT3469</name></trkpt>
<trkpt lat="53.349956" lon="-1.661456"><ele>316</ele><time>2024-04-13T13:34:43Z</time><name>PT3470</name></trkpt>
<trkpt lat="53.349913" lon="-1.661505"><ele>316</ele><time>2024-04-13T13:34:47Z</time><name>PT3471</name></trkpt>
<trkpt lat="53.349882" lon="-1.661543"><ele>315</ele><time>2024-04-13T13:34:50Z</time><name>PT3472</name></trkpt>
<trkpt lat="53.349857" lon="-1.661589"><ele>314</ele><time>2024-04-13T13:34:53Z</time><name>PT3473</name></trkpt>
<trkpt lat="53.349822" lon="-1.661645"><ele>313</ele><time>2024-04-13T13:34:57Z</time><name>PT3474</name></trkpt>
<trkpt lat="53.349793" lon="-1.661696"><ele>313</ele><time>2024-04-13T13:35:00Z</time><name>PT3475</name></trkpt>
<trkpt lat="53.349750" lon="-1.661759"><ele>312</ele><time>2024-04-13T13:35:04Z</time><name>PT3476</name></trkpt>
<trkpt lat="53.349727" lon="-1.661808"><ele>312</ele><time>2024-04-13T13:35:07Z</time><name>PT3477</name></trkpt>
<trkpt lat="53.349691" lon="-1.661874"><ele>311</ele><time>2024-04-13T13:35:11Z</time><name>PT3478</name></trkpt>
<trkpt lat="53.349669" lon="-1.661930"><ele>311</ele><time>2024-04-13T13:35:14Z</time><name>PT3479</name></trkpt>
<trkpt lat="53.349635" lon="-1.661998"><ele>311</ele><time>2024-04-13T13:35:18Z</time><name>PT3480</name></trkpt>
<trkpt lat="53.349604" lon="-1.662053"><ele>310</ele><time>2024-04-13T13:35:21Z</time><name>PT3481</name></trkpt>
<trkpt lat="53.349556" lon="-1.662111"><ele>310</ele><time>2024-04-13T13:35:25Z</time><name>PT3482</name></trkpt>
<trkpt lat="53.349512" lon="-1.662169"><ele>310</ele><time>2024-04-13T13:35:29Z</time><name>PT3483</name></trkpt>
<trkpt lat="53.349480" lon="-1.662206"><ele>309</ele><time>2024-04-13T13:35:32Z</time><name>PT3484</name></trkpt>
<trkpt lat="53.349438" lon="-1.662240"><ele>307</ele><time>2024-04-13T13:35:36Z</time><name>PT3485</name></trkpt>
<trkpt lat="53.349408" lon="-1.662281"><ele>306</ele><time>2024-04-13T13:35:40Z</time><name>PT3486</name></trkpt>
<trkpt lat="53.349370" lon="-1.662330"><ele>305</ele><time>2024-04-13T13:35:44Z</time><name>PT3487</name></trkpt>
<trkpt lat="53.349337" lon="-1.662357"><ele>304</ele><time>2024-04-13T13:35:47Z</time><name>PT3488</name></trkpt>
<trkpt lat="53.349286" lon="-1.662400"><ele>304</ele><time>2024-04-13T13:35:51Z</time><name>PT3489</name></trkpt>
<trkpt lat="53.349244" lon="-1.662416"><ele>304</ele><time>2024-04-13T13:35:54Z</time><name>PT3490</name></trkpt>
<trkpt lat="53.349208" lon="-1.662437"><ele>302</ele><time>2024-04-13T13:35:57Z</time><name>PT3491</name></trkpt>
<trkpt lat="53.349157" lon="-1.662458"><ele>301</ele><time>2024-04-13T13:36:01Z</time><name>PT3492</name></trkpt>
<trkpt lat="53.349105" lon="-1.662473"><ele>301</ele><time>2024-04-13T13:36:05Z</time><name>PT3493</name></trkpt>
<trkpt lat="53.349053" lon="-1.662486"><ele>301</ele><time>2024-04-13T13:36:08Z</time><name>PT3494</name></trkpt>
<trkpt lat="53.349018" lon="-1.662522"><ele>301</ele><time>2024-04-13T13:36:11Z</time><name>PT3495</name></trkpt>
<trkpt lat="53.348978" lon="-1.662536"><ele>301</ele><time>2024-04-13T13:36:14Z</time><name>PT3496</name></trkpt>
<trkpt lat="53.348921" lon="-1.662551"><ele>301</ele><time>2024-04-13T13:36:18Z</time><name>PT3497</name></trkpt>
<trkpt lat="53.348853" lon="-1.662554"><ele>302</ele><time>2024-04-13T13:36:22Z</time><name>PT3498</name></trkpt>
<trkpt lat="53.348801" lon="-1.662562"><ele>302</ele><time>2024-04-13T13:36:26Z</time><name>PT3499</name></trkpt>
<trkpt lat="53.348757" lon="-1.662568"><ele>301</ele><time>2024-04-13T13:36:30Z</time><name>PT3500</name></trkpt>
<trkpt lat="53.348709" lon="-1.662582"><ele>301</ele><time>2024-04-13T13:36:33Z</time><name>PT3501</name></trkpt>
<trkpt lat="53.348665" lon="-1.662606"><ele>301</ele><time>2024-04-13T13:36:37Z</time><name>PT3502</name></trkpt>
<trkpt lat="53.348663" lon="-1.662627"><ele>301</ele><time>2024-04-13T13:36:40Z</time><name>PT3503</name></trkpt>
<trkpt lat="53.348662" lon="-1.662627"><ele>301</ele><time>2024-04-13T13:36:44Z</time><name>PT3504</name></trkpt>
<trkpt lat="53.348631" lon="-1.662674"><ele>301</ele><time>2024-04-13T13:36:48Z</time><name>PT3505</name></trkpt>
<trkpt lat="53.348631" lon="-1.662675"><ele>302</ele><time>2024-04-13T13:36:52Z</time><name>PT3506</name></trkpt>
<trkpt lat="53.348630" lon="-1.662684"><ele>301</ele><time>2024-04-13T13:36:55Z</time><name>PT3507</name></trkpt>
<trkpt lat="53.348622" lon="-1.662750"><ele>301</ele><time>2024-04-13T13:36:58Z</time><name>PT3508</name></trkpt>
<trkpt lat="53.348606" lon="-1.662809"><ele>300</ele><time>2024-04-13T13:37:01Z</time><name>PT3509</name></trkpt>
<trkpt lat="53.348581" lon="-1.662900"><ele>300</ele><time>2024-04-13T13:37:05Z</time><name>PT3510</name></trkpt>
<trkpt lat="53.348557" lon="-1.662992"><ele>300</ele><time>2024-04-13T13:37:09Z</time><name>PT3511</name></trkpt>
<trkpt lat="53.348545" lon="-1.663071"><ele>300</ele><time>2024-04-13T13:37:12Z</time><name>PT3512</name></trkpt>
<trkpt lat="53.348533" lon="-1.663164"><ele>300</ele><time>2024-04-13T13:37:16Z</time><name>PT3513</name></trkpt>
<trkpt lat="53.348522" lon="-1.663232"><ele>300</ele><time>2024-04-13T13:37:19Z</time><name>PT3514</name></trkpt>
<trkpt lat="53.348509" lon="-1.663317"><ele>300</ele><time>2024-04-13T13:37:23Z</time><name>PT3515</name></trkpt>
<trkpt lat="53.348500" lon="-1.663385"><ele>299</ele><time>2024-04-13T13:37:26Z</time><name>PT3516</name></trkpt>
<trkpt lat="53.348485" lon="-1.663453"><ele>300</ele><time>2024-04-13T13:37:29Z</time><name>PT3517</name></trkpt>
<trkpt lat="53.348472" lon="-1.663547"><ele>300</ele><time>2024-04-13T13:37:33Z</time><name>PT3518</name></trkpt>
<trkpt lat="53.348459" lon="-1.663620"><ele>300</ele><time>2024-04-13T13:37:36Z</time><name>PT3519</name></trkpt>
<trkpt lat="53.348446" lon="-1.663701"><ele>301</ele><time>2024-04-13T13:37:40Z</time><name>PT3520</name></trkpt>
<trkpt lat="53.348433" lon="-1.663792"><ele>301</ele><time>2024-04-13T13:37:44Z</time><name>PT3521</name></trkpt>
<trkpt lat="53.348427" lon="-1.663887"><ele>301</ele><time>2024-04-13T13:37:48Z</time><name>PT3522</name></trkpt>
<trkpt lat="53.348426" lon="-1.663958"><ele>301</ele><time>2024-04-13T13:37:51Z</time><name>PT3523</name></trkpt>
<trkpt lat="53.348439" lon="-1.664043"><ele>301</ele><time>2024-04-13T13:37:55Z</time><name>PT3524</name></trkpt>
<trkpt lat="53.348452" lon="-1.664139"><ele>300</ele><time>2024-04-13T13:37:59Z</time><name>PT3525</name></trkpt>
<trkpt lat="53.348461" lon="-1.664200"><ele>299</ele><time>2024-04-13T13:38:02Z</time><name>PT3526</name></trkpt>
<trkpt lat="53.348475" lon="-1.664278"><ele>298</ele><time>2024-04-13T13:38:06Z</time><name>PT3527</name></trkpt>
<trkpt lat="53.348475" lon="-1.664322"><ele>296</ele><time>2024-04-13T13:38:09Z</time><name>PT3528</name></trkpt>
<trkpt lat="53.348474" lon="-1.664368"><ele>296</ele><time>2024-04-13T13:38:12Z</time><name>PT3529</name></trkpt>
<trkpt lat="53.348477" lon="-1.664420"><ele>295</ele><time>2024-04-13T13:38:16Z</time><name>PT3530</name></trkpt>
<trkpt lat="53.348486" lon="-1.664496"><ele>295</ele><time>2024-04-13T13:38:20Z</time><name>PT3531</name></trkpt>
<trkpt lat="53.348479" lon="-1.664542"><ele>294</ele><time>2024-04-13T13:38:24Z</time><name>PT3532</name></trkpt>
<trkpt lat="53.348478" lon="-1.664559"><ele>294</ele><time>2024-04-13T13:38:27Z</time><name>PT3533</name></trkpt>
<trkpt lat="53.348475" lon="-1.664565"><ele>294</ele><time>2024-04-13T13:38:34Z</time><name>PT3534</name></trkpt>
<trkpt lat="53.348461" lon="-1.664609"><ele>294</ele><time>2024-04-13T13:38:37Z</time><name>PT3535</name></trkpt>
<trkpt lat="53.348442" lon="-1.664630"><ele>293</ele><time>2024-04-13T13:38:41Z</time><name>PT3536</name></trkpt>
<trkpt lat="53.348435" lon="-1.664648"><ele>293</ele><time>2024-04-13T13:38:45Z</time><name>PT3537</name></trkpt>
<trkpt lat="53.348428" lon="-1.664683"><ele>292</ele><time>2024-04-13T13:38:49Z</time><name>PT3538</name></trkpt>
<trkpt lat="53.348430" lon="-1.664712"><ele>292</ele><time>2024-04-13T13:38:52Z</time><name>PT3539</name></trkpt>
<trkpt lat="53.348412" lon="-1.664760"><ele>292</ele><time>2024-04-13T13:38:55Z</time><name>PT3540</name></trkpt>
<trkpt lat="53.348395" lon="-1.664807"><ele>292</ele><time>2024-04-13T13:38:59Z</time><name>PT3541</name></trkpt>
<trkpt lat="53.348383" lon="-1.664840"><ele>292</ele><time>2024-04-13T13:39:03Z</time><name>PT3542</name></trkpt>
<trkpt lat="53.348363" lon="-1.664874"><ele>291</ele><time>2024-04-13T13:39:06Z</time><name>PT3543</name></trkpt>
<trkpt lat="53.348341" lon="-1.664946"><ele>291</ele><time>2024-04-13T13:39:10Z</time><name>PT3544</name></trkpt>
<trkpt lat="53.348319" lon="-1.665013"><ele>291</ele><time>2024-04-13T13:39:14Z</time><name>PT3545</name></trkpt>
<trkpt lat="53.348299" lon="-1.665072"><ele>291</ele><time>2024-04-13T13:39:17Z</time><name>PT3546</name></trkpt>
<trkpt lat="53.348279" lon="-1.665154"><ele>290</ele><time>2024-04-13T13:39:21Z</time><name>PT3547</name></trkpt>
<trkpt lat="53.348258" lon="-1.665210"><ele>290</ele><time>2024-04-13T13:39:24Z</time><name>PT3548</name></trkpt>
<trkpt lat="53.348230" lon="-1.665285"><ele>291</ele><time>2024-04-13T13:39:28Z</time><name>PT3549</name></trkpt>
<trkpt lat="53.348213" lon="-1.665346"><ele>290</ele><time>2024-04-13T13:39:31Z</time><name>PT3550</name></trkpt>
<trkpt lat="53.348188" lon="-1.665432"><ele>289</ele><time>2024-04-13T13:39:35Z</time><name>PT3551</name></trkpt>
<trkpt lat="53.348151" lon="-1.665520"><ele>290</ele><time>2024-04-13T13:39:39Z</time><name>PT3552</name></trkpt>
<trkpt lat="53.348122" lon="-1.665569"><ele>290</ele><time>2024-04-13T13:39:42Z</time><name>PT3553</name></trkpt>
<trkpt lat="53.348087" lon="-1.665636"><ele>290</ele><time>2024-04-13T13:39:46Z</time><name>PT3554</name></trkpt>
<trkpt lat="53.348066" lon="-1.665678"><ele>290</ele><time>2024-04-13T13:39:49Z</time><name>PT3555</name></trkpt>
<trkpt lat="53.348047" lon="-1.665713"><ele>289</ele><time>2024-04-13T13:39:52Z</time><name>PT3556</name></trkpt>
<trkpt lat="53.348023" lon="-1.665758"><ele>288</ele><time>2024-04-13T13:39:55Z</time><name>PT3557</name></trkpt>
<trkpt lat="53.347997" lon="-1.665794"><ele>287</ele><time>2024-04-13T13:39:58Z</time><name>PT3558</name></trkpt>
<trkpt lat="53.347965" lon="-1.665855"><ele>286</ele><time>2024-04-13T13:40:02Z</time><name>PT3559</name></trkpt>
<trkpt lat="53.347927" lon="-1.665910"><ele>284</ele><time>2024-04-13T13:40:06Z</time><name>PT3560</name></trkpt>
<trkpt lat="53.347907" lon="-1.665937"><ele>284</ele><time>2024-04-13T13:40:09Z</time><name>PT3561</name></trkpt>
<trkpt lat="53.347888" lon="-1.665955"><ele>285</ele><time>2024-04-13T13:40:13Z</time><name>PT3562</name></trkpt>
<trkpt lat="53.347861" lon="-1.666016"><ele>286</ele><time>2024-04-13T13:40:17Z</time><name>PT3563</name></trkpt>
<trkpt lat="53.347831" lon="-1.666041"><ele>285</ele><time>2024-04-13T13:40:20Z</time><name>PT3564</name></trkpt>
<trkpt lat="53.347798" lon="-1.666063"><ele>285</ele><time>2024-04-13T13:40:23Z</time><name>PT3565</name></trkpt>
<trkpt lat="53.347761" lon="-1.666093"><ele>284</ele><time>2024-04-13T13:40:27Z</time><name>PT3566</name></trkpt>
<trkpt lat="53.347730" lon="-1.666096"><ele>283</ele><time>2024-04-13T13:40:30Z</time><name>PT3567</name></trkpt>
<trkpt lat="53.347696" lon="-1.666096"><ele>282</ele><time>2024-04-13T13:40:33Z</time><name>PT3568</name></trkpt>
<trkpt lat="53.347663" lon="-1.666094"><ele>281</ele><time>2024-04-13T13:40:36Z</time><name>PT3569</name></trkpt>
<trkpt lat="53.347606" lon="-1.666076"><ele>282</ele><time>2024-04-13T13:40:40Z</time><name>PT3570</name></trkpt>
<trkpt lat="53.347566" lon="-1.666062"><ele>281</ele><time>2024-04-13T13:40:43Z</time><name>PT3571</name></trkpt>
<trkpt lat="53.347516" lon="-1.666044"><ele>281</ele><time>2024-04-13T13:40:47Z</time><name>PT3572</name></trkpt>
<trkpt lat="53.347464" lon="-1.666027"><ele>281</ele><time>2024-04-13T13:40:51Z</time><name>PT3573</name></trkpt>
<trkpt lat="53.347437" lon="-1.666017"><ele>281</ele><time>2024-04-13T13:40:55Z</time><name>PT3574</name></trkpt>
<trkpt lat="53.347423" lon="-1.665995"><ele>280</ele><time>2024-04-13T13:40:58Z</time><name>PT3575</name></trkpt>
<trkpt lat="53.347405" lon="-1.665974"><ele>280</ele><time>2024-04-13T13:41:01Z</time><name>PT3576</name></trkpt>
<trkpt lat="53.347377" lon="-1.665957"><ele>280</ele><time>2024-04-13T13:41:05Z</time><name>PT3577</name></trkpt>
<trkpt lat="53.347367" lon="-1.665949"><ele>280</ele><time>2024-04-13T13:41:08Z</time><name>PT3578</name></trkpt>
<trkpt lat="53.347351" lon="-1.665946"><ele>279</ele><time>2024-04-13T13:41:12Z</time><name>PT3579</name></trkpt>
<trkpt lat="53.347329" lon="-1.665928"><ele>280</ele><time>2024-04-13T13:41:15Z</time><name>PT3580</name></trkpt>
<trkpt lat="53.347314" lon="-1.665918"><ele>279</ele><time>2024-04-13T13:41:18Z</time><name>PT3581</name></trkpt>
<trkpt lat="53.347272" lon="-1.665913"><ele>279</ele><time>2024-04-13T13:41:22Z</time><name>PT3582</name></trkpt>
<trkpt lat="53.347233" lon="-1.665917"><ele>280</ele><time>2024-04-13T13:41:25Z</time><name>PT3583</name></trkpt>
<trkpt lat="53.347177" lon="-1.665910"><ele>280</ele><time>2024-04-13T13:41:29Z</time><name>PT3584</name></trkpt>
<trkpt lat="53.347141" lon="-1.665910"><ele>280</ele><time>2024-04-13T13:41:32Z</time><name>PT3585</name></trkpt>
<trkpt lat="53.347094" lon="-1.665920"><ele>280</ele><time>2024-04-13T13:41:36Z</time><name>PT3586</name></trkpt>
<trkpt lat="53.347039" lon="-1.665901"><ele>280</ele><time>2024-04-13T13:41:40Z</time><name>PT3587</name></trkpt>
<trkpt lat="53.346982" lon="-1.665896"><ele>279</ele><time>2024-04-13T13:41:44Z</time><name>PT3588</name></trkpt>
<trkpt lat="53.346927" lon="-1.665884"><ele>278</ele><time>2024-04-13T13:41:48Z</time><name>PT3589</name></trkpt>
<trkpt lat="53.346884" lon="-1.665890"><ele>278</ele><time>2024-04-13T13:41:51Z</time><name>PT3590</name></trkpt>
<trkpt lat="53.346846" lon="-1.665890"><ele>278</ele><time>2024-04-13T13:41:54Z</time><name>PT3591</name></trkpt>
<trkpt lat="53.346812" lon="-1.665889"><ele>276</ele><time>2024-04-13T13:41:57Z</time><name>PT3592</name></trkpt>
<trkpt lat="53.346763" lon="-1.665926"><ele>276</ele><time>2024-04-13T13:42:01Z</time><name>PT3593</name></trkpt>
<trkpt lat="53.346731" lon="-1.665952"><ele>275</ele><time>2024-04-13T13:42:04Z</time><name>PT3594</name></trkpt>
<trkpt lat="53.346693" lon="-1.666001"><ele>274</ele><time>2024-04-13T13:42:08Z</time><name>PT3595</name></trkpt>
<trkpt lat="53.346651" lon="-1.666026"><ele>273</ele><time>2024-04-13T13:42:12Z</time><name>PT3596</name></trkpt>
<trkpt lat="53.346620" lon="-1.666053"><ele>273</ele><time>2024-04-13T13:42:15Z</time><name>PT3597</name></trkpt>
<trkpt lat="53.346570" lon="-1.666074"><ele>272</ele><time>2024-04-13T13:42:19Z</time><name>PT3598</name></trkpt>
<trkpt lat="53.346529" lon="-1.666090"><ele>272</ele><time>2024-04-13T13:42:22Z</time><name>PT3599</name></trkpt>
<trkpt lat="53.346480" lon="-1.666119"><ele>271</ele><time>2024-04-13T13:42:26Z</time><name>PT3600</name></trkpt>
<trkpt lat="53.346443" lon="-1.666118"><ele>270</ele><time>2024-04-13T13:42:29Z</time><name>PT3601</name></trkpt>
<trkpt lat="53.346409" lon="-1.666120"><ele>270</ele><time>2024-04-13T13:42:32Z</time><name>PT3602</name></trkpt>
<trkpt lat="53.346383" lon="-1.666118"><ele>271</ele><time>2024-04-13T13:42:35Z</time><name>PT3603</name></trkpt>
<trkpt lat="53.346361" lon="-1.666103"><ele>270</ele><time>2024-04-13T13:42:38Z</time><name>PT3604</name></trkpt>
<trkpt lat="53.346345" lon="-1.666078"><ele>269</ele><time>2024-04-13T13:42:42Z</time><name>PT3605</name></trkpt>
<trkpt lat="53.346331" lon="-1.666064"><ele>269</ele><time>2024-04-13T13:42:45Z</time><name>PT3606</name></trkpt>
<trkpt lat="53.346323" lon="-1.666057"><ele>268</ele><time>2024-04-13T13:42:49Z</time><name>PT3607</name></trkpt>
<trkpt lat="53.346304" lon="-1.666030"><ele>267</ele><time>2024-04-13T13:42:53Z</time><name>PT3608</name></trkpt>
<trkpt lat="53.346299" lon="-1.666026"><ele>268</ele><time>2024-04-13T13:42:57Z</time><name>PT3609</name></trkpt>
<trkpt lat="53.346271" lon="-1.666043"><ele>269</ele><time>2024-04-13T13:43:01Z</time><name>PT3610</name></trkpt>
<trkpt lat="53.346255" lon="-1.666073"><ele>268</ele><time>2024-04-13T13:43:04Z</time><name>PT3611</name></trkpt>
<trkpt lat="53.346226" lon="-1.666099"><ele>268</ele><time>2024-04-13T13:43:07Z</time><name>PT3612</name></trkpt>
<trkpt lat="53.346197" lon="-1.666128"><ele>266</ele><time>2024-04-13T13:43:11Z</time><name>PT3613</name></trkpt>
<trkpt lat="53.346166" lon="-1.666164"><ele>265</ele><time>2024-04-13T13:43:14Z</time><name>PT3614</name></trkpt>
<trkpt lat="53.346141" lon="-1.666179"><ele>264</ele><time>2024-04-13T13:43:17Z</time><name>PT3615</name></trkpt>
<trkpt lat="53.346101" lon="-1.666211"><ele>264</ele><time>2024-04-13T13:43:21Z</time><name>PT3616</name></trkpt>
<trkpt lat="53.346071" lon="-1.666231"><ele>263</ele><time>2024-04-13T13:43:24Z</time><name>PT3617</name></trkpt>
<trkpt lat="53.346043" lon="-1.666250"><ele>262</ele><time>2024-04-13T13:43:27Z</time><name>PT3618</name></trkpt>
<trkpt lat="53.346016" lon="-1.666282"><ele>262</ele><time>2024-04-13T13:43:30Z</time><name>PT3619</name></trkpt>
<trkpt lat="53.345978" lon="-1.666348"><ele>260</ele><time>2024-04-13T13:43:34Z</time><name>PT3620</name></trkpt>
<trkpt lat="53.345937" lon="-1.666378"><ele>260</ele><time>2024-04-13T13:43:38Z</time><name>PT3621</name></trkpt>
<trkpt lat="53.345907" lon="-1.666406"><ele>261</ele><time>2024-04-13T13:43:41Z</time><name>PT3622</name></trkpt>
<trkpt lat="53.345867" lon="-1.666422"><ele>264</ele><time>2024-04-13T13:43:45Z</time><name>PT3623</name></trkpt>
<trkpt lat="53.345844" lon="-1.666451"><ele>264</ele><time>2024-04-13T13:43:48Z</time><name>PT3624</name></trkpt>
<trkpt lat="53.345803" lon="-1.666515"><ele>266</ele><time>2024-04-13T13:43:52Z</time><name>PT3625</name></trkpt>
<trkpt lat="53.345774" lon="-1.666557"><ele>267</ele><time>2024-04-13T13:43:55Z</time><name>PT3626</name></trkpt>
<trkpt lat="53.345735" lon="-1.666606"><ele>266</ele><time>2024-04-13T13:43:58Z</time><name>PT3627</name></trkpt>
<trkpt lat="53.345692" lon="-1.666658"><ele>265</ele><time>2024-04-13T13:44:02Z</time><name>PT3628</name></trkpt>
<trkpt lat="53.345668" lon="-1.666717"><ele>263</ele><time>2024-04-13T13:44:06Z</time><name>PT3629</name></trkpt>
<trkpt lat="53.345634" lon="-1.666773"><ele>263</ele><time>2024-04-13T13:44:09Z</time><name>PT3630</name></trkpt>
<trkpt lat="53.345604" lon="-1.666844"><ele>262</ele><time>2024-04-13T13:44:13Z</time><name>PT3631</name></trkpt>
<trkpt lat="53.345570" lon="-1.666909"><ele>260</ele><time>2024-04-13T13:44:17Z</time><name>PT3632</name></trkpt>
<trkpt lat="53.345540" lon="-1.666979"><ele>258</ele><time>2024-04-13T13:44:21Z</time><name>PT3633</name></trkpt>
<trkpt lat="53.345507" lon="-1.667062"><ele>259</ele><time>2024-04-13T13:44:25Z</time><name>PT3634</name></trkpt>
<trkpt lat="53.345486" lon="-1.667116"><ele>258</ele><time>2024-04-13T13:44:28Z</time><name>PT3635</name></trkpt>
<trkpt lat="53.345460" lon="-1.667181"><ele>259</ele><time>2024-04-13T13:44:31Z</time><name>PT3636</name></trkpt>
<trkpt lat="53.345441" lon="-1.667230"><ele>258</ele><time>2024-04-13T13:44:34Z</time><name>PT3637</name></trkpt>
<trkpt lat="53.345413" lon="-1.667311"><ele>258</ele><time>2024-04-13T13:44:38Z</time><name>PT3638</name></trkpt>
<trkpt lat="53.345400" lon="-1.667363"><ele>257</ele><time>2024-04-13T13:44:41Z</time><name>PT3639</name></trkpt>
<trkpt lat="53.345374" lon="-1.667437"><ele>256</ele><time>2024-04-13T13:44:45Z</time><name>PT3640</name></trkpt>
<trkpt lat="53.345351" lon="-1.667482"><ele>255</ele><time>2024-04-13T13:44:48Z</time><name>PT3641</name></trkpt>
<trkpt lat="53.345336" lon="-1.667556"><ele>254</ele><time>2024-04-13T13:44:52Z</time><name>PT3642</name></trkpt>
<trkpt lat="53.345324" lon="-1.667614"><ele>254</ele><time>2024-04-13T13:44:55Z</time><name>PT3643</name></trkpt>
<trkpt lat="53.345309" lon="-1.667662"><ele>254</ele><time>2024-04-13T13:44:58Z</time><name>PT3644</name></trkpt>
<trkpt lat="53.345303" lon="-1.667722"><ele>251</ele><time>2024-04-13T13:45:02Z</time><name>PT3645</name></trkpt>
<trkpt lat="53.345293" lon="-1.667809"><ele>251</ele><time>2024-04-13T13:45:06Z</time><name>PT3646</name></trkpt>
<trkpt lat="53.345286" lon="-1.667866"><ele>250</ele><time>2024-04-13T13:45:09Z</time><name>PT3647</name></trkpt>
<trkpt lat="53.345291" lon="-1.667925"><ele>249</ele><time>2024-04-13T13:45:12Z</time><name>PT3648</name></trkpt>
<trkpt lat="53.345293" lon="-1.667998"><ele>248</ele><time>2024-04-13T13:45:16Z</time><name>PT3649</name></trkpt>
<trkpt lat="53.345280" lon="-1.668106"><ele>248</ele><time>2024-04-13T13:45:20Z</time><name>PT3650</name></trkpt>
<trkpt lat="53.345267" lon="-1.668179"><ele>249</ele><time>2024-04-13T13:45:23Z</time><name>PT3651</name></trkpt>
<trkpt lat="53.345247" lon="-1.668273"><ele>248</ele><time>2024-04-13T13:45:27Z</time><name>PT3652</name></trkpt>
<trkpt lat="53.345231" lon="-1.668333"><ele>248</ele><time>2024-04-13T13:45:30Z</time><name>PT3653</name></trkpt>
<trkpt lat="53.345229" lon="-1.668378"><ele>248</ele><time>2024-04-13T13:45:33Z</time><name>PT3654</name></trkpt>
<trkpt lat="53.345218" lon="-1.668444"><ele>246</ele><time>2024-04-13T13:45:37Z</time><name>PT3655</name></trkpt>
<trkpt lat="53.345200" lon="-1.668534"><ele>244</ele><time>2024-04-13T13:45:41Z</time><name>PT3656</name></trkpt>
<trkpt lat="53.345195" lon="-1.668580"><ele>243</ele><time>2024-04-13T13:45:44Z</time><name>PT3657</name></trkpt>
<trkpt lat="53.345173" lon="-1.668650"><ele>242</ele><time>2024-04-13T13:45:48Z</time><name>PT3658</name></trkpt>
<trkpt lat="53.345158" lon="-1.668728"><ele>242</ele><time>2024-04-13T13:45:52Z</time><name>PT3659</name></trkpt>
<trkpt lat="53.345141" lon="-1.668795"><ele>243</ele><time>2024-04-13T13:45:55Z</time><name>PT3660</name></trkpt>
<trkpt lat="53.345127" lon="-1.668896"><ele>243</ele><time>2024-04-13T13:45:59Z</time><name>PT3661</name></trkpt>
<trkpt lat="53.345110" lon="-1.668966"><ele>243</ele><time>2024-04-13T13:46:03Z</time><name>PT3662</name></trkpt>
<trkpt lat="53.345089" lon="-1.669017"><ele>239</ele><time>2024-04-13T13:46:07Z</time><name>PT3663</name></trkpt>
<trkpt lat="53.345073" lon="-1.669053"><ele>237</ele><time>2024-04-13T13:46:10Z</time><name>PT3664</name></trkpt>
<trkpt lat="53.345034" lon="-1.669136"><ele>237</ele><time>2024-04-13T13:46:14Z</time><name>PT3665</name></trkpt>
<trkpt lat="53.344996" lon="-1.669245"><ele>240</ele><time>2024-04-13T13:46:18Z</time><name>PT3666</name></trkpt>
<trkpt lat="53.344966" lon="-1.669308"><ele>240</ele><time>2024-04-13T13:46:21Z</time><name>PT3667</name></trkpt>
<trkpt lat="53.344930" lon="-1.669380"><ele>240</ele><time>2024-04-13T13:46:24Z</time><name>PT3668</name></trkpt>
<trkpt lat="53.344908" lon="-1.669419"><ele>241</ele><time>2024-04-13T13:46:27Z</time><name>PT3669</name></trkpt>
<trkpt lat="53.344894" lon="-1.669407"><ele>242</ele><time>2024-04-13T13:46:42Z</time><name>PT3670</name></trkpt>
<trkpt lat="53.344855" lon="-1.669432"><ele>239</ele><time>2024-04-13T13:46:45Z</time><name>PT3671</name></trkpt>
<trkpt lat="53.344833" lon="-1.669493"><ele>238</ele><time>2024-04-13T13:46:49Z</time><name>PT3672</name></trkpt>
<trkpt lat="53.344810" lon="-1.669527"><ele>236</ele><time>2024-04-13T13:46:52Z</time><name>PT3673</name></trkpt>
<trkpt lat="53.344753" lon="-1.669589"><ele>233</ele><time>2024-04-13T13:46:56Z</time><name>PT3674</name></trkpt>
<trkpt lat="53.344712" lon="-1.669605"><ele>231</ele><time>2024-04-13T13:46:59Z</time><name>PT3675</name></trkpt>
<trkpt lat="53.344666" lon="-1.669688"><ele>230</ele><time>2024-04-13T13:47:03Z</time><name>PT3676</name></trkpt>
<trkpt lat="53.344565" lon="-1.669834"><ele>231</ele><time>2024-04-13T13:47:07Z</time><name>PT3677</name></trkpt>
<trkpt lat="53.344519" lon="-1.669904"><ele>231</ele><time>2024-04-13T13:47:10Z</time><name>PT3678</name></trkpt>
<trkpt lat="53.344477" lon="-1.669948"><ele>231</ele><time>2024-04-13T13:47:13Z</time><name>PT3679</name></trkpt>
<trkpt lat="53.344431" lon="-1.669982"><ele>232</ele><time>2024-04-13T13:47:17Z</time><name>PT3680</name></trkpt>
<trkpt lat="53.344372" lon="-1.670064"><ele>233</ele><time>2024-04-13T13:47:20Z</time><name>PT3681</name></trkpt>
<trkpt lat="53.344328" lon="-1.670082"><ele>233</ele><time>2024-04-13T13:47:24Z</time><name>PT3682</name></trkpt>
<trkpt lat="53.344289" lon="-1.670136"><ele>231</ele><time>2024-04-13T13:47:27Z</time><name>PT3683</name></trkpt>
<trkpt lat="53.344275" lon="-1.670159"><ele>230</ele><time>2024-04-13T13:47:30Z</time><name>PT3684</name></trkpt>
<trkpt lat="53.344226" lon="-1.670206"><ele>228</ele><time>2024-04-13T13:47:34Z</time><name>PT3685</name></trkpt>
<trkpt lat="53.344190" lon="-1.670255"><ele>228</ele><time>2024-04-13T13:47:38Z</time><name>PT3686</name></trkpt>
<trkpt lat="53.344133" lon="-1.670316"><ele>230</ele><time>2024-04-13T13:47:42Z</time><name>PT3687</name></trkpt>
<trkpt lat="53.344085" lon="-1.670386"><ele>229</ele><time>2024-04-13T13:47:45Z</time><name>PT3688</name></trkpt>
<trkpt lat="53.344037" lon="-1.670435"><ele>229</ele><time>2024-04-13T13:47:49Z</time><name>PT3689</name></trkpt>
<trkpt lat="53.343998" lon="-1.670483"><ele>228</ele><time>2024-04-13T13:47:52Z</time><name>PT3690</name></trkpt>
<trkpt lat="53.343964" lon="-1.670503"><ele>228</ele><time>2024-04-13T13:47:55Z</time><name>PT3691</name></trkpt>
<trkpt lat="53.343894" lon="-1.670592"><ele>227</ele><time>2024-04-13T13:47:59Z</time><name>PT3692</name></trkpt>
<trkpt lat="53.343864" lon="-1.670626"><ele>228</ele><time>2024-04-13T13:48:02Z</time><name>PT3693</name></trkpt>
<trkpt lat="53.343830" lon="-1.670657"><ele>227</ele><time>2024-04-13T13:48:06Z</time><name>PT3694</name></trkpt>
<trkpt lat="53.343808" lon="-1.670702"><ele>226</ele><time>2024-04-13T13:48:09Z</time><name>PT3695</name></trkpt>
<trkpt lat="53.343774" lon="-1.670739"><ele>226</ele><time>2024-04-13T13:48:13Z</time><name>PT3696</name></trkpt>
<trkpt lat="53.343756" lon="-1.670748"><ele>225</ele><time>2024-04-13T13:48:16Z</time><name>PT3697</name></trkpt>
<trkpt lat="53.343720" lon="-1.670789"><ele>227</ele><time>2024-04-13T13:48:20Z</time><name>PT3698</name></trkpt>
<trkpt lat="53.343705" lon="-1.670811"><ele>226</ele><time>2024-04-13T13:48:23Z</time><name>PT3699</name></trkpt>
<trkpt lat="53.343685" lon="-1.670846"><ele>227</ele><time>2024-04-13T13:48:26Z</time><name>PT3700</name></trkpt>
<trkpt lat="53.343649" lon="-1.670891"><ele>226</ele><time>2024-04-13T13:48:30Z</time><name>PT3701</name></trkpt>
<trkpt lat="53.343638" lon="-1.670903"><ele>224</ele><time>2024-04-13T13:48:33Z</time><name>PT3702</name></trkpt>
<trkpt lat="53.343635" lon="-1.670907"><ele>224</ele><time>2024-04-13T13:48:37Z</time><name>PT3703</name></trkpt>
<trkpt lat="53.343606" lon="-1.670957"><ele>221</ele><time>2024-04-13T13:48:41Z</time><name>PT3704</name></trkpt>
<trkpt lat="53.343579" lon="-1.671033"><ele>219</ele><time>2024-04-13T13:48:45Z</time><name>PT3705</name></trkpt>
<trkpt lat="53.343543" lon="-1.671088"><ele>219</ele><time>2024-04-13T13:48:49Z</time><name>PT3706</name></trkpt>
<trkpt lat="53.343527" lon="-1.671153"><ele>219</ele><time>2024-04-13T13:48:52Z</time><name>PT3707</name></trkpt>
<trkpt lat="53.343533" lon="-1.671187"><ele>219</ele><time>2024-04-13T13:48:56Z</time><name>PT3708</name></trkpt>
<trkpt lat="53.343516" lon="-1.671239"><ele>219</ele><time>2024-04-13T13:48:59Z</time><name>PT3709</name></trkpt>
<trkpt lat="53.343484" lon="-1.671340"><ele>218</ele><time>2024-04-13T13:49:03Z</time><name>PT3710</name></trkpt>
<trkpt lat="53.343454" lon="-1.671413"><ele>218</ele><time>2024-04-13T13:49:06Z</time><name>PT3711</name></trkpt>
<trkpt lat="53.343403" lon="-1.671511"><ele>218</ele><time>2024-04-13T13:49:10Z</time><name>PT3712</name></trkpt>
<trkpt lat="53.343374" lon="-1.671563"><ele>218</ele><time>2024-04-13T13:49:13Z</time><name>PT3713</name></trkpt>
<trkpt lat="53.343358" lon="-1.671611"><ele>217</ele><time>2024-04-13T13:49:16Z</time><name>PT3714</name></trkpt>
<trkpt lat="53.343342" lon="-1.671657"><ele>218</ele><time>2024-04-13T13:49:19Z</time><name>PT3715</name></trkpt>
<trkpt lat="53.343313" lon="-1.671726"><ele>216</ele><time>2024-04-13T13:49:23Z</time><name>PT3716</name></trkpt>
<trkpt lat="53.343283" lon="-1.671798"><ele>216</ele><time>2024-04-13T13:49:26Z</time><name>PT3717</name></trkpt>
<trkpt lat="53.343252" lon="-1.671860"><ele>216</ele><time>2024-04-13T13:49:30Z</time><name>PT3718</name></trkpt>
<trkpt lat="53.343217" lon="-1.671934"><ele>218</ele><time>2024-04-13T13:49:34Z</time><name>PT3719</name></trkpt>
<trkpt lat="53.343192" lon="-1.671983"><ele>218</ele><time>2024-04-13T13:49:37Z</time><name>PT3720</name></trkpt>
<trkpt lat="53.343171" lon="-1.672044"><ele>218</ele><time>2024-04-13T13:49:41Z</time><name>PT3721</name></trkpt>
<trkpt lat="53.343145" lon="-1.672110"><ele>217</ele><time>2024-04-13T13:49:44Z</time><name>PT3722</name></trkpt>
<trkpt lat="53.343102" lon="-1.672199"><ele>216</ele><time>2024-04-13T13:49:48Z</time><name>PT3723</name></trkpt>
<trkpt lat="53.343046" lon="-1.672343"><ele>219</ele><time>2024-04-13T13:49:52Z</time><name>PT3724</name></trkpt>
<trkpt lat="53.343034" lon="-1.672416"><ele>219</ele><time>2024-04-13T13:49:56Z</time><name>PT3725</name></trkpt>
<trkpt lat="53.343021" lon="-1.672516"><ele>220</ele><time>2024-04-13T13:49:59Z</time><name>PT3726</name></trkpt>
<trkpt lat="53.343009" lon="-1.672600"><ele>220</ele><time>2024-04-13T13:50:03Z</time><name>PT3727</name></trkpt>
<trkpt lat="53.343008" lon="-1.672679"><ele>219</ele><time>2024-04-13T13:50:06Z</time><name>PT3728</name></trkpt>
<trkpt lat="53.343020" lon="-1.672724"><ele>218</ele><time>2024-04-13T13:50:09Z</time><name>PT3729</name></trkpt>
<trkpt lat="53.343030" lon="-1.672775"><ele>216</ele><time>2024-04-13T13:50:12Z</time><name>PT3730</name></trkpt>
<trkpt lat="53.343030" lon="-1.672855"><ele>218</ele><time>2024-04-13T13:50:15Z</time><name>PT3731</name></trkpt>
<trkpt lat="53.343048" lon="-1.672925"><ele>217</ele><time>2024-04-13T13:50:19Z</time><name>PT3732</name></trkpt>
<trkpt lat="53.343058" lon="-1.672974"><ele>217</ele><time>2024-04-13T13:50:22Z</time><name>PT3733</name></trkpt>
<trkpt lat="53.343060" lon="-1.673053"><ele>217</ele><time>2024-04-13T13:50:26Z</time><name>PT3734</name></trkpt>
<trkpt lat="53.343063" lon="-1.673103"><ele>217</ele><time>2024-04-13T13:50:29Z</time><name>PT3735</name></trkpt>
<trkpt lat="53.343067" lon="-1.673170"><ele>218</ele><time>2024-04-13T13:50:33Z</time><name>PT3736</name></trkpt>
<trkpt lat="53.343069" lon="-1.673251"><ele>218</ele><time>2024-04-13T13:50:37Z</time><name>PT3737</name></trkpt>
<trkpt lat="53.343073" lon="-1.673257"><ele>218</ele><time>2024-04-13T13:50:40Z</time><name>PT3738</name></trkpt>
<trkpt lat="53.343083" lon="-1.673280"><ele>216</ele><time>2024-04-13T13:50:44Z</time><name>PT3739</name></trkpt>
<trkpt lat="53.343114" lon="-1.673345"><ele>213</ele><time>2024-04-13T13:50:55Z</time><name>PT3740</name></trkpt>
<trkpt lat="53.343142" lon="-1.673444"><ele>211</ele><time>2024-04-13T13:50:58Z</time><name>PT3741</name></trkpt>
<trkpt lat="53.343158" lon="-1.673550"><ele>210</ele><time>2024-04-13T13:51:02Z</time><name>PT3742</name></trkpt>
<trkpt lat="53.343157" lon="-1.673671"><ele>207</ele><time>2024-04-13T13:51:06Z</time><name>PT3743</name></trkpt>
<trkpt lat="53.343155" lon="-1.673772"><ele>205</ele><time>2024-04-13T13:51:10Z</time><name>PT3744</name></trkpt>
<trkpt lat="53.343147" lon="-1.673854"><ele>205</ele><time>2024-04-13T13:51:13Z</time><name>PT3745</name></trkpt>
<trkpt lat="53.343131" lon="-1.673934"><ele>205</ele><time>2024-04-13T13:51:16Z</time><name>PT3746</name></trkpt>
<trkpt lat="53.343114" lon="-1.674031"><ele>203</ele><time>2024-04-13T13:51:20Z</time><name>PT3747</name></trkpt>
<trkpt lat="53.343082" lon="-1.674141"><ele>202</ele><time>2024-04-13T13:51:24Z</time><name>PT3748</name></trkpt>
<trkpt lat="53.343060" lon="-1.674208"><ele>202</ele><time>2024-04-13T13:51:27Z</time><name>PT3749</name></trkpt>
<trkpt lat="53.343052" lon="-1.674264"><ele>201</ele><time>2024-04-13T13:51:30Z</time><name>PT3750</name></trkpt>
<trkpt lat="53.343023" lon="-1.674351"><ele>201</ele><time>2024-04-13T13:51:34Z</time><name>PT3751</name></trkpt>
<trkpt lat="53.343014" lon="-1.674404"><ele>200</ele><time>2024-04-13T13:51:37Z</time><name>PT3752</name></trkpt>
<trkpt lat="53.343008" lon="-1.674453"><ele>199</ele><time>2024-04-13T13:51:40Z</time><name>PT3753</name></trkpt>
<trkpt lat="53.342985" lon="-1.674497"><ele>199</ele><time>2024-04-13T13:51:43Z</time><name>PT3754</name></trkpt>
<trkpt lat="53.342962" lon="-1.674577"><ele>200</ele><time>2024-04-13T13:51:47Z</time><name>PT3755</name></trkpt>
<trkpt lat="53.342948" lon="-1.674670"><ele>199</ele><time>2024-04-13T13:51:51Z</time><name>PT3756</name></trkpt>
<trkpt lat="53.342940" lon="-1.674725"><ele>197</ele><time>2024-04-13T13:51:54Z</time><name>PT3757</name></trkpt>
<trkpt lat="53.342932" lon="-1.674795"><ele>199</ele><time>2024-04-13T13:51:58Z</time><name>PT3758</name></trkpt>
<trkpt lat="53.342929" lon="-1.674906"><ele>199</ele><time>2024-04-13T13:52:02Z</time><name>PT3759</name></trkpt>
<trkpt lat="53.342917" lon="-1.674983"><ele>197</ele><time>2024-04-13T13:52:06Z</time><name>PT3760</name></trkpt>
<trkpt lat="53.342908" lon="-1.675046"><ele>197</ele><time>2024-04-13T13:52:09Z</time><name>PT3761</name></trkpt>
<trkpt lat="53.342886" lon="-1.675126"><ele>196</ele><time>2024-04-13T13:52:12Z</time><name>PT3762</name></trkpt>
<trkpt lat="53.342876" lon="-1.675195"><ele>196</ele><time>2024-04-13T13:52:15Z</time><name>PT3763</name></trkpt>
<trkpt lat="53.342886" lon="-1.675248"><ele>195</ele><time>2024-04-13T13:52:19Z</time><name>PT3764</name></trkpt>
<trkpt lat="53.342894" lon="-1.675300"><ele>195</ele><time>2024-04-13T13:52:22Z</time><name>PT3765</name></trkpt>
<trkpt lat="53.342893" lon="-1.675371"><ele>194</ele><time>2024-04-13T13:52:25Z</time><name>PT3766</name></trkpt>
<trkpt lat="53.342891" lon="-1.675428"><ele>191</ele><time>2024-04-13T13:52:29Z</time><name>PT3767</name></trkpt>
<trkpt lat="53.342911" lon="-1.675474"><ele>188</ele><time>2024-04-13T13:52:32Z</time><name>PT3768</name></trkpt>
<trkpt lat="53.342943" lon="-1.675522"><ele>186</ele><time>2024-04-13T13:52:36Z</time><name>PT3769</name></trkpt>
<trkpt lat="53.342955" lon="-1.675561"><ele>184</ele><time>2024-04-13T13:52:39Z</time><name>PT3770</name></trkpt>
<trkpt lat="53.342965" lon="-1.675655"><ele>182</ele><time>2024-04-13T13:52:43Z</time><name>PT3771</name></trkpt>
<trkpt lat="53.342981" lon="-1.675711"><ele>180</ele><time>2024-04-13T13:52:46Z</time><name>PT3772</name></trkpt>
<trkpt lat="53.342995" lon="-1.675775"><ele>179</ele><time>2024-04-13T13:52:50Z</time><name>PT3773</name></trkpt>
<trkpt lat="53.343004" lon="-1.675787"><ele>179</ele><time>2024-04-13T13:52:53Z</time><name>PT3774</name></trkpt>
<trkpt lat="53.343024" lon="-1.675853"><ele>176</ele><time>2024-04-13T13:52:57Z</time><name>PT3775</name></trkpt>
<trkpt lat="53.343053" lon="-1.675904"><ele>174</ele><time>2024-04-13T13:53:03Z</time><name>PT3776</name></trkpt>
<trkpt lat="53.343075" lon="-1.675968"><ele>171</ele><time>2024-04-13T13:53:07Z</time><name>PT3777</name></trkpt>
<trkpt lat="53.343073" lon="-1.676024"><ele>171</ele><time>2024-04-13T13:53:10Z</time><name>PT3778</name></trkpt>
<trkpt lat="53.343107" lon="-1.676099"><ele>170</ele><time>2024-04-13T13:53:14Z</time><name>PT3779</name></trkpt>
<trkpt lat="53.343121" lon="-1.676166"><ele>171</ele><time>2024-04-13T13:53:18Z</time><name>PT3780</name></trkpt>
<trkpt lat="53.343118" lon="-1.676198"><ele>171</ele><time>2024-04-13T13:53:21Z</time><name>PT3781</name></trkpt>
<trkpt lat="53.343108" lon="-1.676220"><ele>172</ele><time>2024-04-13T13:53:24Z</time><name>PT3782</name></trkpt>
<trkpt lat="53.343103" lon="-1.676251"><ele>172</ele><time>2024-04-13T13:53:28Z</time><name>PT3783</name></trkpt>
<trkpt lat="53.343098" lon="-1.676262"><ele>173</ele><time>2024-04-13T13:53:31Z</time><name>PT3784</name></trkpt>
<trkpt lat="53.343101" lon="-1.676268"><ele>174</ele><time>2024-04-13T13:53:34Z</time><name>PT3785</name></trkpt>
<trkpt lat="53.343098" lon="-1.676351"><ele>177</ele><time>2024-04-13T13:53:45Z</time><name>PT3786</name></trkpt>
<trkpt lat="53.343086" lon="-1.676411"><ele>178</ele><time>2024-04-13T13:53:48Z</time><name>PT3787</name></trkpt>
<trkpt lat="53.343051" lon="-1.676434"><ele>178</ele><time>2024-04-13T13:53:52Z</time><name>PT3788</name></trkpt>
<trkpt lat="53.343038" lon="-1.676446"><ele>179</ele><time>2024-04-13T13:53:56Z</time><name>PT3789</name></trkpt>
<trkpt lat="53.343014" lon="-1.676469"><ele>177</ele><time>2024-04-13T13:53:59Z</time><name>PT3790</name></trkpt>
<trkpt lat="53.342985" lon="-1.676523"><ele>177</ele><time>2024-04-13T13:54:03Z</time><name>PT3791</name></trkpt>
<trkpt lat="53.342953" lon="-1.676558"><ele>177</ele><time>2024-04-13T13:54:07Z</time><name>PT3792</name></trkpt>
<trkpt lat="53.342926" lon="-1.676604"><ele>178</ele><time>2024-04-13T13:54:10Z</time><name>PT3793</name></trkpt>
<trkpt lat="53.342883" lon="-1.676645"><ele>178</ele><time>2024-04-13T13:54:13Z</time><name>PT3794</name></trkpt>
<trkpt lat="53.342845" lon="-1.676694"><ele>179</ele><time>2024-04-13T13:54:17Z</time><name>PT3795</name></trkpt>
<trkpt lat="53.342807" lon="-1.676743"><ele>179</ele><time>2024-04-13T13:54:20Z</time><name>PT3796</name></trkpt>
<trkpt lat="53.342765" lon="-1.676772"><ele>178</ele><time>2024-04-13T13:54:23Z</time><name>PT3797</name></trkpt>
<trkpt lat="53.342718" lon="-1.676812"><ele>177</ele><time>2024-04-13T13:54:27Z</time><name>PT3798</name></trkpt>
<trkpt lat="53.342692" lon="-1.676845"><ele>177</ele><time>2024-04-13T13:54:30Z</time><name>PT3799</name></trkpt>
<trkpt lat="53.342661" lon="-1.676878"><ele>177</ele><time>2024-04-13T13:54:33Z</time><name>PT3800</name></trkpt>
<trkpt lat="53.342619" lon="-1.676920"><ele>179</ele><time>2024-04-13T13:54:36Z</time><name>PT3801</name></trkpt>
<trkpt lat="53.342595" lon="-1.676957"><ele>180</ele><time>2024-04-13T13:54:39Z</time><name>PT3802</name></trkpt>
<trkpt lat="53.342569" lon="-1.676975"><ele>182</ele><time>2024-04-13T13:54:43Z</time><name>PT3803</name></trkpt>
<trkpt lat="53.342539" lon="-1.677039"><ele>184</ele><time>2024-04-13T13:54:47Z</time><name>PT3804</name></trkpt>
<trkpt lat="53.342523" lon="-1.677104"><ele>186</ele><time>2024-04-13T13:54:51Z</time><name>PT3805</name></trkpt>
<trkpt lat="53.342499" lon="-1.677158"><ele>188</ele><time>2024-04-13T13:54:55Z</time><name>PT3806</name></trkpt>
<trkpt lat="53.342482" lon="-1.677223"><ele>191</ele><time>2024-04-13T13:54:58Z</time><name>PT3807</name></trkpt>
<trkpt lat="53.342474" lon="-1.677240"><ele>192</ele><time>2024-04-13T13:55:02Z</time><name>PT3808</name></trkpt>
<trkpt lat="53.342457" lon="-1.677290"><ele>192</ele><time>2024-04-13T13:55:05Z</time><name>PT3809</name></trkpt>
<trkpt lat="53.342443" lon="-1.677344"><ele>193</ele><time>2024-04-13T13:55:08Z</time><name>PT3810</name></trkpt>
<trkpt lat="53.342428" lon="-1.677388"><ele>194</ele><time>2024-04-13T13:55:11Z</time><name>PT3811</name></trkpt>
<trkpt lat="53.342404" lon="-1.677473"><ele>194</ele><time>2024-04-13T13:55:15Z</time><name>PT3812</name></trkpt>
<trkpt lat="53.342390" lon="-1.677520"><ele>194</ele><time>2024-04-13T13:55:18Z</time><name>PT3813</name></trkpt>
<trkpt lat="53.342372" lon="-1.677568"><ele>194</ele><time>2024-04-13T13:55:21Z</time><name>PT3814</name></trkpt>
<trkpt lat="53.342371" lon="-1.677584"><ele>194</ele><time>2024-04-13T13:55:24Z</time><name>PT3815</name></trkpt>
<trkpt lat="53.342375" lon="-1.677628"><ele>194</ele><time>2024-04-13T13:55:31Z</time><name>PT3816</name></trkpt>
<trkpt lat="53.342376" lon="-1.677695"><ele>193</ele><time>2024-04-13T13:55:34Z</time><name>PT3817</name></trkpt>
<trkpt lat="53.342362" lon="-1.677777"><ele>192</ele><time>2024-04-13T13:55:37Z</time><name>PT3818</name></trkpt>
<trkpt lat="53.342348" lon="-1.677861"><ele>191</ele><time>2024-04-13T13:55:40Z</time><name>PT3819</name></trkpt>
<trkpt lat="53.342339" lon="-1.677944"><ele>191</ele><time>2024-04-13T13:55:43Z</time><name>PT3820</name></trkpt>
<trkpt lat="53.342339" lon="-1.677974"><ele>190</ele><time>2024-04-13T13:55:47Z</time><name>PT3821</name></trkpt>
<trkpt lat="53.342347" lon="-1.678095"><ele>189</ele><time>2024-04-13T13:55:51Z</time><name>PT3822</name></trkpt>
<trkpt lat="53.342344" lon="-1.678178"><ele>187</ele><time>2024-04-13T13:55:54Z</time><name>PT3823</name></trkpt>
<trkpt lat="53.342340" lon="-1.678274"><ele>186</ele><time>2024-04-13T13:55:58Z</time><name>PT3824</name></trkpt>
<trkpt lat="53.342332" lon="-1.678356"><ele>186</ele><time>2024-04-13T13:56:02Z</time><name>PT3825</name></trkpt>
<trkpt lat="53.342337" lon="-1.678408"><ele>184</ele><time>2024-04-13T13:56:06Z</time><name>PT3826</name></trkpt>
<trkpt lat="53.342341" lon="-1.678461"><ele>185</ele><time>2024-04-13T13:56:10Z</time><name>PT3827</name></trkpt>
<trkpt lat="53.342333" lon="-1.678518"><ele>185</ele><time>2024-04-13T13:56:13Z</time><name>PT3828</name></trkpt>
<trkpt lat="53.342343" lon="-1.678606"><ele>186</ele><time>2024-04-13T13:56:17Z</time><name>PT3829</name></trkpt>
<trkpt lat="53.342345" lon="-1.678662"><ele>185</ele><time>2024-04-13T13:56:20Z</time><name>PT3830</name></trkpt>
<trkpt lat="53.342363" lon="-1.678713"><ele>185</ele><time>2024-04-13T13:56:23Z</time><name>PT3831</name></trkpt>
<trkpt lat="53.342384" lon="-1.678784"><ele>184</ele><time>2024-04-13T13:56:27Z</time><name>PT3832</name></trkpt>
<trkpt lat="53.342406" lon="-1.678874"><ele>185</ele><time>2024-04-13T13:56:31Z</time><name>PT3833</name></trkpt>
<trkpt lat="53.342421" lon="-1.678950"><ele>185</ele><time>2024-04-13T13:56:35Z</time><name>PT3834</name></trkpt>
<trkpt lat="53.342430" lon="-1.679004"><ele>185</ele><time>2024-04-13T13:56:38Z</time><name>PT3835</name></trkpt>
<trkpt lat="53.342443" lon="-1.679064"><ele>186</ele><time>2024-04-13T13:56:41Z</time><name>PT3836</name></trkpt>
<trkpt lat="53.342448" lon="-1.679138"><ele>186</ele><time>2024-04-13T13:56:45Z</time><name>PT3837</name></trkpt>
<trkpt lat="53.342463" lon="-1.679222"><ele>186</ele><time>2024-04-13T13:56:49Z</time><name>PT3838</name></trkpt>
<trkpt lat="53.342472" lon="-1.679260"><ele>185</ele><time>2024-04-13T13:56:52Z</time><name>PT3839</name></trkpt>
<trkpt lat="53.342483" lon="-1.679299"><ele>184</ele><time>2024-04-13T13:56:55Z</time><name>PT3840</name></trkpt>
<trkpt lat="53.342502" lon="-1.679348"><ele>186</ele><time>2024-04-13T13:56:58Z</time><name>PT3841</name></trkpt>
<trkpt lat="53.342501" lon="-1.679408"><ele>189</ele><time>2024-04-13T13:57:02Z</time><name>PT3842</name></trkpt>
<trkpt lat="53.342512" lon="-1.679435"><ele>191</ele><time>2024-04-13T13:57:05Z</time><name>PT3843</name></trkpt>
<trkpt lat="53.342514" lon="-1.679449"><ele>190</ele><time>2024-04-13T13:57:16Z</time><name>PT3844</name></trkpt>
<trkpt lat="53.342518" lon="-1.679472"><ele>190</ele><time>2024-04-13T13:57:19Z</time><name>PT3845</name></trkpt>
<trkpt lat="53.342502" lon="-1.679504"><ele>189</ele><time>2024-04-13T13:57:26Z</time><name>PT3846</name></trkpt>
<trkpt lat="53.342496" lon="-1.679529"><ele>189</ele><time>2024-04-13T13:57:29Z</time><name>PT3847</name></trkpt>
<trkpt lat="53.342502" lon="-1.679536"><ele>190</ele><time>2024-04-13T13:57:32Z</time><name>PT3848</name></trkpt>
<trkpt lat="53.342490" lon="-1.679601"><ele>190</ele><time>2024-04-13T13:57:35Z</time><name>PT3849</name></trkpt>
<trkpt lat="53.342458" lon="-1.679696"><ele>191</ele><time>2024-04-13T13:57:39Z</time><name>PT3850</name></trkpt>
<trkpt lat="53.342439" lon="-1.679765"><ele>191</ele><time>2024-04-13T13:57:42Z</time><name>PT3851</name></trkpt>
<trkpt lat="53.342423" lon="-1.679828"><ele>192</ele><time>2024-04-13T13:57:45Z</time><name>PT3852</name></trkpt>
<trkpt lat="53.342409" lon="-1.679884"><ele>192</ele><time>2024-04-13T13:57:48Z</time><name>PT3853</name></trkpt>
<trkpt lat="53.342394" lon="-1.679947"><ele>191</ele><time>2024-04-13T13:57:52Z</time><name>PT3854</name></trkpt>
<trkpt lat="53.342376" lon="-1.680017"><ele>191</ele><time>2024-04-13T13:57:56Z</time><name>PT3855</name></trkpt>
<trkpt lat="53.342349" lon="-1.680060"><ele>192</ele><time>2024-04-13T13:57:59Z</time><name>PT3856</name></trkpt>
<trkpt lat="53.342323" lon="-1.680114"><ele>192</ele><time>2024-04-13T13:58:02Z</time><name>PT3857</name></trkpt>
<trkpt lat="53.342289" lon="-1.680194"><ele>193</ele><time>2024-04-13T13:58:06Z</time><name>PT3858</name></trkpt>
<trkpt lat="53.342254" lon="-1.680279"><ele>194</ele><time>2024-04-13T13:58:10Z</time><name>PT3859</name></trkpt>
<trkpt lat="53.342230" lon="-1.680331"><ele>193</ele><time>2024-04-13T13:58:13Z</time><name>PT3860</name></trkpt>
<trkpt lat="53.342204" lon="-1.680388"><ele>193</ele><time>2024-04-13T13:58:17Z</time><name>PT3861</name></trkpt>
<trkpt lat="53.342180" lon="-1.680435"><ele>194</ele><time>2024-04-13T13:58:20Z</time><name>PT3862</name></trkpt>
<trkpt lat="53.342159" lon="-1.680500"><ele>193</ele><time>2024-04-13T13:58:24Z</time><name>PT3863</name></trkpt>
<trkpt lat="53.342166" lon="-1.680537"><ele>193</ele><time>2024-04-13T13:58:27Z</time><name>PT3864</name></trkpt>
<trkpt lat="53.342203" lon="-1.680593"><ele>193</ele><time>2024-04-13T13:58:31Z</time><name>PT3865</name></trkpt>
<trkpt lat="53.342226" lon="-1.680671"><ele>193</ele><time>2024-04-13T13:58:35Z</time><name>PT3866</name></trkpt>
<trkpt lat="53.342227" lon="-1.680752"><ele>193</ele><time>2024-04-13T13:58:39Z</time><name>PT3867</name></trkpt>
<trkpt lat="53.342219" lon="-1.680837"><ele>193</ele><time>2024-04-13T13:58:43Z</time><name>PT3868</name></trkpt>
<trkpt lat="53.342209" lon="-1.680905"><ele>192</ele><time>2024-04-13T13:58:46Z</time><name>PT3869</name></trkpt>
<trkpt lat="53.342206" lon="-1.680970"><ele>193</ele><time>2024-04-13T13:58:49Z</time><name>PT3870</name></trkpt>
<trkpt lat="53.342202" lon="-1.681032"><ele>192</ele><time>2024-04-13T13:58:52Z</time><name>PT3871</name></trkpt>
<trkpt lat="53.342194" lon="-1.681113"><ele>192</ele><time>2024-04-13T13:58:56Z</time><name>PT3872</name></trkpt>
<trkpt lat="53.342191" lon="-1.681166"><ele>193</ele><time>2024-04-13T13:58:59Z</time><name>PT3873</name></trkpt>
<trkpt lat="53.342199" lon="-1.681251"><ele>192</ele><time>2024-04-13T13:59:03Z</time><name>PT3874</name></trkpt>
<trkpt lat="53.342193" lon="-1.681341"><ele>192</ele><time>2024-04-13T13:59:07Z</time><name>PT3875</name></trkpt>
<trkpt lat="53.342183" lon="-1.681408"><ele>192</ele><time>2024-04-13T13:59:10Z</time><name>PT3876</name></trkpt>
<trkpt lat="53.342170" lon="-1.681470"><ele>191</ele><time>2024-04-13T13:59:13Z</time><name>PT3877</name></trkpt>
<trkpt lat="53.342156" lon="-1.681534"><ele>192</ele><time>2024-04-13T13:59:16Z</time><name>PT3878</name></trkpt>
<trkpt lat="53.342140" lon="-1.681620"><ele>192</ele><time>2024-04-13T13:59:20Z</time><name>PT3879</name></trkpt>
<trkpt lat="53.342123" lon="-1.681683"><ele>191</ele><time>2024-04-13T13:59:23Z</time><name>PT3880</name></trkpt>
<trkpt lat="53.342103" lon="-1.681771"><ele>191</ele><time>2024-04-13T13:59:27Z</time><name>PT3881</name></trkpt>
<trkpt lat="53.342085" lon="-1.681826"><ele>191</ele><time>2024-04-13T13:59:30Z</time><name>PT3882</name></trkpt>
<trkpt lat="53.342070" lon="-1.681871"><ele>190</ele><time>2024-04-13T13:59:33Z</time><name>PT3883</name></trkpt>
<trkpt lat="53.342051" lon="-1.681962"><ele>189</ele><time>2024-04-13T13:59:37Z</time><name>PT3884</name></trkpt>
<trkpt lat="53.342037" lon="-1.682019"><ele>189</ele><time>2024-04-13T13:59:40Z</time><name>PT3885</name></trkpt>
<trkpt lat="53.342021" lon="-1.682083"><ele>189</ele><time>2024-04-13T13:59:43Z</time><name>PT3886</name></trkpt>
<trkpt lat="53.341995" lon="-1.682169"><ele>188</ele><time>2024-04-13T13:59:47Z</time><name>PT3887</name></trkpt>
<trkpt lat="53.341977" lon="-1.682227"><ele>188</ele><time>2024-04-13T13:59:50Z</time><name>PT3888</name></trkpt>
<trkpt lat="53.341954" lon="-1.682308"><ele>187</ele><time>2024-04-13T13:59:54Z</time><name>PT3889</name></trkpt>
<trkpt lat="53.341924" lon="-1.682384"><ele>187</ele><time>2024-04-13T13:59:58Z</time><name>PT3890</name></trkpt>
<trkpt lat="53.341902" lon="-1.682451"><ele>187</ele><time>2024-04-13T14:00:01Z</time><name>PT3891</name></trkpt>
<trkpt lat="53.341882" lon="-1.682510"><ele>187</ele><time>2024-04-13T14:00:04Z</time><name>PT3892</name></trkpt>
<trkpt lat="53.341860" lon="-1.682565"><ele>187</ele><time>2024-04-13T14:00:07Z</time><name>PT3893</name></trkpt>
<trkpt lat="53.341834" lon="-1.682641"><ele>186</ele><time>2024-04-13T14:00:11Z</time><name>PT3894</name></trkpt>
<trkpt lat="53.341810" lon="-1.682700"><ele>186</ele><time>2024-04-13T14:00:14Z</time><name>PT3895</name></trkpt>
<trkpt lat="53.341784" lon="-1.682775"><ele>187</ele><time>2024-04-13T14:00:18Z</time><name>PT3896</name></trkpt>
<trkpt lat="53.341765" lon="-1.682830"><ele>186</ele><time>2024-04-13T14:00:21Z</time><name>PT3897</name></trkpt>
<trkpt lat="53.341734" lon="-1.682905"><ele>186</ele><time>2024-04-13T14:00:25Z</time><name>PT3898</name></trkpt>
<trkpt lat="53.341717" lon="-1.682971"><ele>186</ele><time>2024-04-13T14:00:28Z</time><name>PT3899</name></trkpt>
<trkpt lat="53.341699" lon="-1.683025"><ele>187</ele><time>2024-04-13T14:00:31Z</time><name>PT3900</name></trkpt>
<trkpt lat="53.341678" lon="-1.683103"><ele>186</ele><time>2024-04-13T14:00:35Z</time><name>PT3901</name></trkpt>
<trkpt lat="53.341662" lon="-1.683176"><ele>186</ele><time>2024-04-13T14:00:39Z</time><name>PT3902</name></trkpt>
<trkpt lat="53.341645" lon="-1.683252"><ele>185</ele><time>2024-04-13T14:00:43Z</time><name>PT3903</name></trkpt>
<trkpt lat="53.341633" lon="-1.683309"><ele>185</ele><time>2024-04-13T14:00:46Z</time><name>PT3904</name></trkpt>
<trkpt lat="53.341630" lon="-1.683362"><ele>184</ele><time>2024-04-13T14:00:49Z</time><name>PT3905</name></trkpt>
<trkpt lat="53.341621" lon="-1.683437"><ele>184</ele><time>2024-04-13T14:00:53Z</time><name>PT3906</name></trkpt>
<trkpt lat="53.341610" lon="-1.683490"><ele>184</ele><time>2024-04-13T14:00:56Z</time><name>PT3907</name></trkpt>
<trkpt lat="53.341597" lon="-1.683535"><ele>185</ele><time>2024-04-13T14:01:00Z</time><name>PT3908</name></trkpt>
<trkpt lat="53.341577" lon="-1.683550"><ele>186</ele><time>2024-04-13T14:01:03Z</time><name>PT3909</name></trkpt>
<trkpt lat="53.341554" lon="-1.683579"><ele>186</ele><time>2024-04-13T14:01:07Z</time><name>PT3910</name></trkpt>
<trkpt lat="53.341550" lon="-1.683591"><ele>186</ele><time>2024-04-13T14:01:10Z</time><name>PT3911</name></trkpt>
<trkpt lat="53.341550" lon="-1.683595"><ele>186</ele><time>2024-04-13T14:01:14Z</time><name>PT3912</name></trkpt>
<trkpt lat="53.341554" lon="-1.683639"><ele>185</ele><time>2024-04-13T14:01:17Z</time><name>PT3913</name></trkpt>
<trkpt lat="53.341555" lon="-1.683651"><ele>185</ele><time>2024-04-13T14:01:20Z</time><name>PT3914</name></trkpt>
<trkpt lat="53.341551" lon="-1.683695"><ele>185</ele><time>2024-04-13T14:01:24Z</time><name>PT3915</name></trkpt>
<trkpt lat="53.341548" lon="-1.683756"><ele>185</ele><time>2024-04-13T14:01:27Z</time><name>PT3916</name></trkpt>
<trkpt lat="53.341545" lon="-1.683844"><ele>185</ele><time>2024-04-13T14:01:31Z</time><name>PT3917</name></trkpt>
<trkpt lat="53.341540" lon="-1.683863"><ele>185</ele><time>2024-04-13T14:01:34Z</time><name>PT3918</name></trkpt>
<trkpt lat="53.341533" lon="-1.683849"><ele>185</ele><time>2024-04-13T14:01:38Z</time><name>PT3919</name></trkpt>
<trkpt lat="53.341533" lon="-1.683873"><ele>185</ele><time>2024-04-13T14:01:41Z</time><name>PT3920</name></trkpt>
<trkpt lat="53.341537" lon="-1.683934"><ele>185</ele><time>2024-04-13T14:01:44Z</time><name>PT3921</name></trkpt>
<trkpt lat="53.341530" lon="-1.684034"><ele>185</ele><time>2024-04-13T14:01:48Z</time><name>PT3922</name></trkpt>
<trkpt lat="53.341531" lon="-1.684083"><ele>183</ele><time>2024-04-13T14:01:51Z</time><name>PT3923</name></trkpt>
<trkpt lat="53.341526" lon="-1.684142"><ele>183</ele><time>2024-04-13T14:01:54Z</time><name>PT3924</name></trkpt>
<trkpt lat="53.341519" lon="-1.684213"><ele>182</ele><time>2024-04-13T14:01:58Z</time><name>PT3925</name></trkpt>
<trkpt lat="53.341510" lon="-1.684269"><ele>182</ele><time>2024-04-13T14:02:01Z</time><name>PT3926</name></trkpt>
<trkpt lat="53.341500" lon="-1.684359"><ele>182</ele><time>2024-04-13T14:02:05Z</time><name>PT3927</name></trkpt>
<trkpt lat="53.341487" lon="-1.684420"><ele>182</ele><time>2024-04-13T14:02:08Z</time><name>PT3928</name></trkpt>
<trkpt lat="53.341476" lon="-1.684509"><ele>181</ele><time>2024-04-13T14:02:12Z</time><name>PT3929</name></trkpt>
<trkpt lat="53.341458" lon="-1.684592"><ele>180</ele><time>2024-04-13T14:02:16Z</time><name>PT3930</name></trkpt>
<trkpt lat="53.341446" lon="-1.684656"><ele>180</ele><time>2024-04-13T14:02:19Z</time><name>PT3931</name></trkpt>
<trkpt lat="53.341424" lon="-1.684738"><ele>180</ele><time>2024-04-13T14:02:23Z</time><name>PT3932</name></trkpt>
<trkpt lat="53.341406" lon="-1.684812"><ele>179</ele><time>2024-04-13T14:02:27Z</time><name>PT3933</name></trkpt>
<trkpt lat="53.341392" lon="-1.684875"><ele>178</ele><time>2024-04-13T14:02:30Z</time><name>PT3934</name></trkpt>
<trkpt lat="53.341373" lon="-1.684933"><ele>178</ele><time>2024-04-13T14:02:33Z</time><name>PT3935</name></trkpt>
<trkpt lat="53.341355" lon="-1.685027"><ele>177</ele><time>2024-04-13T14:02:37Z</time><name>PT3936</name></trkpt>
<trkpt lat="53.341338" lon="-1.685113"><ele>176</ele><time>2024-04-13T14:02:41Z</time><name>PT3937</name></trkpt>
<trkpt lat="53.341321" lon="-1.685195"><ele>176</ele><time>2024-04-13T14:02:45Z</time><name>PT3938</name></trkpt>
<trkpt lat="53.341310" lon="-1.685280"><ele>176</ele><time>2024-04-13T14:02:49Z</time><name>PT3939</name></trkpt>
<trkpt lat="53.341297" lon="-1.685337"><ele>176</ele><time>2024-04-13T14:02:52Z</time><name>PT3940</name></trkpt>
<trkpt lat="53.341281" lon="-1.685411"><ele>175</ele><time>2024-04-13T14:02:56Z</time><name>PT3941</name></trkpt>
<trkpt lat="53.341265" lon="-1.685485"><ele>175</ele><time>2024-04-13T14:02:59Z</time><name>PT3942</name></trkpt>
<trkpt lat="53.341249" lon="-1.685566"><ele>174</ele><time>2024-04-13T14:03:03Z</time><name>PT3943</name></trkpt>
<trkpt lat="53.341247" lon="-1.685645"><ele>173</ele><time>2024-04-13T14:03:07Z</time><name>PT3944</name></trkpt>
<trkpt lat="53.341243" lon="-1.685719"><ele>172</ele><time>2024-04-13T14:03:11Z</time><name>PT3945</name></trkpt>
<trkpt lat="53.341257" lon="-1.685773"><ele>170</ele><time>2024-04-13T14:03:15Z</time><name>PT3946</name></trkpt>
<trkpt lat="53.341258" lon="-1.685807"><ele>169</ele><time>2024-04-13T14:03:19Z</time><name>PT3947</name></trkpt>
<trkpt lat="53.341265" lon="-1.685831"><ele>169</ele><time>2024-04-13T14:03:22Z</time><name>PT3948</name></trkpt>
<trkpt lat="53.341266" lon="-1.685841"><ele>170</ele><time>2024-04-13T14:03:26Z</time><name>PT3949</name></trkpt>
<trkpt lat="53.341264" lon="-1.685863"><ele>170</ele><time>2024-04-13T14:03:30Z</time><name>PT3950</name></trkpt>
<trkpt lat="53.341263" lon="-1.685881"><ele>170</ele><time>2024-04-13T14:03:34Z</time><name>PT3951</name></trkpt>
<trkpt lat="53.341267" lon="-1.685897"><ele>170</ele><time>2024-04-13T14:03:40Z</time><name>PT3952</name></trkpt>
<trkpt lat="53.341258" lon="-1.685963"><ele>170</ele><time>2024-04-13T14:03:44Z</time><name>PT3953</name></trkpt>
<trkpt lat="53.341255" lon="-1.686028"><ele>169</ele><time>2024-04-13T14:03:48Z</time><name>PT3954</name></trkpt>
<trkpt lat="53.341251" lon="-1.686077"><ele>169</ele><time>2024-04-13T14:03:51Z</time><name>PT3955</name></trkpt>
<trkpt lat="53.341251" lon="-1.686131"><ele>168</ele><time>2024-04-13T14:03:54Z</time><name>PT3956</name></trkpt>
<trkpt lat="53.341243" lon="-1.686194"><ele>166</ele><time>2024-04-13T14:03:58Z</time><name>PT3957</name></trkpt>
<trkpt lat="53.341240" lon="-1.686238"><ele>166</ele><time>2024-04-13T14:04:01Z</time><name>PT3958</name></trkpt>
<trkpt lat="53.341230" lon="-1.686291"><ele>165</ele><time>2024-04-13T14:04:05Z</time><name>PT3959</name></trkpt>
<trkpt lat="53.341218" lon="-1.686349"><ele>164</ele><time>2024-04-13T14:04:08Z</time><name>PT3960</name></trkpt>
<trkpt lat="53.341198" lon="-1.686407"><ele>163</ele><time>2024-04-13T14:04:12Z</time><name>PT3961</name></trkpt>
<trkpt lat="53.341176" lon="-1.686460"><ele>163</ele><time>2024-04-13T14:04:15Z</time><name>PT3962</name></trkpt>
<trkpt lat="53.341157" lon="-1.686512"><ele>163</ele><time>2024-04-13T14:04:18Z</time><name>PT3963</name></trkpt>
<trkpt lat="53.341132" lon="-1.686576"><ele>162</ele><time>2024-04-13T14:04:22Z</time><name>PT3964</name></trkpt>
<trkpt lat="53.341106" lon="-1.686647"><ele>162</ele><time>2024-04-13T14:04:26Z</time><name>PT3965</name></trkpt>
<trkpt lat="53.341085" lon="-1.686710"><ele>161</ele><time>2024-04-13T14:04:30Z</time><name>PT3966</name></trkpt>
<trkpt lat="53.341061" lon="-1.686776"><ele>160</ele><time>2024-04-13T14:04:34Z</time><name>PT3967</name></trkpt>
<trkpt lat="53.341041" lon="-1.686838"><ele>159</ele><time>2024-04-13T14:04:38Z</time><name>PT3968</name></trkpt>
<trkpt lat="53.341012" lon="-1.686914"><ele>158</ele><time>2024-04-13T14:04:42Z</time><name>PT3969</name></trkpt>
<trkpt lat="53.340996" lon="-1.686984"><ele>157</ele><time>2024-04-13T14:04:46Z</time><name>PT3970</name></trkpt>
<trkpt lat="53.340983" lon="-1.687026"><ele>156</ele><time>2024-04-13T14:04:49Z</time><name>PT3971</name></trkpt>
<trkpt lat="53.340968" lon="-1.687075"><ele>156</ele><time>2024-04-13T14:04:52Z</time><name>PT3972</name></trkpt>
<trkpt lat="53.340965" lon="-1.687112"><ele>153</ele><time>2024-04-13T14:04:55Z</time><name>PT3973</name></trkpt>
<trkpt lat="53.340938" lon="-1.687193"><ele>154</ele><time>2024-04-13T14:04:59Z</time><name>PT3974</name></trkpt>
<trkpt lat="53.340913" lon="-1.687257"><ele>154</ele><time>2024-04-13T14:05:02Z</time><name>PT3975</name></trkpt>
<trkpt lat="53.340894" lon="-1.687338"><ele>153</ele><time>2024-04-13T14:05:06Z</time><name>PT3976</name></trkpt>
<trkpt lat="53.340875" lon="-1.687390"><ele>153</ele><time>2024-04-13T14:05:09Z</time><name>PT3977</name></trkpt>
<trkpt lat="53.340850" lon="-1.687452"><ele>154</ele><time>2024-04-13T14:05:13Z</time><name>PT3978</name></trkpt>
<trkpt lat="53.340837" lon="-1.687512"><ele>153</ele><time>2024-04-13T14:05:16Z</time><name>PT3979</name></trkpt>
<trkpt lat="53.340826" lon="-1.687572"><ele>150</ele><time>2024-04-13T14:05:20Z</time><name>PT3980</name></trkpt>
<trkpt lat="53.340816" lon="-1.687613"><ele>147</ele><time>2024-04-13T14:05:24Z</time><name>PT3981</name></trkpt>
<trkpt lat="53.340795" lon="-1.687675"><ele>147</ele><time>2024-04-13T14:05:27Z</time><name>PT3982</name></trkpt>
<trkpt lat="53.340779" lon="-1.687727"><ele>147</ele><time>2024-04-13T14:05:30Z</time><name>PT3983</name></trkpt>
<trkpt lat="53.340759" lon="-1.687791"><ele>147</ele><time>2024-04-13T14:05:33Z</time><name>PT3984</name></trkpt>
<trkpt lat="53.340725" lon="-1.687873"><ele>147</ele><time>2024-04-13T14:05:37Z</time><name>PT3985</name></trkpt>
<trkpt lat="53.340694" lon="-1.687955"><ele>147</ele><time>2024-04-13T14:05:41Z</time><name>PT3986</name></trkpt>
<trkpt lat="53.340674" lon="-1.688009"><ele>145</ele><time>2024-04-13T14:05:44Z</time><name>PT3987</name></trkpt>
<trkpt lat="53.340638" lon="-1.688095"><ele>146</ele><time>2024-04-13T14:05:48Z</time><name>PT3988</name></trkpt>
<trkpt lat="53.340617" lon="-1.688154"><ele>146</ele><time>2024-04-13T14:05:51Z</time><name>PT3989</name></trkpt>
<trkpt lat="53.340595" lon="-1.688215"><ele>147</ele><time>2024-04-13T14:05:54Z</time><name>PT3990</name></trkpt>
<trkpt lat="53.340570" lon="-1.688277"><ele>149</ele><time>2024-04-13T14:05:58Z</time><name>PT3991</name></trkpt>
<trkpt lat="53.340551" lon="-1.688329"><ele>149</ele><time>2024-04-13T14:06:01Z</time><name>PT3992</name></trkpt>
<trkpt lat="53.340526" lon="-1.688379"><ele>150</ele><time>2024-04-13T14:06:04Z</time><name>PT3993</name></trkpt>
<trkpt lat="53.340490" lon="-1.688453"><ele>149</ele><time>2024-04-13T14:06:08Z</time><name>PT3994</name></trkpt>
<trkpt lat="53.340465" lon="-1.688521"><ele>147</ele><time>2024-04-13T14:06:12Z</time><name>PT3995</name></trkpt>
<trkpt lat="53.340448" lon="-1.688587"><ele>146</ele><time>2024-04-13T14:06:16Z</time><name>PT3996</name></trkpt>
<trkpt lat="53.340419" lon="-1.688679"><ele>145</ele><time>2024-04-13T14:06:20Z</time><name>PT3997</name></trkpt>
<trkpt lat="53.340397" lon="-1.688758"><ele>144</ele><time>2024-04-13T14:06:24Z</time><name>PT3998</name></trkpt>
<trkpt lat="53.340380" lon="-1.688834"><ele>144</ele><time>2024-04-13T14:06:28Z</time><name>PT3999</name></trkpt>
<trkpt lat="53.340351" lon="-1.688941"><ele>146</ele><time>2024-04-13T14:06:32Z</time><name>PT4000</name></trkpt>
<trkpt lat="53.340320" lon="-1.689032"><ele>147</ele><time>2024-04-13T14:06:36Z</time><name>PT4001</name></trkpt>
<trkpt lat="53.340295" lon="-1.689131"><ele>149</ele><time>2024-04-13T14:06:40Z</time><name>PT4002</name></trkpt>
<trkpt lat="53.340284" lon="-1.689211"><ele>151</ele><time>2024-04-13T14:06:43Z</time><name>PT4003</name></trkpt>
<trkpt lat="53.340274" lon="-1.689306"><ele>150</ele><time>2024-04-13T14:06:47Z</time><name>PT4004</name></trkpt>
<trkpt lat="53.340270" lon="-1.689357"><ele>150</ele><time>2024-04-13T14:06:50Z</time><name>PT4005</name></trkpt>
<trkpt lat="53.340265" lon="-1.689419"><ele>150</ele><time>2024-04-13T14:06:53Z</time><name>PT4006</name></trkpt>
<trkpt lat="53.340261" lon="-1.689506"><ele>149</ele><time>2024-04-13T14:06:57Z</time><name>PT4007</name></trkpt>
<trkpt lat="53.340265" lon="-1.689594"><ele>149</ele><time>2024-04-13T14:07:01Z</time><name>PT4008</name></trkpt>
<trkpt lat="53.340270" lon="-1.689664"><ele>150</ele><time>2024-04-13T14:07:05Z</time><name>PT4009</name></trkpt>
<trkpt lat="53.340271" lon="-1.689717"><ele>150</ele><time>2024-04-13T14:07:08Z</time><name>PT4010</name></trkpt>
<trkpt lat="53.340266" lon="-1.689793"><ele>150</ele><time>2024-04-13T14:07:12Z</time><name>PT4011</name></trkpt>
<trkpt lat="53.340252" lon="-1.689849"><ele>150</ele><time>2024-04-13T14:07:15Z</time><name>PT4012</name></trkpt>
<trkpt lat="53.340225" lon="-1.689920"><ele>150</ele><time>2024-04-13T14:07:19Z</time><name>PT4013</name></trkpt>
<trkpt lat="53.340206" lon="-1.689953"><ele>150</ele><time>2024-04-13T14:07:22Z</time><name>PT4014</name></trkpt>
<trkpt lat="53.340178" lon="-1.689983"><ele>150</ele><time>2024-04-13T14:07:26Z</time><name>PT4015</name></trkpt>
<trkpt lat="53.340153" lon="-1.689994"><ele>150</ele><time>2024-04-13T14:07:30Z</time><name>PT4016</name></trkpt>
<trkpt lat="53.340119" lon="-1.689977"><ele>151</ele><time>2024-04-13T14:07:33Z</time><name>PT4017</name></trkpt>
<trkpt lat="53.340090" lon="-1.689950"><ele>150</ele><time>2024-04-13T14:07:36Z</time><name>PT4018</name></trkpt>
<trkpt lat="53.340063" lon="-1.689924"><ele>150</ele><time>2024-04-13T14:07:39Z</time><name>PT4019</name></trkpt>
<trkpt lat="53.340043" lon="-1.689887"><ele>149</ele><time>2024-04-13T14:07:42Z</time><name>PT4020</name></trkpt>
<trkpt lat="53.340023" lon="-1.689858"><ele>148</ele><time>2024-04-13T14:07:45Z</time><name>PT4021</name></trkpt>
<trkpt lat="53.339994" lon="-1.689813"><ele>146</ele><time>2024-04-13T14:07:49Z</time><name>PT4022</name></trkpt>
<trkpt lat="53.339965" lon="-1.689783"><ele>146</ele><time>2024-04-13T14:07:52Z</time><name>PT4023</name></trkpt>
<trkpt lat="53.339931" lon="-1.689751"><ele>146</ele><time>2024-04-13T14:07:56Z</time><name>PT4024</name></trkpt>
<trkpt lat="53.339897" lon="-1.689723"><ele>143</ele><time>2024-04-13T14:08:00Z</time><name>PT4025</name></trkpt>
<trkpt lat="53.339877" lon="-1.689716"><ele>141</ele><time>2024-04-13T14:08:03Z</time><name>PT4026</name></trkpt>
<trkpt lat="53.339838" lon="-1.689676"><ele>141</ele><time>2024-04-13T14:08:07Z</time><name>PT4027</name></trkpt>
<trkpt lat="53.339799" lon="-1.689635"><ele>142</ele><time>2024-04-13T14:08:10Z</time><name>PT4028</name></trkpt>
<trkpt lat="53.339738" lon="-1.689561"><ele>150</ele><time>2024-04-13T14:08:14Z</time><name>PT4029</name></trkpt>
<trkpt lat="53.339724" lon="-1.689547"><ele>152</ele><time>2024-04-13T14:08:18Z</time><name>PT4030</name></trkpt>
<trkpt lat="53.339681" lon="-1.689533"><ele>151</ele><time>2024-04-13T14:08:22Z</time><name>PT4031</name></trkpt>
<trkpt lat="53.339643" lon="-1.689522"><ele>150</ele><time>2024-04-13T14:08:26Z</time><name>PT4032</name></trkpt>
<trkpt lat="53.339602" lon="-1.689526"><ele>147</ele><time>2024-04-13T14:08:30Z</time><name>PT4033</name></trkpt>
<trkpt lat="53.339544" lon="-1.689523"><ele>147</ele><time>2024-04-13T14:08:34Z</time><name>PT4034</name></trkpt>
<trkpt lat="53.339503" lon="-1.689539"><ele>145</ele><time>2024-04-13T14:08:38Z</time><name>PT4035</name></trkpt>
<trkpt lat="53.339456" lon="-1.689541"><ele>144</ele><time>2024-04-13T14:08:42Z</time><name>PT4036</name></trkpt>
<trkpt lat="53.339394" lon="-1.689579"><ele>145</ele><time>2024-04-13T14:08:46Z</time><name>PT4037</name></trkpt>
<trkpt lat="53.339338" lon="-1.689616"><ele>149</ele><time>2024-04-13T14:08:49Z</time><name>PT4038</name></trkpt>
<trkpt lat="53.339277" lon="-1.689661"><ele>151</ele><time>2024-04-13T14:08:53Z</time><name>PT4039</name></trkpt>
<trkpt lat="53.339229" lon="-1.689714"><ele>151</ele><time>2024-04-13T14:08:57Z</time><name>PT4040</name></trkpt>
<trkpt lat="53.339186" lon="-1.689755"><ele>150</ele><time>2024-04-13T14:09:01Z</time><name>PT4041</name></trkpt>
<trkpt lat="53.339153" lon="-1.689783"><ele>150</ele><time>2024-04-13T14:09:04Z</time><name>PT4042</name></trkpt>
<trkpt lat="53.339116" lon="-1.689808"><ele>150</ele><time>2024-04-13T14:09:07Z</time><name>PT4043</name></trkpt>
<trkpt lat="53.339063" lon="-1.689832"><ele>150</ele><time>2024-04-13T14:09:11Z</time><name>PT4044</name></trkpt>
<trkpt lat="53.339016" lon="-1.689857"><ele>149</ele><time>2024-04-13T14:09:15Z</time><name>PT4045</name></trkpt>
<trkpt lat="53.338975" lon="-1.689872"><ele>149</ele><time>2024-04-13T14:09:18Z</time><name>PT4046</name></trkpt>
<trkpt lat="53.338930" lon="-1.689889"><ele>150</ele><time>2024-04-13T14:09:21Z</time><name>PT4047</name></trkpt>
<trkpt lat="53.338880" lon="-1.689898"><ele>149</ele><time>2024-04-13T14:09:25Z</time><name>PT4048</name></trkpt>
<trkpt lat="53.338834" lon="-1.689914"><ele>149</ele><time>2024-04-13T14:09:29Z</time><name>PT4049</name></trkpt>
<trkpt lat="53.338820" lon="-1.689927"><ele>150</ele><time>2024-04-13T14:09:32Z</time><name>PT4050</name></trkpt>
<trkpt lat="53.338812" lon="-1.689943"><ele>150</ele><time>2024-04-13T14:09:35Z</time><name>PT4051</name></trkpt>
<trkpt lat="53.338791" lon="-1.690021"><ele>150</ele><time>2024-04-13T14:09:39Z</time><name>PT4052</name></trkpt>
<trkpt lat="53.338753" lon="-1.690085"><ele>151</ele><time>2024-04-13T14:09:43Z</time><name>PT4053</name></trkpt>
<trkpt lat="53.338742" lon="-1.690113"><ele>152</ele><time>2024-04-13T14:09:46Z</time><name>PT4054</name></trkpt>
<trkpt lat="53.338728" lon="-1.690157"><ele>152</ele><time>2024-04-13T14:09:50Z</time><name>PT4055</name></trkpt>
<trkpt lat="53.338726" lon="-1.690172"><ele>153</ele><time>2024-04-13T14:09:54Z</time><name>PT4056</name></trkpt>
<trkpt lat="53.338725" lon="-1.690175"><ele>152</ele><time>2024-04-13T14:09:57Z</time><name>PT4057</name></trkpt>
<trkpt lat="53.338722" lon="-1.690256"><ele>152</ele><time>2024-04-13T14:10:01Z</time><name>PT4058</name></trkpt>
<trkpt lat="53.338723" lon="-1.690322"><ele>152</ele><time>2024-04-13T14:10:04Z</time><name>PT4059</name></trkpt>
<trkpt lat="53.338730" lon="-1.690396"><ele>152</ele><time>2024-04-13T14:10:08Z</time><name>PT4060</name></trkpt>
<trkpt lat="53.338741" lon="-1.690445"><ele>151</ele><time>2024-04-13T14:10:11Z</time><name>PT4061</name></trkpt>
<trkpt lat="53.338748" lon="-1.690509"><ele>149</ele><time>2024-04-13T14:10:15Z</time><name>PT4062</name></trkpt>
<trkpt lat="53.338754" lon="-1.690573"><ele>148</ele><time>2024-04-13T14:10:19Z</time><name>PT4063</name></trkpt>
<trkpt lat="53.338763" lon="-1.690661"><ele>147</ele><time>2024-04-13T14:10:23Z</time><name>PT4064</name></trkpt>
<trkpt lat="53.338779" lon="-1.690743"><ele>146</ele><time>2024-04-13T14:10:27Z</time><name>PT4065</name></trkpt>
<trkpt lat="53.338791" lon="-1.690795"><ele>146</ele><time>2024-04-13T14:10:30Z</time><name>PT4066</name></trkpt>
<trkpt lat="53.338797" lon="-1.690866"><ele>146</ele><time>2024-04-13T14:10:33Z</time><name>PT4067</name></trkpt>
<trkpt lat="53.338806" lon="-1.690942"><ele>147</ele><time>2024-04-13T14:10:36Z</time><name>PT4068</name></trkpt>
<trkpt lat="53.338809" lon="-1.691029"><ele>146</ele><time>2024-04-13T14:10:40Z</time><name>PT4069</name></trkpt>
<trkpt lat="53.338812" lon="-1.691095"><ele>146</ele><time>2024-04-13T14:10:43Z</time><name>PT4070</name></trkpt>
<trkpt lat="53.338827" lon="-1.691126"><ele>145</ele><time>2024-04-13T14:10:46Z</time><name>PT4071</name></trkpt>
<trkpt lat="53.338830" lon="-1.691154"><ele>144</ele><time>2024-04-13T14:10:49Z</time><name>PT4072</name></trkpt>
<trkpt lat="53.338827" lon="-1.691236"><ele>141</ele><time>2024-04-13T14:10:53Z</time><name>PT4073</name></trkpt>
<trkpt lat="53.338837" lon="-1.691302"><ele>141</ele><time>2024-04-13T14:10:56Z</time><name>PT4074</name></trkpt>
<trkpt lat="53.338843" lon="-1.691384"><ele>140</ele><time>2024-04-13T14:11:00Z</time><name>PT4075</name></trkpt>
<trkpt lat="53.338858" lon="-1.691435"><ele>139</ele><time>2024-04-13T14:11:03Z</time><name>PT4076</name></trkpt>
<trkpt lat="53.338870" lon="-1.691479"><ele>138</ele><time>2024-04-13T14:11:07Z</time><name>PT4077</name></trkpt>
<trkpt lat="53.338898" lon="-1.691540"><ele>137</ele><time>2024-04-13T14:11:11Z</time><name>PT4078</name></trkpt>
<trkpt lat="53.338918" lon="-1.691620"><ele>136</ele><time>2024-04-13T14:11:15Z</time><name>PT4079</name></trkpt>
<trkpt lat="53.338941" lon="-1.691676"><ele>136</ele><time>2024-04-13T14:11:18Z</time><name>PT4080</name></trkpt>
<trkpt lat="53.338958" lon="-1.691760"><ele>136</ele><time>2024-04-13T14:11:22Z</time><name>PT4081</name></trkpt>
<trkpt lat="53.338972" lon="-1.691838"><ele>138</ele><time>2024-04-13T14:11:25Z</time><name>PT4082</name></trkpt>
<trkpt lat="53.338985" lon="-1.691940"><ele>140</ele><time>2024-04-13T14:11:28Z</time><name>PT4083</name></trkpt>
<trkpt lat="53.339010" lon="-1.692071"><ele>143</ele><time>2024-04-13T14:11:32Z</time><name>PT4084</name></trkpt>
<trkpt lat="53.339022" lon="-1.692187"><ele>145</ele><time>2024-04-13T14:11:36Z</time><name>PT4085</name></trkpt>
<trkpt lat="53.339026" lon="-1.692272"><ele>145</ele><time>2024-04-13T14:11:39Z</time><name>PT4086</name></trkpt>
<trkpt lat="53.339036" lon="-1.692372"><ele>146</ele><time>2024-04-13T14:11:43Z</time><name>PT4087</name></trkpt>
<trkpt lat="53.339042" lon="-1.692439"><ele>145</ele><time>2024-04-13T14:11:46Z</time><name>PT4088</name></trkpt>
<trkpt lat="53.339050" lon="-1.692531"><ele>145</ele><time>2024-04-13T14:11:50Z</time><name>PT4089</name></trkpt>
<trkpt lat="53.339053" lon="-1.692608"><ele>146</ele><time>2024-04-13T14:11:53Z</time><name>PT4090</name></trkpt>
<trkpt lat="53.339057" lon="-1.692706"><ele>146</ele><time>2024-04-13T14:11:57Z</time><name>PT4091</name></trkpt>
<trkpt lat="53.339059" lon="-1.692775"><ele>146</ele><time>2024-04-13T14:12:00Z</time><name>PT4092</name></trkpt>
<trkpt lat="53.339069" lon="-1.692838"><ele>146</ele><time>2024-04-13T14:12:03Z</time><name>PT4093</name></trkpt>
<trkpt lat="53.339077" lon="-1.692919"><ele>146</ele><time>2024-04-13T14:12:07Z</time><name>PT4094</name></trkpt>
<trkpt lat="53.339078" lon="-1.693003"><ele>146</ele><time>2024-04-13T14:12:11Z</time><name>PT4095</name></trkpt>
<trkpt lat="53.339077" lon="-1.693068"><ele>146</ele><time>2024-04-13T14:12:14Z</time><name>PT4096</name></trkpt>
<trkpt lat="53.339077" lon="-1.693154"><ele>146</ele><time>2024-04-13T14:12:18Z</time><name>PT4097</name></trkpt>
<trkpt lat="53.339079" lon="-1.693221"><ele>146</ele><time>2024-04-13T14:12:21Z</time><name>PT4098</name></trkpt>
<trkpt lat="53.339084" lon="-1.693313"><ele>147</ele><time>2024-04-13T14:12:25Z</time><name>PT4099</name></trkpt>
<trkpt lat="53.339087" lon="-1.693382"><ele>147</ele><time>2024-04-13T14:12:28Z</time><name>PT4100</name></trkpt>
<trkpt lat="53.339088" lon="-1.693453"><ele>147</ele><time>2024-04-13T14:12:31Z</time><name>PT4101</name></trkpt>
<trkpt lat="53.339094" lon="-1.693541"><ele>147</ele><time>2024-04-13T14:12:35Z</time><name>PT4102</name></trkpt>
<trkpt lat="53.339093" lon="-1.693623"><ele>148</ele><time>2024-04-13T14:12:39Z</time><name>PT4103</name></trkpt>
<trkpt lat="53.339100" lon="-1.693663"><ele>148</ele><time>2024-04-13T14:12:42Z</time><name>PT4104</name></trkpt>
<trkpt lat="53.339137" lon="-1.693687"><ele>149</ele><time>2024-04-13T14:12:46Z</time><name>PT4105</name></trkpt>
<trkpt lat="53.339182" lon="-1.693711"><ele>149</ele><time>2024-04-13T14:12:50Z</time><name>PT4106</name></trkpt>
<trkpt lat="53.339227" lon="-1.693731"><ele>149</ele><time>2024-04-13T14:12:54Z</time><name>PT4107</name></trkpt>
<trkpt lat="53.339260" lon="-1.693743"><ele>149</ele><time>2024-04-13T14:12:57Z</time><name>PT4108</name></trkpt>
<trkpt lat="53.339305" lon="-1.693747"><ele>148</ele><time>2024-04-13T14:13:01Z</time><name>PT4109</name></trkpt>
<trkpt lat="53.339341" lon="-1.693760"><ele>147</ele><time>2024-04-13T14:13:04Z</time><name>PT4110</name></trkpt>
<trkpt lat="53.339378" lon="-1.693772"><ele>147</ele><time>2024-04-13T14:13:07Z</time><name>PT4111</name></trkpt>
<trkpt lat="53.339410" lon="-1.693799"><ele>147</ele><time>2024-04-13T14:13:11Z</time><name>PT4112</name></trkpt>
<trkpt lat="53.339442" lon="-1.693841"><ele>147</ele><time>2024-04-13T14:13:14Z</time><name>PT4113</name></trkpt>
<trkpt lat="53.339488" lon="-1.693890"><ele>147</ele><time>2024-04-13T14:13:18Z</time><name>PT4114</name></trkpt>
<trkpt lat="53.339501" lon="-1.693916"><ele>147</ele><time>2024-04-13T14:13:21Z</time><name>PT4115</name></trkpt>
<trkpt lat="53.339538" lon="-1.693967"><ele>147</ele><time>2024-04-13T14:13:24Z</time><name>PT4116</name></trkpt>
<trkpt lat="53.339577" lon="-1.694026"><ele>147</ele><time>2024-04-13T14:13:27Z</time><name>PT4117</name></trkpt>
<trkpt lat="53.339597" lon="-1.694065"><ele>148</ele><time>2024-04-13T14:13:30Z</time><name>PT4118</name></trkpt>
<trkpt lat="53.339623" lon="-1.694118"><ele>146</ele><time>2024-04-13T14:13:33Z</time><name>PT4119</name></trkpt>
<trkpt lat="53.339682" lon="-1.694176"><ele>148</ele><time>2024-04-13T14:13:37Z</time><name>PT4120</name></trkpt>
<trkpt lat="53.339708" lon="-1.694242"><ele>148</ele><time>2024-04-13T14:13:41Z</time><name>PT4121</name></trkpt>
<trkpt lat="53.339747" lon="-1.694319"><ele>148</ele><time>2024-04-13T14:13:44Z</time><name>PT4122</name></trkpt>
<trkpt lat="53.339778" lon="-1.694392"><ele>148</ele><time>2024-04-13T14:13:48Z</time><name>PT4123</name></trkpt>
<trkpt lat="53.339795" lon="-1.694430"><ele>148</ele><time>2024-04-13T14:13:51Z</time><name>PT4124</name></trkpt>
<trkpt lat="53.339828" lon="-1.694543"><ele>147</ele><time>2024-04-13T14:13:55Z</time><name>PT4125</name></trkpt>
<trkpt lat="53.339848" lon="-1.694593"><ele>146</ele><time>2024-04-13T14:13:58Z</time><name>PT4126</name></trkpt>
<trkpt lat="53.339869" lon="-1.694644"><ele>147</ele><time>2024-04-13T14:14:01Z</time><name>PT4127</name></trkpt>
<trkpt lat="53.339918" lon="-1.694721"><ele>148</ele><time>2024-04-13T14:14:05Z</time><name>PT4128</name></trkpt>
<trkpt lat="53.339931" lon="-1.694761"><ele>148</ele><time>2024-04-13T14:14:08Z</time><name>PT4129</name></trkpt>
<trkpt lat="53.339966" lon="-1.694831"><ele>149</ele><time>2024-04-13T14:14:11Z</time><name>PT4130</name></trkpt>
<trkpt lat="53.339991" lon="-1.694893"><ele>149</ele><time>2024-04-13T14:14:15Z</time><name>PT4131</name></trkpt>
<trkpt lat="53.340036" lon="-1.694972"><ele>151</ele><time>2024-04-13T14:14:19Z</time><name>PT4132</name></trkpt>
<trkpt lat="53.340051" lon="-1.695040"><ele>151</ele><time>2024-04-13T14:14:22Z</time><name>PT4133</name></trkpt>
<trkpt lat="53.340071" lon="-1.695099"><ele>152</ele><time>2024-04-13T14:14:26Z</time><name>PT4134</name></trkpt>
<trkpt lat="53.340090" lon="-1.695159"><ele>151</ele><time>2024-04-13T14:14:29Z</time><name>PT4135</name></trkpt>
<trkpt lat="53.340116" lon="-1.695255"><ele>150</ele><time>2024-04-13T14:14:33Z</time><name>PT4136</name></trkpt>
<trkpt lat="53.340120" lon="-1.695327"><ele>152</ele><time>2024-04-13T14:14:36Z</time><name>PT4137</name></trkpt>
<trkpt lat="53.340136" lon="-1.695413"><ele>149</ele><time>2024-04-13T14:14:40Z</time><name>PT4138</name></trkpt>
<trkpt lat="53.340137" lon="-1.695495"><ele>148</ele><time>2024-04-13T14:14:44Z</time><name>PT4139</name></trkpt>
<trkpt lat="53.340145" lon="-1.695552"><ele>148</ele><time>2024-04-13T14:14:47Z</time><name>PT4140</name></trkpt>
<trkpt lat="53.340143" lon="-1.695651"><ele>146</ele><time>2024-04-13T14:14:51Z</time><name>PT4141</name></trkpt>
<trkpt lat="53.340138" lon="-1.695714"><ele>146</ele><time>2024-04-13T14:14:55Z</time><name>PT4142</name></trkpt>
<trkpt lat="53.340139" lon="-1.695791"><ele>146</ele><time>2024-04-13T14:14:58Z</time><name>PT4143</name></trkpt>
<trkpt lat="53.340140" lon="-1.695853"><ele>145</ele><time>2024-04-13T14:15:01Z</time><name>PT4144</name></trkpt>
<trkpt lat="53.340134" lon="-1.695932"><ele>145</ele><time>2024-04-13T14:15:05Z</time><name>PT4145</name></trkpt>
<trkpt lat="53.340121" lon="-1.696008"><ele>148</ele><time>2024-04-13T14:15:09Z</time><name>PT4146</name></trkpt>
<trkpt lat="53.340104" lon="-1.696032"><ele>147</ele><time>2024-04-13T14:15:13Z</time><name>PT4147</name></trkpt>
<trkpt lat="53.340095" lon="-1.696045"><ele>147</ele><time>2024-04-13T14:15:17Z</time><name>PT4148</name></trkpt>
<trkpt lat="53.340071" lon="-1.696084"><ele>147</ele><time>2024-04-13T14:15:20Z</time><name>PT4149</name></trkpt>
<trkpt lat="53.340036" lon="-1.696131"><ele>145</ele><time>2024-04-13T14:15:24Z</time><name>PT4150</name></trkpt>
<trkpt lat="53.339983" lon="-1.696157"><ele>147</ele><time>2024-04-13T14:15:28Z</time><name>PT4151</name></trkpt>
<trkpt lat="53.339937" lon="-1.696153"><ele>149</ele><time>2024-04-13T14:15:31Z</time><name>PT4152</name></trkpt>
<trkpt lat="53.339895" lon="-1.696137"><ele>150</ele><time>2024-04-13T14:15:34Z</time><name>PT4153</name></trkpt>
<trkpt lat="53.339840" lon="-1.696130"><ele>149</ele><time>2024-04-13T14:15:38Z</time><name>PT4154</name></trkpt>
<trkpt lat="53.339788" lon="-1.696148"><ele>148</ele><time>2024-04-13T14:15:42Z</time><name>PT4155</name></trkpt>
<trkpt lat="53.339754" lon="-1.696174"><ele>148</ele><time>2024-04-13T14:15:45Z</time><name>PT4156</name></trkpt>
<trkpt lat="53.339718" lon="-1.696219"><ele>148</ele><time>2024-04-13T14:15:49Z</time><name>PT4157</name></trkpt>
<trkpt lat="53.339688" lon="-1.696238"><ele>148</ele><time>2024-04-13T14:15:52Z</time><name>PT4158</name></trkpt>
<trkpt lat="53.339677" lon="-1.696235"><ele>149</ele><time>2024-04-13T14:15:56Z</time><name>PT4159</name></trkpt></trkseg></trk></gpx>